<?xml version="1.0" encoding="UTF-8" standalone="no" ?>
<gpx xmlns="http://www.topografix.com/GPX/1/1" xmlns:xsi="http://www.w3.org/2001/XMLSchema-instance" xsi:schemaLocation="http://www.topografix.com/GPX/1/1 http://www.topografix.com/GPX/1/1/gpx.xsd" version="1.1" creator="VisuGPX - https://www.visugpx.com">
  <metadata>
    <name>MB 16/01/2020</name>
    <desc><![CDATA[
Sortie VTT du jeudi 16 janvier 2020]]></desc>
  </metadata>
  <trk>
    <name><![CDATA[Pornichet Cyclisme]]></name>
    <trkseg>
      <trkpt lat="47.26439" lon="-2.31554">
        <ele>11.7</ele>
        <time>2020-01-16T08:28:16.000Z</time>
      </trkpt>
      <trkpt lat="47.2644" lon="-2.31558">
        <ele>11.6</ele>
        <time>2020-01-16T08:28:17.000Z</time>
      </trkpt>
      <trkpt lat="47.2644" lon="-2.31568">
        <ele>11.3</ele>
        <time>2020-01-16T08:28:20.000Z</time>
      </trkpt>
      <trkpt lat="47.2644" lon="-2.31572">
        <ele>-0.80000001192093</ele>
        <time>2020-01-16T08:28:21.000Z</time>
      </trkpt>
      <trkpt lat="47.2644" lon="-2.31577">
        <ele>-1.2000000476837</ele>
        <time>2020-01-16T08:28:22.000Z</time>
      </trkpt>
      <trkpt lat="47.26441" lon="-2.31595">
        <ele>-1.2000000476837</ele>
        <time>2020-01-16T08:28:25.000Z</time>
      </trkpt>
      <trkpt lat="47.26441" lon="-2.31609">
        <ele>-1.2000000476837</ele>
        <time>2020-01-16T08:28:27.000Z</time>
      </trkpt>
      <trkpt lat="47.26438" lon="-2.31641">
        <ele>-1.2000000476837</ele>
        <time>2020-01-16T08:28:33.000Z</time>
      </trkpt>
      <trkpt lat="47.26434" lon="-2.31643">
        <ele>-1.2000000476837</ele>
        <time>2020-01-16T08:28:34.000Z</time>
      </trkpt>
      <trkpt lat="47.26417" lon="-2.31647">
        <ele>-1.2000000476837</ele>
        <time>2020-01-16T08:28:37.000Z</time>
      </trkpt>
      <trkpt lat="47.26408" lon="-2.31647">
        <ele>-1.2000000476837</ele>
        <time>2020-01-16T08:28:38.000Z</time>
      </trkpt>
      <trkpt lat="47.26384" lon="-2.31651">
        <ele>-1.2000000476837</ele>
        <time>2020-01-16T08:28:43.000Z</time>
      </trkpt>
      <trkpt lat="47.26358" lon="-2.31665">
        <ele>-1.2000000476837</ele>
        <time>2020-01-16T08:28:49.000Z</time>
      </trkpt>
      <trkpt lat="47.26349" lon="-2.31671">
        <ele>-1.3999999761581</ele>
        <time>2020-01-16T08:28:51.000Z</time>
      </trkpt>
      <trkpt lat="47.26345" lon="-2.31673">
        <ele>-1.6000000238419</ele>
        <time>2020-01-16T08:28:52.000Z</time>
      </trkpt>
      <trkpt lat="47.2634" lon="-2.31675">
        <ele>-2</ele>
        <time>2020-01-16T08:28:53.000Z</time>
      </trkpt>
      <trkpt lat="47.26336" lon="-2.31676">
        <ele>-2.2000000476837</ele>
        <time>2020-01-16T08:28:54.000Z</time>
      </trkpt>
      <trkpt lat="47.26331" lon="-2.31679">
        <ele>-2.4000000953674</ele>
        <time>2020-01-16T08:28:55.000Z</time>
      </trkpt>
      <trkpt lat="47.26306" lon="-2.31689">
        <ele>-2.4000000953674</ele>
        <time>2020-01-16T08:29:00.000Z</time>
      </trkpt>
      <trkpt lat="47.26303" lon="-2.31688">
        <ele>-2.4000000953674</ele>
        <time>2020-01-16T08:29:01.000Z</time>
      </trkpt>
      <trkpt lat="47.263" lon="-2.31686">
        <ele>-2.7999999523163</ele>
        <time>2020-01-16T08:29:02.000Z</time>
      </trkpt>
      <trkpt lat="47.26298" lon="-2.31684">
        <ele>-3.2000000476837</ele>
        <time>2020-01-16T08:29:03.000Z</time>
      </trkpt>
      <trkpt lat="47.26295" lon="-2.31679">
        <ele>-3.5999999046326</ele>
        <time>2020-01-16T08:29:04.000Z</time>
      </trkpt>
      <trkpt lat="47.26293" lon="-2.31675">
        <ele>-4</ele>
        <time>2020-01-16T08:29:05.000Z</time>
      </trkpt>
      <trkpt lat="47.2629" lon="-2.31669">
        <ele>-4.4000000953674</ele>
        <time>2020-01-16T08:29:06.000Z</time>
      </trkpt>
      <trkpt lat="47.26287" lon="-2.31664">
        <ele>-4.4000000953674</ele>
        <time>2020-01-16T08:29:07.000Z</time>
      </trkpt>
      <trkpt lat="47.26284" lon="-2.31659">
        <ele>-4.4000000953674</ele>
        <time>2020-01-16T08:29:08.000Z</time>
      </trkpt>
      <trkpt lat="47.26272" lon="-2.31635">
        <ele>-4.4000000953674</ele>
        <time>2020-01-16T08:29:13.000Z</time>
      </trkpt>
      <trkpt lat="47.26263" lon="-2.31614">
        <ele>-4.4000000953674</ele>
        <time>2020-01-16T08:29:18.000Z</time>
      </trkpt>
      <trkpt lat="47.26256" lon="-2.31605">
        <ele>-4.4000000953674</ele>
        <time>2020-01-16T08:29:20.000Z</time>
      </trkpt>
      <trkpt lat="47.26249" lon="-2.31595">
        <ele>-4.4000000953674</ele>
        <time>2020-01-16T08:29:22.000Z</time>
      </trkpt>
      <trkpt lat="47.26245" lon="-2.31592">
        <ele>-4.4000000953674</ele>
        <time>2020-01-16T08:29:23.000Z</time>
      </trkpt>
      <trkpt lat="47.26234" lon="-2.31585">
        <ele>-4.4000000953674</ele>
        <time>2020-01-16T08:29:26.000Z</time>
      </trkpt>
      <trkpt lat="47.26225" lon="-2.31582">
        <ele>-4.4000000953674</ele>
        <time>2020-01-16T08:29:28.000Z</time>
      </trkpt>
      <trkpt lat="47.26216" lon="-2.31581">
        <ele>-4.4000000953674</ele>
        <time>2020-01-16T08:29:30.000Z</time>
      </trkpt>
      <trkpt lat="47.26211" lon="-2.31581">
        <ele>-4.4000000953674</ele>
        <time>2020-01-16T08:29:31.000Z</time>
      </trkpt>
      <trkpt lat="47.26178" lon="-2.31585">
        <ele>-4.4000000953674</ele>
        <time>2020-01-16T08:29:37.000Z</time>
      </trkpt>
      <trkpt lat="47.26146" lon="-2.31594">
        <ele>-4.4000000953674</ele>
        <time>2020-01-16T08:29:44.000Z</time>
      </trkpt>
      <trkpt lat="47.26131" lon="-2.31597">
        <ele>-4.4000000953674</ele>
        <time>2020-01-16T08:29:48.000Z</time>
      </trkpt>
      <trkpt lat="47.26114" lon="-2.31596">
        <ele>-4.4000000953674</ele>
        <time>2020-01-16T08:29:52.000Z</time>
      </trkpt>
      <trkpt lat="47.26106" lon="-2.31594">
        <ele>-4.4000000953674</ele>
        <time>2020-01-16T08:29:54.000Z</time>
      </trkpt>
      <trkpt lat="47.26102" lon="-2.3159">
        <ele>-4.4000000953674</ele>
        <time>2020-01-16T08:29:55.000Z</time>
      </trkpt>
      <trkpt lat="47.26095" lon="-2.31577">
        <ele>-4.4000000953674</ele>
        <time>2020-01-16T08:29:58.000Z</time>
      </trkpt>
      <trkpt lat="47.26084" lon="-2.31567">
        <ele>-4.4000000953674</ele>
        <time>2020-01-16T08:30:02.000Z</time>
      </trkpt>
      <trkpt lat="47.26074" lon="-2.31577">
        <ele>-4.4000000953674</ele>
        <time>2020-01-16T08:30:05.000Z</time>
      </trkpt>
      <trkpt lat="47.26051" lon="-2.31607">
        <ele>-4.4000000953674</ele>
        <time>2020-01-16T08:30:12.000Z</time>
      </trkpt>
      <trkpt lat="47.26032" lon="-2.31628">
        <ele>-4</ele>
        <time>2020-01-16T08:30:17.000Z</time>
      </trkpt>
      <trkpt lat="47.26028" lon="-2.31632">
        <ele>-3.5999999046326</ele>
        <time>2020-01-16T08:30:18.000Z</time>
      </trkpt>
      <trkpt lat="47.26024" lon="-2.31635">
        <ele>-3.2000000476837</ele>
        <time>2020-01-16T08:30:19.000Z</time>
      </trkpt>
      <trkpt lat="47.2602" lon="-2.31638">
        <ele>-2.7999999523163</ele>
        <time>2020-01-16T08:30:20.000Z</time>
      </trkpt>
      <trkpt lat="47.26015" lon="-2.31642">
        <ele>-2.4000000953674</ele>
        <time>2020-01-16T08:30:21.000Z</time>
      </trkpt>
      <trkpt lat="47.26001" lon="-2.31642">
        <ele>-2.4000000953674</ele>
        <time>2020-01-16T08:30:24.000Z</time>
      </trkpt>
      <trkpt lat="47.25994" lon="-2.31637">
        <ele>-2.4000000953674</ele>
        <time>2020-01-16T08:30:26.000Z</time>
      </trkpt>
      <trkpt lat="47.25988" lon="-2.31631">
        <ele>-2.4000000953674</ele>
        <time>2020-01-16T08:30:28.000Z</time>
      </trkpt>
      <trkpt lat="47.25972" lon="-2.31612">
        <ele>-2.4000000953674</ele>
        <time>2020-01-16T08:30:33.000Z</time>
      </trkpt>
      <trkpt lat="47.25953" lon="-2.31587">
        <ele>-2.4000000953674</ele>
        <time>2020-01-16T08:30:39.000Z</time>
      </trkpt>
      <trkpt lat="47.2595" lon="-2.31582">
        <ele>-2</ele>
        <time>2020-01-16T08:30:40.000Z</time>
      </trkpt>
      <trkpt lat="47.25947" lon="-2.31578">
        <ele>-1.6000000238419</ele>
        <time>2020-01-16T08:30:41.000Z</time>
      </trkpt>
      <trkpt lat="47.25945" lon="-2.31573">
        <ele>-1.2000000476837</ele>
        <time>2020-01-16T08:30:42.000Z</time>
      </trkpt>
      <trkpt lat="47.25942" lon="-2.31567">
        <ele>-0.80000001192093</ele>
        <time>2020-01-16T08:30:43.000Z</time>
      </trkpt>
      <trkpt lat="47.2594" lon="-2.3156">
        <ele>-0.40000000596046</ele>
        <time>2020-01-16T08:30:44.000Z</time>
      </trkpt>
      <trkpt lat="47.25938" lon="-2.31554">
        <ele>-0.40000000596046</ele>
        <time>2020-01-16T08:30:45.000Z</time>
      </trkpt>
      <trkpt lat="47.25929" lon="-2.31537">
        <ele>-0.40000000596046</ele>
        <time>2020-01-16T08:30:48.000Z</time>
      </trkpt>
      <trkpt lat="47.25921" lon="-2.31529">
        <ele>-0.40000000596046</ele>
        <time>2020-01-16T08:30:50.000Z</time>
      </trkpt>
      <trkpt lat="47.25909" lon="-2.31521">
        <ele>-0.40000000596046</ele>
        <time>2020-01-16T08:30:53.000Z</time>
      </trkpt>
      <trkpt lat="47.25901" lon="-2.31527">
        <ele>-0.40000000596046</ele>
        <time>2020-01-16T08:30:55.000Z</time>
      </trkpt>
      <trkpt lat="47.25894" lon="-2.31544">
        <ele>-0.40000000596046</ele>
        <time>2020-01-16T08:30:58.000Z</time>
      </trkpt>
      <trkpt lat="47.25892" lon="-2.31549">
        <ele>-0.40000000596046</ele>
        <time>2020-01-16T08:30:59.000Z</time>
      </trkpt>
      <trkpt lat="47.25883" lon="-2.31571">
        <ele>-0.40000000596046</ele>
        <time>2020-01-16T08:31:03.000Z</time>
      </trkpt>
      <trkpt lat="47.25876" lon="-2.31578">
        <ele>-0.40000000596046</ele>
        <time>2020-01-16T08:31:05.000Z</time>
      </trkpt>
      <trkpt lat="47.25873" lon="-2.31582">
        <ele>10.5</ele>
        <time>2020-01-16T08:31:06.000Z</time>
      </trkpt>
      <trkpt lat="47.2587" lon="-2.31585">
        <ele>0.60000002384186</ele>
        <time>2020-01-16T08:31:07.000Z</time>
      </trkpt>
      <trkpt lat="47.25866" lon="-2.31589">
        <ele>1</ele>
        <time>2020-01-16T08:31:08.000Z</time>
      </trkpt>
      <trkpt lat="47.25863" lon="-2.31592">
        <ele>1.3999999761581</ele>
        <time>2020-01-16T08:31:09.000Z</time>
      </trkpt>
      <trkpt lat="47.2586" lon="-2.31596">
        <ele>2</ele>
        <time>2020-01-16T08:31:10.000Z</time>
      </trkpt>
      <trkpt lat="47.2585" lon="-2.31606">
        <ele>2</ele>
        <time>2020-01-16T08:31:13.000Z</time>
      </trkpt>
      <trkpt lat="47.2583" lon="-2.31622">
        <ele>2</ele>
        <time>2020-01-16T08:31:19.000Z</time>
      </trkpt>
      <trkpt lat="47.25827" lon="-2.31625">
        <ele>2.4000000953674</ele>
        <time>2020-01-16T08:31:20.000Z</time>
      </trkpt>
      <trkpt lat="47.25823" lon="-2.31628">
        <ele>2.7999999523163</ele>
        <time>2020-01-16T08:31:21.000Z</time>
      </trkpt>
      <trkpt lat="47.2582" lon="-2.3163">
        <ele>3.2000000476837</ele>
        <time>2020-01-16T08:31:22.000Z</time>
      </trkpt>
      <trkpt lat="47.25817" lon="-2.31633">
        <ele>3.5999999046326</ele>
        <time>2020-01-16T08:31:23.000Z</time>
      </trkpt>
      <trkpt lat="47.25813" lon="-2.31635">
        <ele>4</ele>
        <time>2020-01-16T08:31:24.000Z</time>
      </trkpt>
      <trkpt lat="47.25806" lon="-2.31641">
        <ele>4</ele>
        <time>2020-01-16T08:31:26.000Z</time>
      </trkpt>
      <trkpt lat="47.25778" lon="-2.31662">
        <ele>4</ele>
        <time>2020-01-16T08:31:33.000Z</time>
      </trkpt>
      <trkpt lat="47.25747" lon="-2.31685">
        <ele>3.2000000476837</ele>
        <time>2020-01-16T08:31:40.000Z</time>
      </trkpt>
      <trkpt lat="47.25742" lon="-2.3169">
        <ele>2.7999999523163</ele>
        <time>2020-01-16T08:31:41.000Z</time>
      </trkpt>
      <trkpt lat="47.25737" lon="-2.31694">
        <ele>2.4000000953674</ele>
        <time>2020-01-16T08:31:42.000Z</time>
      </trkpt>
      <trkpt lat="47.25732" lon="-2.31696">
        <ele>2</ele>
        <time>2020-01-16T08:31:43.000Z</time>
      </trkpt>
      <trkpt lat="47.25722" lon="-2.317">
        <ele>2</ele>
        <time>2020-01-16T08:31:45.000Z</time>
      </trkpt>
      <trkpt lat="47.25717" lon="-2.31699">
        <ele>2</ele>
        <time>2020-01-16T08:31:46.000Z</time>
      </trkpt>
      <trkpt lat="47.25709" lon="-2.31695">
        <ele>2</ele>
        <time>2020-01-16T08:31:48.000Z</time>
      </trkpt>
      <trkpt lat="47.2568" lon="-2.31682">
        <ele>2</ele>
        <time>2020-01-16T08:31:55.000Z</time>
      </trkpt>
      <trkpt lat="47.25672" lon="-2.3168">
        <ele>2</ele>
        <time>2020-01-16T08:31:57.000Z</time>
      </trkpt>
      <trkpt lat="47.25665" lon="-2.31685">
        <ele>2</ele>
        <time>2020-01-16T08:31:59.000Z</time>
      </trkpt>
      <trkpt lat="47.25657" lon="-2.31689">
        <ele>2</ele>
        <time>2020-01-16T08:32:01.000Z</time>
      </trkpt>
      <trkpt lat="47.25651" lon="-2.31693">
        <ele>2</ele>
        <time>2020-01-16T08:32:03.000Z</time>
      </trkpt>
      <trkpt lat="47.25645" lon="-2.31702">
        <ele>2</ele>
        <time>2020-01-16T08:32:05.000Z</time>
      </trkpt>
      <trkpt lat="47.2564" lon="-2.31709">
        <ele>2.4000000953674</ele>
        <time>2020-01-16T08:32:07.000Z</time>
      </trkpt>
      <trkpt lat="47.25636" lon="-2.31712">
        <ele>2.7999999523163</ele>
        <time>2020-01-16T08:32:08.000Z</time>
      </trkpt>
      <trkpt lat="47.25633" lon="-2.31715">
        <ele>3.2000000476837</ele>
        <time>2020-01-16T08:32:09.000Z</time>
      </trkpt>
      <trkpt lat="47.2563" lon="-2.31718">
        <ele>3.7999999523163</ele>
        <time>2020-01-16T08:32:10.000Z</time>
      </trkpt>
      <trkpt lat="47.25628" lon="-2.31722">
        <ele>4.1999998092651</ele>
        <time>2020-01-16T08:32:11.000Z</time>
      </trkpt>
      <trkpt lat="47.25626" lon="-2.31727">
        <ele>4.1999998092651</ele>
        <time>2020-01-16T08:32:12.000Z</time>
      </trkpt>
      <trkpt lat="47.25625" lon="-2.31733">
        <ele>4.1999998092651</ele>
        <time>2020-01-16T08:32:13.000Z</time>
      </trkpt>
      <trkpt lat="47.25623" lon="-2.31745">
        <ele>4.5999999046326</ele>
        <time>2020-01-16T08:32:15.000Z</time>
      </trkpt>
      <trkpt lat="47.25621" lon="-2.3175">
        <ele>5</ele>
        <time>2020-01-16T08:32:16.000Z</time>
      </trkpt>
      <trkpt lat="47.25619" lon="-2.31755">
        <ele>5.4000000953674</ele>
        <time>2020-01-16T08:32:17.000Z</time>
      </trkpt>
      <trkpt lat="47.25616" lon="-2.3176">
        <ele>5.8000001907349</ele>
        <time>2020-01-16T08:32:18.000Z</time>
      </trkpt>
      <trkpt lat="47.25612" lon="-2.31763">
        <ele>6.1999998092651</ele>
        <time>2020-01-16T08:32:19.000Z</time>
      </trkpt>
      <trkpt lat="47.25603" lon="-2.31765">
        <ele>6.1999998092651</ele>
        <time>2020-01-16T08:32:21.000Z</time>
      </trkpt>
      <trkpt lat="47.25586" lon="-2.31767">
        <ele>6.1999998092651</ele>
        <time>2020-01-16T08:32:25.000Z</time>
      </trkpt>
      <trkpt lat="47.25578" lon="-2.31772">
        <ele>6.1999998092651</ele>
        <time>2020-01-16T08:32:27.000Z</time>
      </trkpt>
      <trkpt lat="47.25571" lon="-2.31777">
        <ele>6.1999998092651</ele>
        <time>2020-01-16T08:32:29.000Z</time>
      </trkpt>
      <trkpt lat="47.25565" lon="-2.3179">
        <ele>6.1999998092651</ele>
        <time>2020-01-16T08:32:32.000Z</time>
      </trkpt>
      <trkpt lat="47.2555" lon="-2.31804">
        <ele>6.8000001907349</ele>
        <time>2020-01-16T08:32:37.000Z</time>
      </trkpt>
      <trkpt lat="47.25546" lon="-2.31803">
        <ele>7.1999998092651</ele>
        <time>2020-01-16T08:32:38.000Z</time>
      </trkpt>
      <trkpt lat="47.25542" lon="-2.31804">
        <ele>7.5999999046326</ele>
        <time>2020-01-16T08:32:39.000Z</time>
      </trkpt>
      <trkpt lat="47.25539" lon="-2.31805">
        <ele>8.1999998092651</ele>
        <time>2020-01-16T08:32:40.000Z</time>
      </trkpt>
      <trkpt lat="47.25536" lon="-2.31806">
        <ele>8.6000003814697</ele>
        <time>2020-01-16T08:32:41.000Z</time>
      </trkpt>
      <trkpt lat="47.25532" lon="-2.31807">
        <ele>8.6000003814697</ele>
        <time>2020-01-16T08:32:42.000Z</time>
      </trkpt>
      <trkpt lat="47.25513" lon="-2.31812">
        <ele>8.6000003814697</ele>
        <time>2020-01-16T08:32:48.000Z</time>
      </trkpt>
      <trkpt lat="47.25506" lon="-2.3182">
        <ele>8.6000003814697</ele>
        <time>2020-01-16T08:32:51.000Z</time>
      </trkpt>
      <trkpt lat="47.25507" lon="-2.31822">
        <ele>8.6000003814697</ele>
        <time>2020-01-16T08:32:52.000Z</time>
      </trkpt>
      <trkpt lat="47.2551" lon="-2.31825">
        <ele>8.6000003814697</ele>
        <time>2020-01-16T08:32:54.000Z</time>
      </trkpt>
      <trkpt lat="47.25516" lon="-2.31823">
        <ele>8.6000003814697</ele>
        <time>2020-01-16T08:32:57.000Z</time>
      </trkpt>
      <trkpt lat="47.25523" lon="-2.31833">
        <ele>8.6000003814697</ele>
        <time>2020-01-16T08:33:01.000Z</time>
      </trkpt>
      <trkpt lat="47.25528" lon="-2.31829">
        <ele>8.6000003814697</ele>
        <time>2020-01-16T08:33:04.000Z</time>
      </trkpt>
      <trkpt lat="47.25527" lon="-2.31828">
        <ele>8.6000003814697</ele>
        <time>2020-01-16T08:33:07.000Z</time>
      </trkpt>
      <trkpt lat="47.25528" lon="-2.31831">
        <ele>6.5999999046326</ele>
        <time>2020-01-16T08:38:06.000Z</time>
      </trkpt>
      <trkpt lat="47.25523" lon="-2.31841">
        <ele>6.5999999046326</ele>
        <time>2020-01-16T08:38:11.000Z</time>
      </trkpt>
      <trkpt lat="47.25523" lon="-2.31845">
        <ele>6.5999999046326</ele>
        <time>2020-01-16T08:38:12.000Z</time>
      </trkpt>
      <trkpt lat="47.25526" lon="-2.31868">
        <ele>6.5999999046326</ele>
        <time>2020-01-16T08:38:17.000Z</time>
      </trkpt>
      <trkpt lat="47.25529" lon="-2.319">
        <ele>6.5999999046326</ele>
        <time>2020-01-16T08:38:24.000Z</time>
      </trkpt>
      <trkpt lat="47.25534" lon="-2.31919">
        <ele>6.5999999046326</ele>
        <time>2020-01-16T08:38:30.000Z</time>
      </trkpt>
      <trkpt lat="47.25536" lon="-2.3192">
        <ele>6.5999999046326</ele>
        <time>2020-01-16T08:38:31.000Z</time>
      </trkpt>
      <trkpt lat="47.25543" lon="-2.3192">
        <ele>6.5999999046326</ele>
        <time>2020-01-16T08:38:34.000Z</time>
      </trkpt>
      <trkpt lat="47.25548" lon="-2.31917">
        <ele>6.5999999046326</ele>
        <time>2020-01-16T08:38:36.000Z</time>
      </trkpt>
      <trkpt lat="47.25556" lon="-2.31916">
        <ele>6.5999999046326</ele>
        <time>2020-01-16T08:38:39.000Z</time>
      </trkpt>
      <trkpt lat="47.25559" lon="-2.31918">
        <ele>6.5999999046326</ele>
        <time>2020-01-16T08:38:40.000Z</time>
      </trkpt>
      <trkpt lat="47.25563" lon="-2.31923">
        <ele>6.1999998092651</ele>
        <time>2020-01-16T08:38:42.000Z</time>
      </trkpt>
      <trkpt lat="47.25564" lon="-2.31927">
        <ele>5.8000001907349</ele>
        <time>2020-01-16T08:38:43.000Z</time>
      </trkpt>
      <trkpt lat="47.25565" lon="-2.31931">
        <ele>5.4000000953674</ele>
        <time>2020-01-16T08:38:44.000Z</time>
      </trkpt>
      <trkpt lat="47.25567" lon="-2.31936">
        <ele>5</ele>
        <time>2020-01-16T08:38:45.000Z</time>
      </trkpt>
      <trkpt lat="47.25567" lon="-2.31942">
        <ele>4.5999999046326</ele>
        <time>2020-01-16T08:38:46.000Z</time>
      </trkpt>
      <trkpt lat="47.25569" lon="-2.31955">
        <ele>4.5999999046326</ele>
        <time>2020-01-16T08:38:48.000Z</time>
      </trkpt>
      <trkpt lat="47.25577" lon="-2.31999">
        <ele>4.5999999046326</ele>
        <time>2020-01-16T08:38:54.000Z</time>
      </trkpt>
      <trkpt lat="47.25588" lon="-2.32034">
        <ele>4.1999998092651</ele>
        <time>2020-01-16T08:38:59.000Z</time>
      </trkpt>
      <trkpt lat="47.25591" lon="-2.32041">
        <ele>3.7999999523163</ele>
        <time>2020-01-16T08:39:00.000Z</time>
      </trkpt>
      <trkpt lat="47.25594" lon="-2.32047">
        <ele>3.2000000476837</ele>
        <time>2020-01-16T08:39:01.000Z</time>
      </trkpt>
      <trkpt lat="47.25596" lon="-2.32055">
        <ele>2.7999999523163</ele>
        <time>2020-01-16T08:39:02.000Z</time>
      </trkpt>
      <trkpt lat="47.25599" lon="-2.32061">
        <ele>2.4000000953674</ele>
        <time>2020-01-16T08:39:03.000Z</time>
      </trkpt>
      <trkpt lat="47.25611" lon="-2.32093">
        <ele>2.4000000953674</ele>
        <time>2020-01-16T08:39:08.000Z</time>
      </trkpt>
      <trkpt lat="47.25626" lon="-2.32141">
        <ele>2.4000000953674</ele>
        <time>2020-01-16T08:39:16.000Z</time>
      </trkpt>
      <trkpt lat="47.25634" lon="-2.3217">
        <ele>2.4000000953674</ele>
        <time>2020-01-16T08:39:21.000Z</time>
      </trkpt>
      <trkpt lat="47.25635" lon="-2.32176">
        <ele>2.4000000953674</ele>
        <time>2020-01-16T08:39:22.000Z</time>
      </trkpt>
      <trkpt lat="47.25641" lon="-2.32199">
        <ele>2.4000000953674</ele>
        <time>2020-01-16T08:39:27.000Z</time>
      </trkpt>
      <trkpt lat="47.25646" lon="-2.32225">
        <ele>2.4000000953674</ele>
        <time>2020-01-16T08:39:32.000Z</time>
      </trkpt>
      <trkpt lat="47.25646" lon="-2.32231">
        <ele>2.4000000953674</ele>
        <time>2020-01-16T08:39:33.000Z</time>
      </trkpt>
      <trkpt lat="47.25648" lon="-2.32253">
        <ele>2</ele>
        <time>2020-01-16T08:39:36.000Z</time>
      </trkpt>
      <trkpt lat="47.25649" lon="-2.32262">
        <ele>1.6000000238419</ele>
        <time>2020-01-16T08:39:37.000Z</time>
      </trkpt>
      <trkpt lat="47.2565" lon="-2.32271">
        <ele>1</ele>
        <time>2020-01-16T08:39:38.000Z</time>
      </trkpt>
      <trkpt lat="47.2565" lon="-2.32282">
        <ele>0.60000002384186</ele>
        <time>2020-01-16T08:39:39.000Z</time>
      </trkpt>
      <trkpt lat="47.25651" lon="-2.32292">
        <ele>0.20000000298023</ele>
        <time>2020-01-16T08:39:40.000Z</time>
      </trkpt>
      <trkpt lat="47.25653" lon="-2.32327">
        <ele>0.20000000298023</ele>
        <time>2020-01-16T08:39:43.000Z</time>
      </trkpt>
      <trkpt lat="47.25654" lon="-2.3235">
        <ele>-0.40000000596046</ele>
        <time>2020-01-16T08:39:45.000Z</time>
      </trkpt>
      <trkpt lat="47.25655" lon="-2.32361">
        <ele>-1</ele>
        <time>2020-01-16T08:39:46.000Z</time>
      </trkpt>
      <trkpt lat="47.25656" lon="-2.32373">
        <ele>-1.6000000238419</ele>
        <time>2020-01-16T08:39:47.000Z</time>
      </trkpt>
      <trkpt lat="47.25657" lon="-2.32384">
        <ele>-2.2000000476837</ele>
        <time>2020-01-16T08:39:48.000Z</time>
      </trkpt>
      <trkpt lat="47.25659" lon="-2.32394">
        <ele>-3</ele>
        <time>2020-01-16T08:39:49.000Z</time>
      </trkpt>
      <trkpt lat="47.25661" lon="-2.32402">
        <ele>-3.7999999523163</ele>
        <time>2020-01-16T08:39:50.000Z</time>
      </trkpt>
      <trkpt lat="47.25664" lon="-2.3241">
        <ele>-4.4000000953674</ele>
        <time>2020-01-16T08:39:51.000Z</time>
      </trkpt>
      <trkpt lat="47.25665" lon="-2.32418">
        <ele>-5.1999998092651</ele>
        <time>2020-01-16T08:39:52.000Z</time>
      </trkpt>
      <trkpt lat="47.25664" lon="-2.32434">
        <ele>-5.1999998092651</ele>
        <time>2020-01-16T08:39:54.000Z</time>
      </trkpt>
      <trkpt lat="47.25664" lon="-2.32444">
        <ele>-5.1999998092651</ele>
        <time>2020-01-16T08:39:55.000Z</time>
      </trkpt>
      <trkpt lat="47.25667" lon="-2.32462">
        <ele>-5.1999998092651</ele>
        <time>2020-01-16T08:39:57.000Z</time>
      </trkpt>
      <trkpt lat="47.25683" lon="-2.32512">
        <ele>-5.1999998092651</ele>
        <time>2020-01-16T08:40:03.000Z</time>
      </trkpt>
      <trkpt lat="47.257" lon="-2.32566">
        <ele>-5.1999998092651</ele>
        <time>2020-01-16T08:40:10.000Z</time>
      </trkpt>
      <trkpt lat="47.25712" lon="-2.32607">
        <ele>-5.1999998092651</ele>
        <time>2020-01-16T08:40:16.000Z</time>
      </trkpt>
      <trkpt lat="47.25717" lon="-2.32629">
        <ele>-4.8000001907349</ele>
        <time>2020-01-16T08:40:19.000Z</time>
      </trkpt>
      <trkpt lat="47.25719" lon="-2.32635">
        <ele>-4.4000000953674</ele>
        <time>2020-01-16T08:40:20.000Z</time>
      </trkpt>
      <trkpt lat="47.2572" lon="-2.32642">
        <ele>-4</ele>
        <time>2020-01-16T08:40:21.000Z</time>
      </trkpt>
      <trkpt lat="47.25721" lon="-2.32649">
        <ele>-3.5999999046326</ele>
        <time>2020-01-16T08:40:22.000Z</time>
      </trkpt>
      <trkpt lat="47.25722" lon="-2.32656">
        <ele>-3.2000000476837</ele>
        <time>2020-01-16T08:40:23.000Z</time>
      </trkpt>
      <trkpt lat="47.25723" lon="-2.32663">
        <ele>-3.2000000476837</ele>
        <time>2020-01-16T08:40:24.000Z</time>
      </trkpt>
      <trkpt lat="47.25727" lon="-2.3271">
        <ele>-3.2000000476837</ele>
        <time>2020-01-16T08:40:31.000Z</time>
      </trkpt>
      <trkpt lat="47.2573" lon="-2.32742">
        <ele>-3.2000000476837</ele>
        <time>2020-01-16T08:40:36.000Z</time>
      </trkpt>
      <trkpt lat="47.25733" lon="-2.32762">
        <ele>-3.2000000476837</ele>
        <time>2020-01-16T08:40:39.000Z</time>
      </trkpt>
      <trkpt lat="47.25735" lon="-2.32776">
        <ele>-2.7999999523163</ele>
        <time>2020-01-16T08:40:41.000Z</time>
      </trkpt>
      <trkpt lat="47.25736" lon="-2.32783">
        <ele>-2.4000000953674</ele>
        <time>2020-01-16T08:40:42.000Z</time>
      </trkpt>
      <trkpt lat="47.25738" lon="-2.3279">
        <ele>-1.6000000238419</ele>
        <time>2020-01-16T08:40:43.000Z</time>
      </trkpt>
      <trkpt lat="47.25739" lon="-2.32797">
        <ele>-1.2000000476837</ele>
        <time>2020-01-16T08:40:44.000Z</time>
      </trkpt>
      <trkpt lat="47.2574" lon="-2.32804">
        <ele>-1.2000000476837</ele>
        <time>2020-01-16T08:40:45.000Z</time>
      </trkpt>
      <trkpt lat="47.25747" lon="-2.32831">
        <ele>-1.2000000476837</ele>
        <time>2020-01-16T08:40:49.000Z</time>
      </trkpt>
      <trkpt lat="47.25754" lon="-2.32849">
        <ele>-1.2000000476837</ele>
        <time>2020-01-16T08:40:52.000Z</time>
      </trkpt>
      <trkpt lat="47.25764" lon="-2.32874">
        <ele>-1.2000000476837</ele>
        <time>2020-01-16T08:40:56.000Z</time>
      </trkpt>
      <trkpt lat="47.25771" lon="-2.32887">
        <ele>-1.2000000476837</ele>
        <time>2020-01-16T08:40:58.000Z</time>
      </trkpt>
      <trkpt lat="47.25783" lon="-2.32906">
        <ele>-1.2000000476837</ele>
        <time>2020-01-16T08:41:01.000Z</time>
      </trkpt>
      <trkpt lat="47.25792" lon="-2.32917">
        <ele>-1.2000000476837</ele>
        <time>2020-01-16T08:41:03.000Z</time>
      </trkpt>
      <trkpt lat="47.25822" lon="-2.32957">
        <ele>-1.2000000476837</ele>
        <time>2020-01-16T08:41:10.000Z</time>
      </trkpt>
      <trkpt lat="47.25847" lon="-2.32989">
        <ele>-1.6000000238419</ele>
        <time>2020-01-16T08:41:16.000Z</time>
      </trkpt>
      <trkpt lat="47.25851" lon="-2.32995">
        <ele>-2</ele>
        <time>2020-01-16T08:41:17.000Z</time>
      </trkpt>
      <trkpt lat="47.25855" lon="-2.33003">
        <ele>-2.5999999046326</ele>
        <time>2020-01-16T08:41:18.000Z</time>
      </trkpt>
      <trkpt lat="47.25859" lon="-2.3301">
        <ele>-3</ele>
        <time>2020-01-16T08:41:19.000Z</time>
      </trkpt>
      <trkpt lat="47.25862" lon="-2.33018">
        <ele>-3.4000000953674</ele>
        <time>2020-01-16T08:41:20.000Z</time>
      </trkpt>
      <trkpt lat="47.25869" lon="-2.33036">
        <ele>-3.4000000953674</ele>
        <time>2020-01-16T08:41:22.000Z</time>
      </trkpt>
      <trkpt lat="47.25872" lon="-2.33045">
        <ele>-3.4000000953674</ele>
        <time>2020-01-16T08:41:23.000Z</time>
      </trkpt>
      <trkpt lat="47.25877" lon="-2.33064">
        <ele>-3.7999999523163</ele>
        <time>2020-01-16T08:41:25.000Z</time>
      </trkpt>
      <trkpt lat="47.2588" lon="-2.33075">
        <ele>-4.1999998092651</ele>
        <time>2020-01-16T08:41:26.000Z</time>
      </trkpt>
      <trkpt lat="47.25882" lon="-2.33085">
        <ele>-4.8000001907349</ele>
        <time>2020-01-16T08:41:27.000Z</time>
      </trkpt>
      <trkpt lat="47.25885" lon="-2.33095">
        <ele>-5.1999998092651</ele>
        <time>2020-01-16T08:41:28.000Z</time>
      </trkpt>
      <trkpt lat="47.25888" lon="-2.33105">
        <ele>-5.5999999046326</ele>
        <time>2020-01-16T08:41:29.000Z</time>
      </trkpt>
      <trkpt lat="47.25897" lon="-2.33137">
        <ele>-6</ele>
        <time>2020-01-16T08:41:32.000Z</time>
      </trkpt>
      <trkpt lat="47.25899" lon="-2.33148">
        <ele>-6.4000000953674</ele>
        <time>2020-01-16T08:41:33.000Z</time>
      </trkpt>
      <trkpt lat="47.25901" lon="-2.33159">
        <ele>-6.8000001907349</ele>
        <time>2020-01-16T08:41:34.000Z</time>
      </trkpt>
      <trkpt lat="47.25903" lon="-2.3317">
        <ele>-7.1999998092651</ele>
        <time>2020-01-16T08:41:35.000Z</time>
      </trkpt>
      <trkpt lat="47.25904" lon="-2.33181">
        <ele>-7.8000001907349</ele>
        <time>2020-01-16T08:41:36.000Z</time>
      </trkpt>
      <trkpt lat="47.25907" lon="-2.33226">
        <ele>-7.8000001907349</ele>
        <time>2020-01-16T08:41:40.000Z</time>
      </trkpt>
      <trkpt lat="47.25908" lon="-2.33291">
        <ele>-7.8000001907349</ele>
        <time>2020-01-16T08:41:46.000Z</time>
      </trkpt>
      <trkpt lat="47.25913" lon="-2.33345">
        <ele>-7.8000001907349</ele>
        <time>2020-01-16T08:41:52.000Z</time>
      </trkpt>
      <trkpt lat="47.25926" lon="-2.334">
        <ele>-7.8000001907349</ele>
        <time>2020-01-16T08:41:58.000Z</time>
      </trkpt>
      <trkpt lat="47.25942" lon="-2.33444">
        <ele>-7.8000001907349</ele>
        <time>2020-01-16T08:42:03.000Z</time>
      </trkpt>
      <trkpt lat="47.25961" lon="-2.33486">
        <ele>-7.8000001907349</ele>
        <time>2020-01-16T08:42:09.000Z</time>
      </trkpt>
      <trkpt lat="47.25964" lon="-2.33492">
        <ele>-7.8000001907349</ele>
        <time>2020-01-16T08:42:10.000Z</time>
      </trkpt>
      <trkpt lat="47.25976" lon="-2.33506">
        <ele>-7.8000001907349</ele>
        <time>2020-01-16T08:42:13.000Z</time>
      </trkpt>
      <trkpt lat="47.25984" lon="-2.33531">
        <ele>-7.8000001907349</ele>
        <time>2020-01-16T08:42:17.000Z</time>
      </trkpt>
      <trkpt lat="47.25998" lon="-2.33555">
        <ele>-7.8000001907349</ele>
        <time>2020-01-16T08:42:21.000Z</time>
      </trkpt>
      <trkpt lat="47.26002" lon="-2.33561">
        <ele>-7.8000001907349</ele>
        <time>2020-01-16T08:42:22.000Z</time>
      </trkpt>
      <trkpt lat="47.26013" lon="-2.33585">
        <ele>-7.8000001907349</ele>
        <time>2020-01-16T08:42:26.000Z</time>
      </trkpt>
      <trkpt lat="47.26018" lon="-2.33597">
        <ele>-7.8000001907349</ele>
        <time>2020-01-16T08:42:28.000Z</time>
      </trkpt>
      <trkpt lat="47.2602" lon="-2.33604">
        <ele>-7.8000001907349</ele>
        <time>2020-01-16T08:42:29.000Z</time>
      </trkpt>
      <trkpt lat="47.26027" lon="-2.33644">
        <ele>-7.8000001907349</ele>
        <time>2020-01-16T08:42:35.000Z</time>
      </trkpt>
      <trkpt lat="47.2603" lon="-2.33664">
        <ele>-7.8000001907349</ele>
        <time>2020-01-16T08:42:38.000Z</time>
      </trkpt>
      <trkpt lat="47.26034" lon="-2.33673">
        <ele>-7.8000001907349</ele>
        <time>2020-01-16T08:42:40.000Z</time>
      </trkpt>
      <trkpt lat="47.2604" lon="-2.33687">
        <ele>-7.8000001907349</ele>
        <time>2020-01-16T08:42:43.000Z</time>
      </trkpt>
      <trkpt lat="47.2604" lon="-2.33693">
        <ele>-7.8000001907349</ele>
        <time>2020-01-16T08:42:44.000Z</time>
      </trkpt>
      <trkpt lat="47.2603" lon="-2.33719">
        <ele>-7.8000001907349</ele>
        <time>2020-01-16T08:42:48.000Z</time>
      </trkpt>
      <trkpt lat="47.26026" lon="-2.33732">
        <ele>-7.8000001907349</ele>
        <time>2020-01-16T08:42:50.000Z</time>
      </trkpt>
      <trkpt lat="47.26015" lon="-2.33765">
        <ele>-7.8000001907349</ele>
        <time>2020-01-16T08:42:55.000Z</time>
      </trkpt>
      <trkpt lat="47.25997" lon="-2.3381">
        <ele>-7.8000001907349</ele>
        <time>2020-01-16T08:43:02.000Z</time>
      </trkpt>
      <trkpt lat="47.25984" lon="-2.33851">
        <ele>-7.8000001907349</ele>
        <time>2020-01-16T08:43:08.000Z</time>
      </trkpt>
      <trkpt lat="47.25973" lon="-2.33881">
        <ele>-7.8000001907349</ele>
        <time>2020-01-16T08:43:13.000Z</time>
      </trkpt>
      <trkpt lat="47.25969" lon="-2.33893">
        <ele>-7.8000001907349</ele>
        <time>2020-01-16T08:43:15.000Z</time>
      </trkpt>
      <trkpt lat="47.25968" lon="-2.33899">
        <ele>-7.8000001907349</ele>
        <time>2020-01-16T08:43:16.000Z</time>
      </trkpt>
      <trkpt lat="47.2596" lon="-2.33924">
        <ele>-7.8000001907349</ele>
        <time>2020-01-16T08:43:20.000Z</time>
      </trkpt>
      <trkpt lat="47.25957" lon="-2.3393">
        <ele>-7.8000001907349</ele>
        <time>2020-01-16T08:43:21.000Z</time>
      </trkpt>
      <trkpt lat="47.25951" lon="-2.33944">
        <ele>-7.8000001907349</ele>
        <time>2020-01-16T08:43:23.000Z</time>
      </trkpt>
      <trkpt lat="47.25944" lon="-2.33966">
        <ele>-7.8000001907349</ele>
        <time>2020-01-16T08:43:26.000Z</time>
      </trkpt>
      <trkpt lat="47.2593" lon="-2.34015">
        <ele>-7.8000001907349</ele>
        <time>2020-01-16T08:43:33.000Z</time>
      </trkpt>
      <trkpt lat="47.25933" lon="-2.34035">
        <ele>-7.8000001907349</ele>
        <time>2020-01-16T08:43:36.000Z</time>
      </trkpt>
      <trkpt lat="47.25935" lon="-2.34042">
        <ele>-7.8000001907349</ele>
        <time>2020-01-16T08:43:37.000Z</time>
      </trkpt>
      <trkpt lat="47.25941" lon="-2.34055">
        <ele>-7.8000001907349</ele>
        <time>2020-01-16T08:43:39.000Z</time>
      </trkpt>
      <trkpt lat="47.25949" lon="-2.34062">
        <ele>-7.8000001907349</ele>
        <time>2020-01-16T08:43:41.000Z</time>
      </trkpt>
      <trkpt lat="47.2596" lon="-2.34068">
        <ele>-7.8000001907349</ele>
        <time>2020-01-16T08:43:43.000Z</time>
      </trkpt>
      <trkpt lat="47.2598" lon="-2.34079">
        <ele>-7.8000001907349</ele>
        <time>2020-01-16T08:43:47.000Z</time>
      </trkpt>
      <trkpt lat="47.26026" lon="-2.34102">
        <ele>-7.8000001907349</ele>
        <time>2020-01-16T08:43:56.000Z</time>
      </trkpt>
      <trkpt lat="47.26055" lon="-2.34118">
        <ele>-7.8000001907349</ele>
        <time>2020-01-16T08:44:02.000Z</time>
      </trkpt>
      <trkpt lat="47.2606" lon="-2.34121">
        <ele>-7.4000000953674</ele>
        <time>2020-01-16T08:44:03.000Z</time>
      </trkpt>
      <trkpt lat="47.26064" lon="-2.34124">
        <ele>-6.8000001907349</ele>
        <time>2020-01-16T08:44:04.000Z</time>
      </trkpt>
      <trkpt lat="47.26069" lon="-2.34127">
        <ele>-6.4000000953674</ele>
        <time>2020-01-16T08:44:05.000Z</time>
      </trkpt>
      <trkpt lat="47.26074" lon="-2.34131">
        <ele>-6</ele>
        <time>2020-01-16T08:44:06.000Z</time>
      </trkpt>
      <trkpt lat="47.26079" lon="-2.34134">
        <ele>-5.5999999046326</ele>
        <time>2020-01-16T08:44:07.000Z</time>
      </trkpt>
      <trkpt lat="47.26093" lon="-2.34142">
        <ele>-5.5999999046326</ele>
        <time>2020-01-16T08:44:10.000Z</time>
      </trkpt>
      <trkpt lat="47.26122" lon="-2.34153">
        <ele>-5.5999999046326</ele>
        <time>2020-01-16T08:44:16.000Z</time>
      </trkpt>
      <trkpt lat="47.26129" lon="-2.34157">
        <ele>-5.5999999046326</ele>
        <time>2020-01-16T08:44:18.000Z</time>
      </trkpt>
      <trkpt lat="47.26141" lon="-2.3416">
        <ele>-5.5999999046326</ele>
        <time>2020-01-16T08:44:21.000Z</time>
      </trkpt>
      <trkpt lat="47.26152" lon="-2.34172">
        <ele>-5.5999999046326</ele>
        <time>2020-01-16T08:44:24.000Z</time>
      </trkpt>
      <trkpt lat="47.2616" lon="-2.34181">
        <ele>-5.5999999046326</ele>
        <time>2020-01-16T08:44:26.000Z</time>
      </trkpt>
      <trkpt lat="47.26174" lon="-2.34194">
        <ele>-5.5999999046326</ele>
        <time>2020-01-16T08:44:29.000Z</time>
      </trkpt>
      <trkpt lat="47.26206" lon="-2.34225">
        <ele>-5.5999999046326</ele>
        <time>2020-01-16T08:44:36.000Z</time>
      </trkpt>
      <trkpt lat="47.26211" lon="-2.34231">
        <ele>-5.5999999046326</ele>
        <time>2020-01-16T08:44:37.000Z</time>
      </trkpt>
      <trkpt lat="47.26228" lon="-2.3425">
        <ele>-5.5999999046326</ele>
        <time>2020-01-16T08:44:41.000Z</time>
      </trkpt>
      <trkpt lat="47.26274" lon="-2.34298">
        <ele>-5.5999999046326</ele>
        <time>2020-01-16T08:44:51.000Z</time>
      </trkpt>
      <trkpt lat="47.26319" lon="-2.34345">
        <ele>-5.5999999046326</ele>
        <time>2020-01-16T08:45:01.000Z</time>
      </trkpt>
      <trkpt lat="47.26324" lon="-2.34348">
        <ele>-5.5999999046326</ele>
        <time>2020-01-16T08:45:02.000Z</time>
      </trkpt>
      <trkpt lat="47.26338" lon="-2.34358">
        <ele>-5.5999999046326</ele>
        <time>2020-01-16T08:45:05.000Z</time>
      </trkpt>
      <trkpt lat="47.26347" lon="-2.3437">
        <ele>-5.5999999046326</ele>
        <time>2020-01-16T08:45:07.000Z</time>
      </trkpt>
      <trkpt lat="47.26352" lon="-2.34374">
        <ele>-5.5999999046326</ele>
        <time>2020-01-16T08:45:08.000Z</time>
      </trkpt>
      <trkpt lat="47.26358" lon="-2.34379">
        <ele>-5.5999999046326</ele>
        <time>2020-01-16T08:45:09.000Z</time>
      </trkpt>
      <trkpt lat="47.26394" lon="-2.3441">
        <ele>-5.5999999046326</ele>
        <time>2020-01-16T08:45:16.000Z</time>
      </trkpt>
      <trkpt lat="47.2643" lon="-2.34439">
        <ele>-5.5999999046326</ele>
        <time>2020-01-16T08:45:23.000Z</time>
      </trkpt>
      <trkpt lat="47.26472" lon="-2.34469">
        <ele>-5.5999999046326</ele>
        <time>2020-01-16T08:45:31.000Z</time>
      </trkpt>
      <trkpt lat="47.26509" lon="-2.34497">
        <ele>-5.5999999046326</ele>
        <time>2020-01-16T08:45:38.000Z</time>
      </trkpt>
      <trkpt lat="47.26522" lon="-2.34506">
        <ele>-5.5999999046326</ele>
        <time>2020-01-16T08:45:42.000Z</time>
      </trkpt>
      <trkpt lat="47.26538" lon="-2.34514">
        <ele>-5.5999999046326</ele>
        <time>2020-01-16T08:45:48.000Z</time>
      </trkpt>
      <trkpt lat="47.2655" lon="-2.34533">
        <ele>-5.5999999046326</ele>
        <time>2020-01-16T08:45:52.000Z</time>
      </trkpt>
      <trkpt lat="47.26573" lon="-2.34558">
        <ele>-5.5999999046326</ele>
        <time>2020-01-16T08:45:57.000Z</time>
      </trkpt>
      <trkpt lat="47.26596" lon="-2.34582">
        <ele>-5.5999999046326</ele>
        <time>2020-01-16T08:46:02.000Z</time>
      </trkpt>
      <trkpt lat="47.26622" lon="-2.34614">
        <ele>-5.5999999046326</ele>
        <time>2020-01-16T08:46:08.000Z</time>
      </trkpt>
      <trkpt lat="47.26651" lon="-2.34651">
        <ele>-5.5999999046326</ele>
        <time>2020-01-16T08:46:14.000Z</time>
      </trkpt>
      <trkpt lat="47.26693" lon="-2.34703">
        <ele>-5.5999999046326</ele>
        <time>2020-01-16T08:46:22.000Z</time>
      </trkpt>
      <trkpt lat="47.26699" lon="-2.3471">
        <ele>-5.5999999046326</ele>
        <time>2020-01-16T08:46:23.000Z</time>
      </trkpt>
      <trkpt lat="47.2674" lon="-2.34761">
        <ele>-5.5999999046326</ele>
        <time>2020-01-16T08:46:31.000Z</time>
      </trkpt>
      <trkpt lat="47.26772" lon="-2.34799">
        <ele>-5.5999999046326</ele>
        <time>2020-01-16T08:46:38.000Z</time>
      </trkpt>
      <trkpt lat="47.26789" lon="-2.34825">
        <ele>-6.1999998092651</ele>
        <time>2020-01-16T08:46:42.000Z</time>
      </trkpt>
      <trkpt lat="47.26794" lon="-2.34831">
        <ele>-6.5999999046326</ele>
        <time>2020-01-16T08:46:43.000Z</time>
      </trkpt>
      <trkpt lat="47.26799" lon="-2.34838">
        <ele>-7.1999998092651</ele>
        <time>2020-01-16T08:46:44.000Z</time>
      </trkpt>
      <trkpt lat="47.26803" lon="-2.34845">
        <ele>-7.5999999046326</ele>
        <time>2020-01-16T08:46:45.000Z</time>
      </trkpt>
      <trkpt lat="47.26808" lon="-2.34851">
        <ele>-8</ele>
        <time>2020-01-16T08:46:46.000Z</time>
      </trkpt>
      <trkpt lat="47.26836" lon="-2.34892">
        <ele>-8</ele>
        <time>2020-01-16T08:46:52.000Z</time>
      </trkpt>
      <trkpt lat="47.26869" lon="-2.34943">
        <ele>-8</ele>
        <time>2020-01-16T08:46:59.000Z</time>
      </trkpt>
      <trkpt lat="47.26908" lon="-2.35002">
        <ele>-8</ele>
        <time>2020-01-16T08:47:07.000Z</time>
      </trkpt>
      <trkpt lat="47.26913" lon="-2.3501">
        <ele>-8</ele>
        <time>2020-01-16T08:47:08.000Z</time>
      </trkpt>
      <trkpt lat="47.26949" lon="-2.35065">
        <ele>-8</ele>
        <time>2020-01-16T08:47:15.000Z</time>
      </trkpt>
      <trkpt lat="47.26986" lon="-2.35123">
        <ele>-8</ele>
        <time>2020-01-16T08:47:22.000Z</time>
      </trkpt>
      <trkpt lat="47.27024" lon="-2.35181">
        <ele>-8</ele>
        <time>2020-01-16T08:47:29.000Z</time>
      </trkpt>
      <trkpt lat="47.27035" lon="-2.35197">
        <ele>-8</ele>
        <time>2020-01-16T08:47:31.000Z</time>
      </trkpt>
      <trkpt lat="47.27073" lon="-2.35255">
        <ele>-8</ele>
        <time>2020-01-16T08:47:38.000Z</time>
      </trkpt>
      <trkpt lat="47.27109" lon="-2.35312">
        <ele>-8</ele>
        <time>2020-01-16T08:47:45.000Z</time>
      </trkpt>
      <trkpt lat="47.27147" lon="-2.35377">
        <ele>-8</ele>
        <time>2020-01-16T08:47:53.000Z</time>
      </trkpt>
      <trkpt lat="47.27152" lon="-2.35386">
        <ele>-8</ele>
        <time>2020-01-16T08:47:54.000Z</time>
      </trkpt>
      <trkpt lat="47.27187" lon="-2.35455">
        <ele>-8</ele>
        <time>2020-01-16T08:48:02.000Z</time>
      </trkpt>
      <trkpt lat="47.27221" lon="-2.35519">
        <ele>-8</ele>
        <time>2020-01-16T08:48:10.000Z</time>
      </trkpt>
      <trkpt lat="47.27246" lon="-2.35578">
        <ele>-8</ele>
        <time>2020-01-16T08:48:17.000Z</time>
      </trkpt>
      <trkpt lat="47.27274" lon="-2.35641">
        <ele>-8</ele>
        <time>2020-01-16T08:48:24.000Z</time>
      </trkpt>
      <trkpt lat="47.27299" lon="-2.35691">
        <ele>-8</ele>
        <time>2020-01-16T08:48:30.000Z</time>
      </trkpt>
      <trkpt lat="47.27316" lon="-2.35725">
        <ele>-8</ele>
        <time>2020-01-16T08:48:35.000Z</time>
      </trkpt>
      <trkpt lat="47.27323" lon="-2.35738">
        <ele>-8</ele>
        <time>2020-01-16T08:48:37.000Z</time>
      </trkpt>
      <trkpt lat="47.27329" lon="-2.35754">
        <ele>-8</ele>
        <time>2020-01-16T08:48:39.000Z</time>
      </trkpt>
      <trkpt lat="47.27346" lon="-2.358">
        <ele>-8</ele>
        <time>2020-01-16T08:48:44.000Z</time>
      </trkpt>
      <trkpt lat="47.27374" lon="-2.35872">
        <ele>-8</ele>
        <time>2020-01-16T08:48:51.000Z</time>
      </trkpt>
      <trkpt lat="47.27403" lon="-2.35944">
        <ele>-7.5999999046326</ele>
        <time>2020-01-16T08:48:58.000Z</time>
      </trkpt>
      <trkpt lat="47.27407" lon="-2.35954">
        <ele>-7.1999998092651</ele>
        <time>2020-01-16T08:48:59.000Z</time>
      </trkpt>
      <trkpt lat="47.27411" lon="-2.35964">
        <ele>-6.8000001907349</ele>
        <time>2020-01-16T08:49:00.000Z</time>
      </trkpt>
      <trkpt lat="47.27415" lon="-2.35973">
        <ele>-6.4000000953674</ele>
        <time>2020-01-16T08:49:01.000Z</time>
      </trkpt>
      <trkpt lat="47.27418" lon="-2.35983">
        <ele>-6</ele>
        <time>2020-01-16T08:49:02.000Z</time>
      </trkpt>
      <trkpt lat="47.27435" lon="-2.3602">
        <ele>-6</ele>
        <time>2020-01-16T08:49:06.000Z</time>
      </trkpt>
      <trkpt lat="47.27456" lon="-2.36067">
        <ele>-6</ele>
        <time>2020-01-16T08:49:12.000Z</time>
      </trkpt>
      <trkpt lat="47.2746" lon="-2.36073">
        <ele>-6</ele>
        <time>2020-01-16T08:49:13.000Z</time>
      </trkpt>
      <trkpt lat="47.27466" lon="-2.36086">
        <ele>-6</ele>
        <time>2020-01-16T08:49:15.000Z</time>
      </trkpt>
      <trkpt lat="47.27473" lon="-2.36112">
        <ele>-6</ele>
        <time>2020-01-16T08:49:18.000Z</time>
      </trkpt>
      <trkpt lat="47.27476" lon="-2.36121">
        <ele>-6</ele>
        <time>2020-01-16T08:49:19.000Z</time>
      </trkpt>
      <trkpt lat="47.27491" lon="-2.36168">
        <ele>-6</ele>
        <time>2020-01-16T08:49:24.000Z</time>
      </trkpt>
      <trkpt lat="47.27518" lon="-2.36237">
        <ele>-6</ele>
        <time>2020-01-16T08:49:31.000Z</time>
      </trkpt>
      <trkpt lat="47.27546" lon="-2.3631">
        <ele>-6</ele>
        <time>2020-01-16T08:49:38.000Z</time>
      </trkpt>
      <trkpt lat="47.27558" lon="-2.36343">
        <ele>-6</ele>
        <time>2020-01-16T08:49:41.000Z</time>
      </trkpt>
      <trkpt lat="47.27587" lon="-2.36421">
        <ele>-6</ele>
        <time>2020-01-16T08:49:48.000Z</time>
      </trkpt>
      <trkpt lat="47.27591" lon="-2.36433">
        <ele>-6</ele>
        <time>2020-01-16T08:49:49.000Z</time>
      </trkpt>
      <trkpt lat="47.27621" lon="-2.36514">
        <ele>-6</ele>
        <time>2020-01-16T08:49:56.000Z</time>
      </trkpt>
      <trkpt lat="47.27624" lon="-2.36525">
        <ele>-6</ele>
        <time>2020-01-16T08:49:57.000Z</time>
      </trkpt>
      <trkpt lat="47.27647" lon="-2.36591">
        <ele>-6</ele>
        <time>2020-01-16T08:50:03.000Z</time>
      </trkpt>
      <trkpt lat="47.27674" lon="-2.36667">
        <ele>-6</ele>
        <time>2020-01-16T08:50:10.000Z</time>
      </trkpt>
      <trkpt lat="47.277" lon="-2.36745">
        <ele>-6</ele>
        <time>2020-01-16T08:50:17.000Z</time>
      </trkpt>
      <trkpt lat="47.27705" lon="-2.36763">
        <ele>-6</ele>
        <time>2020-01-16T08:50:19.000Z</time>
      </trkpt>
      <trkpt lat="47.27707" lon="-2.36779">
        <ele>-6</ele>
        <time>2020-01-16T08:50:21.000Z</time>
      </trkpt>
      <trkpt lat="47.27716" lon="-2.36803">
        <ele>-6</ele>
        <time>2020-01-16T08:50:24.000Z</time>
      </trkpt>
      <trkpt lat="47.27719" lon="-2.36812">
        <ele>-6</ele>
        <time>2020-01-16T08:50:25.000Z</time>
      </trkpt>
      <trkpt lat="47.27736" lon="-2.36865">
        <ele>-6</ele>
        <time>2020-01-16T08:50:30.000Z</time>
      </trkpt>
      <trkpt lat="47.2776" lon="-2.36945">
        <ele>-6</ele>
        <time>2020-01-16T08:50:37.000Z</time>
      </trkpt>
      <trkpt lat="47.2777" lon="-2.3698">
        <ele>-6</ele>
        <time>2020-01-16T08:50:40.000Z</time>
      </trkpt>
      <trkpt lat="47.27793" lon="-2.37064">
        <ele>-6</ele>
        <time>2020-01-16T08:50:47.000Z</time>
      </trkpt>
      <trkpt lat="47.27796" lon="-2.37076">
        <ele>-6</ele>
        <time>2020-01-16T08:50:48.000Z</time>
      </trkpt>
      <trkpt lat="47.27818" lon="-2.3715">
        <ele>-6</ele>
        <time>2020-01-16T08:50:55.000Z</time>
      </trkpt>
      <trkpt lat="47.27823" lon="-2.37166">
        <ele>-6</ele>
        <time>2020-01-16T08:50:57.000Z</time>
      </trkpt>
      <trkpt lat="47.27832" lon="-2.37172">
        <ele>-6</ele>
        <time>2020-01-16T08:50:59.000Z</time>
      </trkpt>
      <trkpt lat="47.27845" lon="-2.37164">
        <ele>-6</ele>
        <time>2020-01-16T08:51:02.000Z</time>
      </trkpt>
      <trkpt lat="47.2785" lon="-2.37158">
        <ele>-5.5999999046326</ele>
        <time>2020-01-16T08:51:03.000Z</time>
      </trkpt>
      <trkpt lat="47.27855" lon="-2.37151">
        <ele>-5</ele>
        <time>2020-01-16T08:51:04.000Z</time>
      </trkpt>
      <trkpt lat="47.2786" lon="-2.37145">
        <ele>-4.5999999046326</ele>
        <time>2020-01-16T08:51:05.000Z</time>
      </trkpt>
      <trkpt lat="47.27866" lon="-2.37139">
        <ele>-4.1999998092651</ele>
        <time>2020-01-16T08:51:06.000Z</time>
      </trkpt>
      <trkpt lat="47.27871" lon="-2.37133">
        <ele>-3.7999999523163</ele>
        <time>2020-01-16T08:51:07.000Z</time>
      </trkpt>
      <trkpt lat="47.27896" lon="-2.37104">
        <ele>-3.7999999523163</ele>
        <time>2020-01-16T08:51:12.000Z</time>
      </trkpt>
      <trkpt lat="47.27931" lon="-2.37058">
        <ele>-3.7999999523163</ele>
        <time>2020-01-16T08:51:19.000Z</time>
      </trkpt>
      <trkpt lat="47.27963" lon="-2.37023">
        <ele>-3.7999999523163</ele>
        <time>2020-01-16T08:51:25.000Z</time>
      </trkpt>
      <trkpt lat="47.2798" lon="-2.37004">
        <ele>-4.1999998092651</ele>
        <time>2020-01-16T08:51:28.000Z</time>
      </trkpt>
      <trkpt lat="47.27986" lon="-2.36997">
        <ele>-4.5999999046326</ele>
        <time>2020-01-16T08:51:29.000Z</time>
      </trkpt>
      <trkpt lat="47.27991" lon="-2.3699">
        <ele>-5.1999998092651</ele>
        <time>2020-01-16T08:51:30.000Z</time>
      </trkpt>
      <trkpt lat="47.27997" lon="-2.36984">
        <ele>-5.5999999046326</ele>
        <time>2020-01-16T08:51:31.000Z</time>
      </trkpt>
      <trkpt lat="47.28002" lon="-2.36978">
        <ele>-6</ele>
        <time>2020-01-16T08:51:32.000Z</time>
      </trkpt>
      <trkpt lat="47.28026" lon="-2.36951">
        <ele>-6</ele>
        <time>2020-01-16T08:51:37.000Z</time>
      </trkpt>
      <trkpt lat="47.28053" lon="-2.3692">
        <ele>-6</ele>
        <time>2020-01-16T08:51:43.000Z</time>
      </trkpt>
      <trkpt lat="47.28079" lon="-2.36889">
        <ele>-6</ele>
        <time>2020-01-16T08:51:50.000Z</time>
      </trkpt>
      <trkpt lat="47.28087" lon="-2.36878">
        <ele>-6</ele>
        <time>2020-01-16T08:51:53.000Z</time>
      </trkpt>
      <trkpt lat="47.28092" lon="-2.36867">
        <ele>-6</ele>
        <time>2020-01-16T08:51:55.000Z</time>
      </trkpt>
      <trkpt lat="47.28093" lon="-2.36861">
        <ele>-6</ele>
        <time>2020-01-16T08:51:56.000Z</time>
      </trkpt>
      <trkpt lat="47.28096" lon="-2.3684">
        <ele>-6</ele>
        <time>2020-01-16T08:51:59.000Z</time>
      </trkpt>
      <trkpt lat="47.28105" lon="-2.36814">
        <ele>-6</ele>
        <time>2020-01-16T08:52:03.000Z</time>
      </trkpt>
      <trkpt lat="47.28109" lon="-2.36808">
        <ele>-6</ele>
        <time>2020-01-16T08:52:04.000Z</time>
      </trkpt>
      <trkpt lat="47.28119" lon="-2.36804">
        <ele>-6</ele>
        <time>2020-01-16T08:52:06.000Z</time>
      </trkpt>
      <trkpt lat="47.28134" lon="-2.36808">
        <ele>-6</ele>
        <time>2020-01-16T08:52:09.000Z</time>
      </trkpt>
      <trkpt lat="47.28139" lon="-2.3681">
        <ele>-6</ele>
        <time>2020-01-16T08:52:10.000Z</time>
      </trkpt>
      <trkpt lat="47.28144" lon="-2.36809">
        <ele>-6</ele>
        <time>2020-01-16T08:52:11.000Z</time>
      </trkpt>
      <trkpt lat="47.28153" lon="-2.36801">
        <ele>-6</ele>
        <time>2020-01-16T08:52:13.000Z</time>
      </trkpt>
      <trkpt lat="47.2816" lon="-2.36792">
        <ele>-6</ele>
        <time>2020-01-16T08:52:15.000Z</time>
      </trkpt>
      <trkpt lat="47.28174" lon="-2.36776">
        <ele>-6</ele>
        <time>2020-01-16T08:52:18.000Z</time>
      </trkpt>
      <trkpt lat="47.28206" lon="-2.3674">
        <ele>-6</ele>
        <time>2020-01-16T08:52:25.000Z</time>
      </trkpt>
      <trkpt lat="47.2823" lon="-2.36709">
        <ele>-6</ele>
        <time>2020-01-16T08:52:31.000Z</time>
      </trkpt>
      <trkpt lat="47.28235" lon="-2.36704">
        <ele>-5.5999999046326</ele>
        <time>2020-01-16T08:52:32.000Z</time>
      </trkpt>
      <trkpt lat="47.28239" lon="-2.36699">
        <ele>-5.1999998092651</ele>
        <time>2020-01-16T08:52:33.000Z</time>
      </trkpt>
      <trkpt lat="47.28243" lon="-2.36694">
        <ele>-4.8000001907349</ele>
        <time>2020-01-16T08:52:34.000Z</time>
      </trkpt>
      <trkpt lat="47.28247" lon="-2.36689">
        <ele>-4.4000000953674</ele>
        <time>2020-01-16T08:52:35.000Z</time>
      </trkpt>
      <trkpt lat="47.28252" lon="-2.36685">
        <ele>-4</ele>
        <time>2020-01-16T08:52:36.000Z</time>
      </trkpt>
      <trkpt lat="47.28265" lon="-2.36671">
        <ele>-4</ele>
        <time>2020-01-16T08:52:39.000Z</time>
      </trkpt>
      <trkpt lat="47.28294" lon="-2.36638">
        <ele>-3.5999999046326</ele>
        <time>2020-01-16T08:52:46.000Z</time>
      </trkpt>
      <trkpt lat="47.28298" lon="-2.36634">
        <ele>-3.2000000476837</ele>
        <time>2020-01-16T08:52:47.000Z</time>
      </trkpt>
      <trkpt lat="47.28301" lon="-2.3663">
        <ele>-2.7999999523163</ele>
        <time>2020-01-16T08:52:48.000Z</time>
      </trkpt>
      <trkpt lat="47.28305" lon="-2.36626">
        <ele>-2.4000000953674</ele>
        <time>2020-01-16T08:52:49.000Z</time>
      </trkpt>
      <trkpt lat="47.28309" lon="-2.36622">
        <ele>-2</ele>
        <time>2020-01-16T08:52:50.000Z</time>
      </trkpt>
      <trkpt lat="47.28316" lon="-2.36615">
        <ele>-1.6000000238419</ele>
        <time>2020-01-16T08:52:52.000Z</time>
      </trkpt>
      <trkpt lat="47.2832" lon="-2.36611">
        <ele>-1.2000000476837</ele>
        <time>2020-01-16T08:52:53.000Z</time>
      </trkpt>
      <trkpt lat="47.28323" lon="-2.36608">
        <ele>-0.80000001192093</ele>
        <time>2020-01-16T08:52:54.000Z</time>
      </trkpt>
      <trkpt lat="47.28327" lon="-2.36603">
        <ele>-0.40000000596046</ele>
        <time>2020-01-16T08:52:55.000Z</time>
      </trkpt>
      <trkpt lat="47.28331" lon="-2.36599">
        <ele>14.4</ele>
        <time>2020-01-16T08:52:56.000Z</time>
      </trkpt>
      <trkpt lat="47.28343" lon="-2.36586">
        <ele>15.6</ele>
        <time>2020-01-16T08:52:59.000Z</time>
      </trkpt>
      <trkpt lat="47.28349" lon="-2.36579">
        <ele>0.40000000596046</ele>
        <time>2020-01-16T08:53:01.000Z</time>
      </trkpt>
      <trkpt lat="47.28352" lon="-2.36575">
        <ele>0.80000001192093</ele>
        <time>2020-01-16T08:53:02.000Z</time>
      </trkpt>
      <trkpt lat="47.28355" lon="-2.36571">
        <ele>1.6000000238419</ele>
        <time>2020-01-16T08:53:03.000Z</time>
      </trkpt>
      <trkpt lat="47.28358" lon="-2.36567">
        <ele>2</ele>
        <time>2020-01-16T08:53:04.000Z</time>
      </trkpt>
      <trkpt lat="47.28361" lon="-2.36566">
        <ele>2</ele>
        <time>2020-01-16T08:53:05.000Z</time>
      </trkpt>
      <trkpt lat="47.28371" lon="-2.36575">
        <ele>2</ele>
        <time>2020-01-16T08:53:08.000Z</time>
      </trkpt>
      <trkpt lat="47.28374" lon="-2.36579">
        <ele>2</ele>
        <time>2020-01-16T08:53:09.000Z</time>
      </trkpt>
      <trkpt lat="47.28376" lon="-2.36584">
        <ele>2.5999999046326</ele>
        <time>2020-01-16T08:53:10.000Z</time>
      </trkpt>
      <trkpt lat="47.28379" lon="-2.36588">
        <ele>3</ele>
        <time>2020-01-16T08:53:11.000Z</time>
      </trkpt>
      <trkpt lat="47.28382" lon="-2.36592">
        <ele>3.4000000953674</ele>
        <time>2020-01-16T08:53:12.000Z</time>
      </trkpt>
      <trkpt lat="47.28385" lon="-2.36597">
        <ele>3.7999999523163</ele>
        <time>2020-01-16T08:53:13.000Z</time>
      </trkpt>
      <trkpt lat="47.28388" lon="-2.36602">
        <ele>4.4000000953674</ele>
        <time>2020-01-16T08:53:14.000Z</time>
      </trkpt>
      <trkpt lat="47.2839" lon="-2.36607">
        <ele>4.4000000953674</ele>
        <time>2020-01-16T08:53:15.000Z</time>
      </trkpt>
      <trkpt lat="47.28393" lon="-2.36611">
        <ele>4.8000001907349</ele>
        <time>2020-01-16T08:53:16.000Z</time>
      </trkpt>
      <trkpt lat="47.28396" lon="-2.36615">
        <ele>5.1999998092651</ele>
        <time>2020-01-16T08:53:17.000Z</time>
      </trkpt>
      <trkpt lat="47.28399" lon="-2.3662">
        <ele>5.5999999046326</ele>
        <time>2020-01-16T08:53:18.000Z</time>
      </trkpt>
      <trkpt lat="47.28402" lon="-2.36625">
        <ele>6</ele>
        <time>2020-01-16T08:53:19.000Z</time>
      </trkpt>
      <trkpt lat="47.28405" lon="-2.36629">
        <ele>6.5999999046326</ele>
        <time>2020-01-16T08:53:20.000Z</time>
      </trkpt>
      <trkpt lat="47.28407" lon="-2.36633">
        <ele>7</ele>
        <time>2020-01-16T08:53:21.000Z</time>
      </trkpt>
      <trkpt lat="47.2841" lon="-2.36638">
        <ele>7.4000000953674</ele>
        <time>2020-01-16T08:53:22.000Z</time>
      </trkpt>
      <trkpt lat="47.28413" lon="-2.36642">
        <ele>7.8000001907349</ele>
        <time>2020-01-16T08:53:23.000Z</time>
      </trkpt>
      <trkpt lat="47.28416" lon="-2.36647">
        <ele>8.3999996185303</ele>
        <time>2020-01-16T08:53:24.000Z</time>
      </trkpt>
      <trkpt lat="47.28419" lon="-2.3665">
        <ele>8.8000001907349</ele>
        <time>2020-01-16T08:53:25.000Z</time>
      </trkpt>
      <trkpt lat="47.28424" lon="-2.36659">
        <ele>9.1999998092651</ele>
        <time>2020-01-16T08:53:27.000Z</time>
      </trkpt>
      <trkpt lat="47.28426" lon="-2.36664">
        <ele>10.199999809265</ele>
        <time>2020-01-16T08:53:28.000Z</time>
      </trkpt>
      <trkpt lat="47.28429" lon="-2.36669">
        <ele>10.60000038147</ele>
        <time>2020-01-16T08:53:29.000Z</time>
      </trkpt>
      <trkpt lat="47.28431" lon="-2.36675">
        <ele>11</ele>
        <time>2020-01-16T08:53:30.000Z</time>
      </trkpt>
      <trkpt lat="47.28437" lon="-2.36692">
        <ele>11</ele>
        <time>2020-01-16T08:53:33.000Z</time>
      </trkpt>
      <trkpt lat="47.28441" lon="-2.36704">
        <ele>11</ele>
        <time>2020-01-16T08:53:35.000Z</time>
      </trkpt>
      <trkpt lat="47.28448" lon="-2.36713">
        <ele>11</ele>
        <time>2020-01-16T08:53:37.000Z</time>
      </trkpt>
      <trkpt lat="47.28461" lon="-2.36714">
        <ele>11</ele>
        <time>2020-01-16T08:53:40.000Z</time>
      </trkpt>
      <trkpt lat="47.28472" lon="-2.36701">
        <ele>11</ele>
        <time>2020-01-16T08:53:43.000Z</time>
      </trkpt>
      <trkpt lat="47.28476" lon="-2.36697">
        <ele>11</ele>
        <time>2020-01-16T08:53:44.000Z</time>
      </trkpt>
      <trkpt lat="47.28496" lon="-2.36677">
        <ele>11</ele>
        <time>2020-01-16T08:53:49.000Z</time>
      </trkpt>
      <trkpt lat="47.285" lon="-2.36674">
        <ele>11</ele>
        <time>2020-01-16T08:53:50.000Z</time>
      </trkpt>
      <trkpt lat="47.28512" lon="-2.3667">
        <ele>11.800000190735</ele>
        <time>2020-01-16T08:53:53.000Z</time>
      </trkpt>
      <trkpt lat="47.28517" lon="-2.36669">
        <ele>12.39999961853</ele>
        <time>2020-01-16T08:53:54.000Z</time>
      </trkpt>
      <trkpt lat="47.28521" lon="-2.36668">
        <ele>12.800000190735</ele>
        <time>2020-01-16T08:53:55.000Z</time>
      </trkpt>
      <trkpt lat="47.28525" lon="-2.36668">
        <ele>13.199999809265</ele>
        <time>2020-01-16T08:53:56.000Z</time>
      </trkpt>
      <trkpt lat="47.28531" lon="-2.36668">
        <ele>13.199999809265</ele>
        <time>2020-01-16T08:53:57.000Z</time>
      </trkpt>
      <trkpt lat="47.28546" lon="-2.3667">
        <ele>13.199999809265</ele>
        <time>2020-01-16T08:54:00.000Z</time>
      </trkpt>
      <trkpt lat="47.28582" lon="-2.36672">
        <ele>13.199999809265</ele>
        <time>2020-01-16T08:54:07.000Z</time>
      </trkpt>
      <trkpt lat="47.28592" lon="-2.36671">
        <ele>13.60000038147</ele>
        <time>2020-01-16T08:54:09.000Z</time>
      </trkpt>
      <trkpt lat="47.28597" lon="-2.36671">
        <ele>14.199999809265</ele>
        <time>2020-01-16T08:54:10.000Z</time>
      </trkpt>
      <trkpt lat="47.28601" lon="-2.36672">
        <ele>14.60000038147</ele>
        <time>2020-01-16T08:54:11.000Z</time>
      </trkpt>
      <trkpt lat="47.28606" lon="-2.36672">
        <ele>15</ele>
        <time>2020-01-16T08:54:12.000Z</time>
      </trkpt>
      <trkpt lat="47.2861" lon="-2.36671">
        <ele>15.39999961853</ele>
        <time>2020-01-16T08:54:13.000Z</time>
      </trkpt>
      <trkpt lat="47.2863" lon="-2.36661">
        <ele>16.39999961853</ele>
        <time>2020-01-16T08:54:18.000Z</time>
      </trkpt>
      <trkpt lat="47.28633" lon="-2.36659">
        <ele>16.799999237061</ele>
        <time>2020-01-16T08:54:19.000Z</time>
      </trkpt>
      <trkpt lat="47.28637" lon="-2.36656">
        <ele>17.200000762939</ele>
        <time>2020-01-16T08:54:20.000Z</time>
      </trkpt>
      <trkpt lat="47.28641" lon="-2.36652">
        <ele>17.60000038147</ele>
        <time>2020-01-16T08:54:21.000Z</time>
      </trkpt>
      <trkpt lat="47.28653" lon="-2.36642">
        <ele>17.60000038147</ele>
        <time>2020-01-16T08:54:24.000Z</time>
      </trkpt>
      <trkpt lat="47.28656" lon="-2.36639">
        <ele>18.200000762939</ele>
        <time>2020-01-16T08:54:25.000Z</time>
      </trkpt>
      <trkpt lat="47.28659" lon="-2.36636">
        <ele>18.60000038147</ele>
        <time>2020-01-16T08:54:26.000Z</time>
      </trkpt>
      <trkpt lat="47.28663" lon="-2.36633">
        <ele>19</ele>
        <time>2020-01-16T08:54:27.000Z</time>
      </trkpt>
      <trkpt lat="47.28667" lon="-2.3663">
        <ele>19.39999961853</ele>
        <time>2020-01-16T08:54:28.000Z</time>
      </trkpt>
      <trkpt lat="47.28671" lon="-2.36627">
        <ele>19.799999237061</ele>
        <time>2020-01-16T08:54:29.000Z</time>
      </trkpt>
      <trkpt lat="47.28686" lon="-2.36616">
        <ele>19.799999237061</ele>
        <time>2020-01-16T08:54:33.000Z</time>
      </trkpt>
      <trkpt lat="47.28689" lon="-2.36612">
        <ele>20.39999961853</ele>
        <time>2020-01-16T08:54:34.000Z</time>
      </trkpt>
      <trkpt lat="47.28692" lon="-2.36609">
        <ele>20.799999237061</ele>
        <time>2020-01-16T08:54:35.000Z</time>
      </trkpt>
      <trkpt lat="47.28693" lon="-2.36605">
        <ele>21.200000762939</ele>
        <time>2020-01-16T08:54:36.000Z</time>
      </trkpt>
      <trkpt lat="47.28696" lon="-2.36601">
        <ele>21.60000038147</ele>
        <time>2020-01-16T08:54:37.000Z</time>
      </trkpt>
      <trkpt lat="47.28698" lon="-2.36597">
        <ele>22</ele>
        <time>2020-01-16T08:54:38.000Z</time>
      </trkpt>
      <trkpt lat="47.28707" lon="-2.36582">
        <ele>22</ele>
        <time>2020-01-16T08:54:41.000Z</time>
      </trkpt>
      <trkpt lat="47.28711" lon="-2.36577">
        <ele>23</ele>
        <time>2020-01-16T08:54:42.000Z</time>
      </trkpt>
      <trkpt lat="47.28714" lon="-2.3657">
        <ele>23.39999961853</ele>
        <time>2020-01-16T08:54:43.000Z</time>
      </trkpt>
      <trkpt lat="47.28717" lon="-2.36564">
        <ele>23.799999237061</ele>
        <time>2020-01-16T08:54:44.000Z</time>
      </trkpt>
      <trkpt lat="47.2872" lon="-2.36558">
        <ele>24.200000762939</ele>
        <time>2020-01-16T08:54:45.000Z</time>
      </trkpt>
      <trkpt lat="47.28732" lon="-2.36534">
        <ele>24.200000762939</ele>
        <time>2020-01-16T08:54:49.000Z</time>
      </trkpt>
      <trkpt lat="47.28741" lon="-2.36515">
        <ele>24.200000762939</ele>
        <time>2020-01-16T08:54:52.000Z</time>
      </trkpt>
      <trkpt lat="47.28751" lon="-2.36498">
        <ele>24.200000762939</ele>
        <time>2020-01-16T08:54:55.000Z</time>
      </trkpt>
      <trkpt lat="47.28754" lon="-2.36493">
        <ele>24.200000762939</ele>
        <time>2020-01-16T08:54:56.000Z</time>
      </trkpt>
      <trkpt lat="47.28767" lon="-2.36464">
        <ele>24.200000762939</ele>
        <time>2020-01-16T08:55:01.000Z</time>
      </trkpt>
      <trkpt lat="47.28781" lon="-2.36438">
        <ele>24.200000762939</ele>
        <time>2020-01-16T08:55:07.000Z</time>
      </trkpt>
      <trkpt lat="47.28799" lon="-2.36422">
        <ele>24.200000762939</ele>
        <time>2020-01-16T08:55:11.000Z</time>
      </trkpt>
      <trkpt lat="47.2881" lon="-2.36416">
        <ele>24.60000038147</ele>
        <time>2020-01-16T08:55:14.000Z</time>
      </trkpt>
      <trkpt lat="47.28813" lon="-2.36415">
        <ele>25</ele>
        <time>2020-01-16T08:55:15.000Z</time>
      </trkpt>
      <trkpt lat="47.28816" lon="-2.36413">
        <ele>25.39999961853</ele>
        <time>2020-01-16T08:55:16.000Z</time>
      </trkpt>
      <trkpt lat="47.28818" lon="-2.36412">
        <ele>25.799999237061</ele>
        <time>2020-01-16T08:55:17.000Z</time>
      </trkpt>
      <trkpt lat="47.28821" lon="-2.36409">
        <ele>26.200000762939</ele>
        <time>2020-01-16T08:55:18.000Z</time>
      </trkpt>
      <trkpt lat="47.2883" lon="-2.36396">
        <ele>26.200000762939</ele>
        <time>2020-01-16T08:55:22.000Z</time>
      </trkpt>
      <trkpt lat="47.28833" lon="-2.36389">
        <ele>26.200000762939</ele>
        <time>2020-01-16T08:55:24.000Z</time>
      </trkpt>
      <trkpt lat="47.28835" lon="-2.36386">
        <ele>26.200000762939</ele>
        <time>2020-01-16T08:55:26.000Z</time>
      </trkpt>
      <trkpt lat="47.2884" lon="-2.36371">
        <ele>26.200000762939</ele>
        <time>2020-01-16T08:55:31.000Z</time>
      </trkpt>
      <trkpt lat="47.28844" lon="-2.3636">
        <ele>26.200000762939</ele>
        <time>2020-01-16T08:55:37.000Z</time>
      </trkpt>
      <trkpt lat="47.28858" lon="-2.36334">
        <ele>20.200000762939</ele>
        <time>2020-01-16T08:56:14.000Z</time>
      </trkpt>
      <trkpt lat="47.28866" lon="-2.36334">
        <ele>19.799999237061</ele>
        <time>2020-01-16T08:56:18.000Z</time>
      </trkpt>
      <trkpt lat="47.28867" lon="-2.36335">
        <ele>19.39999961853</ele>
        <time>2020-01-16T08:56:19.000Z</time>
      </trkpt>
      <trkpt lat="47.28868" lon="-2.36336">
        <ele>18.60000038147</ele>
        <time>2020-01-16T08:56:20.000Z</time>
      </trkpt>
      <trkpt lat="47.28867" lon="-2.36338">
        <ele>18</ele>
        <time>2020-01-16T08:56:21.000Z</time>
      </trkpt>
      <trkpt lat="47.28867" lon="-2.3634">
        <ele>17.39999961853</ele>
        <time>2020-01-16T08:56:22.000Z</time>
      </trkpt>
      <trkpt lat="47.28867" lon="-2.36342">
        <ele>16.799999237061</ele>
        <time>2020-01-16T08:56:23.000Z</time>
      </trkpt>
      <trkpt lat="47.28866" lon="-2.36344">
        <ele>16.200000762939</ele>
        <time>2020-01-16T08:56:24.000Z</time>
      </trkpt>
      <trkpt lat="47.28865" lon="-2.36346">
        <ele>15.800000190735</ele>
        <time>2020-01-16T08:56:25.000Z</time>
      </trkpt>
      <trkpt lat="47.28862" lon="-2.36358">
        <ele>15.800000190735</ele>
        <time>2020-01-16T08:56:29.000Z</time>
      </trkpt>
      <trkpt lat="47.28861" lon="-2.3636">
        <ele>15.800000190735</ele>
        <time>2020-01-16T08:56:30.000Z</time>
      </trkpt>
      <trkpt lat="47.2886" lon="-2.36366">
        <ele>16.200000762939</ele>
        <time>2020-01-16T08:56:33.000Z</time>
      </trkpt>
      <trkpt lat="47.28861" lon="-2.36369">
        <ele>16.60000038147</ele>
        <time>2020-01-16T08:56:34.000Z</time>
      </trkpt>
      <trkpt lat="47.28861" lon="-2.36371">
        <ele>17</ele>
        <time>2020-01-16T08:56:35.000Z</time>
      </trkpt>
      <trkpt lat="47.28861" lon="-2.36373">
        <ele>17.39999961853</ele>
        <time>2020-01-16T08:56:36.000Z</time>
      </trkpt>
      <trkpt lat="47.28861" lon="-2.36376">
        <ele>17.799999237061</ele>
        <time>2020-01-16T08:56:37.000Z</time>
      </trkpt>
      <trkpt lat="47.28861" lon="-2.3639">
        <ele>17.799999237061</ele>
        <time>2020-01-16T08:56:42.000Z</time>
      </trkpt>
      <trkpt lat="47.28859" lon="-2.36398">
        <ele>17.799999237061</ele>
        <time>2020-01-16T08:56:47.000Z</time>
      </trkpt>
      <trkpt lat="47.28851" lon="-2.36425">
        <ele>22.200000762939</ele>
        <time>2020-01-16T08:57:05.000Z</time>
      </trkpt>
      <trkpt lat="47.28853" lon="-2.36436">
        <ele>22.200000762939</ele>
        <time>2020-01-16T08:57:07.000Z</time>
      </trkpt>
      <trkpt lat="47.2886" lon="-2.36474">
        <ele>22.200000762939</ele>
        <time>2020-01-16T08:57:12.000Z</time>
      </trkpt>
      <trkpt lat="47.28864" lon="-2.36495">
        <ele>21.799999237061</ele>
        <time>2020-01-16T08:57:15.000Z</time>
      </trkpt>
      <trkpt lat="47.28867" lon="-2.36502">
        <ele>21.39999961853</ele>
        <time>2020-01-16T08:57:16.000Z</time>
      </trkpt>
      <trkpt lat="47.28869" lon="-2.36511">
        <ele>21</ele>
        <time>2020-01-16T08:57:17.000Z</time>
      </trkpt>
      <trkpt lat="47.28871" lon="-2.3652">
        <ele>20.60000038147</ele>
        <time>2020-01-16T08:57:18.000Z</time>
      </trkpt>
      <trkpt lat="47.28872" lon="-2.36528">
        <ele>20</ele>
        <time>2020-01-16T08:57:19.000Z</time>
      </trkpt>
      <trkpt lat="47.28872" lon="-2.36537">
        <ele>19.39999961853</ele>
        <time>2020-01-16T08:57:20.000Z</time>
      </trkpt>
      <trkpt lat="47.28872" lon="-2.36547">
        <ele>18.799999237061</ele>
        <time>2020-01-16T08:57:21.000Z</time>
      </trkpt>
      <trkpt lat="47.2887" lon="-2.36557">
        <ele>18.200000762939</ele>
        <time>2020-01-16T08:57:22.000Z</time>
      </trkpt>
      <trkpt lat="47.28867" lon="-2.36565">
        <ele>17.799999237061</ele>
        <time>2020-01-16T08:57:23.000Z</time>
      </trkpt>
      <trkpt lat="47.28864" lon="-2.36573">
        <ele>17.200000762939</ele>
        <time>2020-01-16T08:57:24.000Z</time>
      </trkpt>
      <trkpt lat="47.28861" lon="-2.36579">
        <ele>16.60000038147</ele>
        <time>2020-01-16T08:57:25.000Z</time>
      </trkpt>
      <trkpt lat="47.28859" lon="-2.36584">
        <ele>16.200000762939</ele>
        <time>2020-01-16T08:57:26.000Z</time>
      </trkpt>
      <trkpt lat="47.28857" lon="-2.36589">
        <ele>15.60000038147</ele>
        <time>2020-01-16T08:57:27.000Z</time>
      </trkpt>
      <trkpt lat="47.28855" lon="-2.36594">
        <ele>15.60000038147</ele>
        <time>2020-01-16T08:57:28.000Z</time>
      </trkpt>
      <trkpt lat="47.28847" lon="-2.36614">
        <ele>15.60000038147</ele>
        <time>2020-01-16T08:57:33.000Z</time>
      </trkpt>
      <trkpt lat="47.28835" lon="-2.36629">
        <ele>15.60000038147</ele>
        <time>2020-01-16T08:57:38.000Z</time>
      </trkpt>
      <trkpt lat="47.28829" lon="-2.36643">
        <ele>15.60000038147</ele>
        <time>2020-01-16T08:57:42.000Z</time>
      </trkpt>
      <trkpt lat="47.28826" lon="-2.36653">
        <ele>15.199999809265</ele>
        <time>2020-01-16T08:57:44.000Z</time>
      </trkpt>
      <trkpt lat="47.28825" lon="-2.36659">
        <ele>14.800000190735</ele>
        <time>2020-01-16T08:57:45.000Z</time>
      </trkpt>
      <trkpt lat="47.28823" lon="-2.36666">
        <ele>14.39999961853</ele>
        <time>2020-01-16T08:57:46.000Z</time>
      </trkpt>
      <trkpt lat="47.28821" lon="-2.36672">
        <ele>13.800000190735</ele>
        <time>2020-01-16T08:57:47.000Z</time>
      </trkpt>
      <trkpt lat="47.28818" lon="-2.36679">
        <ele>13.39999961853</ele>
        <time>2020-01-16T08:57:48.000Z</time>
      </trkpt>
      <trkpt lat="47.28815" lon="-2.36687">
        <ele>12.800000190735</ele>
        <time>2020-01-16T08:57:49.000Z</time>
      </trkpt>
      <trkpt lat="47.28813" lon="-2.36695">
        <ele>12.39999961853</ele>
        <time>2020-01-16T08:57:50.000Z</time>
      </trkpt>
      <trkpt lat="47.2881" lon="-2.36704">
        <ele>11.800000190735</ele>
        <time>2020-01-16T08:57:51.000Z</time>
      </trkpt>
      <trkpt lat="47.28808" lon="-2.36712">
        <ele>11.199999809265</ele>
        <time>2020-01-16T08:57:52.000Z</time>
      </trkpt>
      <trkpt lat="47.28805" lon="-2.3672">
        <ele>10.800000190735</ele>
        <time>2020-01-16T08:57:53.000Z</time>
      </trkpt>
      <trkpt lat="47.28803" lon="-2.36728">
        <ele>10.199999809265</ele>
        <time>2020-01-16T08:57:54.000Z</time>
      </trkpt>
      <trkpt lat="47.28801" lon="-2.36736">
        <ele>9.6000003814697</ele>
        <time>2020-01-16T08:57:55.000Z</time>
      </trkpt>
      <trkpt lat="47.28799" lon="-2.36743">
        <ele>9</ele>
        <time>2020-01-16T08:57:56.000Z</time>
      </trkpt>
      <trkpt lat="47.28796" lon="-2.3676">
        <ele>8.6000003814697</ele>
        <time>2020-01-16T08:57:58.000Z</time>
      </trkpt>
      <trkpt lat="47.28794" lon="-2.3677">
        <ele>7.8000001907349</ele>
        <time>2020-01-16T08:57:59.000Z</time>
      </trkpt>
      <trkpt lat="47.28793" lon="-2.36779">
        <ele>7.4000000953674</ele>
        <time>2020-01-16T08:58:00.000Z</time>
      </trkpt>
      <trkpt lat="47.2879" lon="-2.36789">
        <ele>7</ele>
        <time>2020-01-16T08:58:01.000Z</time>
      </trkpt>
      <trkpt lat="47.28786" lon="-2.36806">
        <ele>7</ele>
        <time>2020-01-16T08:58:03.000Z</time>
      </trkpt>
      <trkpt lat="47.28784" lon="-2.36814">
        <ele>6.5999999046326</ele>
        <time>2020-01-16T08:58:04.000Z</time>
      </trkpt>
      <trkpt lat="47.28783" lon="-2.36824">
        <ele>6.1999998092651</ele>
        <time>2020-01-16T08:58:05.000Z</time>
      </trkpt>
      <trkpt lat="47.28782" lon="-2.36834">
        <ele>5.5999999046326</ele>
        <time>2020-01-16T08:58:06.000Z</time>
      </trkpt>
      <trkpt lat="47.2878" lon="-2.36845">
        <ele>5.1999998092651</ele>
        <time>2020-01-16T08:58:07.000Z</time>
      </trkpt>
      <trkpt lat="47.28779" lon="-2.36855">
        <ele>4.8000001907349</ele>
        <time>2020-01-16T08:58:08.000Z</time>
      </trkpt>
      <trkpt lat="47.28778" lon="-2.36866">
        <ele>4.1999998092651</ele>
        <time>2020-01-16T08:58:09.000Z</time>
      </trkpt>
      <trkpt lat="47.28777" lon="-2.36873">
        <ele>3.7999999523163</ele>
        <time>2020-01-16T08:58:10.000Z</time>
      </trkpt>
      <trkpt lat="47.28775" lon="-2.36879">
        <ele>3.2000000476837</ele>
        <time>2020-01-16T08:58:11.000Z</time>
      </trkpt>
      <trkpt lat="47.28773" lon="-2.36885">
        <ele>2.7999999523163</ele>
        <time>2020-01-16T08:58:12.000Z</time>
      </trkpt>
      <trkpt lat="47.28771" lon="-2.3689">
        <ele>2.4000000953674</ele>
        <time>2020-01-16T08:58:13.000Z</time>
      </trkpt>
      <trkpt lat="47.28767" lon="-2.36894">
        <ele>1.7999999523163</ele>
        <time>2020-01-16T08:58:14.000Z</time>
      </trkpt>
      <trkpt lat="47.28764" lon="-2.36896">
        <ele>1.3999999761581</ele>
        <time>2020-01-16T08:58:15.000Z</time>
      </trkpt>
      <trkpt lat="47.2876" lon="-2.36897">
        <ele>1</ele>
        <time>2020-01-16T08:58:16.000Z</time>
      </trkpt>
      <trkpt lat="47.28757" lon="-2.36898">
        <ele>0.60000002384186</ele>
        <time>2020-01-16T08:58:17.000Z</time>
      </trkpt>
      <trkpt lat="47.28753" lon="-2.369">
        <ele>0.60000002384186</ele>
        <time>2020-01-16T08:58:18.000Z</time>
      </trkpt>
      <trkpt lat="47.28748" lon="-2.36905">
        <ele>0.60000002384186</ele>
        <time>2020-01-16T08:58:21.000Z</time>
      </trkpt>
      <trkpt lat="47.28747" lon="-2.36907">
        <ele>0.60000002384186</ele>
        <time>2020-01-16T08:58:22.000Z</time>
      </trkpt>
      <trkpt lat="47.28748" lon="-2.36916">
        <ele>0.60000002384186</ele>
        <time>2020-01-16T08:58:25.000Z</time>
      </trkpt>
      <trkpt lat="47.28749" lon="-2.36918">
        <ele>1</ele>
        <time>2020-01-16T08:58:26.000Z</time>
      </trkpt>
      <trkpt lat="47.28749" lon="-2.36921">
        <ele>1.3999999761581</ele>
        <time>2020-01-16T08:58:27.000Z</time>
      </trkpt>
      <trkpt lat="47.2875" lon="-2.36924">
        <ele>2</ele>
        <time>2020-01-16T08:58:28.000Z</time>
      </trkpt>
      <trkpt lat="47.28751" lon="-2.36926">
        <ele>2.4000000953674</ele>
        <time>2020-01-16T08:58:29.000Z</time>
      </trkpt>
      <trkpt lat="47.28751" lon="-2.36928">
        <ele>2.7999999523163</ele>
        <time>2020-01-16T08:58:30.000Z</time>
      </trkpt>
      <trkpt lat="47.28752" lon="-2.3693">
        <ele>2.7999999523163</ele>
        <time>2020-01-16T08:58:31.000Z</time>
      </trkpt>
      <trkpt lat="47.28756" lon="-2.36937">
        <ele>3.2000000476837</ele>
        <time>2020-01-16T08:58:34.000Z</time>
      </trkpt>
      <trkpt lat="47.28756" lon="-2.3694">
        <ele>3.5999999046326</ele>
        <time>2020-01-16T08:58:35.000Z</time>
      </trkpt>
      <trkpt lat="47.28756" lon="-2.36942">
        <ele>4</ele>
        <time>2020-01-16T08:58:36.000Z</time>
      </trkpt>
      <trkpt lat="47.28756" lon="-2.36944">
        <ele>4.5999999046326</ele>
        <time>2020-01-16T08:58:37.000Z</time>
      </trkpt>
      <trkpt lat="47.28756" lon="-2.36947">
        <ele>5</ele>
        <time>2020-01-16T08:58:38.000Z</time>
      </trkpt>
      <trkpt lat="47.28756" lon="-2.3695">
        <ele>5.5999999046326</ele>
        <time>2020-01-16T08:58:39.000Z</time>
      </trkpt>
      <trkpt lat="47.28757" lon="-2.36952">
        <ele>6</ele>
        <time>2020-01-16T08:58:40.000Z</time>
      </trkpt>
      <trkpt lat="47.28758" lon="-2.36954">
        <ele>6.5999999046326</ele>
        <time>2020-01-16T08:58:41.000Z</time>
      </trkpt>
      <trkpt lat="47.28758" lon="-2.36955">
        <ele>7</ele>
        <time>2020-01-16T08:58:42.000Z</time>
      </trkpt>
      <trkpt lat="47.28758" lon="-2.36957">
        <ele>7.5999999046326</ele>
        <time>2020-01-16T08:58:43.000Z</time>
      </trkpt>
      <trkpt lat="47.28758" lon="-2.3696">
        <ele>8</ele>
        <time>2020-01-16T08:58:44.000Z</time>
      </trkpt>
      <trkpt lat="47.2876" lon="-2.36964">
        <ele>8.6000003814697</ele>
        <time>2020-01-16T08:58:45.000Z</time>
      </trkpt>
      <trkpt lat="47.28761" lon="-2.36968">
        <ele>9.1999998092651</ele>
        <time>2020-01-16T08:58:46.000Z</time>
      </trkpt>
      <trkpt lat="47.28763" lon="-2.36972">
        <ele>9.1999998092651</ele>
        <time>2020-01-16T08:58:47.000Z</time>
      </trkpt>
      <trkpt lat="47.28768" lon="-2.36984">
        <ele>9.1999998092651</ele>
        <time>2020-01-16T08:58:52.000Z</time>
      </trkpt>
      <trkpt lat="47.28776" lon="-2.37">
        <ele>9.1999998092651</ele>
        <time>2020-01-16T08:58:57.000Z</time>
      </trkpt>
      <trkpt lat="47.2878" lon="-2.37023">
        <ele>9.1999998092651</ele>
        <time>2020-01-16T08:59:01.000Z</time>
      </trkpt>
      <trkpt lat="47.28785" lon="-2.37044">
        <ele>9.1999998092651</ele>
        <time>2020-01-16T08:59:04.000Z</time>
      </trkpt>
      <trkpt lat="47.28788" lon="-2.3706">
        <ele>8.6000003814697</ele>
        <time>2020-01-16T08:59:06.000Z</time>
      </trkpt>
      <trkpt lat="47.2879" lon="-2.37069">
        <ele>8.1999998092651</ele>
        <time>2020-01-16T08:59:07.000Z</time>
      </trkpt>
      <trkpt lat="47.28792" lon="-2.37079">
        <ele>7.5999999046326</ele>
        <time>2020-01-16T08:59:08.000Z</time>
      </trkpt>
      <trkpt lat="47.28793" lon="-2.37087">
        <ele>7.1999998092651</ele>
        <time>2020-01-16T08:59:09.000Z</time>
      </trkpt>
      <trkpt lat="47.28795" lon="-2.37094">
        <ele>6.5999999046326</ele>
        <time>2020-01-16T08:59:10.000Z</time>
      </trkpt>
      <trkpt lat="47.28797" lon="-2.37099">
        <ele>6</ele>
        <time>2020-01-16T08:59:11.000Z</time>
      </trkpt>
      <trkpt lat="47.288" lon="-2.37102">
        <ele>5.5999999046326</ele>
        <time>2020-01-16T08:59:12.000Z</time>
      </trkpt>
      <trkpt lat="47.28802" lon="-2.37103">
        <ele>4.4000000953674</ele>
        <time>2020-01-16T08:59:13.000Z</time>
      </trkpt>
      <trkpt lat="47.28805" lon="-2.37105">
        <ele>4.4000000953674</ele>
        <time>2020-01-16T08:59:14.000Z</time>
      </trkpt>
      <trkpt lat="47.28809" lon="-2.37107">
        <ele>4</ele>
        <time>2020-01-16T08:59:15.000Z</time>
      </trkpt>
      <trkpt lat="47.28811" lon="-2.37107">
        <ele>3.4000000953674</ele>
        <time>2020-01-16T08:59:16.000Z</time>
      </trkpt>
      <trkpt lat="47.28814" lon="-2.37106">
        <ele>3</ele>
        <time>2020-01-16T08:59:17.000Z</time>
      </trkpt>
      <trkpt lat="47.28817" lon="-2.37105">
        <ele>2.5999999046326</ele>
        <time>2020-01-16T08:59:18.000Z</time>
      </trkpt>
      <trkpt lat="47.2882" lon="-2.37103">
        <ele>2</ele>
        <time>2020-01-16T08:59:19.000Z</time>
      </trkpt>
      <trkpt lat="47.28822" lon="-2.37102">
        <ele>1.6000000238419</ele>
        <time>2020-01-16T08:59:20.000Z</time>
      </trkpt>
      <trkpt lat="47.28823" lon="-2.37101">
        <ele>1</ele>
        <time>2020-01-16T08:59:21.000Z</time>
      </trkpt>
      <trkpt lat="47.28825" lon="-2.37104">
        <ele>0.40000000596046</ele>
        <time>2020-01-16T08:59:22.000Z</time>
      </trkpt>
      <trkpt lat="47.28826" lon="-2.37107">
        <ele>-0.20000000298023</ele>
        <time>2020-01-16T08:59:23.000Z</time>
      </trkpt>
      <trkpt lat="47.28827" lon="-2.3711">
        <ele>-0.80000001192093</ele>
        <time>2020-01-16T08:59:24.000Z</time>
      </trkpt>
      <trkpt lat="47.28827" lon="-2.37113">
        <ele>-1.2000000476837</ele>
        <time>2020-01-16T08:59:25.000Z</time>
      </trkpt>
      <trkpt lat="47.28827" lon="-2.37117">
        <ele>-1.7999999523163</ele>
        <time>2020-01-16T08:59:26.000Z</time>
      </trkpt>
      <trkpt lat="47.28827" lon="-2.37123">
        <ele>-2.4000000953674</ele>
        <time>2020-01-16T08:59:27.000Z</time>
      </trkpt>
      <trkpt lat="47.28828" lon="-2.37136">
        <ele>-2.4000000953674</ele>
        <time>2020-01-16T08:59:29.000Z</time>
      </trkpt>
      <trkpt lat="47.28833" lon="-2.37157">
        <ele>-2.4000000953674</ele>
        <time>2020-01-16T08:59:32.000Z</time>
      </trkpt>
      <trkpt lat="47.28839" lon="-2.37189">
        <ele>-2.4000000953674</ele>
        <time>2020-01-16T08:59:37.000Z</time>
      </trkpt>
      <trkpt lat="47.2884" lon="-2.37195">
        <ele>-2.4000000953674</ele>
        <time>2020-01-16T08:59:38.000Z</time>
      </trkpt>
      <trkpt lat="47.28846" lon="-2.37221">
        <ele>-2.4000000953674</ele>
        <time>2020-01-16T08:59:43.000Z</time>
      </trkpt>
      <trkpt lat="47.28851" lon="-2.37237">
        <ele>-2.4000000953674</ele>
        <time>2020-01-16T08:59:47.000Z</time>
      </trkpt>
      <trkpt lat="47.28854" lon="-2.37253">
        <ele>-2.4000000953674</ele>
        <time>2020-01-16T08:59:53.000Z</time>
      </trkpt>
      <trkpt lat="47.28854" lon="-2.37255">
        <ele>-2.7999999523163</ele>
        <time>2020-01-16T08:59:54.000Z</time>
      </trkpt>
      <trkpt lat="47.28855" lon="-2.37257">
        <ele>-3.2000000476837</ele>
        <time>2020-01-16T08:59:55.000Z</time>
      </trkpt>
      <trkpt lat="47.28855" lon="-2.37259">
        <ele>-3.5999999046326</ele>
        <time>2020-01-16T08:59:56.000Z</time>
      </trkpt>
      <trkpt lat="47.28855" lon="-2.3726">
        <ele>-4</ele>
        <time>2020-01-16T08:59:57.000Z</time>
      </trkpt>
      <trkpt lat="47.28855" lon="-2.37262">
        <ele>-4.4000000953674</ele>
        <time>2020-01-16T08:59:58.000Z</time>
      </trkpt>
      <trkpt lat="47.28855" lon="-2.37263">
        <ele>-4.4000000953674</ele>
        <time>2020-01-16T08:59:59.000Z</time>
      </trkpt>
      <trkpt lat="47.28856" lon="-2.37264">
        <ele>-4.4000000953674</ele>
        <time>2020-01-16T09:00:31.000Z</time>
      </trkpt>
      <trkpt lat="47.28856" lon="-2.37267">
        <ele>-4.4000000953674</ele>
        <time>2020-01-16T09:00:32.000Z</time>
      </trkpt>
      <trkpt lat="47.28857" lon="-2.37274">
        <ele>-4.4000000953674</ele>
        <time>2020-01-16T09:00:34.000Z</time>
      </trkpt>
      <trkpt lat="47.2886" lon="-2.37304">
        <ele>-4.4000000953674</ele>
        <time>2020-01-16T09:00:40.000Z</time>
      </trkpt>
      <trkpt lat="47.28864" lon="-2.37336">
        <ele>-4.4000000953674</ele>
        <time>2020-01-16T09:00:46.000Z</time>
      </trkpt>
      <trkpt lat="47.28867" lon="-2.37377">
        <ele>-4.4000000953674</ele>
        <time>2020-01-16T09:00:53.000Z</time>
      </trkpt>
      <trkpt lat="47.28871" lon="-2.37414">
        <ele>-4.4000000953674</ele>
        <time>2020-01-16T09:01:00.000Z</time>
      </trkpt>
      <trkpt lat="47.28874" lon="-2.37448">
        <ele>-4.4000000953674</ele>
        <time>2020-01-16T09:01:06.000Z</time>
      </trkpt>
      <trkpt lat="47.28879" lon="-2.37489">
        <ele>-4.4000000953674</ele>
        <time>2020-01-16T09:01:14.000Z</time>
      </trkpt>
      <trkpt lat="47.28883" lon="-2.37519">
        <ele>-4.4000000953674</ele>
        <time>2020-01-16T09:01:21.000Z</time>
      </trkpt>
      <trkpt lat="47.28884" lon="-2.37528">
        <ele>-4.4000000953674</ele>
        <time>2020-01-16T09:01:26.000Z</time>
      </trkpt>
      <trkpt lat="47.28884" lon="-2.37528">
        <ele>-4.4000000953674</ele>
        <time>2020-01-16T09:01:27.000Z</time>
      </trkpt>
      <trkpt lat="47.28884" lon="-2.37532">
        <ele>-4.4000000953674</ele>
        <time>2020-01-16T09:01:31.000Z</time>
      </trkpt>
      <trkpt lat="47.28886" lon="-2.37538">
        <ele>-4.4000000953674</ele>
        <time>2020-01-16T09:01:33.000Z</time>
      </trkpt>
      <trkpt lat="47.28893" lon="-2.37556">
        <ele>-4.4000000953674</ele>
        <time>2020-01-16T09:01:37.000Z</time>
      </trkpt>
      <trkpt lat="47.28899" lon="-2.37575">
        <ele>-4.4000000953674</ele>
        <time>2020-01-16T09:01:40.000Z</time>
      </trkpt>
      <trkpt lat="47.28902" lon="-2.3759">
        <ele>-4.4000000953674</ele>
        <time>2020-01-16T09:01:42.000Z</time>
      </trkpt>
      <trkpt lat="47.28903" lon="-2.37604">
        <ele>-4.4000000953674</ele>
        <time>2020-01-16T09:01:44.000Z</time>
      </trkpt>
      <trkpt lat="47.28905" lon="-2.37616">
        <ele>-4.8000001907349</ele>
        <time>2020-01-16T09:01:46.000Z</time>
      </trkpt>
      <trkpt lat="47.28906" lon="-2.37622">
        <ele>-5.1999998092651</ele>
        <time>2020-01-16T09:01:47.000Z</time>
      </trkpt>
      <trkpt lat="47.28907" lon="-2.37629">
        <ele>-5.5999999046326</ele>
        <time>2020-01-16T09:01:48.000Z</time>
      </trkpt>
      <trkpt lat="47.28907" lon="-2.37634">
        <ele>-6.1999998092651</ele>
        <time>2020-01-16T09:01:49.000Z</time>
      </trkpt>
      <trkpt lat="47.28908" lon="-2.3764">
        <ele>-6.5999999046326</ele>
        <time>2020-01-16T09:01:50.000Z</time>
      </trkpt>
      <trkpt lat="47.28914" lon="-2.37647">
        <ele>-6.5999999046326</ele>
        <time>2020-01-16T09:01:52.000Z</time>
      </trkpt>
      <trkpt lat="47.28926" lon="-2.37646">
        <ele>-6.5999999046326</ele>
        <time>2020-01-16T09:01:55.000Z</time>
      </trkpt>
      <trkpt lat="47.2893" lon="-2.37646">
        <ele>-6.5999999046326</ele>
        <time>2020-01-16T09:01:56.000Z</time>
      </trkpt>
      <trkpt lat="47.28934" lon="-2.37648">
        <ele>-6.5999999046326</ele>
        <time>2020-01-16T09:01:58.000Z</time>
      </trkpt>
      <trkpt lat="47.28935" lon="-2.37651">
        <ele>-6.5999999046326</ele>
        <time>2020-01-16T09:01:59.000Z</time>
      </trkpt>
      <trkpt lat="47.28939" lon="-2.37666">
        <ele>-6.5999999046326</ele>
        <time>2020-01-16T09:02:02.000Z</time>
      </trkpt>
      <trkpt lat="47.28939" lon="-2.37673">
        <ele>-6.5999999046326</ele>
        <time>2020-01-16T09:02:03.000Z</time>
      </trkpt>
      <trkpt lat="47.28937" lon="-2.37694">
        <ele>-6.5999999046326</ele>
        <time>2020-01-16T09:02:06.000Z</time>
      </trkpt>
      <trkpt lat="47.28936" lon="-2.37709">
        <ele>-6.5999999046326</ele>
        <time>2020-01-16T09:02:08.000Z</time>
      </trkpt>
      <trkpt lat="47.28932" lon="-2.37772">
        <ele>-6.5999999046326</ele>
        <time>2020-01-16T09:02:16.000Z</time>
      </trkpt>
      <trkpt lat="47.28927" lon="-2.37831">
        <ele>-6.5999999046326</ele>
        <time>2020-01-16T09:02:23.000Z</time>
      </trkpt>
      <trkpt lat="47.28926" lon="-2.37839">
        <ele>-6.5999999046326</ele>
        <time>2020-01-16T09:02:24.000Z</time>
      </trkpt>
      <trkpt lat="47.2892" lon="-2.37902">
        <ele>-6.5999999046326</ele>
        <time>2020-01-16T09:02:31.000Z</time>
      </trkpt>
      <trkpt lat="47.28914" lon="-2.37973">
        <ele>-6.5999999046326</ele>
        <time>2020-01-16T09:02:39.000Z</time>
      </trkpt>
      <trkpt lat="47.2891" lon="-2.38025">
        <ele>-6.5999999046326</ele>
        <time>2020-01-16T09:02:45.000Z</time>
      </trkpt>
      <trkpt lat="47.2891" lon="-2.38044">
        <ele>-6.5999999046326</ele>
        <time>2020-01-16T09:02:47.000Z</time>
      </trkpt>
      <trkpt lat="47.28914" lon="-2.38062">
        <ele>-6.5999999046326</ele>
        <time>2020-01-16T09:02:49.000Z</time>
      </trkpt>
      <trkpt lat="47.28925" lon="-2.381">
        <ele>-6.5999999046326</ele>
        <time>2020-01-16T09:02:53.000Z</time>
      </trkpt>
      <trkpt lat="47.28927" lon="-2.38109">
        <ele>-6.5999999046326</ele>
        <time>2020-01-16T09:02:54.000Z</time>
      </trkpt>
      <trkpt lat="47.28933" lon="-2.38147">
        <ele>-7</ele>
        <time>2020-01-16T09:02:58.000Z</time>
      </trkpt>
      <trkpt lat="47.28935" lon="-2.38156">
        <ele>-7.4000000953674</ele>
        <time>2020-01-16T09:02:59.000Z</time>
      </trkpt>
      <trkpt lat="47.28936" lon="-2.38166">
        <ele>-7.8000001907349</ele>
        <time>2020-01-16T09:03:00.000Z</time>
      </trkpt>
      <trkpt lat="47.28937" lon="-2.38176">
        <ele>-8.1999998092651</ele>
        <time>2020-01-16T09:03:01.000Z</time>
      </trkpt>
      <trkpt lat="47.28938" lon="-2.38185">
        <ele>-8.6000003814697</ele>
        <time>2020-01-16T09:03:02.000Z</time>
      </trkpt>
      <trkpt lat="47.28939" lon="-2.38215">
        <ele>-8.6000003814697</ele>
        <time>2020-01-16T09:03:05.000Z</time>
      </trkpt>
      <trkpt lat="47.28941" lon="-2.38243">
        <ele>-8.6000003814697</ele>
        <time>2020-01-16T09:03:08.000Z</time>
      </trkpt>
      <trkpt lat="47.28942" lon="-2.38262">
        <ele>-8.6000003814697</ele>
        <time>2020-01-16T09:03:10.000Z</time>
      </trkpt>
      <trkpt lat="47.28936" lon="-2.3831">
        <ele>-8.6000003814697</ele>
        <time>2020-01-16T09:03:15.000Z</time>
      </trkpt>
      <trkpt lat="47.28936" lon="-2.38319">
        <ele>-8.6000003814697</ele>
        <time>2020-01-16T09:03:16.000Z</time>
      </trkpt>
      <trkpt lat="47.28936" lon="-2.38343">
        <ele>-8.6000003814697</ele>
        <time>2020-01-16T09:03:19.000Z</time>
      </trkpt>
      <trkpt lat="47.28937" lon="-2.38352">
        <ele>-8.6000003814697</ele>
        <time>2020-01-16T09:03:20.000Z</time>
      </trkpt>
      <trkpt lat="47.28939" lon="-2.38396">
        <ele>-8.6000003814697</ele>
        <time>2020-01-16T09:03:25.000Z</time>
      </trkpt>
      <trkpt lat="47.28944" lon="-2.38466">
        <ele>-8.6000003814697</ele>
        <time>2020-01-16T09:03:33.000Z</time>
      </trkpt>
      <trkpt lat="47.28954" lon="-2.38551">
        <ele>-8.6000003814697</ele>
        <time>2020-01-16T09:03:42.000Z</time>
      </trkpt>
      <trkpt lat="47.28959" lon="-2.38618">
        <ele>-8.6000003814697</ele>
        <time>2020-01-16T09:03:49.000Z</time>
      </trkpt>
      <trkpt lat="47.2896" lon="-2.38675">
        <ele>-8.6000003814697</ele>
        <time>2020-01-16T09:03:55.000Z</time>
      </trkpt>
      <trkpt lat="47.2896" lon="-2.38751">
        <ele>-8.6000003814697</ele>
        <time>2020-01-16T09:04:03.000Z</time>
      </trkpt>
      <trkpt lat="47.28961" lon="-2.38824">
        <ele>-8.6000003814697</ele>
        <time>2020-01-16T09:04:10.000Z</time>
      </trkpt>
      <trkpt lat="47.28959" lon="-2.38899">
        <ele>-8.6000003814697</ele>
        <time>2020-01-16T09:04:17.000Z</time>
      </trkpt>
      <trkpt lat="47.28954" lon="-2.38984">
        <ele>-8.6000003814697</ele>
        <time>2020-01-16T09:04:25.000Z</time>
      </trkpt>
      <trkpt lat="47.28951" lon="-2.39045">
        <ele>-8.6000003814697</ele>
        <time>2020-01-16T09:04:31.000Z</time>
      </trkpt>
      <trkpt lat="47.28944" lon="-2.39105">
        <ele>-8.6000003814697</ele>
        <time>2020-01-16T09:04:37.000Z</time>
      </trkpt>
      <trkpt lat="47.28936" lon="-2.39166">
        <ele>-8.6000003814697</ele>
        <time>2020-01-16T09:04:43.000Z</time>
      </trkpt>
      <trkpt lat="47.28935" lon="-2.39196">
        <ele>-8.6000003814697</ele>
        <time>2020-01-16T09:04:46.000Z</time>
      </trkpt>
      <trkpt lat="47.28935" lon="-2.39218">
        <ele>-8.6000003814697</ele>
        <time>2020-01-16T09:04:48.000Z</time>
      </trkpt>
      <trkpt lat="47.28941" lon="-2.3928">
        <ele>-8.6000003814697</ele>
        <time>2020-01-16T09:04:54.000Z</time>
      </trkpt>
      <trkpt lat="47.28959" lon="-2.3931">
        <ele>-8.6000003814697</ele>
        <time>2020-01-16T09:04:58.000Z</time>
      </trkpt>
      <trkpt lat="47.2898" lon="-2.39317">
        <ele>-8.6000003814697</ele>
        <time>2020-01-16T09:05:01.000Z</time>
      </trkpt>
      <trkpt lat="47.29018" lon="-2.3933">
        <ele>-8.6000003814697</ele>
        <time>2020-01-16T09:05:06.000Z</time>
      </trkpt>
      <trkpt lat="47.29058" lon="-2.3935">
        <ele>-8.6000003814697</ele>
        <time>2020-01-16T09:05:12.000Z</time>
      </trkpt>
      <trkpt lat="47.29086" lon="-2.39365">
        <ele>-8.6000003814697</ele>
        <time>2020-01-16T09:05:17.000Z</time>
      </trkpt>
      <trkpt lat="47.2909" lon="-2.39369">
        <ele>-8.6000003814697</ele>
        <time>2020-01-16T09:05:18.000Z</time>
      </trkpt>
      <trkpt lat="47.29099" lon="-2.39376">
        <ele>-8.6000003814697</ele>
        <time>2020-01-16T09:05:20.000Z</time>
      </trkpt>
      <trkpt lat="47.2911" lon="-2.39372">
        <ele>-8.6000003814697</ele>
        <time>2020-01-16T09:05:22.000Z</time>
      </trkpt>
      <trkpt lat="47.29125" lon="-2.39358">
        <ele>-8.6000003814697</ele>
        <time>2020-01-16T09:05:25.000Z</time>
      </trkpt>
      <trkpt lat="47.29142" lon="-2.39344">
        <ele>-8.6000003814697</ele>
        <time>2020-01-16T09:05:29.000Z</time>
      </trkpt>
      <trkpt lat="47.29172" lon="-2.39324">
        <ele>-8.6000003814697</ele>
        <time>2020-01-16T09:05:34.000Z</time>
      </trkpt>
      <trkpt lat="47.29178" lon="-2.39322">
        <ele>-9</ele>
        <time>2020-01-16T09:05:35.000Z</time>
      </trkpt>
      <trkpt lat="47.29185" lon="-2.3932">
        <ele>-9.3999996185303</ele>
        <time>2020-01-16T09:05:36.000Z</time>
      </trkpt>
      <trkpt lat="47.29192" lon="-2.39318">
        <ele>-9.8000001907349</ele>
        <time>2020-01-16T09:05:37.000Z</time>
      </trkpt>
      <trkpt lat="47.29199" lon="-2.39316">
        <ele>-10.199999809265</ele>
        <time>2020-01-16T09:05:38.000Z</time>
      </trkpt>
      <trkpt lat="47.29206" lon="-2.39315">
        <ele>-10.60000038147</ele>
        <time>2020-01-16T09:05:39.000Z</time>
      </trkpt>
      <trkpt lat="47.29212" lon="-2.39312">
        <ele>-10.60000038147</ele>
        <time>2020-01-16T09:05:40.000Z</time>
      </trkpt>
      <trkpt lat="47.29251" lon="-2.39293">
        <ele>-10.60000038147</ele>
        <time>2020-01-16T09:05:46.000Z</time>
      </trkpt>
      <trkpt lat="47.29269" lon="-2.39285">
        <ele>-10.60000038147</ele>
        <time>2020-01-16T09:05:49.000Z</time>
      </trkpt>
      <trkpt lat="47.29281" lon="-2.39286">
        <ele>-10.60000038147</ele>
        <time>2020-01-16T09:05:51.000Z</time>
      </trkpt>
      <trkpt lat="47.29301" lon="-2.39297">
        <ele>-10.60000038147</ele>
        <time>2020-01-16T09:05:54.000Z</time>
      </trkpt>
      <trkpt lat="47.29308" lon="-2.39301">
        <ele>-10.60000038147</ele>
        <time>2020-01-16T09:05:55.000Z</time>
      </trkpt>
      <trkpt lat="47.29336" lon="-2.39318">
        <ele>-10.60000038147</ele>
        <time>2020-01-16T09:06:00.000Z</time>
      </trkpt>
      <trkpt lat="47.29345" lon="-2.39326">
        <ele>-10.60000038147</ele>
        <time>2020-01-16T09:06:02.000Z</time>
      </trkpt>
      <trkpt lat="47.29349" lon="-2.39348">
        <ele>-10.60000038147</ele>
        <time>2020-01-16T09:06:05.000Z</time>
      </trkpt>
      <trkpt lat="47.2935" lon="-2.39371">
        <ele>-10.60000038147</ele>
        <time>2020-01-16T09:06:08.000Z</time>
      </trkpt>
      <trkpt lat="47.2935" lon="-2.39386">
        <ele>-10.60000038147</ele>
        <time>2020-01-16T09:06:10.000Z</time>
      </trkpt>
      <trkpt lat="47.29351" lon="-2.394">
        <ele>-10.60000038147</ele>
        <time>2020-01-16T09:06:12.000Z</time>
      </trkpt>
      <trkpt lat="47.29353" lon="-2.39427">
        <ele>-10.60000038147</ele>
        <time>2020-01-16T09:06:16.000Z</time>
      </trkpt>
      <trkpt lat="47.29355" lon="-2.39444">
        <ele>-10.60000038147</ele>
        <time>2020-01-16T09:06:19.000Z</time>
      </trkpt>
      <trkpt lat="47.2936" lon="-2.39454">
        <ele>-10.60000038147</ele>
        <time>2020-01-16T09:06:21.000Z</time>
      </trkpt>
      <trkpt lat="47.29376" lon="-2.39463">
        <ele>-10.60000038147</ele>
        <time>2020-01-16T09:06:25.000Z</time>
      </trkpt>
      <trkpt lat="47.29385" lon="-2.39464">
        <ele>-10.60000038147</ele>
        <time>2020-01-16T09:06:27.000Z</time>
      </trkpt>
      <trkpt lat="47.29403" lon="-2.39465">
        <ele>-10.60000038147</ele>
        <time>2020-01-16T09:06:31.000Z</time>
      </trkpt>
      <trkpt lat="47.2943" lon="-2.39467">
        <ele>-10.60000038147</ele>
        <time>2020-01-16T09:06:37.000Z</time>
      </trkpt>
      <trkpt lat="47.29458" lon="-2.39468">
        <ele>-10.60000038147</ele>
        <time>2020-01-16T09:06:43.000Z</time>
      </trkpt>
      <trkpt lat="47.29488" lon="-2.39468">
        <ele>-10.60000038147</ele>
        <time>2020-01-16T09:06:49.000Z</time>
      </trkpt>
      <trkpt lat="47.29515" lon="-2.3947">
        <ele>-10.60000038147</ele>
        <time>2020-01-16T09:06:54.000Z</time>
      </trkpt>
      <trkpt lat="47.29543" lon="-2.39477">
        <ele>-10.60000038147</ele>
        <time>2020-01-16T09:07:00.000Z</time>
      </trkpt>
      <trkpt lat="47.29558" lon="-2.39485">
        <ele>-10.60000038147</ele>
        <time>2020-01-16T09:07:06.000Z</time>
      </trkpt>
      <trkpt lat="47.29561" lon="-2.39487">
        <ele>-10.60000038147</ele>
        <time>2020-01-16T09:07:08.000Z</time>
      </trkpt>
      <trkpt lat="47.29561" lon="-2.3949">
        <ele>-10.60000038147</ele>
        <time>2020-01-16T09:07:10.000Z</time>
      </trkpt>
      <trkpt lat="47.29561" lon="-2.39495">
        <ele>-10.60000038147</ele>
        <time>2020-01-16T09:07:12.000Z</time>
      </trkpt>
      <trkpt lat="47.29556" lon="-2.39504">
        <ele>-10.60000038147</ele>
        <time>2020-01-16T09:07:15.000Z</time>
      </trkpt>
      <trkpt lat="47.29556" lon="-2.39506">
        <ele>-10.60000038147</ele>
        <time>2020-01-16T09:07:16.000Z</time>
      </trkpt>
      <trkpt lat="47.29556" lon="-2.39509">
        <ele>-10.60000038147</ele>
        <time>2020-01-16T09:07:18.000Z</time>
      </trkpt>
      <trkpt lat="47.29557" lon="-2.39514">
        <ele>-10.60000038147</ele>
        <time>2020-01-16T09:07:20.000Z</time>
      </trkpt>
      <trkpt lat="47.29558" lon="-2.39526">
        <ele>-10.60000038147</ele>
        <time>2020-01-16T09:07:24.000Z</time>
      </trkpt>
      <trkpt lat="47.29559" lon="-2.39532">
        <ele>-10.199999809265</ele>
        <time>2020-01-16T09:07:26.000Z</time>
      </trkpt>
      <trkpt lat="47.29557" lon="-2.39537">
        <ele>-9.3999996185303</ele>
        <time>2020-01-16T09:07:27.000Z</time>
      </trkpt>
      <trkpt lat="47.29558" lon="-2.39541">
        <ele>-9</ele>
        <time>2020-01-16T09:07:28.000Z</time>
      </trkpt>
      <trkpt lat="47.2956" lon="-2.39544">
        <ele>-8.6000003814697</ele>
        <time>2020-01-16T09:07:29.000Z</time>
      </trkpt>
      <trkpt lat="47.29566" lon="-2.39544">
        <ele>-8.6000003814697</ele>
        <time>2020-01-16T09:07:31.000Z</time>
      </trkpt>
      <trkpt lat="47.29577" lon="-2.39545">
        <ele>-8.1999998092651</ele>
        <time>2020-01-16T09:07:35.000Z</time>
      </trkpt>
      <trkpt lat="47.29581" lon="-2.39546">
        <ele>-7.8000001907349</ele>
        <time>2020-01-16T09:07:36.000Z</time>
      </trkpt>
      <trkpt lat="47.29583" lon="-2.39546">
        <ele>-7.4000000953674</ele>
        <time>2020-01-16T09:07:37.000Z</time>
      </trkpt>
      <trkpt lat="47.29586" lon="-2.39547">
        <ele>-7</ele>
        <time>2020-01-16T09:07:38.000Z</time>
      </trkpt>
      <trkpt lat="47.29588" lon="-2.39547">
        <ele>-6.5999999046326</ele>
        <time>2020-01-16T09:07:39.000Z</time>
      </trkpt>
      <trkpt lat="47.29598" lon="-2.39549">
        <ele>-6.5999999046326</ele>
        <time>2020-01-16T09:07:43.000Z</time>
      </trkpt>
      <trkpt lat="47.29614" lon="-2.39553">
        <ele>-6.5999999046326</ele>
        <time>2020-01-16T09:07:46.000Z</time>
      </trkpt>
      <trkpt lat="47.29659" lon="-2.39563">
        <ele>-6.5999999046326</ele>
        <time>2020-01-16T09:07:53.000Z</time>
      </trkpt>
      <trkpt lat="47.29714" lon="-2.39575">
        <ele>-6.5999999046326</ele>
        <time>2020-01-16T09:08:02.000Z</time>
      </trkpt>
      <trkpt lat="47.2972" lon="-2.39576">
        <ele>-6.5999999046326</ele>
        <time>2020-01-16T09:08:03.000Z</time>
      </trkpt>
      <trkpt lat="47.29763" lon="-2.39583">
        <ele>-6.5999999046326</ele>
        <time>2020-01-16T09:08:10.000Z</time>
      </trkpt>
      <trkpt lat="47.29811" lon="-2.39593">
        <ele>-6.5999999046326</ele>
        <time>2020-01-16T09:08:18.000Z</time>
      </trkpt>
      <trkpt lat="47.29817" lon="-2.39593">
        <ele>-6.5999999046326</ele>
        <time>2020-01-16T09:08:19.000Z</time>
      </trkpt>
      <trkpt lat="47.29822" lon="-2.39594">
        <ele>-6.1999998092651</ele>
        <time>2020-01-16T09:08:20.000Z</time>
      </trkpt>
      <trkpt lat="47.29828" lon="-2.39595">
        <ele>-5.8000001907349</ele>
        <time>2020-01-16T09:08:21.000Z</time>
      </trkpt>
      <trkpt lat="47.29833" lon="-2.39596">
        <ele>-5.4000000953674</ele>
        <time>2020-01-16T09:08:22.000Z</time>
      </trkpt>
      <trkpt lat="47.29839" lon="-2.39597">
        <ele>-5</ele>
        <time>2020-01-16T09:08:23.000Z</time>
      </trkpt>
      <trkpt lat="47.29845" lon="-2.39599">
        <ele>-4.4000000953674</ele>
        <time>2020-01-16T09:08:24.000Z</time>
      </trkpt>
      <trkpt lat="47.2988" lon="-2.39606">
        <ele>-4.4000000953674</ele>
        <time>2020-01-16T09:08:30.000Z</time>
      </trkpt>
      <trkpt lat="47.29923" lon="-2.39615">
        <ele>-4</ele>
        <time>2020-01-16T09:08:38.000Z</time>
      </trkpt>
      <trkpt lat="47.29928" lon="-2.39616">
        <ele>-3.5999999046326</ele>
        <time>2020-01-16T09:08:39.000Z</time>
      </trkpt>
      <trkpt lat="47.29932" lon="-2.39617">
        <ele>-2.7999999523163</ele>
        <time>2020-01-16T09:08:40.000Z</time>
      </trkpt>
      <trkpt lat="47.29936" lon="-2.39619">
        <ele>-2.4000000953674</ele>
        <time>2020-01-16T09:08:41.000Z</time>
      </trkpt>
      <trkpt lat="47.29939" lon="-2.39621">
        <ele>-2.4000000953674</ele>
        <time>2020-01-16T09:08:42.000Z</time>
      </trkpt>
      <trkpt lat="47.2995" lon="-2.39622">
        <ele>-2.4000000953674</ele>
        <time>2020-01-16T09:08:46.000Z</time>
      </trkpt>
      <trkpt lat="47.29958" lon="-2.39638">
        <ele>-2.4000000953674</ele>
        <time>2020-01-16T09:08:50.000Z</time>
      </trkpt>
      <trkpt lat="47.29961" lon="-2.3964">
        <ele>-2.4000000953674</ele>
        <time>2020-01-16T09:08:51.000Z</time>
      </trkpt>
      <trkpt lat="47.29968" lon="-2.39641">
        <ele>-2.4000000953674</ele>
        <time>2020-01-16T09:08:53.000Z</time>
      </trkpt>
      <trkpt lat="47.29987" lon="-2.39639">
        <ele>-2</ele>
        <time>2020-01-16T09:08:58.000Z</time>
      </trkpt>
      <trkpt lat="47.2999" lon="-2.39639">
        <ele>-1.6000000238419</ele>
        <time>2020-01-16T09:08:59.000Z</time>
      </trkpt>
      <trkpt lat="47.29994" lon="-2.39639">
        <ele>-1.2000000476837</ele>
        <time>2020-01-16T09:09:00.000Z</time>
      </trkpt>
      <trkpt lat="47.29998" lon="-2.3964">
        <ele>-0.80000001192093</ele>
        <time>2020-01-16T09:09:01.000Z</time>
      </trkpt>
      <trkpt lat="47.30004" lon="-2.39641">
        <ele>-0.40000000596046</ele>
        <time>2020-01-16T09:09:02.000Z</time>
      </trkpt>
      <trkpt lat="47.30013" lon="-2.39643">
        <ele>-0.40000000596046</ele>
        <time>2020-01-16T09:09:04.000Z</time>
      </trkpt>
      <trkpt lat="47.30046" lon="-2.39648">
        <ele>-0.40000000596046</ele>
        <time>2020-01-16T09:09:11.000Z</time>
      </trkpt>
      <trkpt lat="47.30084" lon="-2.39658">
        <ele>-0.40000000596046</ele>
        <time>2020-01-16T09:09:18.000Z</time>
      </trkpt>
      <trkpt lat="47.30089" lon="-2.39659">
        <ele>-0.40000000596046</ele>
        <time>2020-01-16T09:09:19.000Z</time>
      </trkpt>
      <trkpt lat="47.301" lon="-2.39662">
        <ele>-0.40000000596046</ele>
        <time>2020-01-16T09:09:21.000Z</time>
      </trkpt>
      <trkpt lat="47.3011" lon="-2.39664">
        <ele>-0.40000000596046</ele>
        <time>2020-01-16T09:09:23.000Z</time>
      </trkpt>
      <trkpt lat="47.30116" lon="-2.39665">
        <ele>16</ele>
        <time>2020-01-16T09:09:24.000Z</time>
      </trkpt>
      <trkpt lat="47.30121" lon="-2.39666">
        <ele>0.40000000596046</ele>
        <time>2020-01-16T09:09:25.000Z</time>
      </trkpt>
      <trkpt lat="47.30127" lon="-2.39668">
        <ele>0.80000001192093</ele>
        <time>2020-01-16T09:09:26.000Z</time>
      </trkpt>
      <trkpt lat="47.30132" lon="-2.39669">
        <ele>1.2000000476837</ele>
        <time>2020-01-16T09:09:27.000Z</time>
      </trkpt>
      <trkpt lat="47.30137" lon="-2.3967">
        <ele>1.6000000238419</ele>
        <time>2020-01-16T09:09:28.000Z</time>
      </trkpt>
      <trkpt lat="47.30154" lon="-2.39673">
        <ele>1.6000000238419</ele>
        <time>2020-01-16T09:09:31.000Z</time>
      </trkpt>
      <trkpt lat="47.30175" lon="-2.39677">
        <ele>1.6000000238419</ele>
        <time>2020-01-16T09:09:35.000Z</time>
      </trkpt>
      <trkpt lat="47.30185" lon="-2.39685">
        <ele>1.6000000238419</ele>
        <time>2020-01-16T09:09:37.000Z</time>
      </trkpt>
      <trkpt lat="47.30195" lon="-2.39708">
        <ele>1.6000000238419</ele>
        <time>2020-01-16T09:09:40.000Z</time>
      </trkpt>
      <trkpt lat="47.30197" lon="-2.39716">
        <ele>1.6000000238419</ele>
        <time>2020-01-16T09:09:41.000Z</time>
      </trkpt>
      <trkpt lat="47.30217" lon="-2.39779">
        <ele>1.6000000238419</ele>
        <time>2020-01-16T09:09:48.000Z</time>
      </trkpt>
      <trkpt lat="47.30232" lon="-2.39826">
        <ele>1.2000000476837</ele>
        <time>2020-01-16T09:09:53.000Z</time>
      </trkpt>
      <trkpt lat="47.30235" lon="-2.39836">
        <ele>0.40000000596046</ele>
        <time>2020-01-16T09:09:54.000Z</time>
      </trkpt>
      <trkpt lat="47.30238" lon="-2.39845">
        <ele>14.6</ele>
        <time>2020-01-16T09:09:55.000Z</time>
      </trkpt>
      <trkpt lat="47.30242" lon="-2.39855">
        <ele>-0.40000000596046</ele>
        <time>2020-01-16T09:09:56.000Z</time>
      </trkpt>
      <trkpt lat="47.30245" lon="-2.39864">
        <ele>-0.40000000596046</ele>
        <time>2020-01-16T09:09:57.000Z</time>
      </trkpt>
      <trkpt lat="47.3027" lon="-2.3994">
        <ele>-0.40000000596046</ele>
        <time>2020-01-16T09:10:05.000Z</time>
      </trkpt>
      <trkpt lat="47.30294" lon="-2.40019">
        <ele>-0.40000000596046</ele>
        <time>2020-01-16T09:10:13.000Z</time>
      </trkpt>
      <trkpt lat="47.3031" lon="-2.40067">
        <ele>-0.80000001192093</ele>
        <time>2020-01-16T09:10:18.000Z</time>
      </trkpt>
      <trkpt lat="47.30313" lon="-2.40077">
        <ele>-1.6000000238419</ele>
        <time>2020-01-16T09:10:19.000Z</time>
      </trkpt>
      <trkpt lat="47.30316" lon="-2.40086">
        <ele>-2.2000000476837</ele>
        <time>2020-01-16T09:10:20.000Z</time>
      </trkpt>
      <trkpt lat="47.30319" lon="-2.40096">
        <ele>-2.5999999046326</ele>
        <time>2020-01-16T09:10:21.000Z</time>
      </trkpt>
      <trkpt lat="47.3034" lon="-2.40174">
        <ele>-2.5999999046326</ele>
        <time>2020-01-16T09:10:29.000Z</time>
      </trkpt>
      <trkpt lat="47.3036" lon="-2.40205">
        <ele>-2.5999999046326</ele>
        <time>2020-01-16T09:10:33.000Z</time>
      </trkpt>
      <trkpt lat="47.30371" lon="-2.40231">
        <ele>-2.5999999046326</ele>
        <time>2020-01-16T09:10:36.000Z</time>
      </trkpt>
      <trkpt lat="47.30384" lon="-2.40266">
        <ele>-2.5999999046326</ele>
        <time>2020-01-16T09:10:40.000Z</time>
      </trkpt>
      <trkpt lat="47.30387" lon="-2.40275">
        <ele>-2.5999999046326</ele>
        <time>2020-01-16T09:10:41.000Z</time>
      </trkpt>
      <trkpt lat="47.30403" lon="-2.40316">
        <ele>-2.5999999046326</ele>
        <time>2020-01-16T09:10:46.000Z</time>
      </trkpt>
      <trkpt lat="47.30423" lon="-2.4037">
        <ele>-2.5999999046326</ele>
        <time>2020-01-16T09:10:52.000Z</time>
      </trkpt>
      <trkpt lat="47.30452" lon="-2.40441">
        <ele>-2.5999999046326</ele>
        <time>2020-01-16T09:10:59.000Z</time>
      </trkpt>
      <trkpt lat="47.3046" lon="-2.40461">
        <ele>-3</ele>
        <time>2020-01-16T09:11:01.000Z</time>
      </trkpt>
      <trkpt lat="47.30465" lon="-2.40471">
        <ele>-3.4000000953674</ele>
        <time>2020-01-16T09:11:02.000Z</time>
      </trkpt>
      <trkpt lat="47.30469" lon="-2.40483">
        <ele>-3.7999999523163</ele>
        <time>2020-01-16T09:11:03.000Z</time>
      </trkpt>
      <trkpt lat="47.30473" lon="-2.40493">
        <ele>-4.1999998092651</ele>
        <time>2020-01-16T09:11:04.000Z</time>
      </trkpt>
      <trkpt lat="47.30477" lon="-2.40504">
        <ele>-4.5999999046326</ele>
        <time>2020-01-16T09:11:05.000Z</time>
      </trkpt>
      <trkpt lat="47.30481" lon="-2.40514">
        <ele>-4.5999999046326</ele>
        <time>2020-01-16T09:11:06.000Z</time>
      </trkpt>
      <trkpt lat="47.30489" lon="-2.40534">
        <ele>-4.5999999046326</ele>
        <time>2020-01-16T09:11:08.000Z</time>
      </trkpt>
      <trkpt lat="47.305" lon="-2.40565">
        <ele>-4.5999999046326</ele>
        <time>2020-01-16T09:11:11.000Z</time>
      </trkpt>
      <trkpt lat="47.30507" lon="-2.40584">
        <ele>-5</ele>
        <time>2020-01-16T09:11:13.000Z</time>
      </trkpt>
      <trkpt lat="47.30511" lon="-2.40594">
        <ele>-5.4000000953674</ele>
        <time>2020-01-16T09:11:14.000Z</time>
      </trkpt>
      <trkpt lat="47.30514" lon="-2.40603">
        <ele>-5.8000001907349</ele>
        <time>2020-01-16T09:11:15.000Z</time>
      </trkpt>
      <trkpt lat="47.30517" lon="-2.40612">
        <ele>-6.1999998092651</ele>
        <time>2020-01-16T09:11:16.000Z</time>
      </trkpt>
      <trkpt lat="47.3052" lon="-2.40621">
        <ele>-6.8000001907349</ele>
        <time>2020-01-16T09:11:17.000Z</time>
      </trkpt>
      <trkpt lat="47.30545" lon="-2.40683">
        <ele>-6.8000001907349</ele>
        <time>2020-01-16T09:11:24.000Z</time>
      </trkpt>
      <trkpt lat="47.30558" lon="-2.40713">
        <ele>-6.8000001907349</ele>
        <time>2020-01-16T09:11:28.000Z</time>
      </trkpt>
      <trkpt lat="47.30561" lon="-2.40721">
        <ele>-6.8000001907349</ele>
        <time>2020-01-16T09:11:29.000Z</time>
      </trkpt>
      <trkpt lat="47.30585" lon="-2.40784">
        <ele>-6.8000001907349</ele>
        <time>2020-01-16T09:11:37.000Z</time>
      </trkpt>
      <trkpt lat="47.30599" lon="-2.4082">
        <ele>-6.8000001907349</ele>
        <time>2020-01-16T09:11:43.000Z</time>
      </trkpt>
      <trkpt lat="47.30612" lon="-2.40847">
        <ele>-6.8000001907349</ele>
        <time>2020-01-16T09:11:49.000Z</time>
      </trkpt>
      <trkpt lat="47.3062" lon="-2.40875">
        <ele>-6.8000001907349</ele>
        <time>2020-01-16T09:11:53.000Z</time>
      </trkpt>
      <trkpt lat="47.30622" lon="-2.40882">
        <ele>-6.8000001907349</ele>
        <time>2020-01-16T09:11:54.000Z</time>
      </trkpt>
      <trkpt lat="47.30632" lon="-2.40905">
        <ele>-6.8000001907349</ele>
        <time>2020-01-16T09:11:57.000Z</time>
      </trkpt>
      <trkpt lat="47.30655" lon="-2.4095">
        <ele>-6.8000001907349</ele>
        <time>2020-01-16T09:12:03.000Z</time>
      </trkpt>
      <trkpt lat="47.30686" lon="-2.40997">
        <ele>-6.8000001907349</ele>
        <time>2020-01-16T09:12:10.000Z</time>
      </trkpt>
      <trkpt lat="47.30721" lon="-2.41054">
        <ele>-6.8000001907349</ele>
        <time>2020-01-16T09:12:18.000Z</time>
      </trkpt>
      <trkpt lat="47.30737" lon="-2.41101">
        <ele>-6.8000001907349</ele>
        <time>2020-01-16T09:12:23.000Z</time>
      </trkpt>
      <trkpt lat="47.30749" lon="-2.41163">
        <ele>-6.8000001907349</ele>
        <time>2020-01-16T09:12:29.000Z</time>
      </trkpt>
      <trkpt lat="47.30772" lon="-2.41223">
        <ele>-6.8000001907349</ele>
        <time>2020-01-16T09:12:35.000Z</time>
      </trkpt>
      <trkpt lat="47.30792" lon="-2.4127">
        <ele>-6.8000001907349</ele>
        <time>2020-01-16T09:12:40.000Z</time>
      </trkpt>
      <trkpt lat="47.30797" lon="-2.41278">
        <ele>-6.8000001907349</ele>
        <time>2020-01-16T09:12:41.000Z</time>
      </trkpt>
      <trkpt lat="47.30826" lon="-2.41314">
        <ele>-6.8000001907349</ele>
        <time>2020-01-16T09:12:46.000Z</time>
      </trkpt>
      <trkpt lat="47.3087" lon="-2.41355">
        <ele>-6.8000001907349</ele>
        <time>2020-01-16T09:12:53.000Z</time>
      </trkpt>
      <trkpt lat="47.30902" lon="-2.41397">
        <ele>-6.8000001907349</ele>
        <time>2020-01-16T09:12:59.000Z</time>
      </trkpt>
      <trkpt lat="47.30916" lon="-2.41433">
        <ele>-6.8000001907349</ele>
        <time>2020-01-16T09:13:03.000Z</time>
      </trkpt>
      <trkpt lat="47.30918" lon="-2.41443">
        <ele>-6.8000001907349</ele>
        <time>2020-01-16T09:13:04.000Z</time>
      </trkpt>
      <trkpt lat="47.30922" lon="-2.41464">
        <ele>-6.8000001907349</ele>
        <time>2020-01-16T09:13:06.000Z</time>
      </trkpt>
      <trkpt lat="47.30928" lon="-2.41507">
        <ele>-6.8000001907349</ele>
        <time>2020-01-16T09:13:10.000Z</time>
      </trkpt>
      <trkpt lat="47.3094" lon="-2.41585">
        <ele>-6.8000001907349</ele>
        <time>2020-01-16T09:13:17.000Z</time>
      </trkpt>
      <trkpt lat="47.30941" lon="-2.41596">
        <ele>-6.4000000953674</ele>
        <time>2020-01-16T09:13:18.000Z</time>
      </trkpt>
      <trkpt lat="47.30943" lon="-2.41608">
        <ele>-6</ele>
        <time>2020-01-16T09:13:19.000Z</time>
      </trkpt>
      <trkpt lat="47.30946" lon="-2.41619">
        <ele>-5.5999999046326</ele>
        <time>2020-01-16T09:13:20.000Z</time>
      </trkpt>
      <trkpt lat="47.30948" lon="-2.4163">
        <ele>-5.1999998092651</ele>
        <time>2020-01-16T09:13:21.000Z</time>
      </trkpt>
      <trkpt lat="47.30951" lon="-2.41641">
        <ele>-4.8000001907349</ele>
        <time>2020-01-16T09:13:22.000Z</time>
      </trkpt>
      <trkpt lat="47.30953" lon="-2.41652">
        <ele>-4.8000001907349</ele>
        <time>2020-01-16T09:13:23.000Z</time>
      </trkpt>
      <trkpt lat="47.30968" lon="-2.41691">
        <ele>-4.8000001907349</ele>
        <time>2020-01-16T09:13:27.000Z</time>
      </trkpt>
      <trkpt lat="47.31004" lon="-2.41756">
        <ele>-4.8000001907349</ele>
        <time>2020-01-16T09:13:35.000Z</time>
      </trkpt>
      <trkpt lat="47.31036" lon="-2.41811">
        <ele>-4.8000001907349</ele>
        <time>2020-01-16T09:13:42.000Z</time>
      </trkpt>
      <trkpt lat="47.31053" lon="-2.41859">
        <ele>-5.1999998092651</ele>
        <time>2020-01-16T09:13:47.000Z</time>
      </trkpt>
      <trkpt lat="47.31056" lon="-2.41867">
        <ele>-5.5999999046326</ele>
        <time>2020-01-16T09:13:48.000Z</time>
      </trkpt>
      <trkpt lat="47.31059" lon="-2.41876">
        <ele>-6</ele>
        <time>2020-01-16T09:13:49.000Z</time>
      </trkpt>
      <trkpt lat="47.31062" lon="-2.41885">
        <ele>-6.4000000953674</ele>
        <time>2020-01-16T09:13:50.000Z</time>
      </trkpt>
      <trkpt lat="47.31065" lon="-2.41894">
        <ele>-6.8000001907349</ele>
        <time>2020-01-16T09:13:51.000Z</time>
      </trkpt>
      <trkpt lat="47.31073" lon="-2.41917">
        <ele>-6.8000001907349</ele>
        <time>2020-01-16T09:13:54.000Z</time>
      </trkpt>
      <trkpt lat="47.31075" lon="-2.41925">
        <ele>-6.8000001907349</ele>
        <time>2020-01-16T09:13:55.000Z</time>
      </trkpt>
      <trkpt lat="47.31079" lon="-2.41935">
        <ele>-6.8000001907349</ele>
        <time>2020-01-16T09:13:57.000Z</time>
      </trkpt>
      <trkpt lat="47.31082" lon="-2.41942">
        <ele>-6.8000001907349</ele>
        <time>2020-01-16T09:14:00.000Z</time>
      </trkpt>
      <trkpt lat="47.31082" lon="-2.41942">
        <ele>-6.8000001907349</ele>
        <time>2020-01-16T09:14:01.000Z</time>
      </trkpt>
      <trkpt lat="47.31079" lon="-2.41943">
        <ele>-13.199999809265</ele>
        <time>2020-01-16T09:34:54.000Z</time>
      </trkpt>
      <trkpt lat="47.31075" lon="-2.41947">
        <ele>-13.199999809265</ele>
        <time>2020-01-16T09:34:56.000Z</time>
      </trkpt>
      <trkpt lat="47.31058" lon="-2.41963">
        <ele>-13.199999809265</ele>
        <time>2020-01-16T09:35:02.000Z</time>
      </trkpt>
      <trkpt lat="47.31045" lon="-2.41977">
        <ele>-13.199999809265</ele>
        <time>2020-01-16T09:35:06.000Z</time>
      </trkpt>
      <trkpt lat="47.31038" lon="-2.41986">
        <ele>-13.199999809265</ele>
        <time>2020-01-16T09:35:08.000Z</time>
      </trkpt>
      <trkpt lat="47.31004" lon="-2.42025">
        <ele>-13.199999809265</ele>
        <time>2020-01-16T09:35:17.000Z</time>
      </trkpt>
      <trkpt lat="47.30974" lon="-2.42058">
        <ele>-13.199999809265</ele>
        <time>2020-01-16T09:35:24.000Z</time>
      </trkpt>
      <trkpt lat="47.30955" lon="-2.42077">
        <ele>-13.60000038147</ele>
        <time>2020-01-16T09:35:28.000Z</time>
      </trkpt>
      <trkpt lat="47.3095" lon="-2.42082">
        <ele>-14</ele>
        <time>2020-01-16T09:35:29.000Z</time>
      </trkpt>
      <trkpt lat="47.30946" lon="-2.42086">
        <ele>-14.39999961853</ele>
        <time>2020-01-16T09:35:30.000Z</time>
      </trkpt>
      <trkpt lat="47.3094" lon="-2.42091">
        <ele>-14.800000190735</ele>
        <time>2020-01-16T09:35:31.000Z</time>
      </trkpt>
      <trkpt lat="47.30936" lon="-2.42096">
        <ele>-15.199999809265</ele>
        <time>2020-01-16T09:35:32.000Z</time>
      </trkpt>
      <trkpt lat="47.30911" lon="-2.4212">
        <ele>-15.199999809265</ele>
        <time>2020-01-16T09:35:37.000Z</time>
      </trkpt>
      <trkpt lat="47.30893" lon="-2.42143">
        <ele>-15.60000038147</ele>
        <time>2020-01-16T09:35:41.000Z</time>
      </trkpt>
      <trkpt lat="47.30888" lon="-2.42149">
        <ele>-16.200000762939</ele>
        <time>2020-01-16T09:35:42.000Z</time>
      </trkpt>
      <trkpt lat="47.30884" lon="-2.42154">
        <ele>-16.60000038147</ele>
        <time>2020-01-16T09:35:43.000Z</time>
      </trkpt>
      <trkpt lat="47.30879" lon="-2.4216">
        <ele>-17</ele>
        <time>2020-01-16T09:35:44.000Z</time>
      </trkpt>
      <trkpt lat="47.30876" lon="-2.42165">
        <ele>-17.39999961853</ele>
        <time>2020-01-16T09:35:45.000Z</time>
      </trkpt>
      <trkpt lat="47.3087" lon="-2.42177">
        <ele>-17.39999961853</ele>
        <time>2020-01-16T09:35:47.000Z</time>
      </trkpt>
      <trkpt lat="47.30868" lon="-2.42183">
        <ele>-17.39999961853</ele>
        <time>2020-01-16T09:35:48.000Z</time>
      </trkpt>
      <trkpt lat="47.30869" lon="-2.42201">
        <ele>-17.39999961853</ele>
        <time>2020-01-16T09:35:51.000Z</time>
      </trkpt>
      <trkpt lat="47.30878" lon="-2.42215">
        <ele>-17.39999961853</ele>
        <time>2020-01-16T09:35:54.000Z</time>
      </trkpt>
      <trkpt lat="47.30881" lon="-2.4222">
        <ele>-17.39999961853</ele>
        <time>2020-01-16T09:35:55.000Z</time>
      </trkpt>
      <trkpt lat="47.309" lon="-2.42244">
        <ele>-17.39999961853</ele>
        <time>2020-01-16T09:36:01.000Z</time>
      </trkpt>
      <trkpt lat="47.30917" lon="-2.4226">
        <ele>-17.39999961853</ele>
        <time>2020-01-16T09:36:06.000Z</time>
      </trkpt>
      <trkpt lat="47.30925" lon="-2.42266">
        <ele>-17.39999961853</ele>
        <time>2020-01-16T09:36:08.000Z</time>
      </trkpt>
      <trkpt lat="47.30934" lon="-2.42275">
        <ele>-17.39999961853</ele>
        <time>2020-01-16T09:36:10.000Z</time>
      </trkpt>
      <trkpt lat="47.30942" lon="-2.42297">
        <ele>-17.39999961853</ele>
        <time>2020-01-16T09:36:13.000Z</time>
      </trkpt>
      <trkpt lat="47.30944" lon="-2.42305">
        <ele>-17.39999961853</ele>
        <time>2020-01-16T09:36:14.000Z</time>
      </trkpt>
      <trkpt lat="47.30956" lon="-2.42354">
        <ele>-17.39999961853</ele>
        <time>2020-01-16T09:36:20.000Z</time>
      </trkpt>
      <trkpt lat="47.30962" lon="-2.42387">
        <ele>-17.39999961853</ele>
        <time>2020-01-16T09:36:24.000Z</time>
      </trkpt>
      <trkpt lat="47.30966" lon="-2.42403">
        <ele>-17.39999961853</ele>
        <time>2020-01-16T09:36:26.000Z</time>
      </trkpt>
      <trkpt lat="47.3098" lon="-2.42458">
        <ele>-17.39999961853</ele>
        <time>2020-01-16T09:36:33.000Z</time>
      </trkpt>
      <trkpt lat="47.30992" lon="-2.42507">
        <ele>-17.39999961853</ele>
        <time>2020-01-16T09:36:39.000Z</time>
      </trkpt>
      <trkpt lat="47.31004" lon="-2.42549">
        <ele>-17.39999961853</ele>
        <time>2020-01-16T09:36:44.000Z</time>
      </trkpt>
      <trkpt lat="47.31019" lon="-2.4261">
        <ele>-17.39999961853</ele>
        <time>2020-01-16T09:36:51.000Z</time>
      </trkpt>
      <trkpt lat="47.31038" lon="-2.42682">
        <ele>-17.39999961853</ele>
        <time>2020-01-16T09:36:59.000Z</time>
      </trkpt>
      <trkpt lat="47.31047" lon="-2.42718">
        <ele>-17.39999961853</ele>
        <time>2020-01-16T09:37:03.000Z</time>
      </trkpt>
      <trkpt lat="47.31045" lon="-2.42737">
        <ele>-17.39999961853</ele>
        <time>2020-01-16T09:37:05.000Z</time>
      </trkpt>
      <trkpt lat="47.31036" lon="-2.42748">
        <ele>-17</ele>
        <time>2020-01-16T09:37:07.000Z</time>
      </trkpt>
      <trkpt lat="47.3103" lon="-2.42752">
        <ele>-16.60000038147</ele>
        <time>2020-01-16T09:37:08.000Z</time>
      </trkpt>
      <trkpt lat="47.31024" lon="-2.42754">
        <ele>-16</ele>
        <time>2020-01-16T09:37:09.000Z</time>
      </trkpt>
      <trkpt lat="47.31018" lon="-2.42756">
        <ele>-15.60000038147</ele>
        <time>2020-01-16T09:37:10.000Z</time>
      </trkpt>
      <trkpt lat="47.31012" lon="-2.42757">
        <ele>-15</ele>
        <time>2020-01-16T09:37:11.000Z</time>
      </trkpt>
      <trkpt lat="47.31006" lon="-2.42758">
        <ele>-15</ele>
        <time>2020-01-16T09:37:12.000Z</time>
      </trkpt>
      <trkpt lat="47.31001" lon="-2.42758">
        <ele>-14.60000038147</ele>
        <time>2020-01-16T09:37:13.000Z</time>
      </trkpt>
      <trkpt lat="47.30996" lon="-2.42759">
        <ele>-14.199999809265</ele>
        <time>2020-01-16T09:37:14.000Z</time>
      </trkpt>
      <trkpt lat="47.3099" lon="-2.4276">
        <ele>-13.800000190735</ele>
        <time>2020-01-16T09:37:15.000Z</time>
      </trkpt>
      <trkpt lat="47.30985" lon="-2.4276">
        <ele>-13.39999961853</ele>
        <time>2020-01-16T09:37:16.000Z</time>
      </trkpt>
      <trkpt lat="47.3098" lon="-2.4276">
        <ele>-13</ele>
        <time>2020-01-16T09:37:17.000Z</time>
      </trkpt>
      <trkpt lat="47.30964" lon="-2.42762">
        <ele>-13</ele>
        <time>2020-01-16T09:37:20.000Z</time>
      </trkpt>
      <trkpt lat="47.30954" lon="-2.42764">
        <ele>-13</ele>
        <time>2020-01-16T09:37:22.000Z</time>
      </trkpt>
      <trkpt lat="47.30931" lon="-2.42767">
        <ele>-13</ele>
        <time>2020-01-16T09:37:26.000Z</time>
      </trkpt>
      <trkpt lat="47.30915" lon="-2.42768">
        <ele>-13.39999961853</ele>
        <time>2020-01-16T09:37:29.000Z</time>
      </trkpt>
      <trkpt lat="47.30909" lon="-2.42769">
        <ele>-14.199999809265</ele>
        <time>2020-01-16T09:37:30.000Z</time>
      </trkpt>
      <trkpt lat="47.30904" lon="-2.42769">
        <ele>-14.60000038147</ele>
        <time>2020-01-16T09:37:31.000Z</time>
      </trkpt>
      <trkpt lat="47.30898" lon="-2.42771">
        <ele>-15</ele>
        <time>2020-01-16T09:37:32.000Z</time>
      </trkpt>
      <trkpt lat="47.30883" lon="-2.42773">
        <ele>-15</ele>
        <time>2020-01-16T09:37:35.000Z</time>
      </trkpt>
      <trkpt lat="47.30872" lon="-2.42773">
        <ele>-15</ele>
        <time>2020-01-16T09:37:37.000Z</time>
      </trkpt>
      <trkpt lat="47.30862" lon="-2.42774">
        <ele>-15</ele>
        <time>2020-01-16T09:37:39.000Z</time>
      </trkpt>
      <trkpt lat="47.30857" lon="-2.42775">
        <ele>-15</ele>
        <time>2020-01-16T09:37:40.000Z</time>
      </trkpt>
      <trkpt lat="47.3082" lon="-2.4278">
        <ele>-15</ele>
        <time>2020-01-16T09:37:47.000Z</time>
      </trkpt>
      <trkpt lat="47.30779" lon="-2.42785">
        <ele>-15</ele>
        <time>2020-01-16T09:37:55.000Z</time>
      </trkpt>
      <trkpt lat="47.3074" lon="-2.42792">
        <ele>-15</ele>
        <time>2020-01-16T09:38:02.000Z</time>
      </trkpt>
      <trkpt lat="47.30724" lon="-2.42801">
        <ele>-15.39999961853</ele>
        <time>2020-01-16T09:38:05.000Z</time>
      </trkpt>
      <trkpt lat="47.3072" lon="-2.42806">
        <ele>-15.800000190735</ele>
        <time>2020-01-16T09:38:06.000Z</time>
      </trkpt>
      <trkpt lat="47.30715" lon="-2.4281">
        <ele>-16.200000762939</ele>
        <time>2020-01-16T09:38:07.000Z</time>
      </trkpt>
      <trkpt lat="47.30711" lon="-2.42814">
        <ele>-16.60000038147</ele>
        <time>2020-01-16T09:38:08.000Z</time>
      </trkpt>
      <trkpt lat="47.30707" lon="-2.42818">
        <ele>-17</ele>
        <time>2020-01-16T09:38:09.000Z</time>
      </trkpt>
      <trkpt lat="47.30692" lon="-2.42831">
        <ele>-17</ele>
        <time>2020-01-16T09:38:13.000Z</time>
      </trkpt>
      <trkpt lat="47.30684" lon="-2.42838">
        <ele>-17</ele>
        <time>2020-01-16T09:38:15.000Z</time>
      </trkpt>
      <trkpt lat="47.30666" lon="-2.42851">
        <ele>-17</ele>
        <time>2020-01-16T09:38:19.000Z</time>
      </trkpt>
      <trkpt lat="47.30632" lon="-2.4288">
        <ele>-17</ele>
        <time>2020-01-16T09:38:26.000Z</time>
      </trkpt>
      <trkpt lat="47.30593" lon="-2.42912">
        <ele>-17</ele>
        <time>2020-01-16T09:38:34.000Z</time>
      </trkpt>
      <trkpt lat="47.30559" lon="-2.4294">
        <ele>-17</ele>
        <time>2020-01-16T09:38:41.000Z</time>
      </trkpt>
      <trkpt lat="47.30527" lon="-2.42966">
        <ele>-17</ele>
        <time>2020-01-16T09:38:47.000Z</time>
      </trkpt>
      <trkpt lat="47.30495" lon="-2.42991">
        <ele>-17</ele>
        <time>2020-01-16T09:38:53.000Z</time>
      </trkpt>
      <trkpt lat="47.30465" lon="-2.43018">
        <ele>-17</ele>
        <time>2020-01-16T09:38:59.000Z</time>
      </trkpt>
      <trkpt lat="47.30431" lon="-2.43046">
        <ele>-17</ele>
        <time>2020-01-16T09:39:06.000Z</time>
      </trkpt>
      <trkpt lat="47.30421" lon="-2.43052">
        <ele>-17</ele>
        <time>2020-01-16T09:39:08.000Z</time>
      </trkpt>
      <trkpt lat="47.30404" lon="-2.43057">
        <ele>-17</ele>
        <time>2020-01-16T09:39:11.000Z</time>
      </trkpt>
      <trkpt lat="47.30393" lon="-2.43059">
        <ele>-17</ele>
        <time>2020-01-16T09:39:13.000Z</time>
      </trkpt>
      <trkpt lat="47.30372" lon="-2.43063">
        <ele>-17</ele>
        <time>2020-01-16T09:39:17.000Z</time>
      </trkpt>
      <trkpt lat="47.30341" lon="-2.43069">
        <ele>-17</ele>
        <time>2020-01-16T09:39:23.000Z</time>
      </trkpt>
      <trkpt lat="47.30298" lon="-2.43076">
        <ele>-17</ele>
        <time>2020-01-16T09:39:31.000Z</time>
      </trkpt>
      <trkpt lat="47.30287" lon="-2.43075">
        <ele>-17</ele>
        <time>2020-01-16T09:39:33.000Z</time>
      </trkpt>
      <trkpt lat="47.30274" lon="-2.43068">
        <ele>-17</ele>
        <time>2020-01-16T09:39:36.000Z</time>
      </trkpt>
      <trkpt lat="47.30261" lon="-2.43065">
        <ele>-17</ele>
        <time>2020-01-16T09:39:39.000Z</time>
      </trkpt>
      <trkpt lat="47.30251" lon="-2.43066">
        <ele>-17</ele>
        <time>2020-01-16T09:39:41.000Z</time>
      </trkpt>
      <trkpt lat="47.30238" lon="-2.43067">
        <ele>-17</ele>
        <time>2020-01-16T09:39:44.000Z</time>
      </trkpt>
      <trkpt lat="47.30224" lon="-2.43069">
        <ele>-17</ele>
        <time>2020-01-16T09:39:47.000Z</time>
      </trkpt>
      <trkpt lat="47.30213" lon="-2.43065">
        <ele>-17.60000038147</ele>
        <time>2020-01-16T09:39:50.000Z</time>
      </trkpt>
      <trkpt lat="47.30209" lon="-2.43062">
        <ele>-18</ele>
        <time>2020-01-16T09:39:51.000Z</time>
      </trkpt>
      <trkpt lat="47.30205" lon="-2.43059">
        <ele>-18.39999961853</ele>
        <time>2020-01-16T09:39:52.000Z</time>
      </trkpt>
      <trkpt lat="47.30201" lon="-2.43055">
        <ele>-18.799999237061</ele>
        <time>2020-01-16T09:39:53.000Z</time>
      </trkpt>
      <trkpt lat="47.30197" lon="-2.4305">
        <ele>-19.200000762939</ele>
        <time>2020-01-16T09:39:54.000Z</time>
      </trkpt>
      <trkpt lat="47.30187" lon="-2.43035">
        <ele>-19.200000762939</ele>
        <time>2020-01-16T09:39:57.000Z</time>
      </trkpt>
      <trkpt lat="47.30176" lon="-2.43018">
        <ele>-18.799999237061</ele>
        <time>2020-01-16T09:40:00.000Z</time>
      </trkpt>
      <trkpt lat="47.30173" lon="-2.43011">
        <ele>-18.39999961853</ele>
        <time>2020-01-16T09:40:01.000Z</time>
      </trkpt>
      <trkpt lat="47.30169" lon="-2.43007">
        <ele>-18</ele>
        <time>2020-01-16T09:40:02.000Z</time>
      </trkpt>
      <trkpt lat="47.30166" lon="-2.43">
        <ele>-17.60000038147</ele>
        <time>2020-01-16T09:40:03.000Z</time>
      </trkpt>
      <trkpt lat="47.30163" lon="-2.42995">
        <ele>-17.200000762939</ele>
        <time>2020-01-16T09:40:04.000Z</time>
      </trkpt>
      <trkpt lat="47.3016" lon="-2.42992">
        <ele>-17.60000038147</ele>
        <time>2020-01-16T09:40:05.000Z</time>
      </trkpt>
      <trkpt lat="47.30155" lon="-2.4299">
        <ele>-18</ele>
        <time>2020-01-16T09:40:06.000Z</time>
      </trkpt>
      <trkpt lat="47.30151" lon="-2.4299">
        <ele>-18.39999961853</ele>
        <time>2020-01-16T09:40:07.000Z</time>
      </trkpt>
      <trkpt lat="47.30146" lon="-2.42991">
        <ele>-18.799999237061</ele>
        <time>2020-01-16T09:40:08.000Z</time>
      </trkpt>
      <trkpt lat="47.30141" lon="-2.42994">
        <ele>-19.200000762939</ele>
        <time>2020-01-16T09:40:09.000Z</time>
      </trkpt>
      <trkpt lat="47.30137" lon="-2.42997">
        <ele>-19.200000762939</ele>
        <time>2020-01-16T09:40:10.000Z</time>
      </trkpt>
      <trkpt lat="47.30132" lon="-2.43001">
        <ele>-19.200000762939</ele>
        <time>2020-01-16T09:40:11.000Z</time>
      </trkpt>
      <trkpt lat="47.30101" lon="-2.43016">
        <ele>-19.200000762939</ele>
        <time>2020-01-16T09:40:17.000Z</time>
      </trkpt>
      <trkpt lat="47.30057" lon="-2.43033">
        <ele>-19.200000762939</ele>
        <time>2020-01-16T09:40:25.000Z</time>
      </trkpt>
      <trkpt lat="47.30014" lon="-2.43046">
        <ele>-19.200000762939</ele>
        <time>2020-01-16T09:40:33.000Z</time>
      </trkpt>
      <trkpt lat="47.29982" lon="-2.43053">
        <ele>-19.200000762939</ele>
        <time>2020-01-16T09:40:39.000Z</time>
      </trkpt>
      <trkpt lat="47.29951" lon="-2.43068">
        <ele>-19.200000762939</ele>
        <time>2020-01-16T09:40:45.000Z</time>
      </trkpt>
      <trkpt lat="47.29925" lon="-2.43074">
        <ele>-19.200000762939</ele>
        <time>2020-01-16T09:40:50.000Z</time>
      </trkpt>
      <trkpt lat="47.2992" lon="-2.43077">
        <ele>-19.200000762939</ele>
        <time>2020-01-16T09:40:51.000Z</time>
      </trkpt>
      <trkpt lat="47.29895" lon="-2.43094">
        <ele>-19.200000762939</ele>
        <time>2020-01-16T09:40:56.000Z</time>
      </trkpt>
      <trkpt lat="47.29885" lon="-2.43099">
        <ele>-19.200000762939</ele>
        <time>2020-01-16T09:40:58.000Z</time>
      </trkpt>
      <trkpt lat="47.29865" lon="-2.43105">
        <ele>-19.200000762939</ele>
        <time>2020-01-16T09:41:02.000Z</time>
      </trkpt>
      <trkpt lat="47.29854" lon="-2.43121">
        <ele>-19.200000762939</ele>
        <time>2020-01-16T09:41:06.000Z</time>
      </trkpt>
      <trkpt lat="47.29852" lon="-2.43142">
        <ele>-19.200000762939</ele>
        <time>2020-01-16T09:41:09.000Z</time>
      </trkpt>
      <trkpt lat="47.29849" lon="-2.43149">
        <ele>-19.200000762939</ele>
        <time>2020-01-16T09:41:10.000Z</time>
      </trkpt>
      <trkpt lat="47.29836" lon="-2.43161">
        <ele>-19.200000762939</ele>
        <time>2020-01-16T09:41:13.000Z</time>
      </trkpt>
      <trkpt lat="47.29822" lon="-2.43165">
        <ele>-19.200000762939</ele>
        <time>2020-01-16T09:41:16.000Z</time>
      </trkpt>
      <trkpt lat="47.29817" lon="-2.43167">
        <ele>-19.200000762939</ele>
        <time>2020-01-16T09:41:17.000Z</time>
      </trkpt>
      <trkpt lat="47.29804" lon="-2.43172">
        <ele>-19.200000762939</ele>
        <time>2020-01-16T09:41:20.000Z</time>
      </trkpt>
      <trkpt lat="47.29801" lon="-2.43177">
        <ele>-19.200000762939</ele>
        <time>2020-01-16T09:41:21.000Z</time>
      </trkpt>
      <trkpt lat="47.2979" lon="-2.43188">
        <ele>-19.200000762939</ele>
        <time>2020-01-16T09:41:24.000Z</time>
      </trkpt>
      <trkpt lat="47.2978" lon="-2.43191">
        <ele>-19.200000762939</ele>
        <time>2020-01-16T09:41:26.000Z</time>
      </trkpt>
      <trkpt lat="47.29739" lon="-2.43203">
        <ele>-19.200000762939</ele>
        <time>2020-01-16T09:41:33.000Z</time>
      </trkpt>
      <trkpt lat="47.29697" lon="-2.43214">
        <ele>-19.200000762939</ele>
        <time>2020-01-16T09:41:40.000Z</time>
      </trkpt>
      <trkpt lat="47.29661" lon="-2.43225">
        <ele>-19.200000762939</ele>
        <time>2020-01-16T09:41:46.000Z</time>
      </trkpt>
      <trkpt lat="47.29623" lon="-2.43235">
        <ele>-19.200000762939</ele>
        <time>2020-01-16T09:41:53.000Z</time>
      </trkpt>
      <trkpt lat="47.29592" lon="-2.4325">
        <ele>-19.200000762939</ele>
        <time>2020-01-16T09:42:00.000Z</time>
      </trkpt>
      <trkpt lat="47.29578" lon="-2.43258">
        <ele>-18.799999237061</ele>
        <time>2020-01-16T09:42:04.000Z</time>
      </trkpt>
      <trkpt lat="47.29575" lon="-2.43259">
        <ele>-18.200000762939</ele>
        <time>2020-01-16T09:42:05.000Z</time>
      </trkpt>
      <trkpt lat="47.29573" lon="-2.43261">
        <ele>-17.799999237061</ele>
        <time>2020-01-16T09:42:06.000Z</time>
      </trkpt>
      <trkpt lat="47.29571" lon="-2.43263">
        <ele>-17.39999961853</ele>
        <time>2020-01-16T09:42:07.000Z</time>
      </trkpt>
      <trkpt lat="47.2957" lon="-2.43267">
        <ele>-16.799999237061</ele>
        <time>2020-01-16T09:42:08.000Z</time>
      </trkpt>
      <trkpt lat="47.29571" lon="-2.43276">
        <ele>-16.799999237061</ele>
        <time>2020-01-16T09:42:10.000Z</time>
      </trkpt>
      <trkpt lat="47.29575" lon="-2.43305">
        <ele>-16.799999237061</ele>
        <time>2020-01-16T09:42:15.000Z</time>
      </trkpt>
      <trkpt lat="47.2958" lon="-2.43344">
        <ele>-16.799999237061</ele>
        <time>2020-01-16T09:42:22.000Z</time>
      </trkpt>
      <trkpt lat="47.2959" lon="-2.43371">
        <ele>-16.799999237061</ele>
        <time>2020-01-16T09:42:28.000Z</time>
      </trkpt>
      <trkpt lat="47.29604" lon="-2.43402">
        <ele>-16.799999237061</ele>
        <time>2020-01-16T09:42:34.000Z</time>
      </trkpt>
      <trkpt lat="47.29606" lon="-2.43408">
        <ele>-16.799999237061</ele>
        <time>2020-01-16T09:42:35.000Z</time>
      </trkpt>
      <trkpt lat="47.29618" lon="-2.43446">
        <ele>-16.799999237061</ele>
        <time>2020-01-16T09:42:41.000Z</time>
      </trkpt>
      <trkpt lat="47.29624" lon="-2.43466">
        <ele>-17.200000762939</ele>
        <time>2020-01-16T09:42:45.000Z</time>
      </trkpt>
      <trkpt lat="47.29624" lon="-2.4347">
        <ele>-17.60000038147</ele>
        <time>2020-01-16T09:42:46.000Z</time>
      </trkpt>
      <trkpt lat="47.29625" lon="-2.43475">
        <ele>-18.200000762939</ele>
        <time>2020-01-16T09:42:47.000Z</time>
      </trkpt>
      <trkpt lat="47.29625" lon="-2.43479">
        <ele>-18.60000038147</ele>
        <time>2020-01-16T09:42:48.000Z</time>
      </trkpt>
      <trkpt lat="47.29626" lon="-2.43484">
        <ele>-19</ele>
        <time>2020-01-16T09:42:49.000Z</time>
      </trkpt>
      <trkpt lat="47.29628" lon="-2.43504">
        <ele>-19</ele>
        <time>2020-01-16T09:42:53.000Z</time>
      </trkpt>
      <trkpt lat="47.2963" lon="-2.43517">
        <ele>-19</ele>
        <time>2020-01-16T09:42:57.000Z</time>
      </trkpt>
      <trkpt lat="47.29639" lon="-2.43538">
        <ele>-19</ele>
        <time>2020-01-16T09:43:02.000Z</time>
      </trkpt>
      <trkpt lat="47.29639" lon="-2.43548">
        <ele>-19</ele>
        <time>2020-01-16T09:43:04.000Z</time>
      </trkpt>
      <trkpt lat="47.29638" lon="-2.43552">
        <ele>-19</ele>
        <time>2020-01-16T09:43:05.000Z</time>
      </trkpt>
      <trkpt lat="47.29628" lon="-2.43559">
        <ele>-19</ele>
        <time>2020-01-16T09:43:08.000Z</time>
      </trkpt>
      <trkpt lat="47.29623" lon="-2.43558">
        <ele>-19</ele>
        <time>2020-01-16T09:43:09.000Z</time>
      </trkpt>
      <trkpt lat="47.29614" lon="-2.43557">
        <ele>-19</ele>
        <time>2020-01-16T09:43:11.000Z</time>
      </trkpt>
      <trkpt lat="47.29605" lon="-2.43558">
        <ele>-19</ele>
        <time>2020-01-16T09:43:13.000Z</time>
      </trkpt>
      <trkpt lat="47.29572" lon="-2.43564">
        <ele>-19</ele>
        <time>2020-01-16T09:43:20.000Z</time>
      </trkpt>
      <trkpt lat="47.29558" lon="-2.43566">
        <ele>-18.60000038147</ele>
        <time>2020-01-16T09:43:23.000Z</time>
      </trkpt>
      <trkpt lat="47.29553" lon="-2.43567">
        <ele>-18.200000762939</ele>
        <time>2020-01-16T09:43:24.000Z</time>
      </trkpt>
      <trkpt lat="47.29548" lon="-2.43567">
        <ele>-17.799999237061</ele>
        <time>2020-01-16T09:43:25.000Z</time>
      </trkpt>
      <trkpt lat="47.29543" lon="-2.43568">
        <ele>-17.39999961853</ele>
        <time>2020-01-16T09:43:26.000Z</time>
      </trkpt>
      <trkpt lat="47.29537" lon="-2.43569">
        <ele>-16.799999237061</ele>
        <time>2020-01-16T09:43:27.000Z</time>
      </trkpt>
      <trkpt lat="47.29532" lon="-2.43569">
        <ele>-16.799999237061</ele>
        <time>2020-01-16T09:43:28.000Z</time>
      </trkpt>
      <trkpt lat="47.29512" lon="-2.43571">
        <ele>-16.799999237061</ele>
        <time>2020-01-16T09:43:33.000Z</time>
      </trkpt>
      <trkpt lat="47.29487" lon="-2.43576">
        <ele>-16.799999237061</ele>
        <time>2020-01-16T09:43:39.000Z</time>
      </trkpt>
      <trkpt lat="47.29452" lon="-2.43587">
        <ele>-16.799999237061</ele>
        <time>2020-01-16T09:43:46.000Z</time>
      </trkpt>
      <trkpt lat="47.29415" lon="-2.43604">
        <ele>-16.799999237061</ele>
        <time>2020-01-16T09:43:54.000Z</time>
      </trkpt>
      <trkpt lat="47.294" lon="-2.43613">
        <ele>-16.39999961853</ele>
        <time>2020-01-16T09:43:57.000Z</time>
      </trkpt>
      <trkpt lat="47.29396" lon="-2.43616">
        <ele>-16</ele>
        <time>2020-01-16T09:43:58.000Z</time>
      </trkpt>
      <trkpt lat="47.29391" lon="-2.4362">
        <ele>-15.60000038147</ele>
        <time>2020-01-16T09:43:59.000Z</time>
      </trkpt>
      <trkpt lat="47.29386" lon="-2.43623">
        <ele>-15</ele>
        <time>2020-01-16T09:44:00.000Z</time>
      </trkpt>
      <trkpt lat="47.29381" lon="-2.43627">
        <ele>-14.60000038147</ele>
        <time>2020-01-16T09:44:01.000Z</time>
      </trkpt>
      <trkpt lat="47.2935" lon="-2.43654">
        <ele>-14.60000038147</ele>
        <time>2020-01-16T09:44:08.000Z</time>
      </trkpt>
      <trkpt lat="47.29345" lon="-2.43657">
        <ele>-15.199999809265</ele>
        <time>2020-01-16T09:44:09.000Z</time>
      </trkpt>
      <trkpt lat="47.29341" lon="-2.43661">
        <ele>-15.60000038147</ele>
        <time>2020-01-16T09:44:10.000Z</time>
      </trkpt>
      <trkpt lat="47.29337" lon="-2.43664">
        <ele>-16.200000762939</ele>
        <time>2020-01-16T09:44:11.000Z</time>
      </trkpt>
      <trkpt lat="47.29333" lon="-2.43668">
        <ele>-16.60000038147</ele>
        <time>2020-01-16T09:44:12.000Z</time>
      </trkpt>
      <trkpt lat="47.29328" lon="-2.43672">
        <ele>-17</ele>
        <time>2020-01-16T09:44:13.000Z</time>
      </trkpt>
      <trkpt lat="47.29324" lon="-2.43676">
        <ele>-17</ele>
        <time>2020-01-16T09:44:14.000Z</time>
      </trkpt>
      <trkpt lat="47.29288" lon="-2.43706">
        <ele>-17</ele>
        <time>2020-01-16T09:44:22.000Z</time>
      </trkpt>
      <trkpt lat="47.29251" lon="-2.43739">
        <ele>-17</ele>
        <time>2020-01-16T09:44:30.000Z</time>
      </trkpt>
      <trkpt lat="47.29217" lon="-2.43767">
        <ele>-17</ele>
        <time>2020-01-16T09:44:36.000Z</time>
      </trkpt>
      <trkpt lat="47.29197" lon="-2.43784">
        <ele>-16.60000038147</ele>
        <time>2020-01-16T09:44:40.000Z</time>
      </trkpt>
      <trkpt lat="47.29193" lon="-2.43788">
        <ele>-16.200000762939</ele>
        <time>2020-01-16T09:44:41.000Z</time>
      </trkpt>
      <trkpt lat="47.29188" lon="-2.43792">
        <ele>-15.800000190735</ele>
        <time>2020-01-16T09:44:42.000Z</time>
      </trkpt>
      <trkpt lat="47.29185" lon="-2.43795">
        <ele>-15.39999961853</ele>
        <time>2020-01-16T09:44:43.000Z</time>
      </trkpt>
      <trkpt lat="47.29181" lon="-2.43799">
        <ele>-15</ele>
        <time>2020-01-16T09:44:44.000Z</time>
      </trkpt>
      <trkpt lat="47.29164" lon="-2.43813">
        <ele>-15</ele>
        <time>2020-01-16T09:44:48.000Z</time>
      </trkpt>
      <trkpt lat="47.29132" lon="-2.43842">
        <ele>-15</ele>
        <time>2020-01-16T09:44:55.000Z</time>
      </trkpt>
      <trkpt lat="47.29107" lon="-2.4386">
        <ele>-15</ele>
        <time>2020-01-16T09:45:00.000Z</time>
      </trkpt>
      <trkpt lat="47.29102" lon="-2.43862">
        <ele>-15</ele>
        <time>2020-01-16T09:45:01.000Z</time>
      </trkpt>
      <trkpt lat="47.29083" lon="-2.43873">
        <ele>-15</ele>
        <time>2020-01-16T09:45:05.000Z</time>
      </trkpt>
      <trkpt lat="47.2908" lon="-2.43878">
        <ele>-15.60000038147</ele>
        <time>2020-01-16T09:45:06.000Z</time>
      </trkpt>
      <trkpt lat="47.29076" lon="-2.43884">
        <ele>-16</ele>
        <time>2020-01-16T09:45:07.000Z</time>
      </trkpt>
      <trkpt lat="47.29073" lon="-2.4389">
        <ele>-16.39999961853</ele>
        <time>2020-01-16T09:45:08.000Z</time>
      </trkpt>
      <trkpt lat="47.29069" lon="-2.43895">
        <ele>-17</ele>
        <time>2020-01-16T09:45:09.000Z</time>
      </trkpt>
      <trkpt lat="47.29064" lon="-2.439">
        <ele>-17.39999961853</ele>
        <time>2020-01-16T09:45:10.000Z</time>
      </trkpt>
      <trkpt lat="47.2906" lon="-2.43905">
        <ele>-17.39999961853</ele>
        <time>2020-01-16T09:45:11.000Z</time>
      </trkpt>
      <trkpt lat="47.29047" lon="-2.43936">
        <ele>-17.39999961853</ele>
        <time>2020-01-16T09:45:15.000Z</time>
      </trkpt>
      <trkpt lat="47.29023" lon="-2.43991">
        <ele>-17.39999961853</ele>
        <time>2020-01-16T09:45:22.000Z</time>
      </trkpt>
      <trkpt lat="47.29003" lon="-2.44034">
        <ele>-17.39999961853</ele>
        <time>2020-01-16T09:45:28.000Z</time>
      </trkpt>
      <trkpt lat="47.28981" lon="-2.44085">
        <ele>-17.39999961853</ele>
        <time>2020-01-16T09:45:35.000Z</time>
      </trkpt>
      <trkpt lat="47.28955" lon="-2.44144">
        <ele>-17.39999961853</ele>
        <time>2020-01-16T09:45:44.000Z</time>
      </trkpt>
      <trkpt lat="47.28952" lon="-2.4415">
        <ele>-17.799999237061</ele>
        <time>2020-01-16T09:45:45.000Z</time>
      </trkpt>
      <trkpt lat="47.28949" lon="-2.44157">
        <ele>-18.200000762939</ele>
        <time>2020-01-16T09:45:46.000Z</time>
      </trkpt>
      <trkpt lat="47.28946" lon="-2.44164">
        <ele>-18.60000038147</ele>
        <time>2020-01-16T09:45:47.000Z</time>
      </trkpt>
      <trkpt lat="47.28943" lon="-2.4417">
        <ele>-19.200000762939</ele>
        <time>2020-01-16T09:45:48.000Z</time>
      </trkpt>
      <trkpt lat="47.2894" lon="-2.44177">
        <ele>-19.60000038147</ele>
        <time>2020-01-16T09:45:49.000Z</time>
      </trkpt>
      <trkpt lat="47.28929" lon="-2.44204">
        <ele>-19.60000038147</ele>
        <time>2020-01-16T09:45:53.000Z</time>
      </trkpt>
      <trkpt lat="47.28905" lon="-2.44258">
        <ele>-19.60000038147</ele>
        <time>2020-01-16T09:46:01.000Z</time>
      </trkpt>
      <trkpt lat="47.28894" lon="-2.44284">
        <ele>-19.200000762939</ele>
        <time>2020-01-16T09:46:05.000Z</time>
      </trkpt>
      <trkpt lat="47.28892" lon="-2.44289">
        <ele>-18.60000038147</ele>
        <time>2020-01-16T09:46:06.000Z</time>
      </trkpt>
      <trkpt lat="47.2889" lon="-2.44294">
        <ele>-18.200000762939</ele>
        <time>2020-01-16T09:46:07.000Z</time>
      </trkpt>
      <trkpt lat="47.28888" lon="-2.44299">
        <ele>-17.799999237061</ele>
        <time>2020-01-16T09:46:08.000Z</time>
      </trkpt>
      <trkpt lat="47.28886" lon="-2.44304">
        <ele>-17.39999961853</ele>
        <time>2020-01-16T09:46:09.000Z</time>
      </trkpt>
      <trkpt lat="47.28879" lon="-2.44319">
        <ele>-17.39999961853</ele>
        <time>2020-01-16T09:46:12.000Z</time>
      </trkpt>
      <trkpt lat="47.28877" lon="-2.44324">
        <ele>-17.39999961853</ele>
        <time>2020-01-16T09:46:13.000Z</time>
      </trkpt>
      <trkpt lat="47.28875" lon="-2.44328">
        <ele>-16.799999237061</ele>
        <time>2020-01-16T09:46:14.000Z</time>
      </trkpt>
      <trkpt lat="47.28873" lon="-2.44332">
        <ele>-16.200000762939</ele>
        <time>2020-01-16T09:46:15.000Z</time>
      </trkpt>
      <trkpt lat="47.28872" lon="-2.44337">
        <ele>-15.800000190735</ele>
        <time>2020-01-16T09:46:16.000Z</time>
      </trkpt>
      <trkpt lat="47.28869" lon="-2.44341">
        <ele>-15.199999809265</ele>
        <time>2020-01-16T09:46:17.000Z</time>
      </trkpt>
      <trkpt lat="47.28867" lon="-2.44346">
        <ele>-14.60000038147</ele>
        <time>2020-01-16T09:46:18.000Z</time>
      </trkpt>
      <trkpt lat="47.28863" lon="-2.44357">
        <ele>-14.60000038147</ele>
        <time>2020-01-16T09:46:20.000Z</time>
      </trkpt>
      <trkpt lat="47.2886" lon="-2.44363">
        <ele>-15</ele>
        <time>2020-01-16T09:46:21.000Z</time>
      </trkpt>
      <trkpt lat="47.28857" lon="-2.44369">
        <ele>-15.39999961853</ele>
        <time>2020-01-16T09:46:22.000Z</time>
      </trkpt>
      <trkpt lat="47.28855" lon="-2.44374">
        <ele>-15.800000190735</ele>
        <time>2020-01-16T09:46:23.000Z</time>
      </trkpt>
      <trkpt lat="47.28853" lon="-2.4438">
        <ele>-16.39999961853</ele>
        <time>2020-01-16T09:46:24.000Z</time>
      </trkpt>
      <trkpt lat="47.28851" lon="-2.44384">
        <ele>-17</ele>
        <time>2020-01-16T09:46:25.000Z</time>
      </trkpt>
      <trkpt lat="47.2885" lon="-2.44387">
        <ele>-17.60000038147</ele>
        <time>2020-01-16T09:46:26.000Z</time>
      </trkpt>
      <trkpt lat="47.28848" lon="-2.44391">
        <ele>-18.200000762939</ele>
        <time>2020-01-16T09:46:27.000Z</time>
      </trkpt>
      <trkpt lat="47.28846" lon="-2.44395">
        <ele>-18.799999237061</ele>
        <time>2020-01-16T09:46:28.000Z</time>
      </trkpt>
      <trkpt lat="47.28837" lon="-2.44415">
        <ele>-18.799999237061</ele>
        <time>2020-01-16T09:46:33.000Z</time>
      </trkpt>
      <trkpt lat="47.2882" lon="-2.44454">
        <ele>-18.799999237061</ele>
        <time>2020-01-16T09:46:40.000Z</time>
      </trkpt>
      <trkpt lat="47.28803" lon="-2.44494">
        <ele>-18.39999961853</ele>
        <time>2020-01-16T09:46:46.000Z</time>
      </trkpt>
      <trkpt lat="47.288" lon="-2.445">
        <ele>-17.799999237061</ele>
        <time>2020-01-16T09:46:47.000Z</time>
      </trkpt>
      <trkpt lat="47.28797" lon="-2.44507">
        <ele>-17.39999961853</ele>
        <time>2020-01-16T09:46:48.000Z</time>
      </trkpt>
      <trkpt lat="47.28794" lon="-2.44514">
        <ele>-17</ele>
        <time>2020-01-16T09:46:49.000Z</time>
      </trkpt>
      <trkpt lat="47.28792" lon="-2.44521">
        <ele>-16.60000038147</ele>
        <time>2020-01-16T09:46:50.000Z</time>
      </trkpt>
      <trkpt lat="47.28771" lon="-2.44567">
        <ele>-16.60000038147</ele>
        <time>2020-01-16T09:46:57.000Z</time>
      </trkpt>
      <trkpt lat="47.28748" lon="-2.44621">
        <ele>-16.60000038147</ele>
        <time>2020-01-16T09:47:05.000Z</time>
      </trkpt>
      <trkpt lat="47.28739" lon="-2.44641">
        <ele>-16.200000762939</ele>
        <time>2020-01-16T09:47:08.000Z</time>
      </trkpt>
      <trkpt lat="47.28736" lon="-2.44647">
        <ele>-15.800000190735</ele>
        <time>2020-01-16T09:47:09.000Z</time>
      </trkpt>
      <trkpt lat="47.28733" lon="-2.44653">
        <ele>-15.39999961853</ele>
        <time>2020-01-16T09:47:10.000Z</time>
      </trkpt>
      <trkpt lat="47.2873" lon="-2.4466">
        <ele>-14.800000190735</ele>
        <time>2020-01-16T09:47:11.000Z</time>
      </trkpt>
      <trkpt lat="47.28727" lon="-2.44667">
        <ele>-14.39999961853</ele>
        <time>2020-01-16T09:47:12.000Z</time>
      </trkpt>
      <trkpt lat="47.28724" lon="-2.44675">
        <ele>-14.800000190735</ele>
        <time>2020-01-16T09:47:13.000Z</time>
      </trkpt>
      <trkpt lat="47.28721" lon="-2.44682">
        <ele>-15.199999809265</ele>
        <time>2020-01-16T09:47:14.000Z</time>
      </trkpt>
      <trkpt lat="47.28718" lon="-2.44689">
        <ele>-15.60000038147</ele>
        <time>2020-01-16T09:47:15.000Z</time>
      </trkpt>
      <trkpt lat="47.28715" lon="-2.44696">
        <ele>-16.200000762939</ele>
        <time>2020-01-16T09:47:16.000Z</time>
      </trkpt>
      <trkpt lat="47.28712" lon="-2.44702">
        <ele>-16.60000038147</ele>
        <time>2020-01-16T09:47:17.000Z</time>
      </trkpt>
      <trkpt lat="47.28706" lon="-2.44716">
        <ele>-16.60000038147</ele>
        <time>2020-01-16T09:47:19.000Z</time>
      </trkpt>
      <trkpt lat="47.28695" lon="-2.44742">
        <ele>-16.60000038147</ele>
        <time>2020-01-16T09:47:23.000Z</time>
      </trkpt>
      <trkpt lat="47.2869" lon="-2.44753">
        <ele>-16.60000038147</ele>
        <time>2020-01-16T09:47:25.000Z</time>
      </trkpt>
      <trkpt lat="47.28686" lon="-2.44765">
        <ele>-16</ele>
        <time>2020-01-16T09:47:27.000Z</time>
      </trkpt>
      <trkpt lat="47.28683" lon="-2.44771">
        <ele>-15.39999961853</ele>
        <time>2020-01-16T09:47:28.000Z</time>
      </trkpt>
      <trkpt lat="47.2868" lon="-2.44777">
        <ele>-15</ele>
        <time>2020-01-16T09:47:29.000Z</time>
      </trkpt>
      <trkpt lat="47.28677" lon="-2.44783">
        <ele>-14.39999961853</ele>
        <time>2020-01-16T09:47:30.000Z</time>
      </trkpt>
      <trkpt lat="47.28674" lon="-2.4479">
        <ele>-14.800000190735</ele>
        <time>2020-01-16T09:47:31.000Z</time>
      </trkpt>
      <trkpt lat="47.28671" lon="-2.44796">
        <ele>-15.199999809265</ele>
        <time>2020-01-16T09:47:32.000Z</time>
      </trkpt>
      <trkpt lat="47.28668" lon="-2.44803">
        <ele>-15.39999961853</ele>
        <time>2020-01-16T09:47:33.000Z</time>
      </trkpt>
      <trkpt lat="47.28665" lon="-2.44811">
        <ele>-15.800000190735</ele>
        <time>2020-01-16T09:47:34.000Z</time>
      </trkpt>
      <trkpt lat="47.28662" lon="-2.44818">
        <ele>-16.200000762939</ele>
        <time>2020-01-16T09:47:35.000Z</time>
      </trkpt>
      <trkpt lat="47.28652" lon="-2.44842">
        <ele>-16.200000762939</ele>
        <time>2020-01-16T09:47:38.000Z</time>
      </trkpt>
      <trkpt lat="47.28648" lon="-2.44849">
        <ele>-16.60000038147</ele>
        <time>2020-01-16T09:47:39.000Z</time>
      </trkpt>
      <trkpt lat="47.28645" lon="-2.44857">
        <ele>-17</ele>
        <time>2020-01-16T09:47:40.000Z</time>
      </trkpt>
      <trkpt lat="47.28642" lon="-2.44864">
        <ele>-17.39999961853</ele>
        <time>2020-01-16T09:47:41.000Z</time>
      </trkpt>
      <trkpt lat="47.28639" lon="-2.44871">
        <ele>-18</ele>
        <time>2020-01-16T09:47:42.000Z</time>
      </trkpt>
      <trkpt lat="47.28635" lon="-2.44878">
        <ele>-18.39999961853</ele>
        <time>2020-01-16T09:47:43.000Z</time>
      </trkpt>
      <trkpt lat="47.28629" lon="-2.44891">
        <ele>-18.39999961853</ele>
        <time>2020-01-16T09:47:45.000Z</time>
      </trkpt>
      <trkpt lat="47.28606" lon="-2.44926">
        <ele>-18.39999961853</ele>
        <time>2020-01-16T09:47:51.000Z</time>
      </trkpt>
      <trkpt lat="47.28572" lon="-2.44968">
        <ele>-18.39999961853</ele>
        <time>2020-01-16T09:47:59.000Z</time>
      </trkpt>
      <trkpt lat="47.28544" lon="-2.45003">
        <ele>-18.39999961853</ele>
        <time>2020-01-16T09:48:06.000Z</time>
      </trkpt>
      <trkpt lat="47.28518" lon="-2.45035">
        <ele>-18.39999961853</ele>
        <time>2020-01-16T09:48:13.000Z</time>
      </trkpt>
      <trkpt lat="47.28491" lon="-2.45068">
        <ele>-18.39999961853</ele>
        <time>2020-01-16T09:48:20.000Z</time>
      </trkpt>
      <trkpt lat="47.28465" lon="-2.45101">
        <ele>-18.39999961853</ele>
        <time>2020-01-16T09:48:27.000Z</time>
      </trkpt>
      <trkpt lat="47.28434" lon="-2.45135">
        <ele>-18.39999961853</ele>
        <time>2020-01-16T09:48:35.000Z</time>
      </trkpt>
      <trkpt lat="47.28413" lon="-2.45154">
        <ele>-18</ele>
        <time>2020-01-16T09:48:40.000Z</time>
      </trkpt>
      <trkpt lat="47.28409" lon="-2.45157">
        <ele>-17.39999961853</ele>
        <time>2020-01-16T09:48:41.000Z</time>
      </trkpt>
      <trkpt lat="47.28404" lon="-2.4516">
        <ele>-17</ele>
        <time>2020-01-16T09:48:42.000Z</time>
      </trkpt>
      <trkpt lat="47.284" lon="-2.45162">
        <ele>-16.60000038147</ele>
        <time>2020-01-16T09:48:43.000Z</time>
      </trkpt>
      <trkpt lat="47.28396" lon="-2.45165">
        <ele>-16.200000762939</ele>
        <time>2020-01-16T09:48:44.000Z</time>
      </trkpt>
      <trkpt lat="47.28377" lon="-2.45179">
        <ele>-16.200000762939</ele>
        <time>2020-01-16T09:48:48.000Z</time>
      </trkpt>
      <trkpt lat="47.28338" lon="-2.45209">
        <ele>-16.200000762939</ele>
        <time>2020-01-16T09:48:56.000Z</time>
      </trkpt>
      <trkpt lat="47.28298" lon="-2.45239">
        <ele>-16.200000762939</ele>
        <time>2020-01-16T09:49:04.000Z</time>
      </trkpt>
      <trkpt lat="47.2826" lon="-2.45267">
        <ele>-16.200000762939</ele>
        <time>2020-01-16T09:49:12.000Z</time>
      </trkpt>
      <trkpt lat="47.28257" lon="-2.4527">
        <ele>-16.200000762939</ele>
        <time>2020-01-16T09:49:13.000Z</time>
      </trkpt>
      <trkpt lat="47.28253" lon="-2.4528">
        <ele>-16.200000762939</ele>
        <time>2020-01-16T09:49:15.000Z</time>
      </trkpt>
      <trkpt lat="47.28254" lon="-2.45289">
        <ele>-16.60000038147</ele>
        <time>2020-01-16T09:49:17.000Z</time>
      </trkpt>
      <trkpt lat="47.28254" lon="-2.45294">
        <ele>-17</ele>
        <time>2020-01-16T09:49:18.000Z</time>
      </trkpt>
      <trkpt lat="47.28254" lon="-2.453">
        <ele>-17.39999961853</ele>
        <time>2020-01-16T09:49:19.000Z</time>
      </trkpt>
      <trkpt lat="47.28253" lon="-2.45305">
        <ele>-17.799999237061</ele>
        <time>2020-01-16T09:49:20.000Z</time>
      </trkpt>
      <trkpt lat="47.28251" lon="-2.45311">
        <ele>-18.39999961853</ele>
        <time>2020-01-16T09:49:21.000Z</time>
      </trkpt>
      <trkpt lat="47.28247" lon="-2.4532">
        <ele>-18.39999961853</ele>
        <time>2020-01-16T09:49:23.000Z</time>
      </trkpt>
      <trkpt lat="47.28237" lon="-2.45349">
        <ele>-18.39999961853</ele>
        <time>2020-01-16T09:49:29.000Z</time>
      </trkpt>
      <trkpt lat="47.28226" lon="-2.45385">
        <ele>-18.39999961853</ele>
        <time>2020-01-16T09:49:36.000Z</time>
      </trkpt>
      <trkpt lat="47.28222" lon="-2.45414">
        <ele>-18.39999961853</ele>
        <time>2020-01-16T09:49:42.000Z</time>
      </trkpt>
      <trkpt lat="47.28218" lon="-2.45423">
        <ele>-18.39999961853</ele>
        <time>2020-01-16T09:49:45.000Z</time>
      </trkpt>
      <trkpt lat="47.28216" lon="-2.45424">
        <ele>-18.39999961853</ele>
        <time>2020-01-16T09:49:46.000Z</time>
      </trkpt>
      <trkpt lat="47.28202" lon="-2.45422">
        <ele>-18.39999961853</ele>
        <time>2020-01-16T09:49:51.000Z</time>
      </trkpt>
      <trkpt lat="47.28188" lon="-2.45418">
        <ele>-18.39999961853</ele>
        <time>2020-01-16T09:49:57.000Z</time>
      </trkpt>
      <trkpt lat="47.28175" lon="-2.45411">
        <ele>-18.39999961853</ele>
        <time>2020-01-16T09:50:03.000Z</time>
      </trkpt>
      <trkpt lat="47.28152" lon="-2.45399">
        <ele>-18.39999961853</ele>
        <time>2020-01-16T09:50:10.000Z</time>
      </trkpt>
      <trkpt lat="47.28145" lon="-2.45399">
        <ele>-18.39999961853</ele>
        <time>2020-01-16T09:50:12.000Z</time>
      </trkpt>
      <trkpt lat="47.28142" lon="-2.45403">
        <ele>-18.39999961853</ele>
        <time>2020-01-16T09:50:13.000Z</time>
      </trkpt>
      <trkpt lat="47.28132" lon="-2.45424">
        <ele>-18.39999961853</ele>
        <time>2020-01-16T09:50:17.000Z</time>
      </trkpt>
      <trkpt lat="47.28124" lon="-2.45452">
        <ele>-17.799999237061</ele>
        <time>2020-01-16T09:50:21.000Z</time>
      </trkpt>
      <trkpt lat="47.28122" lon="-2.45459">
        <ele>-17.39999961853</ele>
        <time>2020-01-16T09:50:22.000Z</time>
      </trkpt>
      <trkpt lat="47.28119" lon="-2.45464">
        <ele>-17</ele>
        <time>2020-01-16T09:50:23.000Z</time>
      </trkpt>
      <trkpt lat="47.28115" lon="-2.4547">
        <ele>-16.60000038147</ele>
        <time>2020-01-16T09:50:24.000Z</time>
      </trkpt>
      <trkpt lat="47.28112" lon="-2.45476">
        <ele>-16</ele>
        <time>2020-01-16T09:50:25.000Z</time>
      </trkpt>
      <trkpt lat="47.28105" lon="-2.45489">
        <ele>-16</ele>
        <time>2020-01-16T09:50:27.000Z</time>
      </trkpt>
      <trkpt lat="47.28092" lon="-2.45518">
        <ele>-16.60000038147</ele>
        <time>2020-01-16T09:50:31.000Z</time>
      </trkpt>
      <trkpt lat="47.28089" lon="-2.45526">
        <ele>-17</ele>
        <time>2020-01-16T09:50:32.000Z</time>
      </trkpt>
      <trkpt lat="47.28085" lon="-2.45533">
        <ele>-17.39999961853</ele>
        <time>2020-01-16T09:50:33.000Z</time>
      </trkpt>
      <trkpt lat="47.28082" lon="-2.4554">
        <ele>-17.799999237061</ele>
        <time>2020-01-16T09:50:34.000Z</time>
      </trkpt>
      <trkpt lat="47.28079" lon="-2.45547">
        <ele>-18.200000762939</ele>
        <time>2020-01-16T09:50:35.000Z</time>
      </trkpt>
      <trkpt lat="47.28061" lon="-2.45595">
        <ele>-18.200000762939</ele>
        <time>2020-01-16T09:50:42.000Z</time>
      </trkpt>
      <trkpt lat="47.28059" lon="-2.4561">
        <ele>-18.200000762939</ele>
        <time>2020-01-16T09:50:44.000Z</time>
      </trkpt>
      <trkpt lat="47.28051" lon="-2.45629">
        <ele>-18.200000762939</ele>
        <time>2020-01-16T09:50:47.000Z</time>
      </trkpt>
      <trkpt lat="47.28047" lon="-2.45635">
        <ele>-18.200000762939</ele>
        <time>2020-01-16T09:50:48.000Z</time>
      </trkpt>
      <trkpt lat="47.28034" lon="-2.45648">
        <ele>-18.200000762939</ele>
        <time>2020-01-16T09:50:51.000Z</time>
      </trkpt>
      <trkpt lat="47.28025" lon="-2.45668">
        <ele>-18.200000762939</ele>
        <time>2020-01-16T09:50:54.000Z</time>
      </trkpt>
      <trkpt lat="47.28022" lon="-2.45676">
        <ele>-18.200000762939</ele>
        <time>2020-01-16T09:50:55.000Z</time>
      </trkpt>
      <trkpt lat="47.28004" lon="-2.45734">
        <ele>-18.200000762939</ele>
        <time>2020-01-16T09:51:03.000Z</time>
      </trkpt>
      <trkpt lat="47.27998" lon="-2.45755">
        <ele>-18.200000762939</ele>
        <time>2020-01-16T09:51:06.000Z</time>
      </trkpt>
      <trkpt lat="47.27995" lon="-2.45777">
        <ele>-18.200000762939</ele>
        <time>2020-01-16T09:51:09.000Z</time>
      </trkpt>
      <trkpt lat="47.27985" lon="-2.45819">
        <ele>-18.200000762939</ele>
        <time>2020-01-16T09:51:15.000Z</time>
      </trkpt>
      <trkpt lat="47.2798" lon="-2.45839">
        <ele>-18.200000762939</ele>
        <time>2020-01-16T09:51:19.000Z</time>
      </trkpt>
      <trkpt lat="47.27971" lon="-2.45842">
        <ele>-18.200000762939</ele>
        <time>2020-01-16T09:51:22.000Z</time>
      </trkpt>
      <trkpt lat="47.27967" lon="-2.45844">
        <ele>-18.200000762939</ele>
        <time>2020-01-16T09:51:23.000Z</time>
      </trkpt>
      <trkpt lat="47.27963" lon="-2.45844">
        <ele>-18.200000762939</ele>
        <time>2020-01-16T09:51:24.000Z</time>
      </trkpt>
      <trkpt lat="47.27952" lon="-2.45844">
        <ele>-18.200000762939</ele>
        <time>2020-01-16T09:51:26.000Z</time>
      </trkpt>
      <trkpt lat="47.27947" lon="-2.45844">
        <ele>-18.200000762939</ele>
        <time>2020-01-16T09:51:27.000Z</time>
      </trkpt>
      <trkpt lat="47.27932" lon="-2.45851">
        <ele>-18.200000762939</ele>
        <time>2020-01-16T09:51:30.000Z</time>
      </trkpt>
      <trkpt lat="47.27926" lon="-2.45854">
        <ele>-18.60000038147</ele>
        <time>2020-01-16T09:51:31.000Z</time>
      </trkpt>
      <trkpt lat="47.27919" lon="-2.45858">
        <ele>-19</ele>
        <time>2020-01-16T09:51:32.000Z</time>
      </trkpt>
      <trkpt lat="47.27913" lon="-2.45861">
        <ele>-19.39999961853</ele>
        <time>2020-01-16T09:51:33.000Z</time>
      </trkpt>
      <trkpt lat="47.27905" lon="-2.45865">
        <ele>-19.799999237061</ele>
        <time>2020-01-16T09:51:34.000Z</time>
      </trkpt>
      <trkpt lat="47.27898" lon="-2.45868">
        <ele>-20.200000762939</ele>
        <time>2020-01-16T09:51:35.000Z</time>
      </trkpt>
      <trkpt lat="47.27878" lon="-2.45878">
        <ele>-20.799999237061</ele>
        <time>2020-01-16T09:51:38.000Z</time>
      </trkpt>
      <trkpt lat="47.27872" lon="-2.45881">
        <ele>-21.200000762939</ele>
        <time>2020-01-16T09:51:39.000Z</time>
      </trkpt>
      <trkpt lat="47.27866" lon="-2.45885">
        <ele>-21.799999237061</ele>
        <time>2020-01-16T09:51:40.000Z</time>
      </trkpt>
      <trkpt lat="47.2786" lon="-2.45889">
        <ele>-22.200000762939</ele>
        <time>2020-01-16T09:51:41.000Z</time>
      </trkpt>
      <trkpt lat="47.27855" lon="-2.45891">
        <ele>-22.60000038147</ele>
        <time>2020-01-16T09:51:42.000Z</time>
      </trkpt>
      <trkpt lat="47.27824" lon="-2.45908">
        <ele>-22.60000038147</ele>
        <time>2020-01-16T09:51:48.000Z</time>
      </trkpt>
      <trkpt lat="47.27799" lon="-2.45919">
        <ele>-22.60000038147</ele>
        <time>2020-01-16T09:51:54.000Z</time>
      </trkpt>
      <trkpt lat="47.27792" lon="-2.45923">
        <ele>-22.200000762939</ele>
        <time>2020-01-16T09:51:56.000Z</time>
      </trkpt>
      <trkpt lat="47.27789" lon="-2.45925">
        <ele>-21.799999237061</ele>
        <time>2020-01-16T09:51:57.000Z</time>
      </trkpt>
      <trkpt lat="47.27786" lon="-2.45928">
        <ele>-21.39999961853</ele>
        <time>2020-01-16T09:51:58.000Z</time>
      </trkpt>
      <trkpt lat="47.27782" lon="-2.45931">
        <ele>-21</ele>
        <time>2020-01-16T09:51:59.000Z</time>
      </trkpt>
      <trkpt lat="47.27779" lon="-2.45933">
        <ele>-20.60000038147</ele>
        <time>2020-01-16T09:52:00.000Z</time>
      </trkpt>
      <trkpt lat="47.27774" lon="-2.45938">
        <ele>-20.200000762939</ele>
        <time>2020-01-16T09:52:02.000Z</time>
      </trkpt>
      <trkpt lat="47.27771" lon="-2.45941">
        <ele>-19.799999237061</ele>
        <time>2020-01-16T09:52:03.000Z</time>
      </trkpt>
      <trkpt lat="47.27769" lon="-2.45945">
        <ele>-19.39999961853</ele>
        <time>2020-01-16T09:52:04.000Z</time>
      </trkpt>
      <trkpt lat="47.27767" lon="-2.4595">
        <ele>-19</ele>
        <time>2020-01-16T09:52:05.000Z</time>
      </trkpt>
      <trkpt lat="47.27765" lon="-2.45954">
        <ele>-18.60000038147</ele>
        <time>2020-01-16T09:52:06.000Z</time>
      </trkpt>
      <trkpt lat="47.2776" lon="-2.4597">
        <ele>-18.60000038147</ele>
        <time>2020-01-16T09:52:09.000Z</time>
      </trkpt>
      <trkpt lat="47.2776" lon="-2.45982">
        <ele>-18.60000038147</ele>
        <time>2020-01-16T09:52:11.000Z</time>
      </trkpt>
      <trkpt lat="47.27755" lon="-2.45993">
        <ele>-18.60000038147</ele>
        <time>2020-01-16T09:52:14.000Z</time>
      </trkpt>
      <trkpt lat="47.27748" lon="-2.45997">
        <ele>-18.60000038147</ele>
        <time>2020-01-16T09:52:18.000Z</time>
      </trkpt>
      <trkpt lat="47.27748" lon="-2.46011">
        <ele>-18.60000038147</ele>
        <time>2020-01-16T09:52:22.000Z</time>
      </trkpt>
      <trkpt lat="47.27763" lon="-2.46027">
        <ele>-18.60000038147</ele>
        <time>2020-01-16T09:52:26.000Z</time>
      </trkpt>
      <trkpt lat="47.27784" lon="-2.46043">
        <ele>-18.60000038147</ele>
        <time>2020-01-16T09:52:30.000Z</time>
      </trkpt>
      <trkpt lat="47.27789" lon="-2.46048">
        <ele>-18.60000038147</ele>
        <time>2020-01-16T09:52:31.000Z</time>
      </trkpt>
      <trkpt lat="47.2783" lon="-2.46091">
        <ele>-18.60000038147</ele>
        <time>2020-01-16T09:52:39.000Z</time>
      </trkpt>
      <trkpt lat="47.27844" lon="-2.46119">
        <ele>-18.60000038147</ele>
        <time>2020-01-16T09:52:43.000Z</time>
      </trkpt>
      <trkpt lat="47.27846" lon="-2.46127">
        <ele>-18.60000038147</ele>
        <time>2020-01-16T09:52:44.000Z</time>
      </trkpt>
      <trkpt lat="47.27844" lon="-2.46159">
        <ele>-18.60000038147</ele>
        <time>2020-01-16T09:52:48.000Z</time>
      </trkpt>
      <trkpt lat="47.27842" lon="-2.46167">
        <ele>-18.60000038147</ele>
        <time>2020-01-16T09:52:49.000Z</time>
      </trkpt>
      <trkpt lat="47.27839" lon="-2.46193">
        <ele>-18.60000038147</ele>
        <time>2020-01-16T09:52:52.000Z</time>
      </trkpt>
      <trkpt lat="47.27838" lon="-2.46202">
        <ele>-18.60000038147</ele>
        <time>2020-01-16T09:52:53.000Z</time>
      </trkpt>
      <trkpt lat="47.27833" lon="-2.4624">
        <ele>-18.60000038147</ele>
        <time>2020-01-16T09:52:57.000Z</time>
      </trkpt>
      <trkpt lat="47.27832" lon="-2.46259">
        <ele>-18.60000038147</ele>
        <time>2020-01-16T09:52:59.000Z</time>
      </trkpt>
      <trkpt lat="47.27834" lon="-2.46312">
        <ele>-18.60000038147</ele>
        <time>2020-01-16T09:53:05.000Z</time>
      </trkpt>
      <trkpt lat="47.27842" lon="-2.46335">
        <ele>-18.60000038147</ele>
        <time>2020-01-16T09:53:09.000Z</time>
      </trkpt>
      <trkpt lat="47.27847" lon="-2.46348">
        <ele>-18.60000038147</ele>
        <time>2020-01-16T09:53:14.000Z</time>
      </trkpt>
      <trkpt lat="47.27847" lon="-2.4635">
        <ele>-18.60000038147</ele>
        <time>2020-01-16T09:53:15.000Z</time>
      </trkpt>
      <trkpt lat="47.27848" lon="-2.46356">
        <ele>-18.60000038147</ele>
        <time>2020-01-16T09:53:18.000Z</time>
      </trkpt>
      <trkpt lat="47.27849" lon="-2.46378">
        <ele>-18.60000038147</ele>
        <time>2020-01-16T09:53:22.000Z</time>
      </trkpt>
      <trkpt lat="47.27846" lon="-2.46392">
        <ele>-18.60000038147</ele>
        <time>2020-01-16T09:53:24.000Z</time>
      </trkpt>
      <trkpt lat="47.2784" lon="-2.46424">
        <ele>-18.60000038147</ele>
        <time>2020-01-16T09:53:28.000Z</time>
      </trkpt>
      <trkpt lat="47.2783" lon="-2.46481">
        <ele>-18.60000038147</ele>
        <time>2020-01-16T09:53:35.000Z</time>
      </trkpt>
      <trkpt lat="47.2782" lon="-2.4653">
        <ele>-18.60000038147</ele>
        <time>2020-01-16T09:53:41.000Z</time>
      </trkpt>
      <trkpt lat="47.27809" lon="-2.46589">
        <ele>-18.60000038147</ele>
        <time>2020-01-16T09:53:49.000Z</time>
      </trkpt>
      <trkpt lat="47.27805" lon="-2.46598">
        <ele>-18.60000038147</ele>
        <time>2020-01-16T09:53:51.000Z</time>
      </trkpt>
      <trkpt lat="47.27802" lon="-2.466">
        <ele>-18.60000038147</ele>
        <time>2020-01-16T09:53:52.000Z</time>
      </trkpt>
      <trkpt lat="47.27795" lon="-2.466">
        <ele>-18.200000762939</ele>
        <time>2020-01-16T09:53:54.000Z</time>
      </trkpt>
      <trkpt lat="47.27791" lon="-2.466">
        <ele>-17.799999237061</ele>
        <time>2020-01-16T09:53:55.000Z</time>
      </trkpt>
      <trkpt lat="47.27788" lon="-2.46599">
        <ele>-17.39999961853</ele>
        <time>2020-01-16T09:53:56.000Z</time>
      </trkpt>
      <trkpt lat="47.27783" lon="-2.46599">
        <ele>-17</ele>
        <time>2020-01-16T09:53:57.000Z</time>
      </trkpt>
      <trkpt lat="47.27779" lon="-2.46598">
        <ele>-16.39999961853</ele>
        <time>2020-01-16T09:53:58.000Z</time>
      </trkpt>
      <trkpt lat="47.27775" lon="-2.46597">
        <ele>-16.39999961853</ele>
        <time>2020-01-16T09:53:59.000Z</time>
      </trkpt>
      <trkpt lat="47.27768" lon="-2.46598">
        <ele>-16.39999961853</ele>
        <time>2020-01-16T09:54:01.000Z</time>
      </trkpt>
      <trkpt lat="47.27765" lon="-2.46609">
        <ele>-16.39999961853</ele>
        <time>2020-01-16T09:54:04.000Z</time>
      </trkpt>
      <trkpt lat="47.27761" lon="-2.46625">
        <ele>-16.39999961853</ele>
        <time>2020-01-16T09:54:08.000Z</time>
      </trkpt>
      <trkpt lat="47.27764" lon="-2.4664">
        <ele>-16.39999961853</ele>
        <time>2020-01-16T09:54:11.000Z</time>
      </trkpt>
      <trkpt lat="47.27763" lon="-2.46663">
        <ele>-16.39999961853</ele>
        <time>2020-01-16T09:54:15.000Z</time>
      </trkpt>
      <trkpt lat="47.27763" lon="-2.46671">
        <ele>-16.39999961853</ele>
        <time>2020-01-16T09:54:16.000Z</time>
      </trkpt>
      <trkpt lat="47.27762" lon="-2.46695">
        <ele>-16.39999961853</ele>
        <time>2020-01-16T09:54:19.000Z</time>
      </trkpt>
      <trkpt lat="47.27759" lon="-2.46721">
        <ele>-16.39999961853</ele>
        <time>2020-01-16T09:54:23.000Z</time>
      </trkpt>
      <trkpt lat="47.2776" lon="-2.46734">
        <ele>-16.39999961853</ele>
        <time>2020-01-16T09:54:25.000Z</time>
      </trkpt>
      <trkpt lat="47.27763" lon="-2.46749">
        <ele>-16.39999961853</ele>
        <time>2020-01-16T09:54:28.000Z</time>
      </trkpt>
      <trkpt lat="47.27765" lon="-2.46756">
        <ele>-16.39999961853</ele>
        <time>2020-01-16T09:54:29.000Z</time>
      </trkpt>
      <trkpt lat="47.27772" lon="-2.46777">
        <ele>-16.39999961853</ele>
        <time>2020-01-16T09:54:32.000Z</time>
      </trkpt>
      <trkpt lat="47.27779" lon="-2.46808">
        <ele>-16.39999961853</ele>
        <time>2020-01-16T09:54:36.000Z</time>
      </trkpt>
      <trkpt lat="47.27781" lon="-2.46815">
        <ele>-16.39999961853</ele>
        <time>2020-01-16T09:54:37.000Z</time>
      </trkpt>
      <trkpt lat="47.27782" lon="-2.46823">
        <ele>-16.39999961853</ele>
        <time>2020-01-16T09:54:38.000Z</time>
      </trkpt>
      <trkpt lat="47.27783" lon="-2.46846">
        <ele>-16.39999961853</ele>
        <time>2020-01-16T09:54:41.000Z</time>
      </trkpt>
      <trkpt lat="47.27782" lon="-2.4687">
        <ele>-16.39999961853</ele>
        <time>2020-01-16T09:54:44.000Z</time>
      </trkpt>
      <trkpt lat="47.27779" lon="-2.46884">
        <ele>-16.39999961853</ele>
        <time>2020-01-16T09:54:46.000Z</time>
      </trkpt>
      <trkpt lat="47.27774" lon="-2.46897">
        <ele>-16.39999961853</ele>
        <time>2020-01-16T09:54:48.000Z</time>
      </trkpt>
      <trkpt lat="47.2777" lon="-2.46909">
        <ele>-16.39999961853</ele>
        <time>2020-01-16T09:54:50.000Z</time>
      </trkpt>
      <trkpt lat="47.27769" lon="-2.46915">
        <ele>-16.39999961853</ele>
        <time>2020-01-16T09:54:51.000Z</time>
      </trkpt>
      <trkpt lat="47.27765" lon="-2.46932">
        <ele>-16.39999961853</ele>
        <time>2020-01-16T09:54:55.000Z</time>
      </trkpt>
      <trkpt lat="47.27751" lon="-2.46933">
        <ele>-16.39999961853</ele>
        <time>2020-01-16T09:54:59.000Z</time>
      </trkpt>
      <trkpt lat="47.27746" lon="-2.46933">
        <ele>-16.39999961853</ele>
        <time>2020-01-16T09:55:00.000Z</time>
      </trkpt>
      <trkpt lat="47.27735" lon="-2.46934">
        <ele>-16.39999961853</ele>
        <time>2020-01-16T09:55:03.000Z</time>
      </trkpt>
      <trkpt lat="47.27718" lon="-2.46937">
        <ele>-16.39999961853</ele>
        <time>2020-01-16T09:55:08.000Z</time>
      </trkpt>
      <trkpt lat="47.27703" lon="-2.46936">
        <ele>-16.39999961853</ele>
        <time>2020-01-16T09:55:12.000Z</time>
      </trkpt>
      <trkpt lat="47.2769" lon="-2.46933">
        <ele>-16.39999961853</ele>
        <time>2020-01-16T09:55:15.000Z</time>
      </trkpt>
      <trkpt lat="47.27676" lon="-2.46929">
        <ele>-16.39999961853</ele>
        <time>2020-01-16T09:55:18.000Z</time>
      </trkpt>
      <trkpt lat="47.27668" lon="-2.46941">
        <ele>-16.39999961853</ele>
        <time>2020-01-16T09:55:21.000Z</time>
      </trkpt>
      <trkpt lat="47.27666" lon="-2.46953">
        <ele>-16.39999961853</ele>
        <time>2020-01-16T09:55:23.000Z</time>
      </trkpt>
      <trkpt lat="47.27665" lon="-2.46966">
        <ele>-16.39999961853</ele>
        <time>2020-01-16T09:55:25.000Z</time>
      </trkpt>
      <trkpt lat="47.27664" lon="-2.46979">
        <ele>-16.39999961853</ele>
        <time>2020-01-16T09:55:27.000Z</time>
      </trkpt>
      <trkpt lat="47.27658" lon="-2.46993">
        <ele>-16.39999961853</ele>
        <time>2020-01-16T09:55:31.000Z</time>
      </trkpt>
      <trkpt lat="47.27649" lon="-2.46991">
        <ele>-16.39999961853</ele>
        <time>2020-01-16T09:55:34.000Z</time>
      </trkpt>
      <trkpt lat="47.27645" lon="-2.46991">
        <ele>-16.39999961853</ele>
        <time>2020-01-16T09:55:35.000Z</time>
      </trkpt>
      <trkpt lat="47.27628" lon="-2.4699">
        <ele>-16.39999961853</ele>
        <time>2020-01-16T09:55:40.000Z</time>
      </trkpt>
      <trkpt lat="47.27626" lon="-2.46991">
        <ele>-16</ele>
        <time>2020-01-16T09:55:41.000Z</time>
      </trkpt>
      <trkpt lat="47.27624" lon="-2.46991">
        <ele>-15.60000038147</ele>
        <time>2020-01-16T09:55:42.000Z</time>
      </trkpt>
      <trkpt lat="47.27622" lon="-2.46992">
        <ele>-15.199999809265</ele>
        <time>2020-01-16T09:55:43.000Z</time>
      </trkpt>
      <trkpt lat="47.27621" lon="-2.46992">
        <ele>-14.800000190735</ele>
        <time>2020-01-16T09:55:44.000Z</time>
      </trkpt>
      <trkpt lat="47.27619" lon="-2.46992">
        <ele>-14.39999961853</ele>
        <time>2020-01-16T09:55:45.000Z</time>
      </trkpt>
      <trkpt lat="47.27608" lon="-2.46994">
        <ele>-14.39999961853</ele>
        <time>2020-01-16T09:55:50.000Z</time>
      </trkpt>
      <trkpt lat="47.27606" lon="-2.46994">
        <ele>-14</ele>
        <time>2020-01-16T09:55:51.000Z</time>
      </trkpt>
      <trkpt lat="47.27604" lon="-2.46993">
        <ele>-13.39999961853</ele>
        <time>2020-01-16T09:55:52.000Z</time>
      </trkpt>
      <trkpt lat="47.27602" lon="-2.46992">
        <ele>-13</ele>
        <time>2020-01-16T09:55:53.000Z</time>
      </trkpt>
      <trkpt lat="47.27598" lon="-2.46992">
        <ele>-12.60000038147</ele>
        <time>2020-01-16T09:55:54.000Z</time>
      </trkpt>
      <trkpt lat="47.27595" lon="-2.46991">
        <ele>-12.199999809265</ele>
        <time>2020-01-16T09:55:55.000Z</time>
      </trkpt>
      <trkpt lat="47.27579" lon="-2.46986">
        <ele>-12.199999809265</ele>
        <time>2020-01-16T09:55:59.000Z</time>
      </trkpt>
      <trkpt lat="47.27557" lon="-2.46978">
        <ele>-12.199999809265</ele>
        <time>2020-01-16T09:56:04.000Z</time>
      </trkpt>
      <trkpt lat="47.27546" lon="-2.46988">
        <ele>-12.199999809265</ele>
        <time>2020-01-16T09:56:07.000Z</time>
      </trkpt>
      <trkpt lat="47.27539" lon="-2.47">
        <ele>-12.199999809265</ele>
        <time>2020-01-16T09:56:09.000Z</time>
      </trkpt>
      <trkpt lat="47.27527" lon="-2.47022">
        <ele>-12.199999809265</ele>
        <time>2020-01-16T09:56:13.000Z</time>
      </trkpt>
      <trkpt lat="47.275" lon="-2.47057">
        <ele>-12.199999809265</ele>
        <time>2020-01-16T09:56:20.000Z</time>
      </trkpt>
      <trkpt lat="47.27481" lon="-2.47082">
        <ele>-12.199999809265</ele>
        <time>2020-01-16T09:56:25.000Z</time>
      </trkpt>
      <trkpt lat="47.27479" lon="-2.47088">
        <ele>-12.199999809265</ele>
        <time>2020-01-16T09:56:26.000Z</time>
      </trkpt>
      <trkpt lat="47.27482" lon="-2.4711">
        <ele>-12.199999809265</ele>
        <time>2020-01-16T09:56:29.000Z</time>
      </trkpt>
      <trkpt lat="47.27484" lon="-2.47118">
        <ele>-12.199999809265</ele>
        <time>2020-01-16T09:56:30.000Z</time>
      </trkpt>
      <trkpt lat="47.275" lon="-2.47167">
        <ele>-12.199999809265</ele>
        <time>2020-01-16T09:56:36.000Z</time>
      </trkpt>
      <trkpt lat="47.27503" lon="-2.47175">
        <ele>-12.199999809265</ele>
        <time>2020-01-16T09:56:37.000Z</time>
      </trkpt>
      <trkpt lat="47.27505" lon="-2.47189">
        <ele>-12.60000038147</ele>
        <time>2020-01-16T09:56:39.000Z</time>
      </trkpt>
      <trkpt lat="47.27503" lon="-2.47195">
        <ele>-13</ele>
        <time>2020-01-16T09:56:40.000Z</time>
      </trkpt>
      <trkpt lat="47.27499" lon="-2.47199">
        <ele>-13.39999961853</ele>
        <time>2020-01-16T09:56:41.000Z</time>
      </trkpt>
      <trkpt lat="47.27494" lon="-2.472">
        <ele>-13.800000190735</ele>
        <time>2020-01-16T09:56:42.000Z</time>
      </trkpt>
      <trkpt lat="47.27489" lon="-2.47202">
        <ele>-14.199999809265</ele>
        <time>2020-01-16T09:56:43.000Z</time>
      </trkpt>
      <trkpt lat="47.27479" lon="-2.47206">
        <ele>-14.199999809265</ele>
        <time>2020-01-16T09:56:45.000Z</time>
      </trkpt>
      <trkpt lat="47.27471" lon="-2.47213">
        <ele>-14.199999809265</ele>
        <time>2020-01-16T09:56:47.000Z</time>
      </trkpt>
      <trkpt lat="47.27452" lon="-2.47228">
        <ele>-14.199999809265</ele>
        <time>2020-01-16T09:56:52.000Z</time>
      </trkpt>
      <trkpt lat="47.27435" lon="-2.47237">
        <ele>-14.199999809265</ele>
        <time>2020-01-16T09:56:58.000Z</time>
      </trkpt>
      <trkpt lat="47.27417" lon="-2.47248">
        <ele>-14.199999809265</ele>
        <time>2020-01-16T09:57:05.000Z</time>
      </trkpt>
      <trkpt lat="47.27397" lon="-2.47261">
        <ele>-14.199999809265</ele>
        <time>2020-01-16T09:57:12.000Z</time>
      </trkpt>
      <trkpt lat="47.27395" lon="-2.47263">
        <ele>-13.800000190735</ele>
        <time>2020-01-16T09:57:13.000Z</time>
      </trkpt>
      <trkpt lat="47.27392" lon="-2.47266">
        <ele>-13.39999961853</ele>
        <time>2020-01-16T09:57:14.000Z</time>
      </trkpt>
      <trkpt lat="47.2739" lon="-2.47268">
        <ele>-13</ele>
        <time>2020-01-16T09:57:15.000Z</time>
      </trkpt>
      <trkpt lat="47.27387" lon="-2.4727">
        <ele>-12.60000038147</ele>
        <time>2020-01-16T09:57:16.000Z</time>
      </trkpt>
      <trkpt lat="47.27385" lon="-2.47273">
        <ele>-12.199999809265</ele>
        <time>2020-01-16T09:57:17.000Z</time>
      </trkpt>
      <trkpt lat="47.27382" lon="-2.47275">
        <ele>-12.199999809265</ele>
        <time>2020-01-16T09:57:18.000Z</time>
      </trkpt>
      <trkpt lat="47.27366" lon="-2.4729">
        <ele>-12.199999809265</ele>
        <time>2020-01-16T09:57:24.000Z</time>
      </trkpt>
      <trkpt lat="47.27352" lon="-2.47298">
        <ele>-12.199999809265</ele>
        <time>2020-01-16T09:57:29.000Z</time>
      </trkpt>
      <trkpt lat="47.27341" lon="-2.47302">
        <ele>-11.800000190735</ele>
        <time>2020-01-16T09:57:33.000Z</time>
      </trkpt>
      <trkpt lat="47.27338" lon="-2.47302">
        <ele>-11.199999809265</ele>
        <time>2020-01-16T09:57:34.000Z</time>
      </trkpt>
      <trkpt lat="47.27334" lon="-2.47303">
        <ele>-10.800000190735</ele>
        <time>2020-01-16T09:57:35.000Z</time>
      </trkpt>
      <trkpt lat="47.27331" lon="-2.47304">
        <ele>-10.39999961853</ele>
        <time>2020-01-16T09:57:36.000Z</time>
      </trkpt>
      <trkpt lat="47.27329" lon="-2.47305">
        <ele>-10</ele>
        <time>2020-01-16T09:57:37.000Z</time>
      </trkpt>
      <trkpt lat="47.27326" lon="-2.47307">
        <ele>-10</ele>
        <time>2020-01-16T09:57:38.000Z</time>
      </trkpt>
      <trkpt lat="47.27324" lon="-2.4731">
        <ele>-10</ele>
        <time>2020-01-16T09:57:39.000Z</time>
      </trkpt>
      <trkpt lat="47.27317" lon="-2.47314">
        <ele>-10</ele>
        <time>2020-01-16T09:57:42.000Z</time>
      </trkpt>
      <trkpt lat="47.27315" lon="-2.47316">
        <ele>-10</ele>
        <time>2020-01-16T09:57:43.000Z</time>
      </trkpt>
      <trkpt lat="47.27307" lon="-2.47323">
        <ele>-9.6000003814697</ele>
        <time>2020-01-16T09:57:47.000Z</time>
      </trkpt>
      <trkpt lat="47.27305" lon="-2.47326">
        <ele>-9.1999998092651</ele>
        <time>2020-01-16T09:57:48.000Z</time>
      </trkpt>
      <trkpt lat="47.27302" lon="-2.47329">
        <ele>-8.8000001907349</ele>
        <time>2020-01-16T09:57:49.000Z</time>
      </trkpt>
      <trkpt lat="47.273" lon="-2.47333">
        <ele>-8.3999996185303</ele>
        <time>2020-01-16T09:57:50.000Z</time>
      </trkpt>
      <trkpt lat="47.27298" lon="-2.47338">
        <ele>-8</ele>
        <time>2020-01-16T09:57:51.000Z</time>
      </trkpt>
      <trkpt lat="47.27298" lon="-2.47348">
        <ele>-8</ele>
        <time>2020-01-16T09:57:53.000Z</time>
      </trkpt>
      <trkpt lat="47.27298" lon="-2.47352">
        <ele>-8</ele>
        <time>2020-01-16T09:57:54.000Z</time>
      </trkpt>
      <trkpt lat="47.27294" lon="-2.47378">
        <ele>-8</ele>
        <time>2020-01-16T09:57:59.000Z</time>
      </trkpt>
      <trkpt lat="47.27287" lon="-2.47391">
        <ele>-8</ele>
        <time>2020-01-16T09:58:02.000Z</time>
      </trkpt>
      <trkpt lat="47.27284" lon="-2.47395">
        <ele>-8</ele>
        <time>2020-01-16T09:58:03.000Z</time>
      </trkpt>
      <trkpt lat="47.27277" lon="-2.47404">
        <ele>-8</ele>
        <time>2020-01-16T09:58:05.000Z</time>
      </trkpt>
      <trkpt lat="47.27269" lon="-2.47423">
        <ele>-8</ele>
        <time>2020-01-16T09:58:08.000Z</time>
      </trkpt>
      <trkpt lat="47.27271" lon="-2.47446">
        <ele>-8</ele>
        <time>2020-01-16T09:58:11.000Z</time>
      </trkpt>
      <trkpt lat="47.27273" lon="-2.47453">
        <ele>-8</ele>
        <time>2020-01-16T09:58:12.000Z</time>
      </trkpt>
      <trkpt lat="47.27279" lon="-2.47477">
        <ele>-8</ele>
        <time>2020-01-16T09:58:15.000Z</time>
      </trkpt>
      <trkpt lat="47.27282" lon="-2.47492">
        <ele>-8</ele>
        <time>2020-01-16T09:58:17.000Z</time>
      </trkpt>
      <trkpt lat="47.27285" lon="-2.47508">
        <ele>-8</ele>
        <time>2020-01-16T09:58:19.000Z</time>
      </trkpt>
      <trkpt lat="47.27289" lon="-2.47516">
        <ele>-8</ele>
        <time>2020-01-16T09:58:20.000Z</time>
      </trkpt>
      <trkpt lat="47.27291" lon="-2.47524">
        <ele>-8</ele>
        <time>2020-01-16T09:58:21.000Z</time>
      </trkpt>
      <trkpt lat="47.27296" lon="-2.47544">
        <ele>-8</ele>
        <time>2020-01-16T09:58:24.000Z</time>
      </trkpt>
      <trkpt lat="47.27302" lon="-2.47555">
        <ele>-8</ele>
        <time>2020-01-16T09:58:26.000Z</time>
      </trkpt>
      <trkpt lat="47.27308" lon="-2.47566">
        <ele>-8</ele>
        <time>2020-01-16T09:58:30.000Z</time>
      </trkpt>
      <trkpt lat="47.2731" lon="-2.47572">
        <ele>-8</ele>
        <time>2020-01-16T09:58:32.000Z</time>
      </trkpt>
      <trkpt lat="47.2731" lon="-2.47577">
        <ele>-8</ele>
        <time>2020-01-16T09:58:34.000Z</time>
      </trkpt>
      <trkpt lat="47.27307" lon="-2.4758">
        <ele>-8</ele>
        <time>2020-01-16T09:58:36.000Z</time>
      </trkpt>
      <trkpt lat="47.27305" lon="-2.47582">
        <ele>-8</ele>
        <time>2020-01-16T09:58:38.000Z</time>
      </trkpt>
      <trkpt lat="47.27303" lon="-2.47585">
        <ele>-8</ele>
        <time>2020-01-16T09:58:41.000Z</time>
      </trkpt>
      <trkpt lat="47.27305" lon="-2.47589">
        <ele>-8</ele>
        <time>2020-01-16T09:58:43.000Z</time>
      </trkpt>
      <trkpt lat="47.27315" lon="-2.47603">
        <ele>-8</ele>
        <time>2020-01-16T09:58:49.000Z</time>
      </trkpt>
      <trkpt lat="47.27317" lon="-2.47607">
        <ele>-8</ele>
        <time>2020-01-16T09:58:50.000Z</time>
      </trkpt>
      <trkpt lat="47.27322" lon="-2.47616">
        <ele>-8</ele>
        <time>2020-01-16T09:58:52.000Z</time>
      </trkpt>
      <trkpt lat="47.2733" lon="-2.47622">
        <ele>-8</ele>
        <time>2020-01-16T09:58:54.000Z</time>
      </trkpt>
      <trkpt lat="47.27334" lon="-2.47625">
        <ele>-8.3999996185303</ele>
        <time>2020-01-16T09:58:55.000Z</time>
      </trkpt>
      <trkpt lat="47.27339" lon="-2.47629">
        <ele>-9.1999998092651</ele>
        <time>2020-01-16T09:58:56.000Z</time>
      </trkpt>
      <trkpt lat="47.27344" lon="-2.47633">
        <ele>-9.6000003814697</ele>
        <time>2020-01-16T09:58:57.000Z</time>
      </trkpt>
      <trkpt lat="47.27349" lon="-2.47638">
        <ele>-10</ele>
        <time>2020-01-16T09:58:58.000Z</time>
      </trkpt>
      <trkpt lat="47.27354" lon="-2.47643">
        <ele>-10</ele>
        <time>2020-01-16T09:58:59.000Z</time>
      </trkpt>
      <trkpt lat="47.27365" lon="-2.47655">
        <ele>-10.39999961853</ele>
        <time>2020-01-16T09:59:01.000Z</time>
      </trkpt>
      <trkpt lat="47.2737" lon="-2.47662">
        <ele>-11</ele>
        <time>2020-01-16T09:59:02.000Z</time>
      </trkpt>
      <trkpt lat="47.27375" lon="-2.4767">
        <ele>-11.39999961853</ele>
        <time>2020-01-16T09:59:03.000Z</time>
      </trkpt>
      <trkpt lat="47.27381" lon="-2.47677">
        <ele>-11.800000190735</ele>
        <time>2020-01-16T09:59:04.000Z</time>
      </trkpt>
      <trkpt lat="47.27386" lon="-2.47683">
        <ele>-12.199999809265</ele>
        <time>2020-01-16T09:59:05.000Z</time>
      </trkpt>
      <trkpt lat="47.27402" lon="-2.477">
        <ele>-12.199999809265</ele>
        <time>2020-01-16T09:59:08.000Z</time>
      </trkpt>
      <trkpt lat="47.27407" lon="-2.47707">
        <ele>-12.199999809265</ele>
        <time>2020-01-16T09:59:09.000Z</time>
      </trkpt>
      <trkpt lat="47.27423" lon="-2.47731">
        <ele>-12.60000038147</ele>
        <time>2020-01-16T09:59:13.000Z</time>
      </trkpt>
      <trkpt lat="47.27427" lon="-2.47737">
        <ele>-13.199999809265</ele>
        <time>2020-01-16T09:59:14.000Z</time>
      </trkpt>
      <trkpt lat="47.27431" lon="-2.47743">
        <ele>-13.60000038147</ele>
        <time>2020-01-16T09:59:15.000Z</time>
      </trkpt>
      <trkpt lat="47.27434" lon="-2.47749">
        <ele>-14</ele>
        <time>2020-01-16T09:59:16.000Z</time>
      </trkpt>
      <trkpt lat="47.27438" lon="-2.47756">
        <ele>-14.39999961853</ele>
        <time>2020-01-16T09:59:18.000Z</time>
      </trkpt>
      <trkpt lat="47.27452" lon="-2.47781">
        <ele>-14.39999961853</ele>
        <time>2020-01-16T09:59:22.000Z</time>
      </trkpt>
      <trkpt lat="47.27456" lon="-2.47787">
        <ele>-14.39999961853</ele>
        <time>2020-01-16T09:59:23.000Z</time>
      </trkpt>
      <trkpt lat="47.27471" lon="-2.47813">
        <ele>-14.39999961853</ele>
        <time>2020-01-16T09:59:27.000Z</time>
      </trkpt>
      <trkpt lat="47.27497" lon="-2.4786">
        <ele>-14.39999961853</ele>
        <time>2020-01-16T09:59:34.000Z</time>
      </trkpt>
      <trkpt lat="47.27516" lon="-2.47899">
        <ele>-14.39999961853</ele>
        <time>2020-01-16T09:59:40.000Z</time>
      </trkpt>
      <trkpt lat="47.27537" lon="-2.47926">
        <ele>-14.39999961853</ele>
        <time>2020-01-16T09:59:45.000Z</time>
      </trkpt>
      <trkpt lat="47.27554" lon="-2.47922">
        <ele>-14.39999961853</ele>
        <time>2020-01-16T09:59:48.000Z</time>
      </trkpt>
      <trkpt lat="47.27559" lon="-2.4792">
        <ele>-14.39999961853</ele>
        <time>2020-01-16T09:59:49.000Z</time>
      </trkpt>
      <trkpt lat="47.27576" lon="-2.47912">
        <ele>-14</ele>
        <time>2020-01-16T09:59:52.000Z</time>
      </trkpt>
      <trkpt lat="47.27582" lon="-2.4791">
        <ele>-13.60000038147</ele>
        <time>2020-01-16T09:59:53.000Z</time>
      </trkpt>
      <trkpt lat="47.27587" lon="-2.47911">
        <ele>-13.199999809265</ele>
        <time>2020-01-16T09:59:54.000Z</time>
      </trkpt>
      <trkpt lat="47.27592" lon="-2.47914">
        <ele>-12.60000038147</ele>
        <time>2020-01-16T09:59:55.000Z</time>
      </trkpt>
      <trkpt lat="47.27595" lon="-2.47919">
        <ele>-12.199999809265</ele>
        <time>2020-01-16T09:59:56.000Z</time>
      </trkpt>
      <trkpt lat="47.27597" lon="-2.47926">
        <ele>-12.199999809265</ele>
        <time>2020-01-16T09:59:57.000Z</time>
      </trkpt>
      <trkpt lat="47.27602" lon="-2.4794">
        <ele>-11.800000190735</ele>
        <time>2020-01-16T09:59:59.000Z</time>
      </trkpt>
      <trkpt lat="47.27604" lon="-2.47947">
        <ele>-11.39999961853</ele>
        <time>2020-01-16T10:00:00.000Z</time>
      </trkpt>
      <trkpt lat="47.27606" lon="-2.47955">
        <ele>-11</ele>
        <time>2020-01-16T10:00:01.000Z</time>
      </trkpt>
      <trkpt lat="47.27608" lon="-2.47962">
        <ele>-10.60000038147</ele>
        <time>2020-01-16T10:00:02.000Z</time>
      </trkpt>
      <trkpt lat="47.27611" lon="-2.47969">
        <ele>-10.199999809265</ele>
        <time>2020-01-16T10:00:03.000Z</time>
      </trkpt>
      <trkpt lat="47.27616" lon="-2.47983">
        <ele>-10.199999809265</ele>
        <time>2020-01-16T10:00:05.000Z</time>
      </trkpt>
      <trkpt lat="47.27621" lon="-2.47996">
        <ele>-9.6000003814697</ele>
        <time>2020-01-16T10:00:07.000Z</time>
      </trkpt>
      <trkpt lat="47.27624" lon="-2.48001">
        <ele>-9.1999998092651</ele>
        <time>2020-01-16T10:00:08.000Z</time>
      </trkpt>
      <trkpt lat="47.27627" lon="-2.48006">
        <ele>-8.3999996185303</ele>
        <time>2020-01-16T10:00:09.000Z</time>
      </trkpt>
      <trkpt lat="47.27628" lon="-2.48012">
        <ele>-7.8000001907349</ele>
        <time>2020-01-16T10:00:10.000Z</time>
      </trkpt>
      <trkpt lat="47.27628" lon="-2.48019">
        <ele>-7.8000001907349</ele>
        <time>2020-01-16T10:00:11.000Z</time>
      </trkpt>
      <trkpt lat="47.27622" lon="-2.48047">
        <ele>-7.8000001907349</ele>
        <time>2020-01-16T10:00:15.000Z</time>
      </trkpt>
      <trkpt lat="47.27621" lon="-2.48055">
        <ele>-7.8000001907349</ele>
        <time>2020-01-16T10:00:16.000Z</time>
      </trkpt>
      <trkpt lat="47.2762" lon="-2.4808">
        <ele>-7.8000001907349</ele>
        <time>2020-01-16T10:00:19.000Z</time>
      </trkpt>
      <trkpt lat="47.27622" lon="-2.48113">
        <ele>-7.8000001907349</ele>
        <time>2020-01-16T10:00:24.000Z</time>
      </trkpt>
      <trkpt lat="47.27627" lon="-2.48137">
        <ele>-7.8000001907349</ele>
        <time>2020-01-16T10:00:27.000Z</time>
      </trkpt>
      <trkpt lat="47.2763" lon="-2.48145">
        <ele>-7.8000001907349</ele>
        <time>2020-01-16T10:00:28.000Z</time>
      </trkpt>
      <trkpt lat="47.27634" lon="-2.48162">
        <ele>-7.8000001907349</ele>
        <time>2020-01-16T10:00:30.000Z</time>
      </trkpt>
      <trkpt lat="47.27637" lon="-2.48177">
        <ele>-7.8000001907349</ele>
        <time>2020-01-16T10:00:32.000Z</time>
      </trkpt>
      <trkpt lat="47.27643" lon="-2.48206">
        <ele>-7.8000001907349</ele>
        <time>2020-01-16T10:00:36.000Z</time>
      </trkpt>
      <trkpt lat="47.27645" lon="-2.4821">
        <ele>-7.8000001907349</ele>
        <time>2020-01-16T10:00:37.000Z</time>
      </trkpt>
      <trkpt lat="47.27653" lon="-2.48206">
        <ele>-7.8000001907349</ele>
        <time>2020-01-16T10:00:40.000Z</time>
      </trkpt>
      <trkpt lat="47.27657" lon="-2.48197">
        <ele>-7.8000001907349</ele>
        <time>2020-01-16T10:00:42.000Z</time>
      </trkpt>
      <trkpt lat="47.27661" lon="-2.48186">
        <ele>-7.8000001907349</ele>
        <time>2020-01-16T10:00:44.000Z</time>
      </trkpt>
      <trkpt lat="47.27664" lon="-2.48181">
        <ele>-7.8000001907349</ele>
        <time>2020-01-16T10:00:45.000Z</time>
      </trkpt>
      <trkpt lat="47.27678" lon="-2.48155">
        <ele>-7.8000001907349</ele>
        <time>2020-01-16T10:00:50.000Z</time>
      </trkpt>
      <trkpt lat="47.27688" lon="-2.48135">
        <ele>-7.4000000953674</ele>
        <time>2020-01-16T10:00:54.000Z</time>
      </trkpt>
      <trkpt lat="47.2769" lon="-2.4813">
        <ele>-7</ele>
        <time>2020-01-16T10:00:55.000Z</time>
      </trkpt>
      <trkpt lat="47.27693" lon="-2.48126">
        <ele>-6.5999999046326</ele>
        <time>2020-01-16T10:00:56.000Z</time>
      </trkpt>
      <trkpt lat="47.27695" lon="-2.48122">
        <ele>-6</ele>
        <time>2020-01-16T10:00:57.000Z</time>
      </trkpt>
      <trkpt lat="47.27696" lon="-2.48118">
        <ele>-5.5999999046326</ele>
        <time>2020-01-16T10:00:58.000Z</time>
      </trkpt>
      <trkpt lat="47.27698" lon="-2.48113">
        <ele>-5.1999998092651</ele>
        <time>2020-01-16T10:00:59.000Z</time>
      </trkpt>
      <trkpt lat="47.27698" lon="-2.48108">
        <ele>-4.5999999046326</ele>
        <time>2020-01-16T10:01:00.000Z</time>
      </trkpt>
      <trkpt lat="47.27699" lon="-2.48103">
        <ele>-4.1999998092651</ele>
        <time>2020-01-16T10:01:01.000Z</time>
      </trkpt>
      <trkpt lat="47.27699" lon="-2.48097">
        <ele>-3.5999999046326</ele>
        <time>2020-01-16T10:01:02.000Z</time>
      </trkpt>
      <trkpt lat="47.277" lon="-2.48092">
        <ele>-3.2000000476837</ele>
        <time>2020-01-16T10:01:03.000Z</time>
      </trkpt>
      <trkpt lat="47.27702" lon="-2.48088">
        <ele>-3.2000000476837</ele>
        <time>2020-01-16T10:01:04.000Z</time>
      </trkpt>
      <trkpt lat="47.27705" lon="-2.48088">
        <ele>-3.2000000476837</ele>
        <time>2020-01-16T10:01:05.000Z</time>
      </trkpt>
      <trkpt lat="47.27712" lon="-2.4809">
        <ele>-3.2000000476837</ele>
        <time>2020-01-16T10:01:08.000Z</time>
      </trkpt>
      <trkpt lat="47.27714" lon="-2.48091">
        <ele>-3.2000000476837</ele>
        <time>2020-01-16T10:01:09.000Z</time>
      </trkpt>
      <trkpt lat="47.27716" lon="-2.48093">
        <ele>-3.2000000476837</ele>
        <time>2020-01-16T10:01:10.000Z</time>
      </trkpt>
      <trkpt lat="47.27719" lon="-2.48102">
        <ele>-3.2000000476837</ele>
        <time>2020-01-16T10:01:13.000Z</time>
      </trkpt>
      <trkpt lat="47.27722" lon="-2.4812">
        <ele>-3.2000000476837</ele>
        <time>2020-01-16T10:01:19.000Z</time>
      </trkpt>
      <trkpt lat="47.27724" lon="-2.48128">
        <ele>-3.2000000476837</ele>
        <time>2020-01-16T10:01:21.000Z</time>
      </trkpt>
      <trkpt lat="47.27724" lon="-2.48132">
        <ele>-2.5999999046326</ele>
        <time>2020-01-16T10:01:22.000Z</time>
      </trkpt>
      <trkpt lat="47.27723" lon="-2.48136">
        <ele>-1.7999999523163</ele>
        <time>2020-01-16T10:01:23.000Z</time>
      </trkpt>
      <trkpt lat="47.27722" lon="-2.48139">
        <ele>-1.3999999761581</ele>
        <time>2020-01-16T10:01:24.000Z</time>
      </trkpt>
      <trkpt lat="47.27722" lon="-2.48142">
        <ele>-1</ele>
        <time>2020-01-16T10:01:25.000Z</time>
      </trkpt>
      <trkpt lat="47.2772" lon="-2.48154">
        <ele>-1</ele>
        <time>2020-01-16T10:01:28.000Z</time>
      </trkpt>
      <trkpt lat="47.27718" lon="-2.4816">
        <ele>-1</ele>
        <time>2020-01-16T10:01:30.000Z</time>
      </trkpt>
      <trkpt lat="47.27716" lon="-2.4817">
        <ele>-1.3999999761581</ele>
        <time>2020-01-16T10:01:33.000Z</time>
      </trkpt>
      <trkpt lat="47.27715" lon="-2.48177">
        <ele>-2</ele>
        <time>2020-01-16T10:01:34.000Z</time>
      </trkpt>
      <trkpt lat="47.27715" lon="-2.48185">
        <ele>-2.4000000953674</ele>
        <time>2020-01-16T10:01:35.000Z</time>
      </trkpt>
      <trkpt lat="47.27717" lon="-2.48194">
        <ele>-3.2000000476837</ele>
        <time>2020-01-16T10:01:36.000Z</time>
      </trkpt>
      <trkpt lat="47.27721" lon="-2.48202">
        <ele>-4</ele>
        <time>2020-01-16T10:01:37.000Z</time>
      </trkpt>
      <trkpt lat="47.27726" lon="-2.4821">
        <ele>-4.8000001907349</ele>
        <time>2020-01-16T10:01:38.000Z</time>
      </trkpt>
      <trkpt lat="47.27731" lon="-2.48219">
        <ele>-5.5999999046326</ele>
        <time>2020-01-16T10:01:39.000Z</time>
      </trkpt>
      <trkpt lat="47.27736" lon="-2.48227">
        <ele>-6.1999998092651</ele>
        <time>2020-01-16T10:01:40.000Z</time>
      </trkpt>
      <trkpt lat="47.2774" lon="-2.48235">
        <ele>-7</ele>
        <time>2020-01-16T10:01:41.000Z</time>
      </trkpt>
      <trkpt lat="47.27744" lon="-2.48241">
        <ele>-7.8000001907349</ele>
        <time>2020-01-16T10:01:42.000Z</time>
      </trkpt>
      <trkpt lat="47.27747" lon="-2.48245">
        <ele>-8.6000003814697</ele>
        <time>2020-01-16T10:01:43.000Z</time>
      </trkpt>
      <trkpt lat="47.27749" lon="-2.48249">
        <ele>-9</ele>
        <time>2020-01-16T10:01:44.000Z</time>
      </trkpt>
      <trkpt lat="47.2775" lon="-2.48252">
        <ele>-9.6000003814697</ele>
        <time>2020-01-16T10:01:45.000Z</time>
      </trkpt>
      <trkpt lat="47.27751" lon="-2.48255">
        <ele>-10</ele>
        <time>2020-01-16T10:01:46.000Z</time>
      </trkpt>
      <trkpt lat="47.27752" lon="-2.48258">
        <ele>-10.60000038147</ele>
        <time>2020-01-16T10:01:47.000Z</time>
      </trkpt>
      <trkpt lat="47.27753" lon="-2.4826">
        <ele>-11</ele>
        <time>2020-01-16T10:01:48.000Z</time>
      </trkpt>
      <trkpt lat="47.27752" lon="-2.48262">
        <ele>-11</ele>
        <time>2020-01-16T10:01:52.000Z</time>
      </trkpt>
      <trkpt lat="47.27748" lon="-2.48263">
        <ele>-11</ele>
        <time>2020-01-16T10:01:57.000Z</time>
      </trkpt>
      <trkpt lat="47.27743" lon="-2.48271">
        <ele>-11</ele>
        <time>2020-01-16T10:02:00.000Z</time>
      </trkpt>
      <trkpt lat="47.2773" lon="-2.48288">
        <ele>-11</ele>
        <time>2020-01-16T10:02:05.000Z</time>
      </trkpt>
      <trkpt lat="47.27713" lon="-2.48295">
        <ele>-11</ele>
        <time>2020-01-16T10:02:10.000Z</time>
      </trkpt>
      <trkpt lat="47.27702" lon="-2.48291">
        <ele>-11</ele>
        <time>2020-01-16T10:02:14.000Z</time>
      </trkpt>
      <trkpt lat="47.277" lon="-2.48292">
        <ele>-11</ele>
        <time>2020-01-16T10:02:15.000Z</time>
      </trkpt>
      <trkpt lat="47.27694" lon="-2.48288">
        <ele>-11</ele>
        <time>2020-01-16T10:02:18.000Z</time>
      </trkpt>
      <trkpt lat="47.27691" lon="-2.48283">
        <ele>-10.60000038147</ele>
        <time>2020-01-16T10:02:20.000Z</time>
      </trkpt>
      <trkpt lat="47.27689" lon="-2.48281">
        <ele>-10.199999809265</ele>
        <time>2020-01-16T10:02:21.000Z</time>
      </trkpt>
      <trkpt lat="47.27686" lon="-2.48278">
        <ele>-9.8000001907349</ele>
        <time>2020-01-16T10:02:22.000Z</time>
      </trkpt>
      <trkpt lat="47.27682" lon="-2.48276">
        <ele>-9.3999996185303</ele>
        <time>2020-01-16T10:02:23.000Z</time>
      </trkpt>
      <trkpt lat="47.2768" lon="-2.48274">
        <ele>-9</ele>
        <time>2020-01-16T10:02:24.000Z</time>
      </trkpt>
      <trkpt lat="47.27676" lon="-2.48275">
        <ele>-9</ele>
        <time>2020-01-16T10:02:25.000Z</time>
      </trkpt>
      <trkpt lat="47.27668" lon="-2.48274">
        <ele>-9</ele>
        <time>2020-01-16T10:02:27.000Z</time>
      </trkpt>
      <trkpt lat="47.27654" lon="-2.48282">
        <ele>-9</ele>
        <time>2020-01-16T10:02:31.000Z</time>
      </trkpt>
      <trkpt lat="47.27646" lon="-2.48299">
        <ele>-9</ele>
        <time>2020-01-16T10:02:36.000Z</time>
      </trkpt>
      <trkpt lat="47.27653" lon="-2.48318">
        <ele>-9</ele>
        <time>2020-01-16T10:02:40.000Z</time>
      </trkpt>
      <trkpt lat="47.27658" lon="-2.48326">
        <ele>-9</ele>
        <time>2020-01-16T10:02:42.000Z</time>
      </trkpt>
      <trkpt lat="47.27666" lon="-2.48343">
        <ele>-9</ele>
        <time>2020-01-16T10:02:46.000Z</time>
      </trkpt>
      <trkpt lat="47.27679" lon="-2.4836">
        <ele>-9.3999996185303</ele>
        <time>2020-01-16T10:02:50.000Z</time>
      </trkpt>
      <trkpt lat="47.27681" lon="-2.48363">
        <ele>-9.8000001907349</ele>
        <time>2020-01-16T10:02:51.000Z</time>
      </trkpt>
      <trkpt lat="47.27682" lon="-2.48366">
        <ele>-10.199999809265</ele>
        <time>2020-01-16T10:02:52.000Z</time>
      </trkpt>
      <trkpt lat="47.27681" lon="-2.48368">
        <ele>-10.60000038147</ele>
        <time>2020-01-16T10:02:53.000Z</time>
      </trkpt>
      <trkpt lat="47.2768" lon="-2.4837">
        <ele>-11</ele>
        <time>2020-01-16T10:02:54.000Z</time>
      </trkpt>
      <trkpt lat="47.27672" lon="-2.48384">
        <ele>-11</ele>
        <time>2020-01-16T10:03:00.000Z</time>
      </trkpt>
      <trkpt lat="47.27669" lon="-2.48395">
        <ele>-11</ele>
        <time>2020-01-16T10:03:03.000Z</time>
      </trkpt>
      <trkpt lat="47.27671" lon="-2.48399">
        <ele>-11</ele>
        <time>2020-01-16T10:03:04.000Z</time>
      </trkpt>
      <trkpt lat="47.27677" lon="-2.48405">
        <ele>-11.39999961853</ele>
        <time>2020-01-16T10:03:06.000Z</time>
      </trkpt>
      <trkpt lat="47.2768" lon="-2.48408">
        <ele>-11.800000190735</ele>
        <time>2020-01-16T10:03:07.000Z</time>
      </trkpt>
      <trkpt lat="47.27683" lon="-2.48412">
        <ele>-12.199999809265</ele>
        <time>2020-01-16T10:03:08.000Z</time>
      </trkpt>
      <trkpt lat="47.27686" lon="-2.48415">
        <ele>-12.60000038147</ele>
        <time>2020-01-16T10:03:09.000Z</time>
      </trkpt>
      <trkpt lat="47.27688" lon="-2.48417">
        <ele>-13</ele>
        <time>2020-01-16T10:03:10.000Z</time>
      </trkpt>
      <trkpt lat="47.27697" lon="-2.48427">
        <ele>-13</ele>
        <time>2020-01-16T10:03:13.000Z</time>
      </trkpt>
      <trkpt lat="47.27715" lon="-2.48452">
        <ele>-13</ele>
        <time>2020-01-16T10:03:18.000Z</time>
      </trkpt>
      <trkpt lat="47.27738" lon="-2.48482">
        <ele>-13</ele>
        <time>2020-01-16T10:03:24.000Z</time>
      </trkpt>
      <trkpt lat="47.27762" lon="-2.48513">
        <ele>-13</ele>
        <time>2020-01-16T10:03:30.000Z</time>
      </trkpt>
      <trkpt lat="47.27773" lon="-2.48521">
        <ele>-13</ele>
        <time>2020-01-16T10:03:33.000Z</time>
      </trkpt>
      <trkpt lat="47.27774" lon="-2.48518">
        <ele>-13</ele>
        <time>2020-01-16T10:03:34.000Z</time>
      </trkpt>
      <trkpt lat="47.27774" lon="-2.48506">
        <ele>-13</ele>
        <time>2020-01-16T10:03:37.000Z</time>
      </trkpt>
      <trkpt lat="47.27773" lon="-2.48501">
        <ele>-13</ele>
        <time>2020-01-16T10:03:38.000Z</time>
      </trkpt>
      <trkpt lat="47.27777" lon="-2.48485">
        <ele>-13</ele>
        <time>2020-01-16T10:03:42.000Z</time>
      </trkpt>
      <trkpt lat="47.27791" lon="-2.48476">
        <ele>-13</ele>
        <time>2020-01-16T10:03:47.000Z</time>
      </trkpt>
      <trkpt lat="47.27796" lon="-2.48472">
        <ele>-13</ele>
        <time>2020-01-16T10:03:49.000Z</time>
      </trkpt>
      <trkpt lat="47.27811" lon="-2.4846">
        <ele>-13</ele>
        <time>2020-01-16T10:03:55.000Z</time>
      </trkpt>
      <trkpt lat="47.27826" lon="-2.48461">
        <ele>-13</ele>
        <time>2020-01-16T10:04:01.000Z</time>
      </trkpt>
      <trkpt lat="47.27833" lon="-2.48477">
        <ele>-13</ele>
        <time>2020-01-16T10:04:06.000Z</time>
      </trkpt>
      <trkpt lat="47.27834" lon="-2.48481">
        <ele>-13.39999961853</ele>
        <time>2020-01-16T10:04:07.000Z</time>
      </trkpt>
      <trkpt lat="47.27837" lon="-2.48485">
        <ele>-13.800000190735</ele>
        <time>2020-01-16T10:04:08.000Z</time>
      </trkpt>
      <trkpt lat="47.27839" lon="-2.48488">
        <ele>-14.199999809265</ele>
        <time>2020-01-16T10:04:09.000Z</time>
      </trkpt>
      <trkpt lat="47.27842" lon="-2.48492">
        <ele>-14.60000038147</ele>
        <time>2020-01-16T10:04:10.000Z</time>
      </trkpt>
      <trkpt lat="47.27846" lon="-2.48492">
        <ele>-15</ele>
        <time>2020-01-16T10:04:11.000Z</time>
      </trkpt>
      <trkpt lat="47.27859" lon="-2.48484">
        <ele>-15</ele>
        <time>2020-01-16T10:04:15.000Z</time>
      </trkpt>
      <trkpt lat="47.27882" lon="-2.48467">
        <ele>-15</ele>
        <time>2020-01-16T10:04:21.000Z</time>
      </trkpt>
      <trkpt lat="47.27896" lon="-2.48468">
        <ele>-15</ele>
        <time>2020-01-16T10:04:26.000Z</time>
      </trkpt>
      <trkpt lat="47.27897" lon="-2.48471">
        <ele>-15</ele>
        <time>2020-01-16T10:04:27.000Z</time>
      </trkpt>
      <trkpt lat="47.279" lon="-2.48479">
        <ele>-15</ele>
        <time>2020-01-16T10:04:29.000Z</time>
      </trkpt>
      <trkpt lat="47.27909" lon="-2.48506">
        <ele>-15</ele>
        <time>2020-01-16T10:04:34.000Z</time>
      </trkpt>
      <trkpt lat="47.27911" lon="-2.48512">
        <ele>-14.60000038147</ele>
        <time>2020-01-16T10:04:35.000Z</time>
      </trkpt>
      <trkpt lat="47.27914" lon="-2.48518">
        <ele>-14.199999809265</ele>
        <time>2020-01-16T10:04:36.000Z</time>
      </trkpt>
      <trkpt lat="47.27916" lon="-2.48524">
        <ele>-13.800000190735</ele>
        <time>2020-01-16T10:04:37.000Z</time>
      </trkpt>
      <trkpt lat="47.27918" lon="-2.48531">
        <ele>-13.39999961853</ele>
        <time>2020-01-16T10:04:38.000Z</time>
      </trkpt>
      <trkpt lat="47.2792" lon="-2.48537">
        <ele>-13</ele>
        <time>2020-01-16T10:04:39.000Z</time>
      </trkpt>
      <trkpt lat="47.27922" lon="-2.48543">
        <ele>-13</ele>
        <time>2020-01-16T10:04:40.000Z</time>
      </trkpt>
      <trkpt lat="47.27934" lon="-2.48575">
        <ele>-13</ele>
        <time>2020-01-16T10:04:46.000Z</time>
      </trkpt>
      <trkpt lat="47.27943" lon="-2.48598">
        <ele>-13</ele>
        <time>2020-01-16T10:04:51.000Z</time>
      </trkpt>
      <trkpt lat="47.27954" lon="-2.48628">
        <ele>-13</ele>
        <time>2020-01-16T10:04:57.000Z</time>
      </trkpt>
      <trkpt lat="47.2797" lon="-2.48674">
        <ele>-13</ele>
        <time>2020-01-16T10:05:05.000Z</time>
      </trkpt>
      <trkpt lat="47.27979" lon="-2.48698">
        <ele>-13</ele>
        <time>2020-01-16T10:05:09.000Z</time>
      </trkpt>
      <trkpt lat="47.27983" lon="-2.48716">
        <ele>-13</ele>
        <time>2020-01-16T10:05:12.000Z</time>
      </trkpt>
      <trkpt lat="47.27987" lon="-2.48756">
        <ele>-13</ele>
        <time>2020-01-16T10:05:19.000Z</time>
      </trkpt>
      <trkpt lat="47.27985" lon="-2.48761">
        <ele>-12.60000038147</ele>
        <time>2020-01-16T10:05:20.000Z</time>
      </trkpt>
      <trkpt lat="47.27984" lon="-2.48765">
        <ele>-12.199999809265</ele>
        <time>2020-01-16T10:05:21.000Z</time>
      </trkpt>
      <trkpt lat="47.27983" lon="-2.48769">
        <ele>-11.800000190735</ele>
        <time>2020-01-16T10:05:22.000Z</time>
      </trkpt>
      <trkpt lat="47.27981" lon="-2.48772">
        <ele>-11.39999961853</ele>
        <time>2020-01-16T10:05:23.000Z</time>
      </trkpt>
      <trkpt lat="47.27979" lon="-2.48777">
        <ele>-11</ele>
        <time>2020-01-16T10:05:24.000Z</time>
      </trkpt>
      <trkpt lat="47.27978" lon="-2.48782">
        <ele>-11</ele>
        <time>2020-01-16T10:05:25.000Z</time>
      </trkpt>
      <trkpt lat="47.27981" lon="-2.48791">
        <ele>-11</ele>
        <time>2020-01-16T10:05:27.000Z</time>
      </trkpt>
      <trkpt lat="47.27983" lon="-2.48807">
        <ele>-11</ele>
        <time>2020-01-16T10:05:30.000Z</time>
      </trkpt>
      <trkpt lat="47.27981" lon="-2.48819">
        <ele>-11</ele>
        <time>2020-01-16T10:05:32.000Z</time>
      </trkpt>
      <trkpt lat="47.27979" lon="-2.48825">
        <ele>-11.39999961853</ele>
        <time>2020-01-16T10:05:33.000Z</time>
      </trkpt>
      <trkpt lat="47.27978" lon="-2.48831">
        <ele>-11.800000190735</ele>
        <time>2020-01-16T10:05:34.000Z</time>
      </trkpt>
      <trkpt lat="47.27977" lon="-2.48836">
        <ele>-12.199999809265</ele>
        <time>2020-01-16T10:05:35.000Z</time>
      </trkpt>
      <trkpt lat="47.27978" lon="-2.4884">
        <ele>-12.60000038147</ele>
        <time>2020-01-16T10:05:36.000Z</time>
      </trkpt>
      <trkpt lat="47.27979" lon="-2.48844">
        <ele>-13</ele>
        <time>2020-01-16T10:05:37.000Z</time>
      </trkpt>
      <trkpt lat="47.27983" lon="-2.48853">
        <ele>-13</ele>
        <time>2020-01-16T10:05:41.000Z</time>
      </trkpt>
      <trkpt lat="47.27984" lon="-2.48854">
        <ele>-13</ele>
        <time>2020-01-16T10:05:42.000Z</time>
      </trkpt>
      <trkpt lat="47.27984" lon="-2.48854">
        <ele>-13.39999961853</ele>
        <time>2020-01-16T10:05:43.000Z</time>
      </trkpt>
      <trkpt lat="47.27984" lon="-2.48854">
        <ele>-14</ele>
        <time>2020-01-16T10:05:44.000Z</time>
      </trkpt>
      <trkpt lat="47.27985" lon="-2.48856">
        <ele>-15.199999809265</ele>
        <time>2020-01-16T10:05:59.000Z</time>
      </trkpt>
      <trkpt lat="47.27985" lon="-2.48859">
        <ele>-15.199999809265</ele>
        <time>2020-01-16T10:06:00.000Z</time>
      </trkpt>
      <trkpt lat="47.27984" lon="-2.48877">
        <ele>-15.199999809265</ele>
        <time>2020-01-16T10:06:03.000Z</time>
      </trkpt>
      <trkpt lat="47.27986" lon="-2.48909">
        <ele>-15.199999809265</ele>
        <time>2020-01-16T10:06:07.000Z</time>
      </trkpt>
      <trkpt lat="47.27992" lon="-2.48968">
        <ele>-15.199999809265</ele>
        <time>2020-01-16T10:06:14.000Z</time>
      </trkpt>
      <trkpt lat="47.27995" lon="-2.48984">
        <ele>-15.60000038147</ele>
        <time>2020-01-16T10:06:16.000Z</time>
      </trkpt>
      <trkpt lat="47.27997" lon="-2.48991">
        <ele>-16</ele>
        <time>2020-01-16T10:06:17.000Z</time>
      </trkpt>
      <trkpt lat="47.27998" lon="-2.48999">
        <ele>-16.39999961853</ele>
        <time>2020-01-16T10:06:18.000Z</time>
      </trkpt>
      <trkpt lat="47.28" lon="-2.49007">
        <ele>-16.799999237061</ele>
        <time>2020-01-16T10:06:19.000Z</time>
      </trkpt>
      <trkpt lat="47.28001" lon="-2.49014">
        <ele>-17.200000762939</ele>
        <time>2020-01-16T10:06:20.000Z</time>
      </trkpt>
      <trkpt lat="47.28008" lon="-2.49045">
        <ele>-17.200000762939</ele>
        <time>2020-01-16T10:06:24.000Z</time>
      </trkpt>
      <trkpt lat="47.28007" lon="-2.49058">
        <ele>-17.200000762939</ele>
        <time>2020-01-16T10:06:26.000Z</time>
      </trkpt>
      <trkpt lat="47.28005" lon="-2.49062">
        <ele>-16.799999237061</ele>
        <time>2020-01-16T10:06:27.000Z</time>
      </trkpt>
      <trkpt lat="47.28001" lon="-2.49064">
        <ele>-16.39999961853</ele>
        <time>2020-01-16T10:06:28.000Z</time>
      </trkpt>
      <trkpt lat="47.27997" lon="-2.49065">
        <ele>-16</ele>
        <time>2020-01-16T10:06:29.000Z</time>
      </trkpt>
      <trkpt lat="47.27993" lon="-2.49068">
        <ele>-15.39999961853</ele>
        <time>2020-01-16T10:06:30.000Z</time>
      </trkpt>
      <trkpt lat="47.27989" lon="-2.4907">
        <ele>-15</ele>
        <time>2020-01-16T10:06:31.000Z</time>
      </trkpt>
      <trkpt lat="47.27979" lon="-2.4908">
        <ele>-15</ele>
        <time>2020-01-16T10:06:34.000Z</time>
      </trkpt>
      <trkpt lat="47.27976" lon="-2.49085">
        <ele>-15</ele>
        <time>2020-01-16T10:06:35.000Z</time>
      </trkpt>
      <trkpt lat="47.27971" lon="-2.49095">
        <ele>-15</ele>
        <time>2020-01-16T10:06:37.000Z</time>
      </trkpt>
      <trkpt lat="47.27966" lon="-2.49112">
        <ele>-15.60000038147</ele>
        <time>2020-01-16T10:06:40.000Z</time>
      </trkpt>
      <trkpt lat="47.27965" lon="-2.49118">
        <ele>-16</ele>
        <time>2020-01-16T10:06:41.000Z</time>
      </trkpt>
      <trkpt lat="47.27965" lon="-2.49124">
        <ele>-16.39999961853</ele>
        <time>2020-01-16T10:06:42.000Z</time>
      </trkpt>
      <trkpt lat="47.27964" lon="-2.4913">
        <ele>-17</ele>
        <time>2020-01-16T10:06:43.000Z</time>
      </trkpt>
      <trkpt lat="47.27964" lon="-2.49137">
        <ele>-17.39999961853</ele>
        <time>2020-01-16T10:06:44.000Z</time>
      </trkpt>
      <trkpt lat="47.27962" lon="-2.49142">
        <ele>-17.39999961853</ele>
        <time>2020-01-16T10:06:45.000Z</time>
      </trkpt>
      <trkpt lat="47.27953" lon="-2.49153">
        <ele>-17.39999961853</ele>
        <time>2020-01-16T10:06:48.000Z</time>
      </trkpt>
      <trkpt lat="47.2795" lon="-2.49157">
        <ele>-17.39999961853</ele>
        <time>2020-01-16T10:06:49.000Z</time>
      </trkpt>
      <trkpt lat="47.27942" lon="-2.49167">
        <ele>-17</ele>
        <time>2020-01-16T10:06:52.000Z</time>
      </trkpt>
      <trkpt lat="47.27938" lon="-2.4917">
        <ele>-16.60000038147</ele>
        <time>2020-01-16T10:06:53.000Z</time>
      </trkpt>
      <trkpt lat="47.27935" lon="-2.49173">
        <ele>-16.200000762939</ele>
        <time>2020-01-16T10:06:54.000Z</time>
      </trkpt>
      <trkpt lat="47.27932" lon="-2.49177">
        <ele>-15.800000190735</ele>
        <time>2020-01-16T10:06:55.000Z</time>
      </trkpt>
      <trkpt lat="47.27929" lon="-2.49181">
        <ele>-15.199999809265</ele>
        <time>2020-01-16T10:06:56.000Z</time>
      </trkpt>
      <trkpt lat="47.27923" lon="-2.4919">
        <ele>-15.199999809265</ele>
        <time>2020-01-16T10:06:58.000Z</time>
      </trkpt>
      <trkpt lat="47.2792" lon="-2.49194">
        <ele>-15.199999809265</ele>
        <time>2020-01-16T10:06:59.000Z</time>
      </trkpt>
      <trkpt lat="47.27916" lon="-2.49198">
        <ele>-15.199999809265</ele>
        <time>2020-01-16T10:07:00.000Z</time>
      </trkpt>
      <trkpt lat="47.27908" lon="-2.49211">
        <ele>-15.199999809265</ele>
        <time>2020-01-16T10:07:03.000Z</time>
      </trkpt>
      <trkpt lat="47.27893" lon="-2.49229">
        <ele>-15.199999809265</ele>
        <time>2020-01-16T10:07:09.000Z</time>
      </trkpt>
      <trkpt lat="47.27891" lon="-2.49233">
        <ele>-15.199999809265</ele>
        <time>2020-01-16T10:07:11.000Z</time>
      </trkpt>
      <trkpt lat="47.27891" lon="-2.49238">
        <ele>-15.199999809265</ele>
        <time>2020-01-16T10:07:13.000Z</time>
      </trkpt>
      <trkpt lat="47.27897" lon="-2.49241">
        <ele>-15.199999809265</ele>
        <time>2020-01-16T10:07:18.000Z</time>
      </trkpt>
      <trkpt lat="47.27898" lon="-2.49241">
        <ele>-15.199999809265</ele>
        <time>2020-01-16T10:07:21.000Z</time>
      </trkpt>
      <trkpt lat="47.27893" lon="-2.4924">
        <ele>-15.199999809265</ele>
        <time>2020-01-16T10:07:28.000Z</time>
      </trkpt>
      <trkpt lat="47.27891" lon="-2.49239">
        <ele>-15.199999809265</ele>
        <time>2020-01-16T10:07:29.000Z</time>
      </trkpt>
      <trkpt lat="47.27876" lon="-2.49237">
        <ele>-15.199999809265</ele>
        <time>2020-01-16T10:07:34.000Z</time>
      </trkpt>
      <trkpt lat="47.27871" lon="-2.49238">
        <ele>-15.199999809265</ele>
        <time>2020-01-16T10:07:36.000Z</time>
      </trkpt>
      <trkpt lat="47.27867" lon="-2.49242">
        <ele>-15.199999809265</ele>
        <time>2020-01-16T10:07:38.000Z</time>
      </trkpt>
      <trkpt lat="47.27859" lon="-2.49237">
        <ele>-15.199999809265</ele>
        <time>2020-01-16T10:07:42.000Z</time>
      </trkpt>
      <trkpt lat="47.27857" lon="-2.49237">
        <ele>-15.199999809265</ele>
        <time>2020-01-16T10:07:43.000Z</time>
      </trkpt>
      <trkpt lat="47.27854" lon="-2.49243">
        <ele>-15.199999809265</ele>
        <time>2020-01-16T10:07:47.000Z</time>
      </trkpt>
      <trkpt lat="47.27852" lon="-2.49248">
        <ele>-15.199999809265</ele>
        <time>2020-01-16T10:07:49.000Z</time>
      </trkpt>
      <trkpt lat="47.27849" lon="-2.4926">
        <ele>-15.199999809265</ele>
        <time>2020-01-16T10:07:54.000Z</time>
      </trkpt>
      <trkpt lat="47.27852" lon="-2.49271">
        <ele>-15.199999809265</ele>
        <time>2020-01-16T10:08:00.000Z</time>
      </trkpt>
      <trkpt lat="47.27852" lon="-2.49271">
        <ele>-15.199999809265</ele>
        <time>2020-01-16T10:08:01.000Z</time>
      </trkpt>
      <trkpt lat="47.27853" lon="-2.49274">
        <ele>-15.199999809265</ele>
        <time>2020-01-16T10:08:22.000Z</time>
      </trkpt>
      <trkpt lat="47.27854" lon="-2.49277">
        <ele>-15.199999809265</ele>
        <time>2020-01-16T10:08:23.000Z</time>
      </trkpt>
      <trkpt lat="47.27854" lon="-2.4928">
        <ele>-15.199999809265</ele>
        <time>2020-01-16T10:08:24.000Z</time>
      </trkpt>
      <trkpt lat="47.27848" lon="-2.49283">
        <ele>-15.199999809265</ele>
        <time>2020-01-16T10:08:26.000Z</time>
      </trkpt>
      <trkpt lat="47.27833" lon="-2.49278">
        <ele>-14.800000190735</ele>
        <time>2020-01-16T10:08:30.000Z</time>
      </trkpt>
      <trkpt lat="47.2783" lon="-2.49276">
        <ele>-14.39999961853</ele>
        <time>2020-01-16T10:08:31.000Z</time>
      </trkpt>
      <trkpt lat="47.27826" lon="-2.49274">
        <ele>-13.800000190735</ele>
        <time>2020-01-16T10:08:32.000Z</time>
      </trkpt>
      <trkpt lat="47.27823" lon="-2.49272">
        <ele>-13.39999961853</ele>
        <time>2020-01-16T10:08:33.000Z</time>
      </trkpt>
      <trkpt lat="47.27819" lon="-2.49271">
        <ele>-12.800000190735</ele>
        <time>2020-01-16T10:08:34.000Z</time>
      </trkpt>
      <trkpt lat="47.27809" lon="-2.49267">
        <ele>-12.800000190735</ele>
        <time>2020-01-16T10:08:36.000Z</time>
      </trkpt>
      <trkpt lat="47.278" lon="-2.49264">
        <ele>-12.800000190735</ele>
        <time>2020-01-16T10:08:38.000Z</time>
      </trkpt>
      <trkpt lat="47.27789" lon="-2.49261">
        <ele>-12.800000190735</ele>
        <time>2020-01-16T10:08:40.000Z</time>
      </trkpt>
      <trkpt lat="47.27784" lon="-2.4926">
        <ele>-12.800000190735</ele>
        <time>2020-01-16T10:08:41.000Z</time>
      </trkpt>
      <trkpt lat="47.27757" lon="-2.4926">
        <ele>-12.800000190735</ele>
        <time>2020-01-16T10:08:46.000Z</time>
      </trkpt>
      <trkpt lat="47.27732" lon="-2.49258">
        <ele>-12.39999961853</ele>
        <time>2020-01-16T10:08:51.000Z</time>
      </trkpt>
      <trkpt lat="47.27727" lon="-2.49257">
        <ele>-12</ele>
        <time>2020-01-16T10:08:52.000Z</time>
      </trkpt>
      <trkpt lat="47.27722" lon="-2.49258">
        <ele>-11.39999961853</ele>
        <time>2020-01-16T10:08:53.000Z</time>
      </trkpt>
      <trkpt lat="47.27718" lon="-2.49258">
        <ele>-11</ele>
        <time>2020-01-16T10:08:54.000Z</time>
      </trkpt>
      <trkpt lat="47.27714" lon="-2.49258">
        <ele>-10.60000038147</ele>
        <time>2020-01-16T10:08:55.000Z</time>
      </trkpt>
      <trkpt lat="47.27709" lon="-2.49257">
        <ele>-11</ele>
        <time>2020-01-16T10:08:56.000Z</time>
      </trkpt>
      <trkpt lat="47.27704" lon="-2.49258">
        <ele>-11.39999961853</ele>
        <time>2020-01-16T10:08:57.000Z</time>
      </trkpt>
      <trkpt lat="47.277" lon="-2.49258">
        <ele>-12</ele>
        <time>2020-01-16T10:08:58.000Z</time>
      </trkpt>
      <trkpt lat="47.27696" lon="-2.49257">
        <ele>-12.39999961853</ele>
        <time>2020-01-16T10:08:59.000Z</time>
      </trkpt>
      <trkpt lat="47.27691" lon="-2.49256">
        <ele>-13</ele>
        <time>2020-01-16T10:09:00.000Z</time>
      </trkpt>
      <trkpt lat="47.27687" lon="-2.49255">
        <ele>-12.39999961853</ele>
        <time>2020-01-16T10:09:01.000Z</time>
      </trkpt>
      <trkpt lat="47.27683" lon="-2.49253">
        <ele>-11.800000190735</ele>
        <time>2020-01-16T10:09:02.000Z</time>
      </trkpt>
      <trkpt lat="47.27678" lon="-2.49251">
        <ele>-11.199999809265</ele>
        <time>2020-01-16T10:09:03.000Z</time>
      </trkpt>
      <trkpt lat="47.27674" lon="-2.49249">
        <ele>-10.800000190735</ele>
        <time>2020-01-16T10:09:04.000Z</time>
      </trkpt>
      <trkpt lat="47.2767" lon="-2.49248">
        <ele>-10.199999809265</ele>
        <time>2020-01-16T10:09:05.000Z</time>
      </trkpt>
      <trkpt lat="47.27661" lon="-2.49244">
        <ele>-10.199999809265</ele>
        <time>2020-01-16T10:09:07.000Z</time>
      </trkpt>
      <trkpt lat="47.27651" lon="-2.49242">
        <ele>-10.199999809265</ele>
        <time>2020-01-16T10:09:09.000Z</time>
      </trkpt>
      <trkpt lat="47.2764" lon="-2.49242">
        <ele>-10.199999809265</ele>
        <time>2020-01-16T10:09:11.000Z</time>
      </trkpt>
      <trkpt lat="47.27636" lon="-2.49239">
        <ele>-10.800000190735</ele>
        <time>2020-01-16T10:09:12.000Z</time>
      </trkpt>
      <trkpt lat="47.27632" lon="-2.49234">
        <ele>-11.60000038147</ele>
        <time>2020-01-16T10:09:13.000Z</time>
      </trkpt>
      <trkpt lat="47.2763" lon="-2.49228">
        <ele>-12.199999809265</ele>
        <time>2020-01-16T10:09:14.000Z</time>
      </trkpt>
      <trkpt lat="47.27627" lon="-2.49221">
        <ele>-12.60000038147</ele>
        <time>2020-01-16T10:09:15.000Z</time>
      </trkpt>
      <trkpt lat="47.27624" lon="-2.49215">
        <ele>-12.60000038147</ele>
        <time>2020-01-16T10:09:16.000Z</time>
      </trkpt>
      <trkpt lat="47.2762" lon="-2.49211">
        <ele>-12.60000038147</ele>
        <time>2020-01-16T10:09:17.000Z</time>
      </trkpt>
      <trkpt lat="47.27613" lon="-2.49201">
        <ele>-12.199999809265</ele>
        <time>2020-01-16T10:09:19.000Z</time>
      </trkpt>
      <trkpt lat="47.27611" lon="-2.49195">
        <ele>-11.60000038147</ele>
        <time>2020-01-16T10:09:20.000Z</time>
      </trkpt>
      <trkpt lat="47.27609" lon="-2.4919">
        <ele>-11.199999809265</ele>
        <time>2020-01-16T10:09:21.000Z</time>
      </trkpt>
      <trkpt lat="47.27606" lon="-2.49185">
        <ele>-10.800000190735</ele>
        <time>2020-01-16T10:09:22.000Z</time>
      </trkpt>
      <trkpt lat="47.27604" lon="-2.4918">
        <ele>-10.199999809265</ele>
        <time>2020-01-16T10:09:23.000Z</time>
      </trkpt>
      <trkpt lat="47.27599" lon="-2.4917">
        <ele>-10.199999809265</ele>
        <time>2020-01-16T10:09:25.000Z</time>
      </trkpt>
      <trkpt lat="47.27597" lon="-2.49164">
        <ele>-10.199999809265</ele>
        <time>2020-01-16T10:09:26.000Z</time>
      </trkpt>
      <trkpt lat="47.27589" lon="-2.49143">
        <ele>-10.199999809265</ele>
        <time>2020-01-16T10:09:30.000Z</time>
      </trkpt>
      <trkpt lat="47.27586" lon="-2.49125">
        <ele>-10.60000038147</ele>
        <time>2020-01-16T10:09:33.000Z</time>
      </trkpt>
      <trkpt lat="47.27585" lon="-2.4912">
        <ele>-11.199999809265</ele>
        <time>2020-01-16T10:09:34.000Z</time>
      </trkpt>
      <trkpt lat="47.27585" lon="-2.49116">
        <ele>-11.60000038147</ele>
        <time>2020-01-16T10:09:35.000Z</time>
      </trkpt>
      <trkpt lat="47.27585" lon="-2.49112">
        <ele>-12.199999809265</ele>
        <time>2020-01-16T10:09:36.000Z</time>
      </trkpt>
      <trkpt lat="47.27584" lon="-2.49108">
        <ele>-12.60000038147</ele>
        <time>2020-01-16T10:09:37.000Z</time>
      </trkpt>
      <trkpt lat="47.27583" lon="-2.49104">
        <ele>-12.60000038147</ele>
        <time>2020-01-16T10:09:38.000Z</time>
      </trkpt>
      <trkpt lat="47.27579" lon="-2.49099">
        <ele>-12.60000038147</ele>
        <time>2020-01-16T10:09:40.000Z</time>
      </trkpt>
      <trkpt lat="47.27574" lon="-2.49101">
        <ele>-12.60000038147</ele>
        <time>2020-01-16T10:09:42.000Z</time>
      </trkpt>
      <trkpt lat="47.27567" lon="-2.491">
        <ele>-13</ele>
        <time>2020-01-16T10:09:46.000Z</time>
      </trkpt>
      <trkpt lat="47.27566" lon="-2.49099">
        <ele>-13.60000038147</ele>
        <time>2020-01-16T10:09:47.000Z</time>
      </trkpt>
      <trkpt lat="47.27564" lon="-2.49099">
        <ele>-14</ele>
        <time>2020-01-16T10:09:48.000Z</time>
      </trkpt>
      <trkpt lat="47.27561" lon="-2.491">
        <ele>-14.39999961853</ele>
        <time>2020-01-16T10:09:49.000Z</time>
      </trkpt>
      <trkpt lat="47.27559" lon="-2.491">
        <ele>-15</ele>
        <time>2020-01-16T10:09:50.000Z</time>
      </trkpt>
      <trkpt lat="47.27554" lon="-2.491">
        <ele>-15</ele>
        <time>2020-01-16T10:09:53.000Z</time>
      </trkpt>
      <trkpt lat="47.27547" lon="-2.49097">
        <ele>-15</ele>
        <time>2020-01-16T10:09:56.000Z</time>
      </trkpt>
      <trkpt lat="47.27546" lon="-2.49093">
        <ele>-15</ele>
        <time>2020-01-16T10:09:57.000Z</time>
      </trkpt>
      <trkpt lat="47.27544" lon="-2.49073">
        <ele>-15</ele>
        <time>2020-01-16T10:10:01.000Z</time>
      </trkpt>
      <trkpt lat="47.27539" lon="-2.49042">
        <ele>-15</ele>
        <time>2020-01-16T10:10:07.000Z</time>
      </trkpt>
      <trkpt lat="47.27531" lon="-2.49003">
        <ele>-15</ele>
        <time>2020-01-16T10:10:14.000Z</time>
      </trkpt>
      <trkpt lat="47.27529" lon="-2.48968">
        <ele>-15</ele>
        <time>2020-01-16T10:10:19.000Z</time>
      </trkpt>
      <trkpt lat="47.27529" lon="-2.48961">
        <ele>-15</ele>
        <time>2020-01-16T10:10:20.000Z</time>
      </trkpt>
      <trkpt lat="47.27527" lon="-2.48936">
        <ele>-15</ele>
        <time>2020-01-16T10:10:24.000Z</time>
      </trkpt>
      <trkpt lat="47.27526" lon="-2.4893">
        <ele>-15</ele>
        <time>2020-01-16T10:10:25.000Z</time>
      </trkpt>
      <trkpt lat="47.27524" lon="-2.48925">
        <ele>-15</ele>
        <time>2020-01-16T10:10:26.000Z</time>
      </trkpt>
      <trkpt lat="47.27519" lon="-2.48916">
        <ele>-15</ele>
        <time>2020-01-16T10:10:28.000Z</time>
      </trkpt>
      <trkpt lat="47.27518" lon="-2.48894">
        <ele>-15</ele>
        <time>2020-01-16T10:10:32.000Z</time>
      </trkpt>
      <trkpt lat="47.27519" lon="-2.48876">
        <ele>-15</ele>
        <time>2020-01-16T10:10:35.000Z</time>
      </trkpt>
      <trkpt lat="47.27521" lon="-2.48868">
        <ele>-15</ele>
        <time>2020-01-16T10:10:36.000Z</time>
      </trkpt>
      <trkpt lat="47.27523" lon="-2.48862">
        <ele>-15</ele>
        <time>2020-01-16T10:10:37.000Z</time>
      </trkpt>
      <trkpt lat="47.27532" lon="-2.48828">
        <ele>-15</ele>
        <time>2020-01-16T10:10:42.000Z</time>
      </trkpt>
      <trkpt lat="47.27534" lon="-2.48815">
        <ele>-15</ele>
        <time>2020-01-16T10:10:44.000Z</time>
      </trkpt>
      <trkpt lat="47.27538" lon="-2.48794">
        <ele>-15</ele>
        <time>2020-01-16T10:10:47.000Z</time>
      </trkpt>
      <trkpt lat="47.27541" lon="-2.48782">
        <ele>-15</ele>
        <time>2020-01-16T10:10:49.000Z</time>
      </trkpt>
      <trkpt lat="47.27542" lon="-2.48769">
        <ele>-15</ele>
        <time>2020-01-16T10:10:51.000Z</time>
      </trkpt>
      <trkpt lat="47.27541" lon="-2.48758">
        <ele>-14.39999961853</ele>
        <time>2020-01-16T10:10:53.000Z</time>
      </trkpt>
      <trkpt lat="47.2754" lon="-2.48754">
        <ele>-13.800000190735</ele>
        <time>2020-01-16T10:10:54.000Z</time>
      </trkpt>
      <trkpt lat="47.2754" lon="-2.48749">
        <ele>-13.199999809265</ele>
        <time>2020-01-16T10:10:55.000Z</time>
      </trkpt>
      <trkpt lat="47.27539" lon="-2.48745">
        <ele>-12.60000038147</ele>
        <time>2020-01-16T10:10:56.000Z</time>
      </trkpt>
      <trkpt lat="47.27537" lon="-2.48742">
        <ele>-12</ele>
        <time>2020-01-16T10:10:57.000Z</time>
      </trkpt>
      <trkpt lat="47.27534" lon="-2.48742">
        <ele>-12</ele>
        <time>2020-01-16T10:10:58.000Z</time>
      </trkpt>
      <trkpt lat="47.27525" lon="-2.48751">
        <ele>-12</ele>
        <time>2020-01-16T10:11:01.000Z</time>
      </trkpt>
      <trkpt lat="47.27522" lon="-2.48755">
        <ele>-12</ele>
        <time>2020-01-16T10:11:02.000Z</time>
      </trkpt>
      <trkpt lat="47.27502" lon="-2.48774">
        <ele>-12</ele>
        <time>2020-01-16T10:11:08.000Z</time>
      </trkpt>
      <trkpt lat="47.27483" lon="-2.4878">
        <ele>-12</ele>
        <time>2020-01-16T10:11:14.000Z</time>
      </trkpt>
      <trkpt lat="47.27472" lon="-2.48783">
        <ele>-12</ele>
        <time>2020-01-16T10:11:19.000Z</time>
      </trkpt>
      <trkpt lat="47.27467" lon="-2.48785">
        <ele>-12</ele>
        <time>2020-01-16T10:11:24.000Z</time>
      </trkpt>
      <trkpt lat="47.27471" lon="-2.48783">
        <ele>-14.199999809265</ele>
        <time>2020-01-16T10:13:06.000Z</time>
      </trkpt>
      <trkpt lat="47.27478" lon="-2.48781">
        <ele>-14.199999809265</ele>
        <time>2020-01-16T10:13:09.000Z</time>
      </trkpt>
      <trkpt lat="47.27496" lon="-2.48774">
        <ele>-14.199999809265</ele>
        <time>2020-01-16T10:13:16.000Z</time>
      </trkpt>
      <trkpt lat="47.27512" lon="-2.48763">
        <ele>-13.800000190735</ele>
        <time>2020-01-16T10:13:23.000Z</time>
      </trkpt>
      <trkpt lat="47.27514" lon="-2.48761">
        <ele>-13.39999961853</ele>
        <time>2020-01-16T10:13:24.000Z</time>
      </trkpt>
      <trkpt lat="47.27516" lon="-2.4876">
        <ele>-12.800000190735</ele>
        <time>2020-01-16T10:13:25.000Z</time>
      </trkpt>
      <trkpt lat="47.27519" lon="-2.48758">
        <ele>-12.39999961853</ele>
        <time>2020-01-16T10:13:26.000Z</time>
      </trkpt>
      <trkpt lat="47.27521" lon="-2.48755">
        <ele>-11.800000190735</ele>
        <time>2020-01-16T10:13:27.000Z</time>
      </trkpt>
      <trkpt lat="47.27525" lon="-2.48748">
        <ele>-11.800000190735</ele>
        <time>2020-01-16T10:13:29.000Z</time>
      </trkpt>
      <trkpt lat="47.27535" lon="-2.48729">
        <ele>-11.800000190735</ele>
        <time>2020-01-16T10:13:35.000Z</time>
      </trkpt>
      <trkpt lat="47.27534" lon="-2.48725">
        <ele>-11.800000190735</ele>
        <time>2020-01-16T10:13:36.000Z</time>
      </trkpt>
      <trkpt lat="47.27529" lon="-2.48707">
        <ele>-11.800000190735</ele>
        <time>2020-01-16T10:13:41.000Z</time>
      </trkpt>
      <trkpt lat="47.27527" lon="-2.48704">
        <ele>-11.39999961853</ele>
        <time>2020-01-16T10:13:42.000Z</time>
      </trkpt>
      <trkpt lat="47.27527" lon="-2.487">
        <ele>-11</ele>
        <time>2020-01-16T10:13:43.000Z</time>
      </trkpt>
      <trkpt lat="47.27526" lon="-2.48698">
        <ele>-10.60000038147</ele>
        <time>2020-01-16T10:13:44.000Z</time>
      </trkpt>
      <trkpt lat="47.27524" lon="-2.48695">
        <ele>-10.800000190735</ele>
        <time>2020-01-16T10:13:45.000Z</time>
      </trkpt>
      <trkpt lat="47.27523" lon="-2.48692">
        <ele>-11.60000038147</ele>
        <time>2020-01-16T10:13:46.000Z</time>
      </trkpt>
      <trkpt lat="47.27521" lon="-2.4869">
        <ele>-11.800000190735</ele>
        <time>2020-01-16T10:13:47.000Z</time>
      </trkpt>
      <trkpt lat="47.27519" lon="-2.48687">
        <ele>-12.199999809265</ele>
        <time>2020-01-16T10:13:48.000Z</time>
      </trkpt>
      <trkpt lat="47.27519" lon="-2.48681">
        <ele>-12.199999809265</ele>
        <time>2020-01-16T10:13:49.000Z</time>
      </trkpt>
      <trkpt lat="47.27517" lon="-2.48668">
        <ele>-12.199999809265</ele>
        <time>2020-01-16T10:13:51.000Z</time>
      </trkpt>
      <trkpt lat="47.27513" lon="-2.48645">
        <ele>-12.199999809265</ele>
        <time>2020-01-16T10:13:56.000Z</time>
      </trkpt>
      <trkpt lat="47.27503" lon="-2.48615">
        <ele>-12.199999809265</ele>
        <time>2020-01-16T10:14:02.000Z</time>
      </trkpt>
      <trkpt lat="47.27494" lon="-2.48599">
        <ele>-12.199999809265</ele>
        <time>2020-01-16T10:14:07.000Z</time>
      </trkpt>
      <trkpt lat="47.2748" lon="-2.48573">
        <ele>-12.199999809265</ele>
        <time>2020-01-16T10:14:13.000Z</time>
      </trkpt>
      <trkpt lat="47.2747" lon="-2.48557">
        <ele>-12.199999809265</ele>
        <time>2020-01-16T10:14:18.000Z</time>
      </trkpt>
      <trkpt lat="47.27469" lon="-2.48552">
        <ele>-11.800000190735</ele>
        <time>2020-01-16T10:14:19.000Z</time>
      </trkpt>
      <trkpt lat="47.27469" lon="-2.48547">
        <ele>-11.199999809265</ele>
        <time>2020-01-16T10:14:20.000Z</time>
      </trkpt>
      <trkpt lat="47.27469" lon="-2.48542">
        <ele>-10.800000190735</ele>
        <time>2020-01-16T10:14:21.000Z</time>
      </trkpt>
      <trkpt lat="47.27469" lon="-2.48536">
        <ele>-10.199999809265</ele>
        <time>2020-01-16T10:14:22.000Z</time>
      </trkpt>
      <trkpt lat="47.27469" lon="-2.48532">
        <ele>-9.8000001907349</ele>
        <time>2020-01-16T10:14:23.000Z</time>
      </trkpt>
      <trkpt lat="47.2747" lon="-2.4852">
        <ele>-10.199999809265</ele>
        <time>2020-01-16T10:14:25.000Z</time>
      </trkpt>
      <trkpt lat="47.27469" lon="-2.48514">
        <ele>-10.800000190735</ele>
        <time>2020-01-16T10:14:26.000Z</time>
      </trkpt>
      <trkpt lat="47.2747" lon="-2.48508">
        <ele>-11.60000038147</ele>
        <time>2020-01-16T10:14:27.000Z</time>
      </trkpt>
      <trkpt lat="47.2747" lon="-2.48501">
        <ele>-12.39999961853</ele>
        <time>2020-01-16T10:14:28.000Z</time>
      </trkpt>
      <trkpt lat="47.27469" lon="-2.48495">
        <ele>-13.39999961853</ele>
        <time>2020-01-16T10:14:29.000Z</time>
      </trkpt>
      <trkpt lat="47.27469" lon="-2.48489">
        <ele>-14.199999809265</ele>
        <time>2020-01-16T10:14:30.000Z</time>
      </trkpt>
      <trkpt lat="47.27468" lon="-2.48484">
        <ele>-14</ele>
        <time>2020-01-16T10:14:31.000Z</time>
      </trkpt>
      <trkpt lat="47.27468" lon="-2.48478">
        <ele>-13.800000190735</ele>
        <time>2020-01-16T10:14:32.000Z</time>
      </trkpt>
      <trkpt lat="47.27467" lon="-2.48472">
        <ele>-13.60000038147</ele>
        <time>2020-01-16T10:14:33.000Z</time>
      </trkpt>
      <trkpt lat="47.27466" lon="-2.48466">
        <ele>-13.199999809265</ele>
        <time>2020-01-16T10:14:34.000Z</time>
      </trkpt>
      <trkpt lat="47.27466" lon="-2.4846">
        <ele>-13</ele>
        <time>2020-01-16T10:14:35.000Z</time>
      </trkpt>
      <trkpt lat="47.27463" lon="-2.48443">
        <ele>-13</ele>
        <time>2020-01-16T10:14:38.000Z</time>
      </trkpt>
      <trkpt lat="47.27461" lon="-2.48437">
        <ele>-13.60000038147</ele>
        <time>2020-01-16T10:14:39.000Z</time>
      </trkpt>
      <trkpt lat="47.2746" lon="-2.48432">
        <ele>-14</ele>
        <time>2020-01-16T10:14:40.000Z</time>
      </trkpt>
      <trkpt lat="47.27459" lon="-2.48427">
        <ele>-13.800000190735</ele>
        <time>2020-01-16T10:14:41.000Z</time>
      </trkpt>
      <trkpt lat="47.27457" lon="-2.48422">
        <ele>-13.800000190735</ele>
        <time>2020-01-16T10:14:42.000Z</time>
      </trkpt>
      <trkpt lat="47.27456" lon="-2.48417">
        <ele>-13.60000038147</ele>
        <time>2020-01-16T10:14:43.000Z</time>
      </trkpt>
      <trkpt lat="47.27455" lon="-2.48412">
        <ele>-13.39999961853</ele>
        <time>2020-01-16T10:14:44.000Z</time>
      </trkpt>
      <trkpt lat="47.27453" lon="-2.48407">
        <ele>-13.199999809265</ele>
        <time>2020-01-16T10:14:45.000Z</time>
      </trkpt>
      <trkpt lat="47.27443" lon="-2.4837">
        <ele>-13.199999809265</ele>
        <time>2020-01-16T10:14:52.000Z</time>
      </trkpt>
      <trkpt lat="47.27434" lon="-2.48341">
        <ele>-13.199999809265</ele>
        <time>2020-01-16T10:14:58.000Z</time>
      </trkpt>
      <trkpt lat="47.27433" lon="-2.48336">
        <ele>-12.60000038147</ele>
        <time>2020-01-16T10:14:59.000Z</time>
      </trkpt>
      <trkpt lat="47.27432" lon="-2.4833">
        <ele>-11.60000038147</ele>
        <time>2020-01-16T10:15:00.000Z</time>
      </trkpt>
      <trkpt lat="47.27431" lon="-2.48324">
        <ele>-11.800000190735</ele>
        <time>2020-01-16T10:15:01.000Z</time>
      </trkpt>
      <trkpt lat="47.2743" lon="-2.48318">
        <ele>-12</ele>
        <time>2020-01-16T10:15:02.000Z</time>
      </trkpt>
      <trkpt lat="47.27429" lon="-2.48312">
        <ele>-12.199999809265</ele>
        <time>2020-01-16T10:15:03.000Z</time>
      </trkpt>
      <trkpt lat="47.27428" lon="-2.48306">
        <ele>-12.39999961853</ele>
        <time>2020-01-16T10:15:04.000Z</time>
      </trkpt>
      <trkpt lat="47.27427" lon="-2.483">
        <ele>-12.800000190735</ele>
        <time>2020-01-16T10:15:05.000Z</time>
      </trkpt>
      <trkpt lat="47.27426" lon="-2.48293">
        <ele>-12.800000190735</ele>
        <time>2020-01-16T10:15:06.000Z</time>
      </trkpt>
      <trkpt lat="47.27418" lon="-2.4824">
        <ele>-12.800000190735</ele>
        <time>2020-01-16T10:15:15.000Z</time>
      </trkpt>
      <trkpt lat="47.27412" lon="-2.48206">
        <ele>-11.800000190735</ele>
        <time>2020-01-16T10:15:22.000Z</time>
      </trkpt>
      <trkpt lat="47.27411" lon="-2.48199">
        <ele>-11.39999961853</ele>
        <time>2020-01-16T10:15:24.000Z</time>
      </trkpt>
      <trkpt lat="47.2741" lon="-2.48194">
        <ele>-10.39999961853</ele>
        <time>2020-01-16T10:15:25.000Z</time>
      </trkpt>
      <trkpt lat="47.27407" lon="-2.48179">
        <ele>-10.39999961853</ele>
        <time>2020-01-16T10:15:29.000Z</time>
      </trkpt>
      <trkpt lat="47.27408" lon="-2.48148">
        <ele>-11</ele>
        <time>2020-01-16T10:15:35.000Z</time>
      </trkpt>
      <trkpt lat="47.27408" lon="-2.48144">
        <ele>-11.60000038147</ele>
        <time>2020-01-16T10:15:36.000Z</time>
      </trkpt>
      <trkpt lat="47.27407" lon="-2.48139">
        <ele>-12.199999809265</ele>
        <time>2020-01-16T10:15:37.000Z</time>
      </trkpt>
      <trkpt lat="47.27405" lon="-2.48133">
        <ele>-12.800000190735</ele>
        <time>2020-01-16T10:15:38.000Z</time>
      </trkpt>
      <trkpt lat="47.27403" lon="-2.48128">
        <ele>-13.39999961853</ele>
        <time>2020-01-16T10:15:39.000Z</time>
      </trkpt>
      <trkpt lat="47.274" lon="-2.48125">
        <ele>-13.39999961853</ele>
        <time>2020-01-16T10:15:40.000Z</time>
      </trkpt>
      <trkpt lat="47.27383" lon="-2.4811">
        <ele>-13.39999961853</ele>
        <time>2020-01-16T10:15:46.000Z</time>
      </trkpt>
      <trkpt lat="47.2737" lon="-2.48103">
        <ele>-14.199999809265</ele>
        <time>2020-01-16T10:15:50.000Z</time>
      </trkpt>
      <trkpt lat="47.27366" lon="-2.481">
        <ele>-14.800000190735</ele>
        <time>2020-01-16T10:15:51.000Z</time>
      </trkpt>
      <trkpt lat="47.27363" lon="-2.48096">
        <ele>-15.199999809265</ele>
        <time>2020-01-16T10:15:52.000Z</time>
      </trkpt>
      <trkpt lat="47.2736" lon="-2.48092">
        <ele>-15.60000038147</ele>
        <time>2020-01-16T10:15:53.000Z</time>
      </trkpt>
      <trkpt lat="47.27354" lon="-2.48093">
        <ele>-15.60000038147</ele>
        <time>2020-01-16T10:15:55.000Z</time>
      </trkpt>
      <trkpt lat="47.27352" lon="-2.48094">
        <ele>-15.60000038147</ele>
        <time>2020-01-16T10:15:56.000Z</time>
      </trkpt>
      <trkpt lat="47.2735" lon="-2.48098">
        <ele>-15.60000038147</ele>
        <time>2020-01-16T10:15:58.000Z</time>
      </trkpt>
      <trkpt lat="47.2735" lon="-2.48103">
        <ele>-16</ele>
        <time>2020-01-16T10:16:00.000Z</time>
      </trkpt>
      <trkpt lat="47.27348" lon="-2.48105">
        <ele>-16.60000038147</ele>
        <time>2020-01-16T10:16:01.000Z</time>
      </trkpt>
      <trkpt lat="47.27346" lon="-2.48104">
        <ele>-17</ele>
        <time>2020-01-16T10:16:02.000Z</time>
      </trkpt>
      <trkpt lat="47.27344" lon="-2.48103">
        <ele>-17.39999961853</ele>
        <time>2020-01-16T10:16:03.000Z</time>
      </trkpt>
      <trkpt lat="47.27342" lon="-2.48102">
        <ele>-17.799999237061</ele>
        <time>2020-01-16T10:16:04.000Z</time>
      </trkpt>
      <trkpt lat="47.27327" lon="-2.48098">
        <ele>-17.799999237061</ele>
        <time>2020-01-16T10:16:08.000Z</time>
      </trkpt>
      <trkpt lat="47.27309" lon="-2.48094">
        <ele>-17.799999237061</ele>
        <time>2020-01-16T10:16:14.000Z</time>
      </trkpt>
      <trkpt lat="47.27306" lon="-2.48094">
        <ele>-17.799999237061</ele>
        <time>2020-01-16T10:16:17.000Z</time>
      </trkpt>
      <trkpt lat="47.27312" lon="-2.48095">
        <ele>-17.799999237061</ele>
        <time>2020-01-16T10:25:16.000Z</time>
      </trkpt>
      <trkpt lat="47.27323" lon="-2.48098">
        <ele>-17.799999237061</ele>
        <time>2020-01-16T10:25:21.000Z</time>
      </trkpt>
      <trkpt lat="47.27338" lon="-2.48101">
        <ele>-17.799999237061</ele>
        <time>2020-01-16T10:25:28.000Z</time>
      </trkpt>
      <trkpt lat="47.27348" lon="-2.48105">
        <ele>-17.799999237061</ele>
        <time>2020-01-16T10:25:35.000Z</time>
      </trkpt>
      <trkpt lat="47.27354" lon="-2.48103">
        <ele>-17.799999237061</ele>
        <time>2020-01-16T10:25:39.000Z</time>
      </trkpt>
      <trkpt lat="47.27355" lon="-2.48099">
        <ele>-17.799999237061</ele>
        <time>2020-01-16T10:25:41.000Z</time>
      </trkpt>
      <trkpt lat="47.27354" lon="-2.48096">
        <ele>-17.799999237061</ele>
        <time>2020-01-16T10:25:43.000Z</time>
      </trkpt>
      <trkpt lat="47.27352" lon="-2.48095">
        <ele>-17.799999237061</ele>
        <time>2020-01-16T10:25:44.000Z</time>
      </trkpt>
      <trkpt lat="47.27333" lon="-2.48094">
        <ele>-17.799999237061</ele>
        <time>2020-01-16T10:25:49.000Z</time>
      </trkpt>
      <trkpt lat="47.27329" lon="-2.48092">
        <ele>-17.799999237061</ele>
        <time>2020-01-16T10:25:50.000Z</time>
      </trkpt>
      <trkpt lat="47.27307" lon="-2.48089">
        <ele>-17.799999237061</ele>
        <time>2020-01-16T10:25:56.000Z</time>
      </trkpt>
      <trkpt lat="47.27291" lon="-2.48087">
        <ele>-17.39999961853</ele>
        <time>2020-01-16T10:26:01.000Z</time>
      </trkpt>
      <trkpt lat="47.27288" lon="-2.48086">
        <ele>-16.799999237061</ele>
        <time>2020-01-16T10:26:02.000Z</time>
      </trkpt>
      <trkpt lat="47.27285" lon="-2.48086">
        <ele>-16.39999961853</ele>
        <time>2020-01-16T10:26:03.000Z</time>
      </trkpt>
      <trkpt lat="47.27283" lon="-2.48086">
        <ele>-15.800000190735</ele>
        <time>2020-01-16T10:26:04.000Z</time>
      </trkpt>
      <trkpt lat="47.2728" lon="-2.48086">
        <ele>-15.39999961853</ele>
        <time>2020-01-16T10:26:05.000Z</time>
      </trkpt>
      <trkpt lat="47.27278" lon="-2.48086">
        <ele>-14.800000190735</ele>
        <time>2020-01-16T10:26:06.000Z</time>
      </trkpt>
      <trkpt lat="47.27276" lon="-2.48085">
        <ele>-14</ele>
        <time>2020-01-16T10:26:07.000Z</time>
      </trkpt>
      <trkpt lat="47.27275" lon="-2.48084">
        <ele>-13</ele>
        <time>2020-01-16T10:26:08.000Z</time>
      </trkpt>
      <trkpt lat="47.27274" lon="-2.48083">
        <ele>-11.800000190735</ele>
        <time>2020-01-16T10:26:09.000Z</time>
      </trkpt>
      <trkpt lat="47.27273" lon="-2.48081">
        <ele>-10.60000038147</ele>
        <time>2020-01-16T10:26:10.000Z</time>
      </trkpt>
      <trkpt lat="47.27273" lon="-2.48078">
        <ele>-9.3999996185303</ele>
        <time>2020-01-16T10:26:11.000Z</time>
      </trkpt>
      <trkpt lat="47.27273" lon="-2.48075">
        <ele>-9.3999996185303</ele>
        <time>2020-01-16T10:26:12.000Z</time>
      </trkpt>
      <trkpt lat="47.27273" lon="-2.48071">
        <ele>-9.1999998092651</ele>
        <time>2020-01-16T10:26:13.000Z</time>
      </trkpt>
      <trkpt lat="47.27273" lon="-2.48068">
        <ele>-9.8000001907349</ele>
        <time>2020-01-16T10:26:14.000Z</time>
      </trkpt>
      <trkpt lat="47.27273" lon="-2.48065">
        <ele>-10.199999809265</ele>
        <time>2020-01-16T10:26:15.000Z</time>
      </trkpt>
      <trkpt lat="47.27273" lon="-2.48061">
        <ele>-10.800000190735</ele>
        <time>2020-01-16T10:26:16.000Z</time>
      </trkpt>
      <trkpt lat="47.27273" lon="-2.48057">
        <ele>-11.199999809265</ele>
        <time>2020-01-16T10:26:17.000Z</time>
      </trkpt>
      <trkpt lat="47.27272" lon="-2.48053">
        <ele>-11.800000190735</ele>
        <time>2020-01-16T10:26:18.000Z</time>
      </trkpt>
      <trkpt lat="47.27268" lon="-2.48033">
        <ele>-11.800000190735</ele>
        <time>2020-01-16T10:26:23.000Z</time>
      </trkpt>
      <trkpt lat="47.27264" lon="-2.48014">
        <ele>-11.800000190735</ele>
        <time>2020-01-16T10:26:29.000Z</time>
      </trkpt>
      <trkpt lat="47.27264" lon="-2.48012">
        <ele>-12.39999961853</ele>
        <time>2020-01-16T10:26:30.000Z</time>
      </trkpt>
      <trkpt lat="47.27265" lon="-2.48009">
        <ele>-13</ele>
        <time>2020-01-16T10:26:31.000Z</time>
      </trkpt>
      <trkpt lat="47.27265" lon="-2.48004">
        <ele>-14.199999809265</ele>
        <time>2020-01-16T10:26:32.000Z</time>
      </trkpt>
      <trkpt lat="47.27264" lon="-2.47999">
        <ele>-15</ele>
        <time>2020-01-16T10:26:33.000Z</time>
      </trkpt>
      <trkpt lat="47.27264" lon="-2.47994">
        <ele>-15.39999961853</ele>
        <time>2020-01-16T10:26:34.000Z</time>
      </trkpt>
      <trkpt lat="47.27265" lon="-2.47989">
        <ele>-16</ele>
        <time>2020-01-16T10:26:35.000Z</time>
      </trkpt>
      <trkpt lat="47.27266" lon="-2.47985">
        <ele>-16.39999961853</ele>
        <time>2020-01-16T10:26:36.000Z</time>
      </trkpt>
      <trkpt lat="47.27268" lon="-2.4798">
        <ele>-16.200000762939</ele>
        <time>2020-01-16T10:26:37.000Z</time>
      </trkpt>
      <trkpt lat="47.27269" lon="-2.47976">
        <ele>-16</ele>
        <time>2020-01-16T10:26:38.000Z</time>
      </trkpt>
      <trkpt lat="47.27271" lon="-2.47971">
        <ele>-15.39999961853</ele>
        <time>2020-01-16T10:26:39.000Z</time>
      </trkpt>
      <trkpt lat="47.27273" lon="-2.47966">
        <ele>-14.800000190735</ele>
        <time>2020-01-16T10:26:40.000Z</time>
      </trkpt>
      <trkpt lat="47.27275" lon="-2.47962">
        <ele>-14.199999809265</ele>
        <time>2020-01-16T10:26:41.000Z</time>
      </trkpt>
      <trkpt lat="47.27276" lon="-2.47957">
        <ele>-13.60000038147</ele>
        <time>2020-01-16T10:26:42.000Z</time>
      </trkpt>
      <trkpt lat="47.27277" lon="-2.47952">
        <ele>-13</ele>
        <time>2020-01-16T10:26:43.000Z</time>
      </trkpt>
      <trkpt lat="47.27278" lon="-2.47947">
        <ele>-13.39999961853</ele>
        <time>2020-01-16T10:26:44.000Z</time>
      </trkpt>
      <trkpt lat="47.2728" lon="-2.47942">
        <ele>-14</ele>
        <time>2020-01-16T10:26:45.000Z</time>
      </trkpt>
      <trkpt lat="47.27281" lon="-2.47936">
        <ele>-14.60000038147</ele>
        <time>2020-01-16T10:26:46.000Z</time>
      </trkpt>
      <trkpt lat="47.27281" lon="-2.47932">
        <ele>-15</ele>
        <time>2020-01-16T10:26:47.000Z</time>
      </trkpt>
      <trkpt lat="47.27282" lon="-2.47928">
        <ele>-15.60000038147</ele>
        <time>2020-01-16T10:26:48.000Z</time>
      </trkpt>
      <trkpt lat="47.27283" lon="-2.4792">
        <ele>-15.60000038147</ele>
        <time>2020-01-16T10:26:50.000Z</time>
      </trkpt>
      <trkpt lat="47.27283" lon="-2.47916">
        <ele>-16.200000762939</ele>
        <time>2020-01-16T10:26:51.000Z</time>
      </trkpt>
      <trkpt lat="47.27283" lon="-2.47913">
        <ele>-16.799999237061</ele>
        <time>2020-01-16T10:26:52.000Z</time>
      </trkpt>
      <trkpt lat="47.27283" lon="-2.47909">
        <ele>-17.39999961853</ele>
        <time>2020-01-16T10:26:53.000Z</time>
      </trkpt>
      <trkpt lat="47.27283" lon="-2.47905">
        <ele>-18</ele>
        <time>2020-01-16T10:26:54.000Z</time>
      </trkpt>
      <trkpt lat="47.27282" lon="-2.47901">
        <ele>-18.60000038147</ele>
        <time>2020-01-16T10:26:55.000Z</time>
      </trkpt>
      <trkpt lat="47.27282" lon="-2.47897">
        <ele>-18.60000038147</ele>
        <time>2020-01-16T10:26:56.000Z</time>
      </trkpt>
      <trkpt lat="47.27281" lon="-2.47873">
        <ele>-18.60000038147</ele>
        <time>2020-01-16T10:27:02.000Z</time>
      </trkpt>
      <trkpt lat="47.27281" lon="-2.47869">
        <ele>-18.60000038147</ele>
        <time>2020-01-16T10:27:05.000Z</time>
      </trkpt>
      <trkpt lat="47.27283" lon="-2.4786">
        <ele>-17.60000038147</ele>
        <time>2020-01-16T10:27:29.000Z</time>
      </trkpt>
      <trkpt lat="47.27284" lon="-2.47858">
        <ele>-17</ele>
        <time>2020-01-16T10:27:30.000Z</time>
      </trkpt>
      <trkpt lat="47.27284" lon="-2.47856">
        <ele>-16.39999961853</ele>
        <time>2020-01-16T10:27:31.000Z</time>
      </trkpt>
      <trkpt lat="47.27284" lon="-2.47855">
        <ele>-15.800000190735</ele>
        <time>2020-01-16T10:27:32.000Z</time>
      </trkpt>
      <trkpt lat="47.27284" lon="-2.47853">
        <ele>-15.199999809265</ele>
        <time>2020-01-16T10:27:33.000Z</time>
      </trkpt>
      <trkpt lat="47.27284" lon="-2.47852">
        <ele>-14.800000190735</ele>
        <time>2020-01-16T10:27:34.000Z</time>
      </trkpt>
      <trkpt lat="47.27284" lon="-2.47851">
        <ele>-14.800000190735</ele>
        <time>2020-01-16T10:27:36.000Z</time>
      </trkpt>
      <trkpt lat="47.27284" lon="-2.4785">
        <ele>-14.800000190735</ele>
        <time>2020-01-16T10:27:37.000Z</time>
      </trkpt>
      <trkpt lat="47.27283" lon="-2.47849">
        <ele>-14.800000190735</ele>
        <time>2020-01-16T10:27:39.000Z</time>
      </trkpt>
      <trkpt lat="47.27279" lon="-2.47843">
        <ele>-14.800000190735</ele>
        <time>2020-01-16T10:27:41.000Z</time>
      </trkpt>
      <trkpt lat="47.27276" lon="-2.47836">
        <ele>-14.800000190735</ele>
        <time>2020-01-16T10:27:43.000Z</time>
      </trkpt>
      <trkpt lat="47.2727" lon="-2.47828">
        <ele>-14.800000190735</ele>
        <time>2020-01-16T10:27:45.000Z</time>
      </trkpt>
      <trkpt lat="47.27263" lon="-2.47818">
        <ele>-14.800000190735</ele>
        <time>2020-01-16T10:27:47.000Z</time>
      </trkpt>
      <trkpt lat="47.27251" lon="-2.47803">
        <ele>-14.800000190735</ele>
        <time>2020-01-16T10:27:50.000Z</time>
      </trkpt>
      <trkpt lat="47.27229" lon="-2.4776">
        <ele>-14.800000190735</ele>
        <time>2020-01-16T10:27:57.000Z</time>
      </trkpt>
      <trkpt lat="47.27225" lon="-2.47748">
        <ele>-14.800000190735</ele>
        <time>2020-01-16T10:27:59.000Z</time>
      </trkpt>
      <trkpt lat="47.27223" lon="-2.47742">
        <ele>-14.199999809265</ele>
        <time>2020-01-16T10:28:00.000Z</time>
      </trkpt>
      <trkpt lat="47.27221" lon="-2.47736">
        <ele>-13.60000038147</ele>
        <time>2020-01-16T10:28:01.000Z</time>
      </trkpt>
      <trkpt lat="47.27219" lon="-2.4773">
        <ele>-13.199999809265</ele>
        <time>2020-01-16T10:28:02.000Z</time>
      </trkpt>
      <trkpt lat="47.27217" lon="-2.47725">
        <ele>-12.60000038147</ele>
        <time>2020-01-16T10:28:03.000Z</time>
      </trkpt>
      <trkpt lat="47.27215" lon="-2.47718">
        <ele>-12</ele>
        <time>2020-01-16T10:28:04.000Z</time>
      </trkpt>
      <trkpt lat="47.27211" lon="-2.47701">
        <ele>-11.60000038147</ele>
        <time>2020-01-16T10:28:07.000Z</time>
      </trkpt>
      <trkpt lat="47.27209" lon="-2.47695">
        <ele>-11.199999809265</ele>
        <time>2020-01-16T10:28:08.000Z</time>
      </trkpt>
      <trkpt lat="47.27208" lon="-2.47689">
        <ele>-10.800000190735</ele>
        <time>2020-01-16T10:28:09.000Z</time>
      </trkpt>
      <trkpt lat="47.27207" lon="-2.47682">
        <ele>-11</ele>
        <time>2020-01-16T10:28:10.000Z</time>
      </trkpt>
      <trkpt lat="47.27206" lon="-2.47676">
        <ele>-11.39999961853</ele>
        <time>2020-01-16T10:28:11.000Z</time>
      </trkpt>
      <trkpt lat="47.27205" lon="-2.4767">
        <ele>-11.60000038147</ele>
        <time>2020-01-16T10:28:12.000Z</time>
      </trkpt>
      <trkpt lat="47.27204" lon="-2.47663">
        <ele>-11.800000190735</ele>
        <time>2020-01-16T10:28:13.000Z</time>
      </trkpt>
      <trkpt lat="47.27201" lon="-2.47658">
        <ele>-11.800000190735</ele>
        <time>2020-01-16T10:28:14.000Z</time>
      </trkpt>
      <trkpt lat="47.27198" lon="-2.47638">
        <ele>-11.800000190735</ele>
        <time>2020-01-16T10:28:17.000Z</time>
      </trkpt>
      <trkpt lat="47.27197" lon="-2.47623">
        <ele>-11.800000190735</ele>
        <time>2020-01-16T10:28:19.000Z</time>
      </trkpt>
      <trkpt lat="47.27195" lon="-2.47593">
        <ele>-11.800000190735</ele>
        <time>2020-01-16T10:28:23.000Z</time>
      </trkpt>
      <trkpt lat="47.27194" lon="-2.4757">
        <ele>-12.39999961853</ele>
        <time>2020-01-16T10:28:26.000Z</time>
      </trkpt>
      <trkpt lat="47.27193" lon="-2.47563">
        <ele>-13</ele>
        <time>2020-01-16T10:28:27.000Z</time>
      </trkpt>
      <trkpt lat="47.27193" lon="-2.47555">
        <ele>-13.39999961853</ele>
        <time>2020-01-16T10:28:28.000Z</time>
      </trkpt>
      <trkpt lat="47.27192" lon="-2.47547">
        <ele>-14</ele>
        <time>2020-01-16T10:28:29.000Z</time>
      </trkpt>
      <trkpt lat="47.27192" lon="-2.47539">
        <ele>-14.39999961853</ele>
        <time>2020-01-16T10:28:30.000Z</time>
      </trkpt>
      <trkpt lat="47.27189" lon="-2.47516">
        <ele>-14.39999961853</ele>
        <time>2020-01-16T10:28:33.000Z</time>
      </trkpt>
      <trkpt lat="47.27184" lon="-2.47493">
        <ele>-14.39999961853</ele>
        <time>2020-01-16T10:28:36.000Z</time>
      </trkpt>
      <trkpt lat="47.2718" lon="-2.47479">
        <ele>-14.39999961853</ele>
        <time>2020-01-16T10:28:38.000Z</time>
      </trkpt>
      <trkpt lat="47.27174" lon="-2.47459">
        <ele>-14.39999961853</ele>
        <time>2020-01-16T10:28:41.000Z</time>
      </trkpt>
      <trkpt lat="47.27171" lon="-2.47452">
        <ele>-14</ele>
        <time>2020-01-16T10:28:42.000Z</time>
      </trkpt>
      <trkpt lat="47.27168" lon="-2.47445">
        <ele>-13.39999961853</ele>
        <time>2020-01-16T10:28:43.000Z</time>
      </trkpt>
      <trkpt lat="47.27166" lon="-2.47439">
        <ele>-13</ele>
        <time>2020-01-16T10:28:44.000Z</time>
      </trkpt>
      <trkpt lat="47.27163" lon="-2.47432">
        <ele>-12.60000038147</ele>
        <time>2020-01-16T10:28:45.000Z</time>
      </trkpt>
      <trkpt lat="47.2716" lon="-2.47425">
        <ele>-12</ele>
        <time>2020-01-16T10:28:46.000Z</time>
      </trkpt>
      <trkpt lat="47.27152" lon="-2.47405">
        <ele>-12</ele>
        <time>2020-01-16T10:28:49.000Z</time>
      </trkpt>
      <trkpt lat="47.27133" lon="-2.47346">
        <ele>-12</ele>
        <time>2020-01-16T10:28:57.000Z</time>
      </trkpt>
      <trkpt lat="47.27127" lon="-2.47298">
        <ele>-12</ele>
        <time>2020-01-16T10:29:03.000Z</time>
      </trkpt>
      <trkpt lat="47.27127" lon="-2.4729">
        <ele>-11.60000038147</ele>
        <time>2020-01-16T10:29:04.000Z</time>
      </trkpt>
      <trkpt lat="47.27126" lon="-2.47282">
        <ele>-11.199999809265</ele>
        <time>2020-01-16T10:29:05.000Z</time>
      </trkpt>
      <trkpt lat="47.27126" lon="-2.47274">
        <ele>-10.800000190735</ele>
        <time>2020-01-16T10:29:06.000Z</time>
      </trkpt>
      <trkpt lat="47.27126" lon="-2.47266">
        <ele>-10.199999809265</ele>
        <time>2020-01-16T10:29:07.000Z</time>
      </trkpt>
      <trkpt lat="47.27125" lon="-2.47258">
        <ele>-9.8000001907349</ele>
        <time>2020-01-16T10:29:08.000Z</time>
      </trkpt>
      <trkpt lat="47.27124" lon="-2.4725">
        <ele>-9.8000001907349</ele>
        <time>2020-01-16T10:29:09.000Z</time>
      </trkpt>
      <trkpt lat="47.27121" lon="-2.47201">
        <ele>-9.8000001907349</ele>
        <time>2020-01-16T10:29:15.000Z</time>
      </trkpt>
      <trkpt lat="47.2712" lon="-2.47185">
        <ele>-9.8000001907349</ele>
        <time>2020-01-16T10:29:17.000Z</time>
      </trkpt>
      <trkpt lat="47.27116" lon="-2.47152">
        <ele>-9.8000001907349</ele>
        <time>2020-01-16T10:29:21.000Z</time>
      </trkpt>
      <trkpt lat="47.27114" lon="-2.47106">
        <ele>-9.8000001907349</ele>
        <time>2020-01-16T10:29:27.000Z</time>
      </trkpt>
      <trkpt lat="47.27113" lon="-2.47084">
        <ele>-9.8000001907349</ele>
        <time>2020-01-16T10:29:30.000Z</time>
      </trkpt>
      <trkpt lat="47.27115" lon="-2.4707">
        <ele>-9.8000001907349</ele>
        <time>2020-01-16T10:29:32.000Z</time>
      </trkpt>
      <trkpt lat="47.27117" lon="-2.47063">
        <ele>-9.8000001907349</ele>
        <time>2020-01-16T10:29:33.000Z</time>
      </trkpt>
      <trkpt lat="47.27132" lon="-2.47055">
        <ele>-9.8000001907349</ele>
        <time>2020-01-16T10:29:36.000Z</time>
      </trkpt>
      <trkpt lat="47.27145" lon="-2.47054">
        <ele>-9.8000001907349</ele>
        <time>2020-01-16T10:29:38.000Z</time>
      </trkpt>
      <trkpt lat="47.27174" lon="-2.47049">
        <ele>-9.8000001907349</ele>
        <time>2020-01-16T10:29:43.000Z</time>
      </trkpt>
      <trkpt lat="47.27195" lon="-2.47043">
        <ele>-9.8000001907349</ele>
        <time>2020-01-16T10:29:47.000Z</time>
      </trkpt>
      <trkpt lat="47.27201" lon="-2.47042">
        <ele>-9.8000001907349</ele>
        <time>2020-01-16T10:29:48.000Z</time>
      </trkpt>
      <trkpt lat="47.27232" lon="-2.47038">
        <ele>-9.3999996185303</ele>
        <time>2020-01-16T10:29:54.000Z</time>
      </trkpt>
      <trkpt lat="47.27237" lon="-2.47037">
        <ele>-9</ele>
        <time>2020-01-16T10:29:55.000Z</time>
      </trkpt>
      <trkpt lat="47.27243" lon="-2.47037">
        <ele>-8.6000003814697</ele>
        <time>2020-01-16T10:29:56.000Z</time>
      </trkpt>
      <trkpt lat="47.27248" lon="-2.47037">
        <ele>-8</ele>
        <time>2020-01-16T10:29:57.000Z</time>
      </trkpt>
      <trkpt lat="47.27254" lon="-2.47037">
        <ele>-7.5999999046326</ele>
        <time>2020-01-16T10:29:58.000Z</time>
      </trkpt>
      <trkpt lat="47.27274" lon="-2.47037">
        <ele>-7.5999999046326</ele>
        <time>2020-01-16T10:30:02.000Z</time>
      </trkpt>
      <trkpt lat="47.27309" lon="-2.47031">
        <ele>-7.5999999046326</ele>
        <time>2020-01-16T10:30:08.000Z</time>
      </trkpt>
      <trkpt lat="47.27331" lon="-2.47011">
        <ele>-7.5999999046326</ele>
        <time>2020-01-16T10:30:12.000Z</time>
      </trkpt>
      <trkpt lat="47.27342" lon="-2.47003">
        <ele>-7.5999999046326</ele>
        <time>2020-01-16T10:30:14.000Z</time>
      </trkpt>
      <trkpt lat="47.27348" lon="-2.47001">
        <ele>-7.5999999046326</ele>
        <time>2020-01-16T10:30:15.000Z</time>
      </trkpt>
      <trkpt lat="47.27354" lon="-2.46998">
        <ele>-7.5999999046326</ele>
        <time>2020-01-16T10:30:16.000Z</time>
      </trkpt>
      <trkpt lat="47.27385" lon="-2.46984">
        <ele>-7.5999999046326</ele>
        <time>2020-01-16T10:30:21.000Z</time>
      </trkpt>
      <trkpt lat="47.27422" lon="-2.46967">
        <ele>-8</ele>
        <time>2020-01-16T10:30:27.000Z</time>
      </trkpt>
      <trkpt lat="47.27428" lon="-2.46962">
        <ele>-8.6000003814697</ele>
        <time>2020-01-16T10:30:28.000Z</time>
      </trkpt>
      <trkpt lat="47.27433" lon="-2.46957">
        <ele>-9</ele>
        <time>2020-01-16T10:30:29.000Z</time>
      </trkpt>
      <trkpt lat="47.27439" lon="-2.46952">
        <ele>-9.3999996185303</ele>
        <time>2020-01-16T10:30:30.000Z</time>
      </trkpt>
      <trkpt lat="47.27445" lon="-2.46947">
        <ele>-9.8000001907349</ele>
        <time>2020-01-16T10:30:31.000Z</time>
      </trkpt>
      <trkpt lat="47.27465" lon="-2.46933">
        <ele>-10.39999961853</ele>
        <time>2020-01-16T10:30:34.000Z</time>
      </trkpt>
      <trkpt lat="47.27471" lon="-2.46926">
        <ele>-10.800000190735</ele>
        <time>2020-01-16T10:30:35.000Z</time>
      </trkpt>
      <trkpt lat="47.27477" lon="-2.46917">
        <ele>-11.199999809265</ele>
        <time>2020-01-16T10:30:36.000Z</time>
      </trkpt>
      <trkpt lat="47.2748" lon="-2.46908">
        <ele>-11.800000190735</ele>
        <time>2020-01-16T10:30:37.000Z</time>
      </trkpt>
      <trkpt lat="47.27483" lon="-2.46898">
        <ele>-12.199999809265</ele>
        <time>2020-01-16T10:30:38.000Z</time>
      </trkpt>
      <trkpt lat="47.27485" lon="-2.46889">
        <ele>-12.199999809265</ele>
        <time>2020-01-16T10:30:39.000Z</time>
      </trkpt>
      <trkpt lat="47.27486" lon="-2.4688">
        <ele>-12.199999809265</ele>
        <time>2020-01-16T10:30:40.000Z</time>
      </trkpt>
      <trkpt lat="47.27484" lon="-2.46862">
        <ele>-12.199999809265</ele>
        <time>2020-01-16T10:30:42.000Z</time>
      </trkpt>
      <trkpt lat="47.27477" lon="-2.46843">
        <ele>-12.199999809265</ele>
        <time>2020-01-16T10:30:44.000Z</time>
      </trkpt>
      <trkpt lat="47.27468" lon="-2.46817">
        <ele>-12.199999809265</ele>
        <time>2020-01-16T10:30:47.000Z</time>
      </trkpt>
      <trkpt lat="47.27447" lon="-2.46751">
        <ele>-12.199999809265</ele>
        <time>2020-01-16T10:30:54.000Z</time>
      </trkpt>
      <trkpt lat="47.27424" lon="-2.46677">
        <ele>-12.199999809265</ele>
        <time>2020-01-16T10:31:02.000Z</time>
      </trkpt>
      <trkpt lat="47.27417" lon="-2.46661">
        <ele>-12.199999809265</ele>
        <time>2020-01-16T10:31:04.000Z</time>
      </trkpt>
      <trkpt lat="47.27414" lon="-2.46654">
        <ele>-12.800000190735</ele>
        <time>2020-01-16T10:31:05.000Z</time>
      </trkpt>
      <trkpt lat="47.27412" lon="-2.46645">
        <ele>-13.199999809265</ele>
        <time>2020-01-16T10:31:06.000Z</time>
      </trkpt>
      <trkpt lat="47.27409" lon="-2.46636">
        <ele>-13.800000190735</ele>
        <time>2020-01-16T10:31:07.000Z</time>
      </trkpt>
      <trkpt lat="47.27407" lon="-2.46628">
        <ele>-13.60000038147</ele>
        <time>2020-01-16T10:31:08.000Z</time>
      </trkpt>
      <trkpt lat="47.27404" lon="-2.4662">
        <ele>-13.39999961853</ele>
        <time>2020-01-16T10:31:09.000Z</time>
      </trkpt>
      <trkpt lat="47.27402" lon="-2.46612">
        <ele>-13</ele>
        <time>2020-01-16T10:31:10.000Z</time>
      </trkpt>
      <trkpt lat="47.274" lon="-2.46604">
        <ele>-12.800000190735</ele>
        <time>2020-01-16T10:31:11.000Z</time>
      </trkpt>
      <trkpt lat="47.27397" lon="-2.46597">
        <ele>-12.60000038147</ele>
        <time>2020-01-16T10:31:12.000Z</time>
      </trkpt>
      <trkpt lat="47.27394" lon="-2.4659">
        <ele>-12.60000038147</ele>
        <time>2020-01-16T10:31:13.000Z</time>
      </trkpt>
      <trkpt lat="47.27378" lon="-2.46536">
        <ele>-12.60000038147</ele>
        <time>2020-01-16T10:31:20.000Z</time>
      </trkpt>
      <trkpt lat="47.27362" lon="-2.46489">
        <ele>-12.60000038147</ele>
        <time>2020-01-16T10:31:26.000Z</time>
      </trkpt>
      <trkpt lat="47.27353" lon="-2.46465">
        <ele>-13</ele>
        <time>2020-01-16T10:31:29.000Z</time>
      </trkpt>
      <trkpt lat="47.27351" lon="-2.46456">
        <ele>-13.39999961853</ele>
        <time>2020-01-16T10:31:30.000Z</time>
      </trkpt>
      <trkpt lat="47.27349" lon="-2.46448">
        <ele>-13.800000190735</ele>
        <time>2020-01-16T10:31:31.000Z</time>
      </trkpt>
      <trkpt lat="47.27346" lon="-2.4644">
        <ele>-14.199999809265</ele>
        <time>2020-01-16T10:31:32.000Z</time>
      </trkpt>
      <trkpt lat="47.27343" lon="-2.46431">
        <ele>-14.60000038147</ele>
        <time>2020-01-16T10:31:33.000Z</time>
      </trkpt>
      <trkpt lat="47.27329" lon="-2.46389">
        <ele>-14.60000038147</ele>
        <time>2020-01-16T10:31:38.000Z</time>
      </trkpt>
      <trkpt lat="47.27309" lon="-2.46331">
        <ele>-14.60000038147</ele>
        <time>2020-01-16T10:31:45.000Z</time>
      </trkpt>
      <trkpt lat="47.27286" lon="-2.46277">
        <ele>-14.60000038147</ele>
        <time>2020-01-16T10:31:52.000Z</time>
      </trkpt>
      <trkpt lat="47.27261" lon="-2.46219">
        <ele>-14.60000038147</ele>
        <time>2020-01-16T10:32:00.000Z</time>
      </trkpt>
      <trkpt lat="47.2724" lon="-2.46154">
        <ele>-14.60000038147</ele>
        <time>2020-01-16T10:32:08.000Z</time>
      </trkpt>
      <trkpt lat="47.27228" lon="-2.46093">
        <ele>-14.60000038147</ele>
        <time>2020-01-16T10:32:15.000Z</time>
      </trkpt>
      <trkpt lat="47.27211" lon="-2.46019">
        <ele>-14.60000038147</ele>
        <time>2020-01-16T10:32:24.000Z</time>
      </trkpt>
      <trkpt lat="47.27187" lon="-2.4595">
        <ele>-14.60000038147</ele>
        <time>2020-01-16T10:32:33.000Z</time>
      </trkpt>
      <trkpt lat="47.27172" lon="-2.45911">
        <ele>-14.60000038147</ele>
        <time>2020-01-16T10:32:39.000Z</time>
      </trkpt>
      <trkpt lat="47.2717" lon="-2.45897">
        <ele>-14.60000038147</ele>
        <time>2020-01-16T10:32:42.000Z</time>
      </trkpt>
      <trkpt lat="47.27172" lon="-2.45893">
        <ele>-14.60000038147</ele>
        <time>2020-01-16T10:32:43.000Z</time>
      </trkpt>
      <trkpt lat="47.27186" lon="-2.4588">
        <ele>-14.60000038147</ele>
        <time>2020-01-16T10:32:47.000Z</time>
      </trkpt>
      <trkpt lat="47.27192" lon="-2.45877">
        <ele>-14.60000038147</ele>
        <time>2020-01-16T10:32:48.000Z</time>
      </trkpt>
      <trkpt lat="47.27214" lon="-2.45867">
        <ele>-14.60000038147</ele>
        <time>2020-01-16T10:32:52.000Z</time>
      </trkpt>
      <trkpt lat="47.2722" lon="-2.45864">
        <ele>-14.60000038147</ele>
        <time>2020-01-16T10:32:53.000Z</time>
      </trkpt>
      <trkpt lat="47.2727" lon="-2.45835">
        <ele>-14.60000038147</ele>
        <time>2020-01-16T10:33:01.000Z</time>
      </trkpt>
      <trkpt lat="47.27295" lon="-2.4582">
        <ele>-15</ele>
        <time>2020-01-16T10:33:05.000Z</time>
      </trkpt>
      <trkpt lat="47.27301" lon="-2.45816">
        <ele>-15.39999961853</ele>
        <time>2020-01-16T10:33:06.000Z</time>
      </trkpt>
      <trkpt lat="47.27307" lon="-2.45812">
        <ele>-16.200000762939</ele>
        <time>2020-01-16T10:33:07.000Z</time>
      </trkpt>
      <trkpt lat="47.27314" lon="-2.45808">
        <ele>-16.60000038147</ele>
        <time>2020-01-16T10:33:08.000Z</time>
      </trkpt>
      <trkpt lat="47.27332" lon="-2.45796">
        <ele>-16.60000038147</ele>
        <time>2020-01-16T10:33:11.000Z</time>
      </trkpt>
      <trkpt lat="47.27365" lon="-2.4578">
        <ele>-16.60000038147</ele>
        <time>2020-01-16T10:33:17.000Z</time>
      </trkpt>
      <trkpt lat="47.27371" lon="-2.45773">
        <ele>-16.60000038147</ele>
        <time>2020-01-16T10:33:19.000Z</time>
      </trkpt>
      <trkpt lat="47.27371" lon="-2.45768">
        <ele>-16.60000038147</ele>
        <time>2020-01-16T10:33:20.000Z</time>
      </trkpt>
      <trkpt lat="47.27367" lon="-2.45752">
        <ele>-16.60000038147</ele>
        <time>2020-01-16T10:33:23.000Z</time>
      </trkpt>
      <trkpt lat="47.27364" lon="-2.45746">
        <ele>-16.60000038147</ele>
        <time>2020-01-16T10:33:24.000Z</time>
      </trkpt>
      <trkpt lat="47.27348" lon="-2.45699">
        <ele>-16.60000038147</ele>
        <time>2020-01-16T10:33:31.000Z</time>
      </trkpt>
      <trkpt lat="47.27345" lon="-2.45693">
        <ele>-16.60000038147</ele>
        <time>2020-01-16T10:33:32.000Z</time>
      </trkpt>
      <trkpt lat="47.27334" lon="-2.45666">
        <ele>-16.60000038147</ele>
        <time>2020-01-16T10:33:37.000Z</time>
      </trkpt>
      <trkpt lat="47.27333" lon="-2.45661">
        <ele>-16.60000038147</ele>
        <time>2020-01-16T10:33:38.000Z</time>
      </trkpt>
      <trkpt lat="47.27323" lon="-2.45623">
        <ele>-16.60000038147</ele>
        <time>2020-01-16T10:33:43.000Z</time>
      </trkpt>
      <trkpt lat="47.27326" lon="-2.45605">
        <ele>-16.60000038147</ele>
        <time>2020-01-16T10:33:46.000Z</time>
      </trkpt>
      <trkpt lat="47.2734" lon="-2.45593">
        <ele>-16.60000038147</ele>
        <time>2020-01-16T10:33:50.000Z</time>
      </trkpt>
      <trkpt lat="47.27349" lon="-2.45588">
        <ele>-16.60000038147</ele>
        <time>2020-01-16T10:33:52.000Z</time>
      </trkpt>
      <trkpt lat="47.27358" lon="-2.45582">
        <ele>-16.60000038147</ele>
        <time>2020-01-16T10:33:54.000Z</time>
      </trkpt>
      <trkpt lat="47.27363" lon="-2.45578">
        <ele>-16.60000038147</ele>
        <time>2020-01-16T10:33:55.000Z</time>
      </trkpt>
      <trkpt lat="47.27368" lon="-2.45576">
        <ele>-16.60000038147</ele>
        <time>2020-01-16T10:33:56.000Z</time>
      </trkpt>
      <trkpt lat="47.27382" lon="-2.45573">
        <ele>-16.60000038147</ele>
        <time>2020-01-16T10:33:59.000Z</time>
      </trkpt>
      <trkpt lat="47.27388" lon="-2.45571">
        <ele>-16.60000038147</ele>
        <time>2020-01-16T10:34:00.000Z</time>
      </trkpt>
      <trkpt lat="47.27405" lon="-2.45566">
        <ele>-16.60000038147</ele>
        <time>2020-01-16T10:34:03.000Z</time>
      </trkpt>
      <trkpt lat="47.27422" lon="-2.45557">
        <ele>-16.60000038147</ele>
        <time>2020-01-16T10:34:06.000Z</time>
      </trkpt>
      <trkpt lat="47.27427" lon="-2.45553">
        <ele>-16.60000038147</ele>
        <time>2020-01-16T10:34:07.000Z</time>
      </trkpt>
      <trkpt lat="47.27434" lon="-2.4554">
        <ele>-16.60000038147</ele>
        <time>2020-01-16T10:34:09.000Z</time>
      </trkpt>
      <trkpt lat="47.27436" lon="-2.45518">
        <ele>-16.60000038147</ele>
        <time>2020-01-16T10:34:12.000Z</time>
      </trkpt>
      <trkpt lat="47.27442" lon="-2.4551">
        <ele>-16.60000038147</ele>
        <time>2020-01-16T10:34:15.000Z</time>
      </trkpt>
      <trkpt lat="47.2746" lon="-2.45497">
        <ele>-16.60000038147</ele>
        <time>2020-01-16T10:34:20.000Z</time>
      </trkpt>
      <trkpt lat="47.2747" lon="-2.45492">
        <ele>-16.60000038147</ele>
        <time>2020-01-16T10:34:22.000Z</time>
      </trkpt>
      <trkpt lat="47.27486" lon="-2.4548">
        <ele>-16.60000038147</ele>
        <time>2020-01-16T10:34:25.000Z</time>
      </trkpt>
      <trkpt lat="47.2749" lon="-2.45476">
        <ele>-16.60000038147</ele>
        <time>2020-01-16T10:34:26.000Z</time>
      </trkpt>
      <trkpt lat="47.27495" lon="-2.45464">
        <ele>-16.60000038147</ele>
        <time>2020-01-16T10:34:28.000Z</time>
      </trkpt>
      <trkpt lat="47.27492" lon="-2.45444">
        <ele>-16.60000038147</ele>
        <time>2020-01-16T10:34:31.000Z</time>
      </trkpt>
      <trkpt lat="47.27487" lon="-2.45408">
        <ele>-16.60000038147</ele>
        <time>2020-01-16T10:34:36.000Z</time>
      </trkpt>
      <trkpt lat="47.27489" lon="-2.45403">
        <ele>-17</ele>
        <time>2020-01-16T10:34:37.000Z</time>
      </trkpt>
      <trkpt lat="47.27492" lon="-2.45399">
        <ele>-17.60000038147</ele>
        <time>2020-01-16T10:34:38.000Z</time>
      </trkpt>
      <trkpt lat="47.27496" lon="-2.45397">
        <ele>-18</ele>
        <time>2020-01-16T10:34:39.000Z</time>
      </trkpt>
      <trkpt lat="47.27501" lon="-2.45397">
        <ele>-18.39999961853</ele>
        <time>2020-01-16T10:34:40.000Z</time>
      </trkpt>
      <trkpt lat="47.27507" lon="-2.45396">
        <ele>-18.799999237061</ele>
        <time>2020-01-16T10:34:41.000Z</time>
      </trkpt>
      <trkpt lat="47.27512" lon="-2.45394">
        <ele>-18.799999237061</ele>
        <time>2020-01-16T10:34:42.000Z</time>
      </trkpt>
      <trkpt lat="47.27529" lon="-2.45386">
        <ele>-18.799999237061</ele>
        <time>2020-01-16T10:34:45.000Z</time>
      </trkpt>
      <trkpt lat="47.27561" lon="-2.45372">
        <ele>-18.799999237061</ele>
        <time>2020-01-16T10:34:51.000Z</time>
      </trkpt>
      <trkpt lat="47.27591" lon="-2.45362">
        <ele>-18.799999237061</ele>
        <time>2020-01-16T10:34:57.000Z</time>
      </trkpt>
      <trkpt lat="47.27614" lon="-2.45358">
        <ele>-18.799999237061</ele>
        <time>2020-01-16T10:35:02.000Z</time>
      </trkpt>
      <trkpt lat="47.27618" lon="-2.4535">
        <ele>-18.799999237061</ele>
        <time>2020-01-16T10:35:04.000Z</time>
      </trkpt>
      <trkpt lat="47.27618" lon="-2.45345">
        <ele>-18.799999237061</ele>
        <time>2020-01-16T10:35:05.000Z</time>
      </trkpt>
      <trkpt lat="47.27616" lon="-2.45323">
        <ele>-18.799999237061</ele>
        <time>2020-01-16T10:35:08.000Z</time>
      </trkpt>
      <trkpt lat="47.27615" lon="-2.45315">
        <ele>-18.799999237061</ele>
        <time>2020-01-16T10:35:09.000Z</time>
      </trkpt>
      <trkpt lat="47.27609" lon="-2.45254">
        <ele>-18.799999237061</ele>
        <time>2020-01-16T10:35:16.000Z</time>
      </trkpt>
      <trkpt lat="47.27603" lon="-2.45199">
        <ele>-19.200000762939</ele>
        <time>2020-01-16T10:35:22.000Z</time>
      </trkpt>
      <trkpt lat="47.27601" lon="-2.45191">
        <ele>-19.60000038147</ele>
        <time>2020-01-16T10:35:23.000Z</time>
      </trkpt>
      <trkpt lat="47.276" lon="-2.45182">
        <ele>-20</ele>
        <time>2020-01-16T10:35:24.000Z</time>
      </trkpt>
      <trkpt lat="47.27599" lon="-2.45173">
        <ele>-20.39999961853</ele>
        <time>2020-01-16T10:35:25.000Z</time>
      </trkpt>
      <trkpt lat="47.27598" lon="-2.45163">
        <ele>-20.799999237061</ele>
        <time>2020-01-16T10:35:26.000Z</time>
      </trkpt>
      <trkpt lat="47.27594" lon="-2.45134">
        <ele>-20.799999237061</ele>
        <time>2020-01-16T10:35:29.000Z</time>
      </trkpt>
      <trkpt lat="47.27587" lon="-2.45101">
        <ele>-20.799999237061</ele>
        <time>2020-01-16T10:35:33.000Z</time>
      </trkpt>
      <trkpt lat="47.27583" lon="-2.45093">
        <ele>-20.799999237061</ele>
        <time>2020-01-16T10:35:34.000Z</time>
      </trkpt>
      <trkpt lat="47.27574" lon="-2.45072">
        <ele>-20.799999237061</ele>
        <time>2020-01-16T10:35:37.000Z</time>
      </trkpt>
      <trkpt lat="47.27564" lon="-2.45055">
        <ele>-20.799999237061</ele>
        <time>2020-01-16T10:35:40.000Z</time>
      </trkpt>
      <trkpt lat="47.27558" lon="-2.45046">
        <ele>-20.799999237061</ele>
        <time>2020-01-16T10:35:42.000Z</time>
      </trkpt>
      <trkpt lat="47.27553" lon="-2.45037">
        <ele>-20.799999237061</ele>
        <time>2020-01-16T10:35:44.000Z</time>
      </trkpt>
      <trkpt lat="47.27544" lon="-2.45015">
        <ele>-20.799999237061</ele>
        <time>2020-01-16T10:35:50.000Z</time>
      </trkpt>
      <trkpt lat="47.27535" lon="-2.44987">
        <ele>-20.799999237061</ele>
        <time>2020-01-16T10:35:56.000Z</time>
      </trkpt>
      <trkpt lat="47.27529" lon="-2.4497">
        <ele>-20.799999237061</ele>
        <time>2020-01-16T10:36:01.000Z</time>
      </trkpt>
      <trkpt lat="47.27524" lon="-2.44949">
        <ele>-20.799999237061</ele>
        <time>2020-01-16T10:36:08.000Z</time>
      </trkpt>
      <trkpt lat="47.27516" lon="-2.44922">
        <ele>-20.799999237061</ele>
        <time>2020-01-16T10:36:15.000Z</time>
      </trkpt>
      <trkpt lat="47.27511" lon="-2.44901">
        <ele>-20.39999961853</ele>
        <time>2020-01-16T10:36:19.000Z</time>
      </trkpt>
      <trkpt lat="47.2751" lon="-2.44896">
        <ele>-19.60000038147</ele>
        <time>2020-01-16T10:36:20.000Z</time>
      </trkpt>
      <trkpt lat="47.27509" lon="-2.44891">
        <ele>-19.200000762939</ele>
        <time>2020-01-16T10:36:21.000Z</time>
      </trkpt>
      <trkpt lat="47.27508" lon="-2.44886">
        <ele>-18.799999237061</ele>
        <time>2020-01-16T10:36:22.000Z</time>
      </trkpt>
      <trkpt lat="47.27504" lon="-2.44858">
        <ele>-18.799999237061</ele>
        <time>2020-01-16T10:36:27.000Z</time>
      </trkpt>
      <trkpt lat="47.27505" lon="-2.44852">
        <ele>-18.799999237061</ele>
        <time>2020-01-16T10:36:28.000Z</time>
      </trkpt>
      <trkpt lat="47.27506" lon="-2.44848">
        <ele>-19.200000762939</ele>
        <time>2020-01-16T10:36:29.000Z</time>
      </trkpt>
      <trkpt lat="47.27508" lon="-2.44843">
        <ele>-19.60000038147</ele>
        <time>2020-01-16T10:36:30.000Z</time>
      </trkpt>
      <trkpt lat="47.27512" lon="-2.44839">
        <ele>-20.200000762939</ele>
        <time>2020-01-16T10:36:31.000Z</time>
      </trkpt>
      <trkpt lat="47.27516" lon="-2.44836">
        <ele>-20.60000038147</ele>
        <time>2020-01-16T10:36:32.000Z</time>
      </trkpt>
      <trkpt lat="47.2752" lon="-2.44831">
        <ele>-21</ele>
        <time>2020-01-16T10:36:33.000Z</time>
      </trkpt>
      <trkpt lat="47.27524" lon="-2.44826">
        <ele>-21</ele>
        <time>2020-01-16T10:36:34.000Z</time>
      </trkpt>
      <trkpt lat="47.27535" lon="-2.44805">
        <ele>-21</ele>
        <time>2020-01-16T10:36:39.000Z</time>
      </trkpt>
      <trkpt lat="47.2753" lon="-2.44777">
        <ele>-21</ele>
        <time>2020-01-16T10:36:43.000Z</time>
      </trkpt>
      <trkpt lat="47.27526" lon="-2.44754">
        <ele>-21</ele>
        <time>2020-01-16T10:36:46.000Z</time>
      </trkpt>
      <trkpt lat="47.27521" lon="-2.44729">
        <ele>-21</ele>
        <time>2020-01-16T10:36:49.000Z</time>
      </trkpt>
      <trkpt lat="47.27514" lon="-2.44705">
        <ele>-21</ele>
        <time>2020-01-16T10:36:52.000Z</time>
      </trkpt>
      <trkpt lat="47.27507" lon="-2.44692">
        <ele>-21</ele>
        <time>2020-01-16T10:36:54.000Z</time>
      </trkpt>
      <trkpt lat="47.27499" lon="-2.44679">
        <ele>-21</ele>
        <time>2020-01-16T10:36:56.000Z</time>
      </trkpt>
      <trkpt lat="47.27483" lon="-2.44656">
        <ele>-21</ele>
        <time>2020-01-16T10:37:00.000Z</time>
      </trkpt>
      <trkpt lat="47.27473" lon="-2.44637">
        <ele>-21</ele>
        <time>2020-01-16T10:37:03.000Z</time>
      </trkpt>
      <trkpt lat="47.27465" lon="-2.44617">
        <ele>-21</ele>
        <time>2020-01-16T10:37:06.000Z</time>
      </trkpt>
      <trkpt lat="47.27461" lon="-2.44612">
        <ele>-21</ele>
        <time>2020-01-16T10:37:07.000Z</time>
      </trkpt>
      <trkpt lat="47.27455" lon="-2.44599">
        <ele>-21</ele>
        <time>2020-01-16T10:37:09.000Z</time>
      </trkpt>
      <trkpt lat="47.27453" lon="-2.44592">
        <ele>-21</ele>
        <time>2020-01-16T10:37:10.000Z</time>
      </trkpt>
      <trkpt lat="47.2745" lon="-2.4457">
        <ele>-21</ele>
        <time>2020-01-16T10:37:13.000Z</time>
      </trkpt>
      <trkpt lat="47.2745" lon="-2.44562">
        <ele>-21</ele>
        <time>2020-01-16T10:37:14.000Z</time>
      </trkpt>
      <trkpt lat="47.27447" lon="-2.4452">
        <ele>-21</ele>
        <time>2020-01-16T10:37:19.000Z</time>
      </trkpt>
      <trkpt lat="47.27443" lon="-2.44513">
        <ele>-21</ele>
        <time>2020-01-16T10:37:20.000Z</time>
      </trkpt>
      <trkpt lat="47.27438" lon="-2.44497">
        <ele>-21</ele>
        <time>2020-01-16T10:37:22.000Z</time>
      </trkpt>
      <trkpt lat="47.27436" lon="-2.44473">
        <ele>-21</ele>
        <time>2020-01-16T10:37:25.000Z</time>
      </trkpt>
      <trkpt lat="47.27436" lon="-2.44465">
        <ele>-21</ele>
        <time>2020-01-16T10:37:26.000Z</time>
      </trkpt>
      <trkpt lat="47.27435" lon="-2.44435">
        <ele>-21</ele>
        <time>2020-01-16T10:37:30.000Z</time>
      </trkpt>
      <trkpt lat="47.27436" lon="-2.44393">
        <ele>-21</ele>
        <time>2020-01-16T10:37:35.000Z</time>
      </trkpt>
      <trkpt lat="47.27431" lon="-2.44344">
        <ele>-21</ele>
        <time>2020-01-16T10:37:41.000Z</time>
      </trkpt>
      <trkpt lat="47.27425" lon="-2.44294">
        <ele>-21</ele>
        <time>2020-01-16T10:37:47.000Z</time>
      </trkpt>
      <trkpt lat="47.27422" lon="-2.44248">
        <ele>-21</ele>
        <time>2020-01-16T10:37:53.000Z</time>
      </trkpt>
      <trkpt lat="47.27419" lon="-2.44222">
        <ele>-21</ele>
        <time>2020-01-16T10:37:57.000Z</time>
      </trkpt>
      <trkpt lat="47.27418" lon="-2.44216">
        <ele>-21</ele>
        <time>2020-01-16T10:37:58.000Z</time>
      </trkpt>
      <trkpt lat="47.27411" lon="-2.44164">
        <ele>-21</ele>
        <time>2020-01-16T10:38:06.000Z</time>
      </trkpt>
      <trkpt lat="47.27414" lon="-2.44146">
        <ele>-21</ele>
        <time>2020-01-16T10:38:10.000Z</time>
      </trkpt>
      <trkpt lat="47.27433" lon="-2.44133">
        <ele>-21</ele>
        <time>2020-01-16T10:38:14.000Z</time>
      </trkpt>
      <trkpt lat="47.27469" lon="-2.44108">
        <ele>-21</ele>
        <time>2020-01-16T10:38:21.000Z</time>
      </trkpt>
      <trkpt lat="47.27507" lon="-2.44085">
        <ele>-21</ele>
        <time>2020-01-16T10:38:28.000Z</time>
      </trkpt>
      <trkpt lat="47.27538" lon="-2.44067">
        <ele>-21</ele>
        <time>2020-01-16T10:38:34.000Z</time>
      </trkpt>
      <trkpt lat="47.27562" lon="-2.44059">
        <ele>-21</ele>
        <time>2020-01-16T10:38:38.000Z</time>
      </trkpt>
      <trkpt lat="47.27575" lon="-2.44058">
        <ele>-21</ele>
        <time>2020-01-16T10:38:40.000Z</time>
      </trkpt>
      <trkpt lat="47.27618" lon="-2.44057">
        <ele>-21</ele>
        <time>2020-01-16T10:38:47.000Z</time>
      </trkpt>
      <trkpt lat="47.27657" lon="-2.44051">
        <ele>-21</ele>
        <time>2020-01-16T10:38:53.000Z</time>
      </trkpt>
      <trkpt lat="47.27699" lon="-2.44041">
        <ele>-21</ele>
        <time>2020-01-16T10:39:00.000Z</time>
      </trkpt>
      <trkpt lat="47.27704" lon="-2.4404">
        <ele>-21</ele>
        <time>2020-01-16T10:39:01.000Z</time>
      </trkpt>
      <trkpt lat="47.27715" lon="-2.44033">
        <ele>-21</ele>
        <time>2020-01-16T10:39:04.000Z</time>
      </trkpt>
      <trkpt lat="47.27726" lon="-2.44005">
        <ele>-21</ele>
        <time>2020-01-16T10:39:08.000Z</time>
      </trkpt>
      <trkpt lat="47.27744" lon="-2.43946">
        <ele>-21</ele>
        <time>2020-01-16T10:39:15.000Z</time>
      </trkpt>
      <trkpt lat="47.2776" lon="-2.43886">
        <ele>-21</ele>
        <time>2020-01-16T10:39:22.000Z</time>
      </trkpt>
      <trkpt lat="47.27765" lon="-2.43846">
        <ele>-21</ele>
        <time>2020-01-16T10:39:27.000Z</time>
      </trkpt>
      <trkpt lat="47.2777" lon="-2.43812">
        <ele>-21</ele>
        <time>2020-01-16T10:39:31.000Z</time>
      </trkpt>
      <trkpt lat="47.27778" lon="-2.43801">
        <ele>-21</ele>
        <time>2020-01-16T10:39:33.000Z</time>
      </trkpt>
      <trkpt lat="47.27785" lon="-2.43792">
        <ele>-21</ele>
        <time>2020-01-16T10:39:35.000Z</time>
      </trkpt>
      <trkpt lat="47.27797" lon="-2.43793">
        <ele>-21</ele>
        <time>2020-01-16T10:39:38.000Z</time>
      </trkpt>
      <trkpt lat="47.278" lon="-2.43794">
        <ele>-21</ele>
        <time>2020-01-16T10:39:39.000Z</time>
      </trkpt>
      <trkpt lat="47.27817" lon="-2.43799">
        <ele>-21</ele>
        <time>2020-01-16T10:39:43.000Z</time>
      </trkpt>
      <trkpt lat="47.27821" lon="-2.43797">
        <ele>-21</ele>
        <time>2020-01-16T10:39:44.000Z</time>
      </trkpt>
      <trkpt lat="47.27836" lon="-2.43789">
        <ele>-21</ele>
        <time>2020-01-16T10:39:47.000Z</time>
      </trkpt>
      <trkpt lat="47.27846" lon="-2.43782">
        <ele>-21</ele>
        <time>2020-01-16T10:39:49.000Z</time>
      </trkpt>
      <trkpt lat="47.27882" lon="-2.43749">
        <ele>-21</ele>
        <time>2020-01-16T10:39:56.000Z</time>
      </trkpt>
      <trkpt lat="47.27918" lon="-2.4371">
        <ele>-21</ele>
        <time>2020-01-16T10:40:03.000Z</time>
      </trkpt>
      <trkpt lat="47.27951" lon="-2.43665">
        <ele>-21</ele>
        <time>2020-01-16T10:40:10.000Z</time>
      </trkpt>
      <trkpt lat="47.27987" lon="-2.43612">
        <ele>-21</ele>
        <time>2020-01-16T10:40:18.000Z</time>
      </trkpt>
      <trkpt lat="47.28019" lon="-2.43566">
        <ele>-21</ele>
        <time>2020-01-16T10:40:25.000Z</time>
      </trkpt>
      <trkpt lat="47.28052" lon="-2.43519">
        <ele>-21</ele>
        <time>2020-01-16T10:40:32.000Z</time>
      </trkpt>
      <trkpt lat="47.28056" lon="-2.43512">
        <ele>-21</ele>
        <time>2020-01-16T10:40:33.000Z</time>
      </trkpt>
      <trkpt lat="47.2809" lon="-2.4346">
        <ele>-21</ele>
        <time>2020-01-16T10:40:41.000Z</time>
      </trkpt>
      <trkpt lat="47.28116" lon="-2.43422">
        <ele>-21</ele>
        <time>2020-01-16T10:40:47.000Z</time>
      </trkpt>
      <trkpt lat="47.2815" lon="-2.43373">
        <ele>-21</ele>
        <time>2020-01-16T10:40:55.000Z</time>
      </trkpt>
      <trkpt lat="47.28179" lon="-2.4333">
        <ele>-21</ele>
        <time>2020-01-16T10:41:02.000Z</time>
      </trkpt>
      <trkpt lat="47.28181" lon="-2.43321">
        <ele>-21</ele>
        <time>2020-01-16T10:41:03.000Z</time>
      </trkpt>
      <trkpt lat="47.28179" lon="-2.43301">
        <ele>-21</ele>
        <time>2020-01-16T10:41:06.000Z</time>
      </trkpt>
      <trkpt lat="47.28177" lon="-2.43295">
        <ele>-21</ele>
        <time>2020-01-16T10:41:07.000Z</time>
      </trkpt>
      <trkpt lat="47.28174" lon="-2.43277">
        <ele>-21</ele>
        <time>2020-01-16T10:41:10.000Z</time>
      </trkpt>
      <trkpt lat="47.28172" lon="-2.43273">
        <ele>-21</ele>
        <time>2020-01-16T10:41:12.000Z</time>
      </trkpt>
      <trkpt lat="47.28171" lon="-2.43271">
        <ele>-21</ele>
        <time>2020-01-16T10:41:13.000Z</time>
      </trkpt>
      <trkpt lat="47.28176" lon="-2.43261">
        <ele>-21.799999237061</ele>
        <time>2020-01-16T10:41:16.000Z</time>
      </trkpt>
      <trkpt lat="47.2818" lon="-2.43257">
        <ele>-22.200000762939</ele>
        <time>2020-01-16T10:41:17.000Z</time>
      </trkpt>
      <trkpt lat="47.28184" lon="-2.43252">
        <ele>-22.60000038147</ele>
        <time>2020-01-16T10:41:18.000Z</time>
      </trkpt>
      <trkpt lat="47.28187" lon="-2.43248">
        <ele>-23</ele>
        <time>2020-01-16T10:41:19.000Z</time>
      </trkpt>
      <trkpt lat="47.28192" lon="-2.43248">
        <ele>-23</ele>
        <time>2020-01-16T10:41:20.000Z</time>
      </trkpt>
      <trkpt lat="47.28207" lon="-2.43252">
        <ele>-23</ele>
        <time>2020-01-16T10:41:23.000Z</time>
      </trkpt>
      <trkpt lat="47.28219" lon="-2.43234">
        <ele>-22.60000038147</ele>
        <time>2020-01-16T10:41:26.000Z</time>
      </trkpt>
      <trkpt lat="47.28221" lon="-2.43226">
        <ele>-22.200000762939</ele>
        <time>2020-01-16T10:41:27.000Z</time>
      </trkpt>
      <trkpt lat="47.28223" lon="-2.43218">
        <ele>-21.799999237061</ele>
        <time>2020-01-16T10:41:28.000Z</time>
      </trkpt>
      <trkpt lat="47.28224" lon="-2.4321">
        <ele>-21.39999961853</ele>
        <time>2020-01-16T10:41:29.000Z</time>
      </trkpt>
      <trkpt lat="47.28225" lon="-2.43201">
        <ele>-21</ele>
        <time>2020-01-16T10:41:30.000Z</time>
      </trkpt>
      <trkpt lat="47.28234" lon="-2.43153">
        <ele>-21</ele>
        <time>2020-01-16T10:41:36.000Z</time>
      </trkpt>
      <trkpt lat="47.28246" lon="-2.43096">
        <ele>-21</ele>
        <time>2020-01-16T10:41:43.000Z</time>
      </trkpt>
      <trkpt lat="47.28253" lon="-2.43053">
        <ele>-21</ele>
        <time>2020-01-16T10:41:48.000Z</time>
      </trkpt>
      <trkpt lat="47.28255" lon="-2.43045">
        <ele>-21</ele>
        <time>2020-01-16T10:41:49.000Z</time>
      </trkpt>
      <trkpt lat="47.28256" lon="-2.43036">
        <ele>-20.60000038147</ele>
        <time>2020-01-16T10:41:50.000Z</time>
      </trkpt>
      <trkpt lat="47.28256" lon="-2.43028">
        <ele>-20.200000762939</ele>
        <time>2020-01-16T10:41:51.000Z</time>
      </trkpt>
      <trkpt lat="47.28257" lon="-2.43019">
        <ele>-19.60000038147</ele>
        <time>2020-01-16T10:41:52.000Z</time>
      </trkpt>
      <trkpt lat="47.28257" lon="-2.43011">
        <ele>-19.200000762939</ele>
        <time>2020-01-16T10:41:53.000Z</time>
      </trkpt>
      <trkpt lat="47.28257" lon="-2.43002">
        <ele>-18.799999237061</ele>
        <time>2020-01-16T10:41:54.000Z</time>
      </trkpt>
      <trkpt lat="47.28258" lon="-2.42993">
        <ele>-19.39999961853</ele>
        <time>2020-01-16T10:41:55.000Z</time>
      </trkpt>
      <trkpt lat="47.28257" lon="-2.42985">
        <ele>-19.799999237061</ele>
        <time>2020-01-16T10:41:56.000Z</time>
      </trkpt>
      <trkpt lat="47.28257" lon="-2.42977">
        <ele>-20.200000762939</ele>
        <time>2020-01-16T10:41:57.000Z</time>
      </trkpt>
      <trkpt lat="47.28256" lon="-2.42969">
        <ele>-20.60000038147</ele>
        <time>2020-01-16T10:41:58.000Z</time>
      </trkpt>
      <trkpt lat="47.28255" lon="-2.42961">
        <ele>-21.200000762939</ele>
        <time>2020-01-16T10:41:59.000Z</time>
      </trkpt>
      <trkpt lat="47.28252" lon="-2.42927">
        <ele>-21.200000762939</ele>
        <time>2020-01-16T10:42:03.000Z</time>
      </trkpt>
      <trkpt lat="47.28241" lon="-2.42901">
        <ele>-21.200000762939</ele>
        <time>2020-01-16T10:42:07.000Z</time>
      </trkpt>
      <trkpt lat="47.28237" lon="-2.42895">
        <ele>-21.200000762939</ele>
        <time>2020-01-16T10:42:08.000Z</time>
      </trkpt>
      <trkpt lat="47.28233" lon="-2.42887">
        <ele>-21.200000762939</ele>
        <time>2020-01-16T10:42:09.000Z</time>
      </trkpt>
      <trkpt lat="47.28231" lon="-2.42869">
        <ele>-21.200000762939</ele>
        <time>2020-01-16T10:42:11.000Z</time>
      </trkpt>
      <trkpt lat="47.28234" lon="-2.42843">
        <ele>-21.200000762939</ele>
        <time>2020-01-16T10:42:14.000Z</time>
      </trkpt>
      <trkpt lat="47.28233" lon="-2.42818">
        <ele>-21.200000762939</ele>
        <time>2020-01-16T10:42:17.000Z</time>
      </trkpt>
      <trkpt lat="47.2823" lon="-2.42811">
        <ele>-21.200000762939</ele>
        <time>2020-01-16T10:42:18.000Z</time>
      </trkpt>
      <trkpt lat="47.28216" lon="-2.42782">
        <ele>-21.200000762939</ele>
        <time>2020-01-16T10:42:22.000Z</time>
      </trkpt>
      <trkpt lat="47.28207" lon="-2.42767">
        <ele>-21.200000762939</ele>
        <time>2020-01-16T10:42:24.000Z</time>
      </trkpt>
      <trkpt lat="47.28199" lon="-2.42751">
        <ele>-21.200000762939</ele>
        <time>2020-01-16T10:42:26.000Z</time>
      </trkpt>
      <trkpt lat="47.28192" lon="-2.42738">
        <ele>-20.799999237061</ele>
        <time>2020-01-16T10:42:28.000Z</time>
      </trkpt>
      <trkpt lat="47.28189" lon="-2.42731">
        <ele>-20.39999961853</ele>
        <time>2020-01-16T10:42:29.000Z</time>
      </trkpt>
      <trkpt lat="47.28185" lon="-2.42726">
        <ele>-19.60000038147</ele>
        <time>2020-01-16T10:42:30.000Z</time>
      </trkpt>
      <trkpt lat="47.28182" lon="-2.4272">
        <ele>-19.200000762939</ele>
        <time>2020-01-16T10:42:31.000Z</time>
      </trkpt>
      <trkpt lat="47.28158" lon="-2.42676">
        <ele>-19.200000762939</ele>
        <time>2020-01-16T10:42:38.000Z</time>
      </trkpt>
      <trkpt lat="47.28131" lon="-2.42631">
        <ele>-19.200000762939</ele>
        <time>2020-01-16T10:42:46.000Z</time>
      </trkpt>
      <trkpt lat="47.2811" lon="-2.42588">
        <ele>-19.200000762939</ele>
        <time>2020-01-16T10:42:53.000Z</time>
      </trkpt>
      <trkpt lat="47.28096" lon="-2.42557">
        <ele>-19.200000762939</ele>
        <time>2020-01-16T10:42:59.000Z</time>
      </trkpt>
      <trkpt lat="47.28098" lon="-2.4255">
        <ele>-19.200000762939</ele>
        <time>2020-01-16T10:43:00.000Z</time>
      </trkpt>
      <trkpt lat="47.28104" lon="-2.4254">
        <ele>-19.200000762939</ele>
        <time>2020-01-16T10:43:02.000Z</time>
      </trkpt>
      <trkpt lat="47.28109" lon="-2.42536">
        <ele>-19.200000762939</ele>
        <time>2020-01-16T10:43:03.000Z</time>
      </trkpt>
      <trkpt lat="47.28121" lon="-2.42535">
        <ele>-19.200000762939</ele>
        <time>2020-01-16T10:43:05.000Z</time>
      </trkpt>
      <trkpt lat="47.28161" lon="-2.42528">
        <ele>-19.200000762939</ele>
        <time>2020-01-16T10:43:11.000Z</time>
      </trkpt>
      <trkpt lat="47.28192" lon="-2.42528">
        <ele>-19.200000762939</ele>
        <time>2020-01-16T10:43:16.000Z</time>
      </trkpt>
      <trkpt lat="47.28197" lon="-2.42523">
        <ele>-19.60000038147</ele>
        <time>2020-01-16T10:43:17.000Z</time>
      </trkpt>
      <trkpt lat="47.28202" lon="-2.42518">
        <ele>-20</ele>
        <time>2020-01-16T10:43:18.000Z</time>
      </trkpt>
      <trkpt lat="47.28206" lon="-2.42512">
        <ele>-21</ele>
        <time>2020-01-16T10:43:19.000Z</time>
      </trkpt>
      <trkpt lat="47.28212" lon="-2.42506">
        <ele>-21.39999961853</ele>
        <time>2020-01-16T10:43:20.000Z</time>
      </trkpt>
      <trkpt lat="47.28216" lon="-2.42499">
        <ele>-21.39999961853</ele>
        <time>2020-01-16T10:43:21.000Z</time>
      </trkpt>
      <trkpt lat="47.2823" lon="-2.42477">
        <ele>-21.39999961853</ele>
        <time>2020-01-16T10:43:24.000Z</time>
      </trkpt>
      <trkpt lat="47.28256" lon="-2.42418">
        <ele>-21</ele>
        <time>2020-01-16T10:43:31.000Z</time>
      </trkpt>
      <trkpt lat="47.28259" lon="-2.42407">
        <ele>-20.60000038147</ele>
        <time>2020-01-16T10:43:32.000Z</time>
      </trkpt>
      <trkpt lat="47.28261" lon="-2.42397">
        <ele>-20</ele>
        <time>2020-01-16T10:43:33.000Z</time>
      </trkpt>
      <trkpt lat="47.28263" lon="-2.42388">
        <ele>-19.60000038147</ele>
        <time>2020-01-16T10:43:34.000Z</time>
      </trkpt>
      <trkpt lat="47.28264" lon="-2.42378">
        <ele>-19.200000762939</ele>
        <time>2020-01-16T10:43:35.000Z</time>
      </trkpt>
      <trkpt lat="47.28265" lon="-2.42368">
        <ele>-19.200000762939</ele>
        <time>2020-01-16T10:43:36.000Z</time>
      </trkpt>
      <trkpt lat="47.28271" lon="-2.42333">
        <ele>-19.200000762939</ele>
        <time>2020-01-16T10:43:40.000Z</time>
      </trkpt>
      <trkpt lat="47.2827" lon="-2.42324">
        <ele>-19.200000762939</ele>
        <time>2020-01-16T10:43:41.000Z</time>
      </trkpt>
      <trkpt lat="47.2827" lon="-2.42297">
        <ele>-19.200000762939</ele>
        <time>2020-01-16T10:43:44.000Z</time>
      </trkpt>
      <trkpt lat="47.28271" lon="-2.42278">
        <ele>-19.200000762939</ele>
        <time>2020-01-16T10:43:46.000Z</time>
      </trkpt>
      <trkpt lat="47.28272" lon="-2.42268">
        <ele>-19.200000762939</ele>
        <time>2020-01-16T10:43:47.000Z</time>
      </trkpt>
      <trkpt lat="47.28283" lon="-2.42204">
        <ele>-19.200000762939</ele>
        <time>2020-01-16T10:43:54.000Z</time>
      </trkpt>
      <trkpt lat="47.28284" lon="-2.42195">
        <ele>-19.200000762939</ele>
        <time>2020-01-16T10:43:55.000Z</time>
      </trkpt>
      <trkpt lat="47.28289" lon="-2.42166">
        <ele>-19.200000762939</ele>
        <time>2020-01-16T10:43:58.000Z</time>
      </trkpt>
      <trkpt lat="47.28294" lon="-2.42138">
        <ele>-19.200000762939</ele>
        <time>2020-01-16T10:44:01.000Z</time>
      </trkpt>
      <trkpt lat="47.28296" lon="-2.42119">
        <ele>-19.200000762939</ele>
        <time>2020-01-16T10:44:03.000Z</time>
      </trkpt>
      <trkpt lat="47.28308" lon="-2.42049">
        <ele>-19.200000762939</ele>
        <time>2020-01-16T10:44:10.000Z</time>
      </trkpt>
      <trkpt lat="47.28319" lon="-2.41991">
        <ele>-19.200000762939</ele>
        <time>2020-01-16T10:44:16.000Z</time>
      </trkpt>
      <trkpt lat="47.28332" lon="-2.41943">
        <ele>-19.200000762939</ele>
        <time>2020-01-16T10:44:21.000Z</time>
      </trkpt>
      <trkpt lat="47.28346" lon="-2.41885">
        <ele>-19.200000762939</ele>
        <time>2020-01-16T10:44:27.000Z</time>
      </trkpt>
      <trkpt lat="47.28365" lon="-2.41808">
        <ele>-19.200000762939</ele>
        <time>2020-01-16T10:44:35.000Z</time>
      </trkpt>
      <trkpt lat="47.28378" lon="-2.41752">
        <ele>-19.200000762939</ele>
        <time>2020-01-16T10:44:41.000Z</time>
      </trkpt>
      <trkpt lat="47.28392" lon="-2.41696">
        <ele>-19.60000038147</ele>
        <time>2020-01-16T10:44:47.000Z</time>
      </trkpt>
      <trkpt lat="47.28394" lon="-2.41687">
        <ele>-20</ele>
        <time>2020-01-16T10:44:48.000Z</time>
      </trkpt>
      <trkpt lat="47.28396" lon="-2.41677">
        <ele>-20.39999961853</ele>
        <time>2020-01-16T10:44:49.000Z</time>
      </trkpt>
      <trkpt lat="47.28398" lon="-2.41667">
        <ele>-20.799999237061</ele>
        <time>2020-01-16T10:44:50.000Z</time>
      </trkpt>
      <trkpt lat="47.284" lon="-2.41658">
        <ele>-21.200000762939</ele>
        <time>2020-01-16T10:44:51.000Z</time>
      </trkpt>
      <trkpt lat="47.28403" lon="-2.41629">
        <ele>-21.200000762939</ele>
        <time>2020-01-16T10:44:54.000Z</time>
      </trkpt>
      <trkpt lat="47.2841" lon="-2.41565">
        <ele>-21.200000762939</ele>
        <time>2020-01-16T10:45:01.000Z</time>
      </trkpt>
      <trkpt lat="47.28415" lon="-2.41517">
        <ele>-21.200000762939</ele>
        <time>2020-01-16T10:45:07.000Z</time>
      </trkpt>
      <trkpt lat="47.28416" lon="-2.41501">
        <ele>-21.200000762939</ele>
        <time>2020-01-16T10:45:09.000Z</time>
      </trkpt>
      <trkpt lat="47.28418" lon="-2.41469">
        <ele>-21.200000762939</ele>
        <time>2020-01-16T10:45:13.000Z</time>
      </trkpt>
      <trkpt lat="47.28423" lon="-2.41434">
        <ele>-21.200000762939</ele>
        <time>2020-01-16T10:45:18.000Z</time>
      </trkpt>
      <trkpt lat="47.28424" lon="-2.41427">
        <ele>-21.200000762939</ele>
        <time>2020-01-16T10:45:19.000Z</time>
      </trkpt>
      <trkpt lat="47.28435" lon="-2.4138">
        <ele>-21.200000762939</ele>
        <time>2020-01-16T10:45:25.000Z</time>
      </trkpt>
      <trkpt lat="47.28439" lon="-2.41364">
        <ele>-21.200000762939</ele>
        <time>2020-01-16T10:45:27.000Z</time>
      </trkpt>
      <trkpt lat="47.28446" lon="-2.41341">
        <ele>-21.200000762939</ele>
        <time>2020-01-16T10:45:30.000Z</time>
      </trkpt>
      <trkpt lat="47.28448" lon="-2.41333">
        <ele>-21.200000762939</ele>
        <time>2020-01-16T10:45:31.000Z</time>
      </trkpt>
      <trkpt lat="47.28454" lon="-2.41302">
        <ele>-21.200000762939</ele>
        <time>2020-01-16T10:45:35.000Z</time>
      </trkpt>
      <trkpt lat="47.28455" lon="-2.41268">
        <ele>-21.200000762939</ele>
        <time>2020-01-16T10:45:40.000Z</time>
      </trkpt>
      <trkpt lat="47.28461" lon="-2.41259">
        <ele>-21.200000762939</ele>
        <time>2020-01-16T10:45:43.000Z</time>
      </trkpt>
      <trkpt lat="47.28469" lon="-2.41258">
        <ele>-21.200000762939</ele>
        <time>2020-01-16T10:45:45.000Z</time>
      </trkpt>
      <trkpt lat="47.28473" lon="-2.41258">
        <ele>-21.200000762939</ele>
        <time>2020-01-16T10:45:46.000Z</time>
      </trkpt>
      <trkpt lat="47.28477" lon="-2.41256">
        <ele>-21.200000762939</ele>
        <time>2020-01-16T10:45:47.000Z</time>
      </trkpt>
      <trkpt lat="47.28489" lon="-2.41245">
        <ele>-21.200000762939</ele>
        <time>2020-01-16T10:45:50.000Z</time>
      </trkpt>
      <trkpt lat="47.28491" lon="-2.41226">
        <ele>-21.200000762939</ele>
        <time>2020-01-16T10:45:53.000Z</time>
      </trkpt>
      <trkpt lat="47.28496" lon="-2.41208">
        <ele>-21.200000762939</ele>
        <time>2020-01-16T10:45:57.000Z</time>
      </trkpt>
      <trkpt lat="47.28499" lon="-2.41206">
        <ele>-21.200000762939</ele>
        <time>2020-01-16T10:45:58.000Z</time>
      </trkpt>
      <trkpt lat="47.28509" lon="-2.41194">
        <ele>-21.200000762939</ele>
        <time>2020-01-16T10:46:02.000Z</time>
      </trkpt>
      <trkpt lat="47.28515" lon="-2.41188">
        <ele>-21.200000762939</ele>
        <time>2020-01-16T10:46:04.000Z</time>
      </trkpt>
      <trkpt lat="47.2852" lon="-2.41188">
        <ele>-21.200000762939</ele>
        <time>2020-01-16T10:46:05.000Z</time>
      </trkpt>
      <trkpt lat="47.28538" lon="-2.41192">
        <ele>-21.60000038147</ele>
        <time>2020-01-16T10:46:08.000Z</time>
      </trkpt>
      <trkpt lat="47.28544" lon="-2.41193">
        <ele>-22</ele>
        <time>2020-01-16T10:46:09.000Z</time>
      </trkpt>
      <trkpt lat="47.28552" lon="-2.41195">
        <ele>-22.39999961853</ele>
        <time>2020-01-16T10:46:10.000Z</time>
      </trkpt>
      <trkpt lat="47.28559" lon="-2.41197">
        <ele>-22.799999237061</ele>
        <time>2020-01-16T10:46:11.000Z</time>
      </trkpt>
      <trkpt lat="47.28567" lon="-2.41199">
        <ele>-23.39999961853</ele>
        <time>2020-01-16T10:46:12.000Z</time>
      </trkpt>
      <trkpt lat="47.28584" lon="-2.41203">
        <ele>-23.39999961853</ele>
        <time>2020-01-16T10:46:14.000Z</time>
      </trkpt>
      <trkpt lat="47.28602" lon="-2.41207">
        <ele>-23.799999237061</ele>
        <time>2020-01-16T10:46:16.000Z</time>
      </trkpt>
      <trkpt lat="47.28611" lon="-2.41209">
        <ele>-24.200000762939</ele>
        <time>2020-01-16T10:46:17.000Z</time>
      </trkpt>
      <trkpt lat="47.28619" lon="-2.41211">
        <ele>-24.799999237061</ele>
        <time>2020-01-16T10:46:18.000Z</time>
      </trkpt>
      <trkpt lat="47.28628" lon="-2.41212">
        <ele>-25.200000762939</ele>
        <time>2020-01-16T10:46:19.000Z</time>
      </trkpt>
      <trkpt lat="47.28637" lon="-2.41214">
        <ele>-25.799999237061</ele>
        <time>2020-01-16T10:46:20.000Z</time>
      </trkpt>
      <trkpt lat="47.28679" lon="-2.41222">
        <ele>-25.799999237061</ele>
        <time>2020-01-16T10:46:26.000Z</time>
      </trkpt>
      <trkpt lat="47.28697" lon="-2.41226">
        <ele>-25.39999961853</ele>
        <time>2020-01-16T10:46:29.000Z</time>
      </trkpt>
      <trkpt lat="47.28703" lon="-2.41227">
        <ele>-25</ele>
        <time>2020-01-16T10:46:30.000Z</time>
      </trkpt>
      <trkpt lat="47.28709" lon="-2.41228">
        <ele>-24.60000038147</ele>
        <time>2020-01-16T10:46:31.000Z</time>
      </trkpt>
      <trkpt lat="47.28715" lon="-2.41229">
        <ele>-24.200000762939</ele>
        <time>2020-01-16T10:46:32.000Z</time>
      </trkpt>
      <trkpt lat="47.28721" lon="-2.4123">
        <ele>-23.799999237061</ele>
        <time>2020-01-16T10:46:33.000Z</time>
      </trkpt>
      <trkpt lat="47.28744" lon="-2.41232">
        <ele>-23.799999237061</ele>
        <time>2020-01-16T10:46:37.000Z</time>
      </trkpt>
      <trkpt lat="47.28749" lon="-2.4123">
        <ele>-23.799999237061</ele>
        <time>2020-01-16T10:46:38.000Z</time>
      </trkpt>
      <trkpt lat="47.28754" lon="-2.41227">
        <ele>-23.200000762939</ele>
        <time>2020-01-16T10:46:39.000Z</time>
      </trkpt>
      <trkpt lat="47.28758" lon="-2.41222">
        <ele>-22.799999237061</ele>
        <time>2020-01-16T10:46:40.000Z</time>
      </trkpt>
      <trkpt lat="47.28761" lon="-2.41215">
        <ele>-22.200000762939</ele>
        <time>2020-01-16T10:46:41.000Z</time>
      </trkpt>
      <trkpt lat="47.28765" lon="-2.4121">
        <ele>-21.799999237061</ele>
        <time>2020-01-16T10:46:42.000Z</time>
      </trkpt>
      <trkpt lat="47.28769" lon="-2.41206">
        <ele>-21.39999961853</ele>
        <time>2020-01-16T10:46:43.000Z</time>
      </trkpt>
      <trkpt lat="47.28771" lon="-2.41201">
        <ele>-21.39999961853</ele>
        <time>2020-01-16T10:46:44.000Z</time>
      </trkpt>
      <trkpt lat="47.28769" lon="-2.41183">
        <ele>-21.39999961853</ele>
        <time>2020-01-16T10:46:47.000Z</time>
      </trkpt>
      <trkpt lat="47.28768" lon="-2.41176">
        <ele>-21.39999961853</ele>
        <time>2020-01-16T10:46:48.000Z</time>
      </trkpt>
      <trkpt lat="47.28756" lon="-2.41138">
        <ele>-21.39999961853</ele>
        <time>2020-01-16T10:46:53.000Z</time>
      </trkpt>
      <trkpt lat="47.28743" lon="-2.41086">
        <ele>-21.39999961853</ele>
        <time>2020-01-16T10:46:59.000Z</time>
      </trkpt>
      <trkpt lat="47.28722" lon="-2.41017">
        <ele>-20.799999237061</ele>
        <time>2020-01-16T10:47:07.000Z</time>
      </trkpt>
      <trkpt lat="47.2872" lon="-2.41008">
        <ele>-20.39999961853</ele>
        <time>2020-01-16T10:47:08.000Z</time>
      </trkpt>
      <trkpt lat="47.28718" lon="-2.40999">
        <ele>-20</ele>
        <time>2020-01-16T10:47:09.000Z</time>
      </trkpt>
      <trkpt lat="47.28716" lon="-2.40991">
        <ele>-19.60000038147</ele>
        <time>2020-01-16T10:47:10.000Z</time>
      </trkpt>
      <trkpt lat="47.28715" lon="-2.40982">
        <ele>-19</ele>
        <time>2020-01-16T10:47:11.000Z</time>
      </trkpt>
      <trkpt lat="47.2871" lon="-2.40957">
        <ele>-18.60000038147</ele>
        <time>2020-01-16T10:47:14.000Z</time>
      </trkpt>
      <trkpt lat="47.28709" lon="-2.40949">
        <ele>-18.200000762939</ele>
        <time>2020-01-16T10:47:15.000Z</time>
      </trkpt>
      <trkpt lat="47.28708" lon="-2.4094">
        <ele>-17.799999237061</ele>
        <time>2020-01-16T10:47:16.000Z</time>
      </trkpt>
      <trkpt lat="47.28707" lon="-2.40932">
        <ele>-18.200000762939</ele>
        <time>2020-01-16T10:47:17.000Z</time>
      </trkpt>
      <trkpt lat="47.28706" lon="-2.40924">
        <ele>-18.39999961853</ele>
        <time>2020-01-16T10:47:18.000Z</time>
      </trkpt>
      <trkpt lat="47.28705" lon="-2.40915">
        <ele>-18.799999237061</ele>
        <time>2020-01-16T10:47:19.000Z</time>
      </trkpt>
      <trkpt lat="47.28705" lon="-2.40906">
        <ele>-19</ele>
        <time>2020-01-16T10:47:20.000Z</time>
      </trkpt>
      <trkpt lat="47.28705" lon="-2.40897">
        <ele>-19.39999961853</ele>
        <time>2020-01-16T10:47:21.000Z</time>
      </trkpt>
      <trkpt lat="47.28706" lon="-2.40871">
        <ele>-19.799999237061</ele>
        <time>2020-01-16T10:47:24.000Z</time>
      </trkpt>
      <trkpt lat="47.28707" lon="-2.40862">
        <ele>-20.200000762939</ele>
        <time>2020-01-16T10:47:25.000Z</time>
      </trkpt>
      <trkpt lat="47.28708" lon="-2.40854">
        <ele>-20.60000038147</ele>
        <time>2020-01-16T10:47:26.000Z</time>
      </trkpt>
      <trkpt lat="47.2871" lon="-2.40845">
        <ele>-21.39999961853</ele>
        <time>2020-01-16T10:47:27.000Z</time>
      </trkpt>
      <trkpt lat="47.2872" lon="-2.40804">
        <ele>-21.39999961853</ele>
        <time>2020-01-16T10:47:32.000Z</time>
      </trkpt>
      <trkpt lat="47.28737" lon="-2.40767">
        <ele>-21.39999961853</ele>
        <time>2020-01-16T10:47:37.000Z</time>
      </trkpt>
      <trkpt lat="47.2874" lon="-2.4076">
        <ele>-21.39999961853</ele>
        <time>2020-01-16T10:47:38.000Z</time>
      </trkpt>
      <trkpt lat="47.28763" lon="-2.40725">
        <ele>-21.39999961853</ele>
        <time>2020-01-16T10:47:43.000Z</time>
      </trkpt>
      <trkpt lat="47.28799" lon="-2.40687">
        <ele>-21.39999961853</ele>
        <time>2020-01-16T10:47:49.000Z</time>
      </trkpt>
      <trkpt lat="47.28839" lon="-2.40655">
        <ele>-21.39999961853</ele>
        <time>2020-01-16T10:47:55.000Z</time>
      </trkpt>
      <trkpt lat="47.28888" lon="-2.40622">
        <ele>-21.39999961853</ele>
        <time>2020-01-16T10:48:02.000Z</time>
      </trkpt>
      <trkpt lat="47.28895" lon="-2.40618">
        <ele>-21.39999961853</ele>
        <time>2020-01-16T10:48:03.000Z</time>
      </trkpt>
      <trkpt lat="47.28945" lon="-2.40585">
        <ele>-21.39999961853</ele>
        <time>2020-01-16T10:48:10.000Z</time>
      </trkpt>
      <trkpt lat="47.28952" lon="-2.4058">
        <ele>-21.39999961853</ele>
        <time>2020-01-16T10:48:11.000Z</time>
      </trkpt>
      <trkpt lat="47.29" lon="-2.4054">
        <ele>-21.39999961853</ele>
        <time>2020-01-16T10:48:18.000Z</time>
      </trkpt>
      <trkpt lat="47.29036" lon="-2.40494">
        <ele>-21.39999961853</ele>
        <time>2020-01-16T10:48:24.000Z</time>
      </trkpt>
      <trkpt lat="47.29067" lon="-2.4044">
        <ele>-21.39999961853</ele>
        <time>2020-01-16T10:48:30.000Z</time>
      </trkpt>
      <trkpt lat="47.29098" lon="-2.40375">
        <ele>-21.39999961853</ele>
        <time>2020-01-16T10:48:37.000Z</time>
      </trkpt>
      <trkpt lat="47.29103" lon="-2.40365">
        <ele>-21.39999961853</ele>
        <time>2020-01-16T10:48:38.000Z</time>
      </trkpt>
      <trkpt lat="47.29129" lon="-2.40311">
        <ele>-21.39999961853</ele>
        <time>2020-01-16T10:48:44.000Z</time>
      </trkpt>
      <trkpt lat="47.2916" lon="-2.40244">
        <ele>-21.39999961853</ele>
        <time>2020-01-16T10:48:51.000Z</time>
      </trkpt>
      <trkpt lat="47.29165" lon="-2.40234">
        <ele>-21.39999961853</ele>
        <time>2020-01-16T10:48:52.000Z</time>
      </trkpt>
      <trkpt lat="47.29196" lon="-2.4017">
        <ele>-21.39999961853</ele>
        <time>2020-01-16T10:48:59.000Z</time>
      </trkpt>
      <trkpt lat="47.29227" lon="-2.40106">
        <ele>-21.39999961853</ele>
        <time>2020-01-16T10:49:06.000Z</time>
      </trkpt>
      <trkpt lat="47.29251" lon="-2.40055">
        <ele>-21.39999961853</ele>
        <time>2020-01-16T10:49:12.000Z</time>
      </trkpt>
      <trkpt lat="47.29276" lon="-2.40004">
        <ele>-21.39999961853</ele>
        <time>2020-01-16T10:49:18.000Z</time>
      </trkpt>
      <trkpt lat="47.29304" lon="-2.39948">
        <ele>-21.39999961853</ele>
        <time>2020-01-16T10:49:25.000Z</time>
      </trkpt>
      <trkpt lat="47.29329" lon="-2.39911">
        <ele>-21.39999961853</ele>
        <time>2020-01-16T10:49:30.000Z</time>
      </trkpt>
      <trkpt lat="47.29363" lon="-2.39875">
        <ele>-21.39999961853</ele>
        <time>2020-01-16T10:49:36.000Z</time>
      </trkpt>
      <trkpt lat="47.29397" lon="-2.3985">
        <ele>-21.39999961853</ele>
        <time>2020-01-16T10:49:42.000Z</time>
      </trkpt>
      <trkpt lat="47.29403" lon="-2.39847">
        <ele>-21.39999961853</ele>
        <time>2020-01-16T10:49:43.000Z</time>
      </trkpt>
      <trkpt lat="47.2942" lon="-2.39844">
        <ele>-21.39999961853</ele>
        <time>2020-01-16T10:49:46.000Z</time>
      </trkpt>
      <trkpt lat="47.29425" lon="-2.39845">
        <ele>-21.39999961853</ele>
        <time>2020-01-16T10:49:47.000Z</time>
      </trkpt>
      <trkpt lat="47.29449" lon="-2.39846">
        <ele>-21.39999961853</ele>
        <time>2020-01-16T10:49:52.000Z</time>
      </trkpt>
      <trkpt lat="47.29463" lon="-2.3984">
        <ele>-21.39999961853</ele>
        <time>2020-01-16T10:49:56.000Z</time>
      </trkpt>
      <trkpt lat="47.29469" lon="-2.39855">
        <ele>-21.39999961853</ele>
        <time>2020-01-16T10:49:59.000Z</time>
      </trkpt>
      <trkpt lat="47.29487" lon="-2.39895">
        <ele>-21.39999961853</ele>
        <time>2020-01-16T10:50:06.000Z</time>
      </trkpt>
      <trkpt lat="47.295" lon="-2.39895">
        <ele>-21.39999961853</ele>
        <time>2020-01-16T10:50:09.000Z</time>
      </trkpt>
      <trkpt lat="47.29511" lon="-2.39877">
        <ele>-21.39999961853</ele>
        <time>2020-01-16T10:50:12.000Z</time>
      </trkpt>
      <trkpt lat="47.29514" lon="-2.3987">
        <ele>-21.39999961853</ele>
        <time>2020-01-16T10:50:13.000Z</time>
      </trkpt>
      <trkpt lat="47.29536" lon="-2.39823">
        <ele>-21.39999961853</ele>
        <time>2020-01-16T10:50:19.000Z</time>
      </trkpt>
      <trkpt lat="47.2956" lon="-2.39774">
        <ele>-21.39999961853</ele>
        <time>2020-01-16T10:50:25.000Z</time>
      </trkpt>
      <trkpt lat="47.29587" lon="-2.39721">
        <ele>-21.39999961853</ele>
        <time>2020-01-16T10:50:32.000Z</time>
      </trkpt>
      <trkpt lat="47.29591" lon="-2.39713">
        <ele>-21.39999961853</ele>
        <time>2020-01-16T10:50:33.000Z</time>
      </trkpt>
      <trkpt lat="47.29611" lon="-2.39675">
        <ele>-21.39999961853</ele>
        <time>2020-01-16T10:50:38.000Z</time>
      </trkpt>
      <trkpt lat="47.29622" lon="-2.39653">
        <ele>-21.39999961853</ele>
        <time>2020-01-16T10:50:41.000Z</time>
      </trkpt>
      <trkpt lat="47.29627" lon="-2.39636">
        <ele>-21.39999961853</ele>
        <time>2020-01-16T10:50:43.000Z</time>
      </trkpt>
      <trkpt lat="47.29628" lon="-2.39619">
        <ele>-21.39999961853</ele>
        <time>2020-01-16T10:50:45.000Z</time>
      </trkpt>
      <trkpt lat="47.2963" lon="-2.39596">
        <ele>-21.39999961853</ele>
        <time>2020-01-16T10:50:48.000Z</time>
      </trkpt>
      <trkpt lat="47.29629" lon="-2.39577">
        <ele>-21.39999961853</ele>
        <time>2020-01-16T10:50:51.000Z</time>
      </trkpt>
      <trkpt lat="47.29623" lon="-2.39572">
        <ele>-21.39999961853</ele>
        <time>2020-01-16T10:50:54.000Z</time>
      </trkpt>
      <trkpt lat="47.29613" lon="-2.3957">
        <ele>-21.39999961853</ele>
        <time>2020-01-16T10:50:58.000Z</time>
      </trkpt>
      <trkpt lat="47.29619" lon="-2.39564">
        <ele>-21.39999961853</ele>
        <time>2020-01-16T10:51:01.000Z</time>
      </trkpt>
      <trkpt lat="47.29625" lon="-2.3956">
        <ele>-21.39999961853</ele>
        <time>2020-01-16T10:51:04.000Z</time>
      </trkpt>
      <trkpt lat="47.29626" lon="-2.39558">
        <ele>-21</ele>
        <time>2020-01-16T10:51:05.000Z</time>
      </trkpt>
      <trkpt lat="47.29625" lon="-2.39555">
        <ele>-20.60000038147</ele>
        <time>2020-01-16T10:51:06.000Z</time>
      </trkpt>
      <trkpt lat="47.29623" lon="-2.39554">
        <ele>-20.200000762939</ele>
        <time>2020-01-16T10:51:07.000Z</time>
      </trkpt>
      <trkpt lat="47.2962" lon="-2.39554">
        <ele>-19.799999237061</ele>
        <time>2020-01-16T10:51:08.000Z</time>
      </trkpt>
      <trkpt lat="47.29617" lon="-2.39555">
        <ele>-19</ele>
        <time>2020-01-16T10:51:09.000Z</time>
      </trkpt>
      <trkpt lat="47.29613" lon="-2.39554">
        <ele>-18.60000038147</ele>
        <time>2020-01-16T10:51:10.000Z</time>
      </trkpt>
      <trkpt lat="47.2961" lon="-2.39553">
        <ele>-18</ele>
        <time>2020-01-16T10:51:11.000Z</time>
      </trkpt>
      <trkpt lat="47.29606" lon="-2.39553">
        <ele>-17.60000038147</ele>
        <time>2020-01-16T10:51:12.000Z</time>
      </trkpt>
      <trkpt lat="47.29602" lon="-2.39552">
        <ele>-17.200000762939</ele>
        <time>2020-01-16T10:51:13.000Z</time>
      </trkpt>
      <trkpt lat="47.29591" lon="-2.3955">
        <ele>-16.799999237061</ele>
        <time>2020-01-16T10:51:17.000Z</time>
      </trkpt>
      <trkpt lat="47.29588" lon="-2.3955">
        <ele>-16.200000762939</ele>
        <time>2020-01-16T10:51:18.000Z</time>
      </trkpt>
      <trkpt lat="47.29586" lon="-2.39549">
        <ele>-15.800000190735</ele>
        <time>2020-01-16T10:51:19.000Z</time>
      </trkpt>
      <trkpt lat="47.29584" lon="-2.39549">
        <ele>-15.39999961853</ele>
        <time>2020-01-16T10:51:20.000Z</time>
      </trkpt>
      <trkpt lat="47.29581" lon="-2.39548">
        <ele>-14.800000190735</ele>
        <time>2020-01-16T10:51:21.000Z</time>
      </trkpt>
      <trkpt lat="47.29578" lon="-2.39548">
        <ele>-14.800000190735</ele>
        <time>2020-01-16T10:51:22.000Z</time>
      </trkpt>
      <trkpt lat="47.29558" lon="-2.39543">
        <ele>-14.800000190735</ele>
        <time>2020-01-16T10:51:28.000Z</time>
      </trkpt>
      <trkpt lat="47.29556" lon="-2.39541">
        <ele>-14.800000190735</ele>
        <time>2020-01-16T10:51:29.000Z</time>
      </trkpt>
      <trkpt lat="47.29555" lon="-2.39538">
        <ele>-15.39999961853</ele>
        <time>2020-01-16T10:51:30.000Z</time>
      </trkpt>
      <trkpt lat="47.29555" lon="-2.39535">
        <ele>-15.800000190735</ele>
        <time>2020-01-16T10:51:31.000Z</time>
      </trkpt>
      <trkpt lat="47.29555" lon="-2.39532">
        <ele>-16.39999961853</ele>
        <time>2020-01-16T10:51:32.000Z</time>
      </trkpt>
      <trkpt lat="47.29557" lon="-2.39529">
        <ele>-16.799999237061</ele>
        <time>2020-01-16T10:51:33.000Z</time>
      </trkpt>
      <trkpt lat="47.29559" lon="-2.39528">
        <ele>-17.60000038147</ele>
        <time>2020-01-16T10:51:34.000Z</time>
      </trkpt>
      <trkpt lat="47.2956" lon="-2.39528">
        <ele>-18.200000762939</ele>
        <time>2020-01-16T10:51:35.000Z</time>
      </trkpt>
      <trkpt lat="47.2956" lon="-2.39528">
        <ele>-18.60000038147</ele>
        <time>2020-01-16T10:51:36.000Z</time>
      </trkpt>
      <trkpt lat="47.29561" lon="-2.39527">
        <ele>-19.39999961853</ele>
        <time>2020-01-16T10:51:47.000Z</time>
      </trkpt>
      <trkpt lat="47.29566" lon="-2.39516">
        <ele>-19.39999961853</ele>
        <time>2020-01-16T10:51:51.000Z</time>
      </trkpt>
      <trkpt lat="47.29559" lon="-2.39512">
        <ele>-19.39999961853</ele>
        <time>2020-01-16T10:51:54.000Z</time>
      </trkpt>
      <trkpt lat="47.29555" lon="-2.39505">
        <ele>-19.39999961853</ele>
        <time>2020-01-16T10:51:57.000Z</time>
      </trkpt>
      <trkpt lat="47.29556" lon="-2.39502">
        <ele>-19.799999237061</ele>
        <time>2020-01-16T10:51:58.000Z</time>
      </trkpt>
      <trkpt lat="47.29557" lon="-2.39497">
        <ele>-20.200000762939</ele>
        <time>2020-01-16T10:51:59.000Z</time>
      </trkpt>
      <trkpt lat="47.29558" lon="-2.39493">
        <ele>-20.60000038147</ele>
        <time>2020-01-16T10:52:00.000Z</time>
      </trkpt>
      <trkpt lat="47.29557" lon="-2.3949">
        <ele>-21</ele>
        <time>2020-01-16T10:52:01.000Z</time>
      </trkpt>
      <trkpt lat="47.29556" lon="-2.39488">
        <ele>-21.39999961853</ele>
        <time>2020-01-16T10:52:02.000Z</time>
      </trkpt>
      <trkpt lat="47.29556" lon="-2.39482">
        <ele>-21.39999961853</ele>
        <time>2020-01-16T10:52:05.000Z</time>
      </trkpt>
      <trkpt lat="47.2956" lon="-2.39485">
        <ele>-21.39999961853</ele>
        <time>2020-01-16T10:52:08.000Z</time>
      </trkpt>
      <trkpt lat="47.29565" lon="-2.39492">
        <ele>-21.39999961853</ele>
        <time>2020-01-16T10:52:12.000Z</time>
      </trkpt>
      <trkpt lat="47.29573" lon="-2.39495">
        <ele>-21.39999961853</ele>
        <time>2020-01-16T10:52:15.000Z</time>
      </trkpt>
      <trkpt lat="47.29579" lon="-2.39498">
        <ele>-21.39999961853</ele>
        <time>2020-01-16T10:52:18.000Z</time>
      </trkpt>
      <trkpt lat="47.2959" lon="-2.39496">
        <ele>-21.39999961853</ele>
        <time>2020-01-16T10:52:23.000Z</time>
      </trkpt>
      <trkpt lat="47.29595" lon="-2.39491">
        <ele>-21.39999961853</ele>
        <time>2020-01-16T10:52:25.000Z</time>
      </trkpt>
      <trkpt lat="47.29599" lon="-2.39482">
        <ele>-21.39999961853</ele>
        <time>2020-01-16T10:52:27.000Z</time>
      </trkpt>
      <trkpt lat="47.29614" lon="-2.39458">
        <ele>-21.39999961853</ele>
        <time>2020-01-16T10:52:33.000Z</time>
      </trkpt>
      <trkpt lat="47.2963" lon="-2.39432">
        <ele>-21.39999961853</ele>
        <time>2020-01-16T10:52:40.000Z</time>
      </trkpt>
      <trkpt lat="47.29633" lon="-2.39413">
        <ele>-21.39999961853</ele>
        <time>2020-01-16T10:52:44.000Z</time>
      </trkpt>
      <trkpt lat="47.29634" lon="-2.39401">
        <ele>-21.39999961853</ele>
        <time>2020-01-16T10:52:46.000Z</time>
      </trkpt>
      <trkpt lat="47.29638" lon="-2.3939">
        <ele>-21.39999961853</ele>
        <time>2020-01-16T10:52:48.000Z</time>
      </trkpt>
      <trkpt lat="47.29642" lon="-2.39364">
        <ele>-21.39999961853</ele>
        <time>2020-01-16T10:52:52.000Z</time>
      </trkpt>
      <trkpt lat="47.29642" lon="-2.39357">
        <ele>-21.39999961853</ele>
        <time>2020-01-16T10:52:53.000Z</time>
      </trkpt>
      <trkpt lat="47.29646" lon="-2.39304">
        <ele>-21.39999961853</ele>
        <time>2020-01-16T10:53:00.000Z</time>
      </trkpt>
      <trkpt lat="47.29649" lon="-2.39268">
        <ele>-21.39999961853</ele>
        <time>2020-01-16T10:53:05.000Z</time>
      </trkpt>
      <trkpt lat="47.29651" lon="-2.39253">
        <ele>-21.39999961853</ele>
        <time>2020-01-16T10:53:07.000Z</time>
      </trkpt>
      <trkpt lat="47.29653" lon="-2.39238">
        <ele>-21.39999961853</ele>
        <time>2020-01-16T10:53:09.000Z</time>
      </trkpt>
      <trkpt lat="47.2966" lon="-2.39212">
        <ele>-21.39999961853</ele>
        <time>2020-01-16T10:53:13.000Z</time>
      </trkpt>
      <trkpt lat="47.29667" lon="-2.39189">
        <ele>-21.39999961853</ele>
        <time>2020-01-16T10:53:17.000Z</time>
      </trkpt>
      <trkpt lat="47.2967" lon="-2.39183">
        <ele>-21.39999961853</ele>
        <time>2020-01-16T10:53:18.000Z</time>
      </trkpt>
      <trkpt lat="47.29684" lon="-2.39173">
        <ele>-21.39999961853</ele>
        <time>2020-01-16T10:53:21.000Z</time>
      </trkpt>
      <trkpt lat="47.29689" lon="-2.39171">
        <ele>-21.39999961853</ele>
        <time>2020-01-16T10:53:22.000Z</time>
      </trkpt>
      <trkpt lat="47.2972" lon="-2.39156">
        <ele>-21</ele>
        <time>2020-01-16T10:53:28.000Z</time>
      </trkpt>
      <trkpt lat="47.29725" lon="-2.39153">
        <ele>-20.60000038147</ele>
        <time>2020-01-16T10:53:29.000Z</time>
      </trkpt>
      <trkpt lat="47.2973" lon="-2.39151">
        <ele>-20.200000762939</ele>
        <time>2020-01-16T10:53:30.000Z</time>
      </trkpt>
      <trkpt lat="47.29735" lon="-2.39148">
        <ele>-19.799999237061</ele>
        <time>2020-01-16T10:53:31.000Z</time>
      </trkpt>
      <trkpt lat="47.2974" lon="-2.39145">
        <ele>-19.39999961853</ele>
        <time>2020-01-16T10:53:32.000Z</time>
      </trkpt>
      <trkpt lat="47.29754" lon="-2.39135">
        <ele>-19.39999961853</ele>
        <time>2020-01-16T10:53:35.000Z</time>
      </trkpt>
      <trkpt lat="47.29795" lon="-2.39114">
        <ele>-19.39999961853</ele>
        <time>2020-01-16T10:53:43.000Z</time>
      </trkpt>
      <trkpt lat="47.29831" lon="-2.39095">
        <ele>-19.39999961853</ele>
        <time>2020-01-16T10:53:50.000Z</time>
      </trkpt>
      <trkpt lat="47.29865" lon="-2.39072">
        <ele>-19</ele>
        <time>2020-01-16T10:53:57.000Z</time>
      </trkpt>
      <trkpt lat="47.2987" lon="-2.39069">
        <ele>-18.60000038147</ele>
        <time>2020-01-16T10:53:58.000Z</time>
      </trkpt>
      <trkpt lat="47.29875" lon="-2.39065">
        <ele>-18.200000762939</ele>
        <time>2020-01-16T10:53:59.000Z</time>
      </trkpt>
      <trkpt lat="47.29879" lon="-2.39061">
        <ele>-17.799999237061</ele>
        <time>2020-01-16T10:54:00.000Z</time>
      </trkpt>
      <trkpt lat="47.29884" lon="-2.39058">
        <ele>-17.39999961853</ele>
        <time>2020-01-16T10:54:01.000Z</time>
      </trkpt>
      <trkpt lat="47.29904" lon="-2.39044">
        <ele>-17.39999961853</ele>
        <time>2020-01-16T10:54:05.000Z</time>
      </trkpt>
      <trkpt lat="47.29938" lon="-2.39018">
        <ele>-17.39999961853</ele>
        <time>2020-01-16T10:54:12.000Z</time>
      </trkpt>
      <trkpt lat="47.29943" lon="-2.39015">
        <ele>-17</ele>
        <time>2020-01-16T10:54:13.000Z</time>
      </trkpt>
      <trkpt lat="47.29948" lon="-2.39011">
        <ele>-16.60000038147</ele>
        <time>2020-01-16T10:54:14.000Z</time>
      </trkpt>
      <trkpt lat="47.29952" lon="-2.39008">
        <ele>-16.200000762939</ele>
        <time>2020-01-16T10:54:15.000Z</time>
      </trkpt>
      <trkpt lat="47.29957" lon="-2.39005">
        <ele>-15.800000190735</ele>
        <time>2020-01-16T10:54:16.000Z</time>
      </trkpt>
      <trkpt lat="47.29962" lon="-2.39002">
        <ele>-15.39999961853</ele>
        <time>2020-01-16T10:54:17.000Z</time>
      </trkpt>
      <trkpt lat="47.29976" lon="-2.38994">
        <ele>-15.39999961853</ele>
        <time>2020-01-16T10:54:20.000Z</time>
      </trkpt>
      <trkpt lat="47.29985" lon="-2.3899">
        <ele>-15.39999961853</ele>
        <time>2020-01-16T10:54:22.000Z</time>
      </trkpt>
      <trkpt lat="47.29998" lon="-2.38984">
        <ele>-14.800000190735</ele>
        <time>2020-01-16T10:54:25.000Z</time>
      </trkpt>
      <trkpt lat="47.3" lon="-2.38979">
        <ele>-14</ele>
        <time>2020-01-16T10:54:26.000Z</time>
      </trkpt>
      <trkpt lat="47.30002" lon="-2.38973">
        <ele>-13.60000038147</ele>
        <time>2020-01-16T10:54:27.000Z</time>
      </trkpt>
      <trkpt lat="47.30004" lon="-2.38966">
        <ele>-13.199999809265</ele>
        <time>2020-01-16T10:54:28.000Z</time>
      </trkpt>
      <trkpt lat="47.30005" lon="-2.38937">
        <ele>-13.199999809265</ele>
        <time>2020-01-16T10:54:32.000Z</time>
      </trkpt>
      <trkpt lat="47.30006" lon="-2.38924">
        <ele>-13.199999809265</ele>
        <time>2020-01-16T10:54:34.000Z</time>
      </trkpt>
      <trkpt lat="47.30006" lon="-2.38918">
        <ele>-13.199999809265</ele>
        <time>2020-01-16T10:54:35.000Z</time>
      </trkpt>
      <trkpt lat="47.30005" lon="-2.38912">
        <ele>-13.199999809265</ele>
        <time>2020-01-16T10:54:36.000Z</time>
      </trkpt>
      <trkpt lat="47.30005" lon="-2.38906">
        <ele>-12.800000190735</ele>
        <time>2020-01-16T10:54:37.000Z</time>
      </trkpt>
      <trkpt lat="47.30005" lon="-2.38899">
        <ele>-12.39999961853</ele>
        <time>2020-01-16T10:54:38.000Z</time>
      </trkpt>
      <trkpt lat="47.30005" lon="-2.38893">
        <ele>-12</ele>
        <time>2020-01-16T10:54:39.000Z</time>
      </trkpt>
      <trkpt lat="47.30005" lon="-2.38887">
        <ele>-11.39999961853</ele>
        <time>2020-01-16T10:54:40.000Z</time>
      </trkpt>
      <trkpt lat="47.30004" lon="-2.38881">
        <ele>-11</ele>
        <time>2020-01-16T10:54:41.000Z</time>
      </trkpt>
      <trkpt lat="47.30004" lon="-2.38875">
        <ele>-11</ele>
        <time>2020-01-16T10:54:42.000Z</time>
      </trkpt>
      <trkpt lat="47.30005" lon="-2.3885">
        <ele>-10.60000038147</ele>
        <time>2020-01-16T10:54:46.000Z</time>
      </trkpt>
      <trkpt lat="47.30005" lon="-2.38844">
        <ele>-10.199999809265</ele>
        <time>2020-01-16T10:54:47.000Z</time>
      </trkpt>
      <trkpt lat="47.30006" lon="-2.38838">
        <ele>-9.8000001907349</ele>
        <time>2020-01-16T10:54:48.000Z</time>
      </trkpt>
      <trkpt lat="47.30007" lon="-2.38831">
        <ele>-9.3999996185303</ele>
        <time>2020-01-16T10:54:49.000Z</time>
      </trkpt>
      <trkpt lat="47.30008" lon="-2.38825">
        <ele>-9</ele>
        <time>2020-01-16T10:54:50.000Z</time>
      </trkpt>
      <trkpt lat="47.3001" lon="-2.38798">
        <ele>-9</ele>
        <time>2020-01-16T10:54:54.000Z</time>
      </trkpt>
      <trkpt lat="47.30011" lon="-2.38792">
        <ele>-8.6000003814697</ele>
        <time>2020-01-16T10:54:55.000Z</time>
      </trkpt>
      <trkpt lat="47.30011" lon="-2.38786">
        <ele>-8</ele>
        <time>2020-01-16T10:54:56.000Z</time>
      </trkpt>
      <trkpt lat="47.30012" lon="-2.3878">
        <ele>-7.5999999046326</ele>
        <time>2020-01-16T10:54:57.000Z</time>
      </trkpt>
      <trkpt lat="47.30013" lon="-2.38774">
        <ele>-7.1999998092651</ele>
        <time>2020-01-16T10:54:58.000Z</time>
      </trkpt>
      <trkpt lat="47.30014" lon="-2.38768">
        <ele>-6.8000001907349</ele>
        <time>2020-01-16T10:54:59.000Z</time>
      </trkpt>
      <trkpt lat="47.30015" lon="-2.38762">
        <ele>-6.8000001907349</ele>
        <time>2020-01-16T10:55:00.000Z</time>
      </trkpt>
      <trkpt lat="47.30017" lon="-2.3875">
        <ele>-6.4000000953674</ele>
        <time>2020-01-16T10:55:02.000Z</time>
      </trkpt>
      <trkpt lat="47.30018" lon="-2.38745">
        <ele>-6</ele>
        <time>2020-01-16T10:55:03.000Z</time>
      </trkpt>
      <trkpt lat="47.30019" lon="-2.38739">
        <ele>-5.5999999046326</ele>
        <time>2020-01-16T10:55:04.000Z</time>
      </trkpt>
      <trkpt lat="47.3002" lon="-2.38732">
        <ele>-5.1999998092651</ele>
        <time>2020-01-16T10:55:05.000Z</time>
      </trkpt>
      <trkpt lat="47.30021" lon="-2.38727">
        <ele>-4.8000001907349</ele>
        <time>2020-01-16T10:55:06.000Z</time>
      </trkpt>
      <trkpt lat="47.30027" lon="-2.38686">
        <ele>-4.8000001907349</ele>
        <time>2020-01-16T10:55:13.000Z</time>
      </trkpt>
      <trkpt lat="47.30027" lon="-2.3868">
        <ele>-4.1999998092651</ele>
        <time>2020-01-16T10:55:14.000Z</time>
      </trkpt>
      <trkpt lat="47.30027" lon="-2.38675">
        <ele>-3.7999999523163</ele>
        <time>2020-01-16T10:55:15.000Z</time>
      </trkpt>
      <trkpt lat="47.30027" lon="-2.38669">
        <ele>-3</ele>
        <time>2020-01-16T10:55:16.000Z</time>
      </trkpt>
      <trkpt lat="47.30027" lon="-2.38664">
        <ele>-2.5999999046326</ele>
        <time>2020-01-16T10:55:17.000Z</time>
      </trkpt>
      <trkpt lat="47.30027" lon="-2.38658">
        <ele>-2.5999999046326</ele>
        <time>2020-01-16T10:55:18.000Z</time>
      </trkpt>
      <trkpt lat="47.30026" lon="-2.38638">
        <ele>-2.2000000476837</ele>
        <time>2020-01-16T10:55:22.000Z</time>
      </trkpt>
      <trkpt lat="47.30025" lon="-2.38633">
        <ele>-1.7999999523163</ele>
        <time>2020-01-16T10:55:23.000Z</time>
      </trkpt>
      <trkpt lat="47.30025" lon="-2.38627">
        <ele>-1.2000000476837</ele>
        <time>2020-01-16T10:55:24.000Z</time>
      </trkpt>
      <trkpt lat="47.30024" lon="-2.38622">
        <ele>-0.80000001192093</ele>
        <time>2020-01-16T10:55:25.000Z</time>
      </trkpt>
      <trkpt lat="47.30024" lon="-2.38616">
        <ele>-0.40000000596046</ele>
        <time>2020-01-16T10:55:26.000Z</time>
      </trkpt>
      <trkpt lat="47.30024" lon="-2.38588">
        <ele>-0.40000000596046</ele>
        <time>2020-01-16T10:55:31.000Z</time>
      </trkpt>
      <trkpt lat="47.30022" lon="-2.38572">
        <ele>29.1</ele>
        <time>2020-01-16T10:55:34.000Z</time>
      </trkpt>
      <trkpt lat="47.30021" lon="-2.38567">
        <ele>0.40000000596046</ele>
        <time>2020-01-16T10:55:35.000Z</time>
      </trkpt>
      <trkpt lat="47.3002" lon="-2.38562">
        <ele>0.80000001192093</ele>
        <time>2020-01-16T10:55:36.000Z</time>
      </trkpt>
      <trkpt lat="47.30019" lon="-2.38556">
        <ele>1.2000000476837</ele>
        <time>2020-01-16T10:55:37.000Z</time>
      </trkpt>
      <trkpt lat="47.30019" lon="-2.38551">
        <ele>1.6000000238419</ele>
        <time>2020-01-16T10:55:38.000Z</time>
      </trkpt>
      <trkpt lat="47.30017" lon="-2.38541">
        <ele>2</ele>
        <time>2020-01-16T10:55:40.000Z</time>
      </trkpt>
      <trkpt lat="47.30016" lon="-2.38535">
        <ele>2.4000000953674</ele>
        <time>2020-01-16T10:55:41.000Z</time>
      </trkpt>
      <trkpt lat="47.30016" lon="-2.3853">
        <ele>2.7999999523163</ele>
        <time>2020-01-16T10:55:42.000Z</time>
      </trkpt>
      <trkpt lat="47.30015" lon="-2.38525">
        <ele>3.2000000476837</ele>
        <time>2020-01-16T10:55:43.000Z</time>
      </trkpt>
      <trkpt lat="47.30014" lon="-2.3852">
        <ele>3.7999999523163</ele>
        <time>2020-01-16T10:55:44.000Z</time>
      </trkpt>
      <trkpt lat="47.30012" lon="-2.38504">
        <ele>4.1999998092651</ele>
        <time>2020-01-16T10:55:47.000Z</time>
      </trkpt>
      <trkpt lat="47.30011" lon="-2.385">
        <ele>4.5999999046326</ele>
        <time>2020-01-16T10:55:48.000Z</time>
      </trkpt>
      <trkpt lat="47.3001" lon="-2.38496">
        <ele>5</ele>
        <time>2020-01-16T10:55:49.000Z</time>
      </trkpt>
      <trkpt lat="47.30009" lon="-2.38491">
        <ele>5.5999999046326</ele>
        <time>2020-01-16T10:55:50.000Z</time>
      </trkpt>
      <trkpt lat="47.30008" lon="-2.38485">
        <ele>6</ele>
        <time>2020-01-16T10:55:51.000Z</time>
      </trkpt>
      <trkpt lat="47.30004" lon="-2.38457">
        <ele>6</ele>
        <time>2020-01-16T10:55:56.000Z</time>
      </trkpt>
      <trkpt lat="47.29999" lon="-2.38411">
        <ele>6</ele>
        <time>2020-01-16T10:56:03.000Z</time>
      </trkpt>
      <trkpt lat="47.29995" lon="-2.38358">
        <ele>6</ele>
        <time>2020-01-16T10:56:10.000Z</time>
      </trkpt>
      <trkpt lat="47.29994" lon="-2.38304">
        <ele>6</ele>
        <time>2020-01-16T10:56:17.000Z</time>
      </trkpt>
      <trkpt lat="47.29994" lon="-2.3822">
        <ele>6</ele>
        <time>2020-01-16T10:56:27.000Z</time>
      </trkpt>
      <trkpt lat="47.29991" lon="-2.38161">
        <ele>6</ele>
        <time>2020-01-16T10:56:34.000Z</time>
      </trkpt>
      <trkpt lat="47.2999" lon="-2.38109">
        <ele>5.5999999046326</ele>
        <time>2020-01-16T10:56:40.000Z</time>
      </trkpt>
      <trkpt lat="47.2999" lon="-2.381">
        <ele>5.1999998092651</ele>
        <time>2020-01-16T10:56:41.000Z</time>
      </trkpt>
      <trkpt lat="47.2999" lon="-2.38091">
        <ele>4.8000001907349</ele>
        <time>2020-01-16T10:56:42.000Z</time>
      </trkpt>
      <trkpt lat="47.29991" lon="-2.3808">
        <ele>4.4000000953674</ele>
        <time>2020-01-16T10:56:43.000Z</time>
      </trkpt>
      <trkpt lat="47.29991" lon="-2.3807">
        <ele>4</ele>
        <time>2020-01-16T10:56:44.000Z</time>
      </trkpt>
      <trkpt lat="47.29991" lon="-2.38028">
        <ele>4</ele>
        <time>2020-01-16T10:56:48.000Z</time>
      </trkpt>
      <trkpt lat="47.29991" lon="-2.38018">
        <ele>3.5999999046326</ele>
        <time>2020-01-16T10:56:49.000Z</time>
      </trkpt>
      <trkpt lat="47.29991" lon="-2.38008">
        <ele>3.2000000476837</ele>
        <time>2020-01-16T10:56:50.000Z</time>
      </trkpt>
      <trkpt lat="47.29991" lon="-2.38">
        <ele>2.5999999046326</ele>
        <time>2020-01-16T10:56:51.000Z</time>
      </trkpt>
      <trkpt lat="47.29991" lon="-2.37991">
        <ele>2.2000000476837</ele>
        <time>2020-01-16T10:56:52.000Z</time>
      </trkpt>
      <trkpt lat="47.2999" lon="-2.37983">
        <ele>1.7999999523163</ele>
        <time>2020-01-16T10:56:53.000Z</time>
      </trkpt>
      <trkpt lat="47.2999" lon="-2.37974">
        <ele>1.7999999523163</ele>
        <time>2020-01-16T10:56:54.000Z</time>
      </trkpt>
      <trkpt lat="47.29989" lon="-2.37965">
        <ele>1.7999999523163</ele>
        <time>2020-01-16T10:56:55.000Z</time>
      </trkpt>
      <trkpt lat="47.29981" lon="-2.37942">
        <ele>1.7999999523163</ele>
        <time>2020-01-16T10:56:58.000Z</time>
      </trkpt>
      <trkpt lat="47.29973" lon="-2.3793">
        <ele>1.7999999523163</ele>
        <time>2020-01-16T10:57:00.000Z</time>
      </trkpt>
      <trkpt lat="47.29963" lon="-2.37919">
        <ele>1.7999999523163</ele>
        <time>2020-01-16T10:57:02.000Z</time>
      </trkpt>
      <trkpt lat="47.29932" lon="-2.37883">
        <ele>1.7999999523163</ele>
        <time>2020-01-16T10:57:09.000Z</time>
      </trkpt>
      <trkpt lat="47.29917" lon="-2.37866">
        <ele>2.2000000476837</ele>
        <time>2020-01-16T10:57:13.000Z</time>
      </trkpt>
      <trkpt lat="47.29913" lon="-2.37861">
        <ele>2.7999999523163</ele>
        <time>2020-01-16T10:57:14.000Z</time>
      </trkpt>
      <trkpt lat="47.2991" lon="-2.37858">
        <ele>3.2000000476837</ele>
        <time>2020-01-16T10:57:15.000Z</time>
      </trkpt>
      <trkpt lat="47.29907" lon="-2.37854">
        <ele>3.5999999046326</ele>
        <time>2020-01-16T10:57:16.000Z</time>
      </trkpt>
      <trkpt lat="47.29904" lon="-2.37851">
        <ele>4</ele>
        <time>2020-01-16T10:57:17.000Z</time>
      </trkpt>
      <trkpt lat="47.29899" lon="-2.37845">
        <ele>4.4000000953674</ele>
        <time>2020-01-16T10:57:19.000Z</time>
      </trkpt>
      <trkpt lat="47.29897" lon="-2.37842">
        <ele>4.8000001907349</ele>
        <time>2020-01-16T10:57:20.000Z</time>
      </trkpt>
      <trkpt lat="47.29895" lon="-2.37838">
        <ele>5.4000000953674</ele>
        <time>2020-01-16T10:57:21.000Z</time>
      </trkpt>
      <trkpt lat="47.29893" lon="-2.37835">
        <ele>5.8000001907349</ele>
        <time>2020-01-16T10:57:22.000Z</time>
      </trkpt>
      <trkpt lat="47.2989" lon="-2.37832">
        <ele>6.1999998092651</ele>
        <time>2020-01-16T10:57:23.000Z</time>
      </trkpt>
      <trkpt lat="47.29881" lon="-2.37822">
        <ele>6.1999998092651</ele>
        <time>2020-01-16T10:57:27.000Z</time>
      </trkpt>
      <trkpt lat="47.29874" lon="-2.37814">
        <ele>6.5999999046326</ele>
        <time>2020-01-16T10:57:30.000Z</time>
      </trkpt>
      <trkpt lat="47.29872" lon="-2.37814">
        <ele>7</ele>
        <time>2020-01-16T10:57:31.000Z</time>
      </trkpt>
      <trkpt lat="47.2987" lon="-2.37815">
        <ele>7.4000000953674</ele>
        <time>2020-01-16T10:57:32.000Z</time>
      </trkpt>
      <trkpt lat="47.29868" lon="-2.37818">
        <ele>7.8000001907349</ele>
        <time>2020-01-16T10:57:33.000Z</time>
      </trkpt>
      <trkpt lat="47.29867" lon="-2.37821">
        <ele>8.1999998092651</ele>
        <time>2020-01-16T10:57:34.000Z</time>
      </trkpt>
      <trkpt lat="47.29864" lon="-2.37828">
        <ele>8.1999998092651</ele>
        <time>2020-01-16T10:57:36.000Z</time>
      </trkpt>
      <trkpt lat="47.29858" lon="-2.37843">
        <ele>8.1999998092651</ele>
        <time>2020-01-16T10:57:41.000Z</time>
      </trkpt>
      <trkpt lat="47.29848" lon="-2.37864">
        <ele>8.1999998092651</ele>
        <time>2020-01-16T10:57:46.000Z</time>
      </trkpt>
      <trkpt lat="47.29839" lon="-2.37877">
        <ele>8.1999998092651</ele>
        <time>2020-01-16T10:57:50.000Z</time>
      </trkpt>
      <trkpt lat="47.29833" lon="-2.37883">
        <ele>8.8000001907349</ele>
        <time>2020-01-16T10:57:54.000Z</time>
      </trkpt>
      <trkpt lat="47.2983" lon="-2.37885">
        <ele>9.1999998092651</ele>
        <time>2020-01-16T10:57:55.000Z</time>
      </trkpt>
      <trkpt lat="47.29828" lon="-2.37887">
        <ele>9.6000003814697</ele>
        <time>2020-01-16T10:57:56.000Z</time>
      </trkpt>
      <trkpt lat="47.29824" lon="-2.37889">
        <ele>10</ele>
        <time>2020-01-16T10:57:57.000Z</time>
      </trkpt>
      <trkpt lat="47.29821" lon="-2.37891">
        <ele>10.39999961853</ele>
        <time>2020-01-16T10:57:58.000Z</time>
      </trkpt>
      <trkpt lat="47.29817" lon="-2.37893">
        <ele>10.39999961853</ele>
        <time>2020-01-16T10:57:59.000Z</time>
      </trkpt>
      <trkpt lat="47.29802" lon="-2.37902">
        <ele>10.39999961853</ele>
        <time>2020-01-16T10:58:04.000Z</time>
      </trkpt>
      <trkpt lat="47.29783" lon="-2.37915">
        <ele>10.39999961853</ele>
        <time>2020-01-16T10:58:09.000Z</time>
      </trkpt>
      <trkpt lat="47.2976" lon="-2.37937">
        <ele>10.39999961853</ele>
        <time>2020-01-16T10:58:15.000Z</time>
      </trkpt>
      <trkpt lat="47.29753" lon="-2.37947">
        <ele>10.39999961853</ele>
        <time>2020-01-16T10:58:17.000Z</time>
      </trkpt>
      <trkpt lat="47.29746" lon="-2.37957">
        <ele>10.39999961853</ele>
        <time>2020-01-16T10:58:19.000Z</time>
      </trkpt>
      <trkpt lat="47.29744" lon="-2.37963">
        <ele>9.8000001907349</ele>
        <time>2020-01-16T10:58:20.000Z</time>
      </trkpt>
      <trkpt lat="47.29741" lon="-2.37968">
        <ele>9.1999998092651</ele>
        <time>2020-01-16T10:58:21.000Z</time>
      </trkpt>
      <trkpt lat="47.29738" lon="-2.37973">
        <ele>8.8000001907349</ele>
        <time>2020-01-16T10:58:22.000Z</time>
      </trkpt>
      <trkpt lat="47.29736" lon="-2.37978">
        <ele>8.1999998092651</ele>
        <time>2020-01-16T10:58:23.000Z</time>
      </trkpt>
      <trkpt lat="47.29733" lon="-2.37983">
        <ele>7.5999999046326</ele>
        <time>2020-01-16T10:58:24.000Z</time>
      </trkpt>
      <trkpt lat="47.29731" lon="-2.37989">
        <ele>7.1999998092651</ele>
        <time>2020-01-16T10:58:25.000Z</time>
      </trkpt>
      <trkpt lat="47.2973" lon="-2.37993">
        <ele>6.5999999046326</ele>
        <time>2020-01-16T10:58:26.000Z</time>
      </trkpt>
      <trkpt lat="47.29729" lon="-2.37999">
        <ele>6</ele>
        <time>2020-01-16T10:58:27.000Z</time>
      </trkpt>
      <trkpt lat="47.29729" lon="-2.38005">
        <ele>5.4000000953674</ele>
        <time>2020-01-16T10:58:28.000Z</time>
      </trkpt>
      <trkpt lat="47.2973" lon="-2.38012">
        <ele>5</ele>
        <time>2020-01-16T10:58:29.000Z</time>
      </trkpt>
      <trkpt lat="47.29731" lon="-2.38019">
        <ele>4.4000000953674</ele>
        <time>2020-01-16T10:58:30.000Z</time>
      </trkpt>
      <trkpt lat="47.29732" lon="-2.38025">
        <ele>4</ele>
        <time>2020-01-16T10:58:31.000Z</time>
      </trkpt>
      <trkpt lat="47.29732" lon="-2.3803">
        <ele>3.2000000476837</ele>
        <time>2020-01-16T10:58:32.000Z</time>
      </trkpt>
      <trkpt lat="47.29731" lon="-2.38035">
        <ele>2</ele>
        <time>2020-01-16T10:58:33.000Z</time>
      </trkpt>
      <trkpt lat="47.29728" lon="-2.38038">
        <ele>1.2000000476837</ele>
        <time>2020-01-16T10:58:34.000Z</time>
      </trkpt>
      <trkpt lat="47.29724" lon="-2.38041">
        <ele>0.40000000596046</ele>
        <time>2020-01-16T10:58:35.000Z</time>
      </trkpt>
      <trkpt lat="47.2972" lon="-2.38045">
        <ele>-0.20000000298023</ele>
        <time>2020-01-16T10:58:36.000Z</time>
      </trkpt>
      <trkpt lat="47.29715" lon="-2.3805">
        <ele>-1</ele>
        <time>2020-01-16T10:58:37.000Z</time>
      </trkpt>
      <trkpt lat="47.29709" lon="-2.38055">
        <ele>-1.7999999523163</ele>
        <time>2020-01-16T10:58:38.000Z</time>
      </trkpt>
      <trkpt lat="47.29704" lon="-2.38061">
        <ele>-2.2000000476837</ele>
        <time>2020-01-16T10:58:39.000Z</time>
      </trkpt>
      <trkpt lat="47.29698" lon="-2.38066">
        <ele>-2.5999999046326</ele>
        <time>2020-01-16T10:58:40.000Z</time>
      </trkpt>
      <trkpt lat="47.29691" lon="-2.38073">
        <ele>-3</ele>
        <time>2020-01-16T10:58:41.000Z</time>
      </trkpt>
      <trkpt lat="47.29685" lon="-2.38078">
        <ele>-3.4000000953674</ele>
        <time>2020-01-16T10:58:42.000Z</time>
      </trkpt>
      <trkpt lat="47.29678" lon="-2.38083">
        <ele>-3.7999999523163</ele>
        <time>2020-01-16T10:58:43.000Z</time>
      </trkpt>
      <trkpt lat="47.29671" lon="-2.38087">
        <ele>-4.4000000953674</ele>
        <time>2020-01-16T10:58:44.000Z</time>
      </trkpt>
      <trkpt lat="47.29664" lon="-2.38091">
        <ele>-4.8000001907349</ele>
        <time>2020-01-16T10:58:45.000Z</time>
      </trkpt>
      <trkpt lat="47.29657" lon="-2.38095">
        <ele>-5.4000000953674</ele>
        <time>2020-01-16T10:58:46.000Z</time>
      </trkpt>
      <trkpt lat="47.2965" lon="-2.38099">
        <ele>-6</ele>
        <time>2020-01-16T10:58:47.000Z</time>
      </trkpt>
      <trkpt lat="47.29643" lon="-2.38103">
        <ele>-6.4000000953674</ele>
        <time>2020-01-16T10:58:48.000Z</time>
      </trkpt>
      <trkpt lat="47.29636" lon="-2.38106">
        <ele>-7</ele>
        <time>2020-01-16T10:58:49.000Z</time>
      </trkpt>
      <trkpt lat="47.29629" lon="-2.38109">
        <ele>-7.4000000953674</ele>
        <time>2020-01-16T10:58:50.000Z</time>
      </trkpt>
      <trkpt lat="47.29622" lon="-2.38111">
        <ele>-8</ele>
        <time>2020-01-16T10:58:51.000Z</time>
      </trkpt>
      <trkpt lat="47.29615" lon="-2.38114">
        <ele>-8.3999996185303</ele>
        <time>2020-01-16T10:58:52.000Z</time>
      </trkpt>
      <trkpt lat="47.29608" lon="-2.38116">
        <ele>-9</ele>
        <time>2020-01-16T10:58:53.000Z</time>
      </trkpt>
      <trkpt lat="47.29601" lon="-2.38117">
        <ele>-9.3999996185303</ele>
        <time>2020-01-16T10:58:54.000Z</time>
      </trkpt>
      <trkpt lat="47.29593" lon="-2.38119">
        <ele>-10</ele>
        <time>2020-01-16T10:58:55.000Z</time>
      </trkpt>
      <trkpt lat="47.29586" lon="-2.3812">
        <ele>-10.39999961853</ele>
        <time>2020-01-16T10:58:56.000Z</time>
      </trkpt>
      <trkpt lat="47.29578" lon="-2.38122">
        <ele>-11</ele>
        <time>2020-01-16T10:58:57.000Z</time>
      </trkpt>
      <trkpt lat="47.29571" lon="-2.38123">
        <ele>-11</ele>
        <time>2020-01-16T10:58:58.000Z</time>
      </trkpt>
      <trkpt lat="47.29564" lon="-2.38125">
        <ele>-11.39999961853</ele>
        <time>2020-01-16T10:58:59.000Z</time>
      </trkpt>
      <trkpt lat="47.29558" lon="-2.38126">
        <ele>-11.800000190735</ele>
        <time>2020-01-16T10:59:00.000Z</time>
      </trkpt>
      <trkpt lat="47.2955" lon="-2.38126">
        <ele>-12.199999809265</ele>
        <time>2020-01-16T10:59:01.000Z</time>
      </trkpt>
      <trkpt lat="47.29543" lon="-2.38126">
        <ele>-12.60000038147</ele>
        <time>2020-01-16T10:59:02.000Z</time>
      </trkpt>
      <trkpt lat="47.29537" lon="-2.38126">
        <ele>-13.199999809265</ele>
        <time>2020-01-16T10:59:03.000Z</time>
      </trkpt>
      <trkpt lat="47.29517" lon="-2.38125">
        <ele>-13.60000038147</ele>
        <time>2020-01-16T10:59:06.000Z</time>
      </trkpt>
      <trkpt lat="47.2951" lon="-2.38124">
        <ele>-14</ele>
        <time>2020-01-16T10:59:07.000Z</time>
      </trkpt>
      <trkpt lat="47.29503" lon="-2.38123">
        <ele>-14.60000038147</ele>
        <time>2020-01-16T10:59:08.000Z</time>
      </trkpt>
      <trkpt lat="47.29496" lon="-2.38124">
        <ele>-15</ele>
        <time>2020-01-16T10:59:09.000Z</time>
      </trkpt>
      <trkpt lat="47.29489" lon="-2.38126">
        <ele>-15.39999961853</ele>
        <time>2020-01-16T10:59:10.000Z</time>
      </trkpt>
      <trkpt lat="47.29471" lon="-2.38134">
        <ele>-15.39999961853</ele>
        <time>2020-01-16T10:59:13.000Z</time>
      </trkpt>
      <trkpt lat="47.29467" lon="-2.38137">
        <ele>-15.800000190735</ele>
        <time>2020-01-16T10:59:14.000Z</time>
      </trkpt>
      <trkpt lat="47.29464" lon="-2.3814">
        <ele>-16.39999961853</ele>
        <time>2020-01-16T10:59:15.000Z</time>
      </trkpt>
      <trkpt lat="47.29461" lon="-2.38143">
        <ele>-16.799999237061</ele>
        <time>2020-01-16T10:59:16.000Z</time>
      </trkpt>
      <trkpt lat="47.29457" lon="-2.38145">
        <ele>-17.200000762939</ele>
        <time>2020-01-16T10:59:17.000Z</time>
      </trkpt>
      <trkpt lat="47.29453" lon="-2.38148">
        <ele>-17.60000038147</ele>
        <time>2020-01-16T10:59:18.000Z</time>
      </trkpt>
      <trkpt lat="47.29446" lon="-2.38147">
        <ele>-17.60000038147</ele>
        <time>2020-01-16T10:59:21.000Z</time>
      </trkpt>
      <trkpt lat="47.29435" lon="-2.38126">
        <ele>-17.60000038147</ele>
        <time>2020-01-16T10:59:25.000Z</time>
      </trkpt>
      <trkpt lat="47.29433" lon="-2.38118">
        <ele>-18</ele>
        <time>2020-01-16T10:59:26.000Z</time>
      </trkpt>
      <trkpt lat="47.29431" lon="-2.38111">
        <ele>-18.39999961853</ele>
        <time>2020-01-16T10:59:27.000Z</time>
      </trkpt>
      <trkpt lat="47.29428" lon="-2.38104">
        <ele>-19</ele>
        <time>2020-01-16T10:59:28.000Z</time>
      </trkpt>
      <trkpt lat="47.29426" lon="-2.38096">
        <ele>-19.39999961853</ele>
        <time>2020-01-16T10:59:29.000Z</time>
      </trkpt>
      <trkpt lat="47.29423" lon="-2.38088">
        <ele>-19.799999237061</ele>
        <time>2020-01-16T10:59:30.000Z</time>
      </trkpt>
      <trkpt lat="47.29417" lon="-2.38073">
        <ele>-19.799999237061</ele>
        <time>2020-01-16T10:59:32.000Z</time>
      </trkpt>
      <trkpt lat="47.29399" lon="-2.38021">
        <ele>-19.799999237061</ele>
        <time>2020-01-16T10:59:39.000Z</time>
      </trkpt>
      <trkpt lat="47.29389" lon="-2.37992">
        <ele>-19.39999961853</ele>
        <time>2020-01-16T10:59:43.000Z</time>
      </trkpt>
      <trkpt lat="47.29387" lon="-2.37986">
        <ele>-19</ele>
        <time>2020-01-16T10:59:44.000Z</time>
      </trkpt>
      <trkpt lat="47.29384" lon="-2.37979">
        <ele>-18.39999961853</ele>
        <time>2020-01-16T10:59:45.000Z</time>
      </trkpt>
      <trkpt lat="47.29382" lon="-2.37972">
        <ele>-18</ele>
        <time>2020-01-16T10:59:46.000Z</time>
      </trkpt>
      <trkpt lat="47.2938" lon="-2.37965">
        <ele>-17.60000038147</ele>
        <time>2020-01-16T10:59:47.000Z</time>
      </trkpt>
      <trkpt lat="47.29375" lon="-2.37951">
        <ele>-17.200000762939</ele>
        <time>2020-01-16T10:59:49.000Z</time>
      </trkpt>
      <trkpt lat="47.29373" lon="-2.37945">
        <ele>-16.799999237061</ele>
        <time>2020-01-16T10:59:50.000Z</time>
      </trkpt>
      <trkpt lat="47.29371" lon="-2.37938">
        <ele>-16.39999961853</ele>
        <time>2020-01-16T10:59:51.000Z</time>
      </trkpt>
      <trkpt lat="47.29369" lon="-2.37932">
        <ele>-16</ele>
        <time>2020-01-16T10:59:52.000Z</time>
      </trkpt>
      <trkpt lat="47.29366" lon="-2.37926">
        <ele>-15.60000038147</ele>
        <time>2020-01-16T10:59:53.000Z</time>
      </trkpt>
      <trkpt lat="47.29356" lon="-2.37896">
        <ele>-15.60000038147</ele>
        <time>2020-01-16T10:59:58.000Z</time>
      </trkpt>
      <trkpt lat="47.29346" lon="-2.37866">
        <ele>-15.60000038147</ele>
        <time>2020-01-16T11:00:03.000Z</time>
      </trkpt>
      <trkpt lat="47.29342" lon="-2.37854">
        <ele>-15.60000038147</ele>
        <time>2020-01-16T11:00:05.000Z</time>
      </trkpt>
      <trkpt lat="47.29341" lon="-2.37847">
        <ele>-15.60000038147</ele>
        <time>2020-01-16T11:00:06.000Z</time>
      </trkpt>
      <trkpt lat="47.29337" lon="-2.37822">
        <ele>-15.60000038147</ele>
        <time>2020-01-16T11:00:10.000Z</time>
      </trkpt>
      <trkpt lat="47.29334" lon="-2.37781">
        <ele>-15.60000038147</ele>
        <time>2020-01-16T11:00:17.000Z</time>
      </trkpt>
      <trkpt lat="47.29332" lon="-2.37749">
        <ele>-15</ele>
        <time>2020-01-16T11:00:24.000Z</time>
      </trkpt>
      <trkpt lat="47.29332" lon="-2.37744">
        <ele>-14.60000038147</ele>
        <time>2020-01-16T11:00:25.000Z</time>
      </trkpt>
      <trkpt lat="47.29332" lon="-2.3774">
        <ele>-14.199999809265</ele>
        <time>2020-01-16T11:00:26.000Z</time>
      </trkpt>
      <trkpt lat="47.29332" lon="-2.37735">
        <ele>-13.800000190735</ele>
        <time>2020-01-16T11:00:27.000Z</time>
      </trkpt>
      <trkpt lat="47.29331" lon="-2.37732">
        <ele>-13.39999961853</ele>
        <time>2020-01-16T11:00:28.000Z</time>
      </trkpt>
      <trkpt lat="47.2933" lon="-2.37724">
        <ele>-13.39999961853</ele>
        <time>2020-01-16T11:00:30.000Z</time>
      </trkpt>
      <trkpt lat="47.2933" lon="-2.37705">
        <ele>-13</ele>
        <time>2020-01-16T11:00:35.000Z</time>
      </trkpt>
      <trkpt lat="47.2933" lon="-2.37701">
        <ele>-12.60000038147</ele>
        <time>2020-01-16T11:00:36.000Z</time>
      </trkpt>
      <trkpt lat="47.29331" lon="-2.37697">
        <ele>-12.199999809265</ele>
        <time>2020-01-16T11:00:37.000Z</time>
      </trkpt>
      <trkpt lat="47.2933" lon="-2.37694">
        <ele>-11.800000190735</ele>
        <time>2020-01-16T11:00:38.000Z</time>
      </trkpt>
      <trkpt lat="47.2933" lon="-2.3769">
        <ele>-11.39999961853</ele>
        <time>2020-01-16T11:00:39.000Z</time>
      </trkpt>
      <trkpt lat="47.29331" lon="-2.3767">
        <ele>-11</ele>
        <time>2020-01-16T11:00:44.000Z</time>
      </trkpt>
      <trkpt lat="47.29331" lon="-2.37665">
        <ele>-10.39999961853</ele>
        <time>2020-01-16T11:00:45.000Z</time>
      </trkpt>
      <trkpt lat="47.2933" lon="-2.37661">
        <ele>-10</ele>
        <time>2020-01-16T11:00:46.000Z</time>
      </trkpt>
      <trkpt lat="47.29329" lon="-2.37657">
        <ele>-9.6000003814697</ele>
        <time>2020-01-16T11:00:47.000Z</time>
      </trkpt>
      <trkpt lat="47.29327" lon="-2.37653">
        <ele>-9.1999998092651</ele>
        <time>2020-01-16T11:00:48.000Z</time>
      </trkpt>
      <trkpt lat="47.29326" lon="-2.37649">
        <ele>-9.1999998092651</ele>
        <time>2020-01-16T11:00:49.000Z</time>
      </trkpt>
      <trkpt lat="47.29318" lon="-2.37619">
        <ele>-9.1999998092651</ele>
        <time>2020-01-16T11:00:55.000Z</time>
      </trkpt>
      <trkpt lat="47.29311" lon="-2.37605">
        <ele>-8.8000001907349</ele>
        <time>2020-01-16T11:00:58.000Z</time>
      </trkpt>
      <trkpt lat="47.29308" lon="-2.37601">
        <ele>-8.3999996185303</ele>
        <time>2020-01-16T11:00:59.000Z</time>
      </trkpt>
      <trkpt lat="47.29305" lon="-2.37596">
        <ele>-8</ele>
        <time>2020-01-16T11:01:00.000Z</time>
      </trkpt>
      <trkpt lat="47.29302" lon="-2.37591">
        <ele>-7.5999999046326</ele>
        <time>2020-01-16T11:01:01.000Z</time>
      </trkpt>
      <trkpt lat="47.29299" lon="-2.37586">
        <ele>-7.1999998092651</ele>
        <time>2020-01-16T11:01:02.000Z</time>
      </trkpt>
      <trkpt lat="47.29283" lon="-2.3756">
        <ele>-7.5999999046326</ele>
        <time>2020-01-16T11:01:07.000Z</time>
      </trkpt>
      <trkpt lat="47.29279" lon="-2.37554">
        <ele>-8</ele>
        <time>2020-01-16T11:01:08.000Z</time>
      </trkpt>
      <trkpt lat="47.29275" lon="-2.37548">
        <ele>-8.3999996185303</ele>
        <time>2020-01-16T11:01:09.000Z</time>
      </trkpt>
      <trkpt lat="47.29272" lon="-2.37542">
        <ele>-9</ele>
        <time>2020-01-16T11:01:10.000Z</time>
      </trkpt>
      <trkpt lat="47.29269" lon="-2.37536">
        <ele>-9.3999996185303</ele>
        <time>2020-01-16T11:01:11.000Z</time>
      </trkpt>
      <trkpt lat="47.29266" lon="-2.3753">
        <ele>-9.3999996185303</ele>
        <time>2020-01-16T11:01:12.000Z</time>
      </trkpt>
      <trkpt lat="47.29252" lon="-2.37512">
        <ele>-9.3999996185303</ele>
        <time>2020-01-16T11:01:16.000Z</time>
      </trkpt>
      <trkpt lat="47.2925" lon="-2.37507">
        <ele>-9.3999996185303</ele>
        <time>2020-01-16T11:01:17.000Z</time>
      </trkpt>
      <trkpt lat="47.29238" lon="-2.37488">
        <ele>-9.3999996185303</ele>
        <time>2020-01-16T11:01:21.000Z</time>
      </trkpt>
      <trkpt lat="47.2923" lon="-2.37474">
        <ele>-9</ele>
        <time>2020-01-16T11:01:24.000Z</time>
      </trkpt>
      <trkpt lat="47.29227" lon="-2.37469">
        <ele>-8.6000003814697</ele>
        <time>2020-01-16T11:01:25.000Z</time>
      </trkpt>
      <trkpt lat="47.29224" lon="-2.37465">
        <ele>-8.1999998092651</ele>
        <time>2020-01-16T11:01:26.000Z</time>
      </trkpt>
      <trkpt lat="47.29221" lon="-2.37459">
        <ele>-7.8000001907349</ele>
        <time>2020-01-16T11:01:27.000Z</time>
      </trkpt>
      <trkpt lat="47.29218" lon="-2.37454">
        <ele>-7.4000000953674</ele>
        <time>2020-01-16T11:01:28.000Z</time>
      </trkpt>
      <trkpt lat="47.29206" lon="-2.37434">
        <ele>-7</ele>
        <time>2020-01-16T11:01:32.000Z</time>
      </trkpt>
      <trkpt lat="47.29203" lon="-2.3743">
        <ele>-6.5999999046326</ele>
        <time>2020-01-16T11:01:33.000Z</time>
      </trkpt>
      <trkpt lat="47.292" lon="-2.37425">
        <ele>-6.1999998092651</ele>
        <time>2020-01-16T11:01:34.000Z</time>
      </trkpt>
      <trkpt lat="47.29198" lon="-2.37421">
        <ele>-5.8000001907349</ele>
        <time>2020-01-16T11:01:35.000Z</time>
      </trkpt>
      <trkpt lat="47.29195" lon="-2.37416">
        <ele>-5.4000000953674</ele>
        <time>2020-01-16T11:01:36.000Z</time>
      </trkpt>
      <trkpt lat="47.2918" lon="-2.37392">
        <ele>-5.4000000953674</ele>
        <time>2020-01-16T11:01:42.000Z</time>
      </trkpt>
      <trkpt lat="47.29175" lon="-2.37385">
        <ele>-4.8000001907349</ele>
        <time>2020-01-16T11:01:44.000Z</time>
      </trkpt>
      <trkpt lat="47.29172" lon="-2.37382">
        <ele>-4.4000000953674</ele>
        <time>2020-01-16T11:01:45.000Z</time>
      </trkpt>
      <trkpt lat="47.2917" lon="-2.37379">
        <ele>-4</ele>
        <time>2020-01-16T11:01:46.000Z</time>
      </trkpt>
      <trkpt lat="47.29167" lon="-2.37375">
        <ele>-3.5999999046326</ele>
        <time>2020-01-16T11:01:47.000Z</time>
      </trkpt>
      <trkpt lat="47.29165" lon="-2.3737">
        <ele>-3.2000000476837</ele>
        <time>2020-01-16T11:01:48.000Z</time>
      </trkpt>
      <trkpt lat="47.2915" lon="-2.37333">
        <ele>-3.2000000476837</ele>
        <time>2020-01-16T11:01:56.000Z</time>
      </trkpt>
      <trkpt lat="47.29138" lon="-2.37316">
        <ele>-3.2000000476837</ele>
        <time>2020-01-16T11:02:01.000Z</time>
      </trkpt>
      <trkpt lat="47.29119" lon="-2.37295">
        <ele>-3.2000000476837</ele>
        <time>2020-01-16T11:02:08.000Z</time>
      </trkpt>
      <trkpt lat="47.29102" lon="-2.37275">
        <ele>-3.2000000476837</ele>
        <time>2020-01-16T11:02:14.000Z</time>
      </trkpt>
      <trkpt lat="47.29085" lon="-2.37256">
        <ele>-3.2000000476837</ele>
        <time>2020-01-16T11:02:20.000Z</time>
      </trkpt>
      <trkpt lat="47.29049" lon="-2.37221">
        <ele>-3.2000000476837</ele>
        <time>2020-01-16T11:02:31.000Z</time>
      </trkpt>
      <trkpt lat="47.29045" lon="-2.37217">
        <ele>-3.5999999046326</ele>
        <time>2020-01-16T11:02:32.000Z</time>
      </trkpt>
      <trkpt lat="47.29041" lon="-2.37213">
        <ele>-4</ele>
        <time>2020-01-16T11:02:33.000Z</time>
      </trkpt>
      <trkpt lat="47.29037" lon="-2.37208">
        <ele>-4.4000000953674</ele>
        <time>2020-01-16T11:02:34.000Z</time>
      </trkpt>
      <trkpt lat="47.29034" lon="-2.37204">
        <ele>-5</ele>
        <time>2020-01-16T11:02:35.000Z</time>
      </trkpt>
      <trkpt lat="47.29029" lon="-2.372">
        <ele>-5.4000000953674</ele>
        <time>2020-01-16T11:02:36.000Z</time>
      </trkpt>
      <trkpt lat="47.29021" lon="-2.37192">
        <ele>-5.4000000953674</ele>
        <time>2020-01-16T11:02:38.000Z</time>
      </trkpt>
      <trkpt lat="47.29008" lon="-2.37177">
        <ele>-5.8000001907349</ele>
        <time>2020-01-16T11:02:42.000Z</time>
      </trkpt>
      <trkpt lat="47.29006" lon="-2.37172">
        <ele>-6.1999998092651</ele>
        <time>2020-01-16T11:02:43.000Z</time>
      </trkpt>
      <trkpt lat="47.29005" lon="-2.37167">
        <ele>-6.8000001907349</ele>
        <time>2020-01-16T11:02:44.000Z</time>
      </trkpt>
      <trkpt lat="47.29005" lon="-2.37162">
        <ele>-7.1999998092651</ele>
        <time>2020-01-16T11:02:45.000Z</time>
      </trkpt>
      <trkpt lat="47.29005" lon="-2.37157">
        <ele>-7.8000001907349</ele>
        <time>2020-01-16T11:02:46.000Z</time>
      </trkpt>
      <trkpt lat="47.29004" lon="-2.37147">
        <ele>-7.8000001907349</ele>
        <time>2020-01-16T11:02:48.000Z</time>
      </trkpt>
      <trkpt lat="47.28995" lon="-2.37124">
        <ele>-7.8000001907349</ele>
        <time>2020-01-16T11:02:53.000Z</time>
      </trkpt>
      <trkpt lat="47.28984" lon="-2.371">
        <ele>-7.1999998092651</ele>
        <time>2020-01-16T11:02:59.000Z</time>
      </trkpt>
      <trkpt lat="47.28983" lon="-2.37095">
        <ele>-6.8000001907349</ele>
        <time>2020-01-16T11:03:00.000Z</time>
      </trkpt>
      <trkpt lat="47.28981" lon="-2.37091">
        <ele>-6.4000000953674</ele>
        <time>2020-01-16T11:03:01.000Z</time>
      </trkpt>
      <trkpt lat="47.2898" lon="-2.37087">
        <ele>-6</ele>
        <time>2020-01-16T11:03:02.000Z</time>
      </trkpt>
      <trkpt lat="47.28978" lon="-2.37082">
        <ele>-5.5999999046326</ele>
        <time>2020-01-16T11:03:03.000Z</time>
      </trkpt>
      <trkpt lat="47.28972" lon="-2.37069">
        <ele>-5.1999998092651</ele>
        <time>2020-01-16T11:03:06.000Z</time>
      </trkpt>
      <trkpt lat="47.28971" lon="-2.37065">
        <ele>-4.1999998092651</ele>
        <time>2020-01-16T11:03:07.000Z</time>
      </trkpt>
      <trkpt lat="47.28969" lon="-2.37061">
        <ele>-3.7999999523163</ele>
        <time>2020-01-16T11:03:08.000Z</time>
      </trkpt>
      <trkpt lat="47.28968" lon="-2.37056">
        <ele>-3.4000000953674</ele>
        <time>2020-01-16T11:03:09.000Z</time>
      </trkpt>
      <trkpt lat="47.28962" lon="-2.37042">
        <ele>-3.4000000953674</ele>
        <time>2020-01-16T11:03:12.000Z</time>
      </trkpt>
      <trkpt lat="47.28947" lon="-2.37009">
        <ele>-3.4000000953674</ele>
        <time>2020-01-16T11:03:19.000Z</time>
      </trkpt>
      <trkpt lat="47.28949" lon="-2.36989">
        <ele>-3.4000000953674</ele>
        <time>2020-01-16T11:03:23.000Z</time>
      </trkpt>
      <trkpt lat="47.28963" lon="-2.36965">
        <ele>-3</ele>
        <time>2020-01-16T11:03:29.000Z</time>
      </trkpt>
      <trkpt lat="47.28965" lon="-2.36961">
        <ele>-2.4000000953674</ele>
        <time>2020-01-16T11:03:30.000Z</time>
      </trkpt>
      <trkpt lat="47.28968" lon="-2.36958">
        <ele>-1.6000000238419</ele>
        <time>2020-01-16T11:03:31.000Z</time>
      </trkpt>
      <trkpt lat="47.2897" lon="-2.36954">
        <ele>-1.2000000476837</ele>
        <time>2020-01-16T11:03:32.000Z</time>
      </trkpt>
      <trkpt lat="47.28982" lon="-2.36936">
        <ele>-1.2000000476837</ele>
        <time>2020-01-16T11:03:37.000Z</time>
      </trkpt>
      <trkpt lat="47.28984" lon="-2.36933">
        <ele>-0.80000001192093</ele>
        <time>2020-01-16T11:03:38.000Z</time>
      </trkpt>
      <trkpt lat="47.28987" lon="-2.3693">
        <ele>-0.40000000596046</ele>
        <time>2020-01-16T11:03:39.000Z</time>
      </trkpt>
      <trkpt lat="47.28989" lon="-2.36926">
        <ele>27.1</ele>
        <time>2020-01-16T11:03:40.000Z</time>
      </trkpt>
      <trkpt lat="47.28991" lon="-2.36923">
        <ele>0.60000002384186</ele>
        <time>2020-01-16T11:03:41.000Z</time>
      </trkpt>
      <trkpt lat="47.28994" lon="-2.3692">
        <ele>1</ele>
        <time>2020-01-16T11:03:42.000Z</time>
      </trkpt>
      <trkpt lat="47.28996" lon="-2.36916">
        <ele>1</ele>
        <time>2020-01-16T11:03:43.000Z</time>
      </trkpt>
      <trkpt lat="47.2901" lon="-2.36892">
        <ele>1</ele>
        <time>2020-01-16T11:03:50.000Z</time>
      </trkpt>
      <trkpt lat="47.2901" lon="-2.36887">
        <ele>1</ele>
        <time>2020-01-16T11:03:51.000Z</time>
      </trkpt>
      <trkpt lat="47.2901" lon="-2.36882">
        <ele>1.3999999761581</ele>
        <time>2020-01-16T11:03:52.000Z</time>
      </trkpt>
      <trkpt lat="47.29009" lon="-2.36879">
        <ele>1.7999999523163</ele>
        <time>2020-01-16T11:03:53.000Z</time>
      </trkpt>
      <trkpt lat="47.29007" lon="-2.36875">
        <ele>2.2000000476837</ele>
        <time>2020-01-16T11:03:54.000Z</time>
      </trkpt>
      <trkpt lat="47.29004" lon="-2.36872">
        <ele>2.5999999046326</ele>
        <time>2020-01-16T11:03:55.000Z</time>
      </trkpt>
      <trkpt lat="47.29002" lon="-2.36869">
        <ele>3</ele>
        <time>2020-01-16T11:03:56.000Z</time>
      </trkpt>
      <trkpt lat="47.28999" lon="-2.36866">
        <ele>3</ele>
        <time>2020-01-16T11:03:57.000Z</time>
      </trkpt>
      <trkpt lat="47.28978" lon="-2.36846">
        <ele>3</ele>
        <time>2020-01-16T11:04:03.000Z</time>
      </trkpt>
      <trkpt lat="47.28957" lon="-2.36829">
        <ele>3</ele>
        <time>2020-01-16T11:04:09.000Z</time>
      </trkpt>
      <trkpt lat="47.28941" lon="-2.36814">
        <ele>3</ele>
        <time>2020-01-16T11:04:15.000Z</time>
      </trkpt>
      <trkpt lat="47.28928" lon="-2.36801">
        <ele>3</ele>
        <time>2020-01-16T11:04:22.000Z</time>
      </trkpt>
      <trkpt lat="47.28916" lon="-2.36789">
        <ele>2.5999999046326</ele>
        <time>2020-01-16T11:04:27.000Z</time>
      </trkpt>
      <trkpt lat="47.28913" lon="-2.36785">
        <ele>2.2000000476837</ele>
        <time>2020-01-16T11:04:28.000Z</time>
      </trkpt>
      <trkpt lat="47.28909" lon="-2.36783">
        <ele>1.7999999523163</ele>
        <time>2020-01-16T11:04:29.000Z</time>
      </trkpt>
      <trkpt lat="47.28905" lon="-2.36781">
        <ele>1.2000000476837</ele>
        <time>2020-01-16T11:04:30.000Z</time>
      </trkpt>
      <trkpt lat="47.28901" lon="-2.36779">
        <ele>0.80000001192093</ele>
        <time>2020-01-16T11:04:31.000Z</time>
      </trkpt>
      <trkpt lat="47.28891" lon="-2.36777">
        <ele>0.80000001192093</ele>
        <time>2020-01-16T11:04:34.000Z</time>
      </trkpt>
      <trkpt lat="47.28889" lon="-2.36777">
        <ele>0.80000001192093</ele>
        <time>2020-01-16T11:04:35.000Z</time>
      </trkpt>
      <trkpt lat="47.28887" lon="-2.36777">
        <ele>0.40000000596046</ele>
        <time>2020-01-16T11:04:36.000Z</time>
      </trkpt>
      <trkpt lat="47.28886" lon="-2.36777">
        <ele>23.5</ele>
        <time>2020-01-16T11:04:37.000Z</time>
      </trkpt>
      <trkpt lat="47.28884" lon="-2.36777">
        <ele>-0.40000000596046</ele>
        <time>2020-01-16T11:04:38.000Z</time>
      </trkpt>
      <trkpt lat="47.28882" lon="-2.36775">
        <ele>-0.80000001192093</ele>
        <time>2020-01-16T11:04:39.000Z</time>
      </trkpt>
      <trkpt lat="47.2888" lon="-2.36774">
        <ele>-1.2000000476837</ele>
        <time>2020-01-16T11:04:40.000Z</time>
      </trkpt>
      <trkpt lat="47.28876" lon="-2.36776">
        <ele>-1.2000000476837</ele>
        <time>2020-01-16T11:04:42.000Z</time>
      </trkpt>
      <trkpt lat="47.28871" lon="-2.3679">
        <ele>-1.2000000476837</ele>
        <time>2020-01-16T11:04:46.000Z</time>
      </trkpt>
      <trkpt lat="47.2887" lon="-2.36794">
        <ele>-1.2000000476837</ele>
        <time>2020-01-16T11:04:47.000Z</time>
      </trkpt>
      <trkpt lat="47.28861" lon="-2.36819">
        <ele>-1.2000000476837</ele>
        <time>2020-01-16T11:04:53.000Z</time>
      </trkpt>
      <trkpt lat="47.28854" lon="-2.36846">
        <ele>-1.6000000238419</ele>
        <time>2020-01-16T11:04:59.000Z</time>
      </trkpt>
      <trkpt lat="47.28853" lon="-2.36851">
        <ele>-2</ele>
        <time>2020-01-16T11:05:00.000Z</time>
      </trkpt>
      <trkpt lat="47.28852" lon="-2.36856">
        <ele>-2.4000000953674</ele>
        <time>2020-01-16T11:05:01.000Z</time>
      </trkpt>
      <trkpt lat="47.28852" lon="-2.36861">
        <ele>-2.7999999523163</ele>
        <time>2020-01-16T11:05:02.000Z</time>
      </trkpt>
      <trkpt lat="47.28851" lon="-2.36866">
        <ele>-3.2000000476837</ele>
        <time>2020-01-16T11:05:03.000Z</time>
      </trkpt>
      <trkpt lat="47.28848" lon="-2.36874">
        <ele>-3.2000000476837</ele>
        <time>2020-01-16T11:05:05.000Z</time>
      </trkpt>
      <trkpt lat="47.28841" lon="-2.3688">
        <ele>-3.2000000476837</ele>
        <time>2020-01-16T11:05:09.000Z</time>
      </trkpt>
      <trkpt lat="47.28836" lon="-2.36875">
        <ele>-3.2000000476837</ele>
        <time>2020-01-16T11:05:11.000Z</time>
      </trkpt>
      <trkpt lat="47.28832" lon="-2.36867">
        <ele>-3.7999999523163</ele>
        <time>2020-01-16T11:05:12.000Z</time>
      </trkpt>
      <trkpt lat="47.28827" lon="-2.36861">
        <ele>-4.1999998092651</ele>
        <time>2020-01-16T11:05:13.000Z</time>
      </trkpt>
      <trkpt lat="47.28823" lon="-2.36853">
        <ele>-4.8000001907349</ele>
        <time>2020-01-16T11:05:14.000Z</time>
      </trkpt>
      <trkpt lat="47.28818" lon="-2.36846">
        <ele>-5.4000000953674</ele>
        <time>2020-01-16T11:05:15.000Z</time>
      </trkpt>
      <trkpt lat="47.28815" lon="-2.36836">
        <ele>-6</ele>
        <time>2020-01-16T11:05:16.000Z</time>
      </trkpt>
      <trkpt lat="47.2881" lon="-2.36829">
        <ele>-6.8000001907349</ele>
        <time>2020-01-16T11:05:17.000Z</time>
      </trkpt>
      <trkpt lat="47.28805" lon="-2.36826">
        <ele>-7.5999999046326</ele>
        <time>2020-01-16T11:05:18.000Z</time>
      </trkpt>
      <trkpt lat="47.28799" lon="-2.36825">
        <ele>-8.3999996185303</ele>
        <time>2020-01-16T11:05:19.000Z</time>
      </trkpt>
      <trkpt lat="47.28797" lon="-2.36826">
        <ele>-9</ele>
        <time>2020-01-16T11:05:20.000Z</time>
      </trkpt>
      <trkpt lat="47.28793" lon="-2.36831">
        <ele>-9.8000001907349</ele>
        <time>2020-01-16T11:05:21.000Z</time>
      </trkpt>
      <trkpt lat="47.28791" lon="-2.36836">
        <ele>-10.60000038147</ele>
        <time>2020-01-16T11:05:22.000Z</time>
      </trkpt>
      <trkpt lat="47.28788" lon="-2.36842">
        <ele>-10.60000038147</ele>
        <time>2020-01-16T11:05:23.000Z</time>
      </trkpt>
      <trkpt lat="47.28785" lon="-2.36849">
        <ele>-10.60000038147</ele>
        <time>2020-01-16T11:05:24.000Z</time>
      </trkpt>
      <trkpt lat="47.28782" lon="-2.36859">
        <ele>-11</ele>
        <time>2020-01-16T11:05:26.000Z</time>
      </trkpt>
      <trkpt lat="47.2878" lon="-2.36863">
        <ele>-11.39999961853</ele>
        <time>2020-01-16T11:05:27.000Z</time>
      </trkpt>
      <trkpt lat="47.28779" lon="-2.36866">
        <ele>-11.800000190735</ele>
        <time>2020-01-16T11:05:28.000Z</time>
      </trkpt>
      <trkpt lat="47.28779" lon="-2.36869">
        <ele>-12.199999809265</ele>
        <time>2020-01-16T11:05:29.000Z</time>
      </trkpt>
      <trkpt lat="47.28778" lon="-2.36872">
        <ele>-12.800000190735</ele>
        <time>2020-01-16T11:05:30.000Z</time>
      </trkpt>
      <trkpt lat="47.28778" lon="-2.36889">
        <ele>-12.800000190735</ele>
        <time>2020-01-16T11:05:34.000Z</time>
      </trkpt>
      <trkpt lat="47.28775" lon="-2.36904">
        <ele>-12.800000190735</ele>
        <time>2020-01-16T11:05:38.000Z</time>
      </trkpt>
      <trkpt lat="47.28773" lon="-2.3691">
        <ele>-12.800000190735</ele>
        <time>2020-01-16T11:05:40.000Z</time>
      </trkpt>
      <trkpt lat="47.2877" lon="-2.36913">
        <ele>-12.800000190735</ele>
        <time>2020-01-16T11:05:42.000Z</time>
      </trkpt>
      <trkpt lat="47.28759" lon="-2.36908">
        <ele>-12.800000190735</ele>
        <time>2020-01-16T11:05:47.000Z</time>
      </trkpt>
      <trkpt lat="47.28754" lon="-2.36907">
        <ele>-12.800000190735</ele>
        <time>2020-01-16T11:05:49.000Z</time>
      </trkpt>
      <trkpt lat="47.2875" lon="-2.36908">
        <ele>-12.800000190735</ele>
        <time>2020-01-16T11:05:51.000Z</time>
      </trkpt>
      <trkpt lat="47.28745" lon="-2.36909">
        <ele>-12.199999809265</ele>
        <time>2020-01-16T11:05:53.000Z</time>
      </trkpt>
      <trkpt lat="47.28743" lon="-2.36909">
        <ele>-11.800000190735</ele>
        <time>2020-01-16T11:05:54.000Z</time>
      </trkpt>
      <trkpt lat="47.28741" lon="-2.36909">
        <ele>-11.39999961853</ele>
        <time>2020-01-16T11:05:55.000Z</time>
      </trkpt>
      <trkpt lat="47.28738" lon="-2.36908">
        <ele>-10.800000190735</ele>
        <time>2020-01-16T11:05:56.000Z</time>
      </trkpt>
      <trkpt lat="47.28736" lon="-2.36907">
        <ele>-10.39999961853</ele>
        <time>2020-01-16T11:05:57.000Z</time>
      </trkpt>
      <trkpt lat="47.28734" lon="-2.36904">
        <ele>-10.39999961853</ele>
        <time>2020-01-16T11:05:58.000Z</time>
      </trkpt>
      <trkpt lat="47.2873" lon="-2.36898">
        <ele>-10</ele>
        <time>2020-01-16T11:06:00.000Z</time>
      </trkpt>
      <trkpt lat="47.28729" lon="-2.36896">
        <ele>-9.6000003814697</ele>
        <time>2020-01-16T11:06:01.000Z</time>
      </trkpt>
      <trkpt lat="47.28727" lon="-2.36894">
        <ele>-9</ele>
        <time>2020-01-16T11:06:02.000Z</time>
      </trkpt>
      <trkpt lat="47.28726" lon="-2.36892">
        <ele>-8.6000003814697</ele>
        <time>2020-01-16T11:06:03.000Z</time>
      </trkpt>
      <trkpt lat="47.28725" lon="-2.3689">
        <ele>-8.1999998092651</ele>
        <time>2020-01-16T11:06:04.000Z</time>
      </trkpt>
      <trkpt lat="47.28723" lon="-2.36889">
        <ele>-7.8000001907349</ele>
        <time>2020-01-16T11:06:05.000Z</time>
      </trkpt>
      <trkpt lat="47.28722" lon="-2.36888">
        <ele>-7.4000000953674</ele>
        <time>2020-01-16T11:06:06.000Z</time>
      </trkpt>
      <trkpt lat="47.2872" lon="-2.36888">
        <ele>-6.8000001907349</ele>
        <time>2020-01-16T11:06:07.000Z</time>
      </trkpt>
      <trkpt lat="47.28719" lon="-2.36888">
        <ele>-6.4000000953674</ele>
        <time>2020-01-16T11:06:08.000Z</time>
      </trkpt>
      <trkpt lat="47.28717" lon="-2.36887">
        <ele>-6</ele>
        <time>2020-01-16T11:06:09.000Z</time>
      </trkpt>
      <trkpt lat="47.28715" lon="-2.36888">
        <ele>-6</ele>
        <time>2020-01-16T11:06:10.000Z</time>
      </trkpt>
      <trkpt lat="47.28713" lon="-2.36885">
        <ele>-6</ele>
        <time>2020-01-16T11:06:12.000Z</time>
      </trkpt>
      <trkpt lat="47.28708" lon="-2.36876">
        <ele>-6</ele>
        <time>2020-01-16T11:06:15.000Z</time>
      </trkpt>
      <trkpt lat="47.28706" lon="-2.36873">
        <ele>-5.5999999046326</ele>
        <time>2020-01-16T11:06:16.000Z</time>
      </trkpt>
      <trkpt lat="47.28705" lon="-2.36871">
        <ele>-5</ele>
        <time>2020-01-16T11:06:17.000Z</time>
      </trkpt>
      <trkpt lat="47.28703" lon="-2.36867">
        <ele>-4.5999999046326</ele>
        <time>2020-01-16T11:06:18.000Z</time>
      </trkpt>
      <trkpt lat="47.28701" lon="-2.36865">
        <ele>-4.1999998092651</ele>
        <time>2020-01-16T11:06:19.000Z</time>
      </trkpt>
      <trkpt lat="47.28698" lon="-2.36861">
        <ele>-3.7999999523163</ele>
        <time>2020-01-16T11:06:20.000Z</time>
      </trkpt>
      <trkpt lat="47.2869" lon="-2.36844">
        <ele>-3.7999999523163</ele>
        <time>2020-01-16T11:06:24.000Z</time>
      </trkpt>
      <trkpt lat="47.28675" lon="-2.36819">
        <ele>-3.4000000953674</ele>
        <time>2020-01-16T11:06:30.000Z</time>
      </trkpt>
      <trkpt lat="47.28672" lon="-2.36813">
        <ele>-3</ele>
        <time>2020-01-16T11:06:31.000Z</time>
      </trkpt>
      <trkpt lat="47.2867" lon="-2.36809">
        <ele>-2.5999999046326</ele>
        <time>2020-01-16T11:06:32.000Z</time>
      </trkpt>
      <trkpt lat="47.28669" lon="-2.36805">
        <ele>-2.2000000476837</ele>
        <time>2020-01-16T11:06:33.000Z</time>
      </trkpt>
      <trkpt lat="47.28667" lon="-2.36801">
        <ele>-1.7999999523163</ele>
        <time>2020-01-16T11:06:34.000Z</time>
      </trkpt>
      <trkpt lat="47.28663" lon="-2.36799">
        <ele>-1.7999999523163</ele>
        <time>2020-01-16T11:06:35.000Z</time>
      </trkpt>
      <trkpt lat="47.28652" lon="-2.36802">
        <ele>-1.7999999523163</ele>
        <time>2020-01-16T11:06:38.000Z</time>
      </trkpt>
      <trkpt lat="47.28633" lon="-2.3682">
        <ele>-1.7999999523163</ele>
        <time>2020-01-16T11:06:43.000Z</time>
      </trkpt>
      <trkpt lat="47.28611" lon="-2.36845">
        <ele>-1.7999999523163</ele>
        <time>2020-01-16T11:06:48.000Z</time>
      </trkpt>
      <trkpt lat="47.28606" lon="-2.36847">
        <ele>-1.7999999523163</ele>
        <time>2020-01-16T11:06:49.000Z</time>
      </trkpt>
      <trkpt lat="47.28592" lon="-2.36838">
        <ele>-1.7999999523163</ele>
        <time>2020-01-16T11:06:52.000Z</time>
      </trkpt>
      <trkpt lat="47.28579" lon="-2.36814">
        <ele>-1.7999999523163</ele>
        <time>2020-01-16T11:06:56.000Z</time>
      </trkpt>
      <trkpt lat="47.28562" lon="-2.36777">
        <ele>-1.7999999523163</ele>
        <time>2020-01-16T11:07:03.000Z</time>
      </trkpt>
      <trkpt lat="47.28559" lon="-2.36773">
        <ele>-1.7999999523163</ele>
        <time>2020-01-16T11:07:04.000Z</time>
      </trkpt>
      <trkpt lat="47.28539" lon="-2.36741">
        <ele>-1.7999999523163</ele>
        <time>2020-01-16T11:07:11.000Z</time>
      </trkpt>
      <trkpt lat="47.28523" lon="-2.36712">
        <ele>-1.3999999761581</ele>
        <time>2020-01-16T11:07:18.000Z</time>
      </trkpt>
      <trkpt lat="47.28521" lon="-2.36708">
        <ele>-0.80000001192093</ele>
        <time>2020-01-16T11:07:19.000Z</time>
      </trkpt>
      <trkpt lat="47.28519" lon="-2.36705">
        <ele>-0.40000000596046</ele>
        <time>2020-01-16T11:07:20.000Z</time>
      </trkpt>
      <trkpt lat="47.28517" lon="-2.36702">
        <ele>23.9</ele>
        <time>2020-01-16T11:07:21.000Z</time>
      </trkpt>
      <trkpt lat="47.28515" lon="-2.36699">
        <ele>0.40000000596046</ele>
        <time>2020-01-16T11:07:22.000Z</time>
      </trkpt>
      <trkpt lat="47.28513" lon="-2.36696">
        <ele>0.40000000596046</ele>
        <time>2020-01-16T11:07:23.000Z</time>
      </trkpt>
      <trkpt lat="47.28506" lon="-2.3669">
        <ele>0.80000001192093</ele>
        <time>2020-01-16T11:07:26.000Z</time>
      </trkpt>
      <trkpt lat="47.28504" lon="-2.36688">
        <ele>1.2000000476837</ele>
        <time>2020-01-16T11:07:27.000Z</time>
      </trkpt>
      <trkpt lat="47.28501" lon="-2.36687">
        <ele>1.6000000238419</ele>
        <time>2020-01-16T11:07:28.000Z</time>
      </trkpt>
      <trkpt lat="47.28497" lon="-2.36687">
        <ele>2</ele>
        <time>2020-01-16T11:07:29.000Z</time>
      </trkpt>
      <trkpt lat="47.28493" lon="-2.36688">
        <ele>2.4000000953674</ele>
        <time>2020-01-16T11:07:30.000Z</time>
      </trkpt>
      <trkpt lat="47.28489" lon="-2.36689">
        <ele>2.4000000953674</ele>
        <time>2020-01-16T11:07:31.000Z</time>
      </trkpt>
      <trkpt lat="47.28482" lon="-2.36694">
        <ele>2.4000000953674</ele>
        <time>2020-01-16T11:07:33.000Z</time>
      </trkpt>
      <trkpt lat="47.28474" lon="-2.36701">
        <ele>2.4000000953674</ele>
        <time>2020-01-16T11:07:35.000Z</time>
      </trkpt>
      <trkpt lat="47.28467" lon="-2.36708">
        <ele>2.4000000953674</ele>
        <time>2020-01-16T11:07:37.000Z</time>
      </trkpt>
      <trkpt lat="47.28457" lon="-2.36718">
        <ele>2.4000000953674</ele>
        <time>2020-01-16T11:07:40.000Z</time>
      </trkpt>
      <trkpt lat="47.28451" lon="-2.36724">
        <ele>2.4000000953674</ele>
        <time>2020-01-16T11:07:44.000Z</time>
      </trkpt>
      <trkpt lat="47.28451" lon="-2.36724">
        <ele>2.4000000953674</ele>
        <time>2020-01-16T11:07:45.000Z</time>
      </trkpt>
      <trkpt lat="47.28446" lon="-2.36728">
        <ele>1.6000000238419</ele>
        <time>2020-01-16T11:07:54.000Z</time>
      </trkpt>
      <trkpt lat="47.28444" lon="-2.36727">
        <ele>1.7999999523163</ele>
        <time>2020-01-16T11:07:55.000Z</time>
      </trkpt>
      <trkpt lat="47.28442" lon="-2.36724">
        <ele>1.7999999523163</ele>
        <time>2020-01-16T11:07:56.000Z</time>
      </trkpt>
      <trkpt lat="47.2844" lon="-2.36719">
        <ele>2</ele>
        <time>2020-01-16T11:07:57.000Z</time>
      </trkpt>
      <trkpt lat="47.28439" lon="-2.36714">
        <ele>2.2000000476837</ele>
        <time>2020-01-16T11:07:58.000Z</time>
      </trkpt>
      <trkpt lat="47.28438" lon="-2.36708">
        <ele>2.4000000953674</ele>
        <time>2020-01-16T11:07:59.000Z</time>
      </trkpt>
      <trkpt lat="47.28436" lon="-2.36703">
        <ele>2.4000000953674</ele>
        <time>2020-01-16T11:08:00.000Z</time>
      </trkpt>
      <trkpt lat="47.28421" lon="-2.36668">
        <ele>2.4000000953674</ele>
        <time>2020-01-16T11:08:06.000Z</time>
      </trkpt>
      <trkpt lat="47.28399" lon="-2.36635">
        <ele>2.4000000953674</ele>
        <time>2020-01-16T11:08:12.000Z</time>
      </trkpt>
      <trkpt lat="47.28372" lon="-2.36593">
        <ele>2.4000000953674</ele>
        <time>2020-01-16T11:08:18.000Z</time>
      </trkpt>
      <trkpt lat="47.28368" lon="-2.36587">
        <ele>1.7999999523163</ele>
        <time>2020-01-16T11:08:19.000Z</time>
      </trkpt>
      <trkpt lat="47.28363" lon="-2.36581">
        <ele>1.3999999761581</ele>
        <time>2020-01-16T11:08:20.000Z</time>
      </trkpt>
      <trkpt lat="47.28356" lon="-2.3658">
        <ele>0.80000001192093</ele>
        <time>2020-01-16T11:08:21.000Z</time>
      </trkpt>
      <trkpt lat="47.28349" lon="-2.36581">
        <ele>16.3</ele>
        <time>2020-01-16T11:08:22.000Z</time>
      </trkpt>
      <trkpt lat="47.28343" lon="-2.36586">
        <ele>-0.60000002384186</ele>
        <time>2020-01-16T11:08:23.000Z</time>
      </trkpt>
      <trkpt lat="47.28337" lon="-2.36592">
        <ele>-1.6000000238419</ele>
        <time>2020-01-16T11:08:24.000Z</time>
      </trkpt>
      <trkpt lat="47.28331" lon="-2.36598">
        <ele>-2.4000000953674</ele>
        <time>2020-01-16T11:08:25.000Z</time>
      </trkpt>
      <trkpt lat="47.28326" lon="-2.36605">
        <ele>-3.2000000476837</ele>
        <time>2020-01-16T11:08:26.000Z</time>
      </trkpt>
      <trkpt lat="47.28319" lon="-2.36612">
        <ele>-4</ele>
        <time>2020-01-16T11:08:27.000Z</time>
      </trkpt>
      <trkpt lat="47.28313" lon="-2.3662">
        <ele>-5</ele>
        <time>2020-01-16T11:08:28.000Z</time>
      </trkpt>
      <trkpt lat="47.28294" lon="-2.36641">
        <ele>-5.4000000953674</ele>
        <time>2020-01-16T11:08:31.000Z</time>
      </trkpt>
      <trkpt lat="47.28288" lon="-2.36649">
        <ele>-5.8000001907349</ele>
        <time>2020-01-16T11:08:32.000Z</time>
      </trkpt>
      <trkpt lat="47.28281" lon="-2.36657">
        <ele>-6.1999998092651</ele>
        <time>2020-01-16T11:08:33.000Z</time>
      </trkpt>
      <trkpt lat="47.28274" lon="-2.36664">
        <ele>-6.5999999046326</ele>
        <time>2020-01-16T11:08:34.000Z</time>
      </trkpt>
      <trkpt lat="47.28267" lon="-2.36673">
        <ele>-7.1999998092651</ele>
        <time>2020-01-16T11:08:35.000Z</time>
      </trkpt>
      <trkpt lat="47.28261" lon="-2.36681">
        <ele>-7.8000001907349</ele>
        <time>2020-01-16T11:08:36.000Z</time>
      </trkpt>
      <trkpt lat="47.28255" lon="-2.36689">
        <ele>-8.3999996185303</ele>
        <time>2020-01-16T11:08:37.000Z</time>
      </trkpt>
      <trkpt lat="47.28249" lon="-2.36696">
        <ele>-9</ele>
        <time>2020-01-16T11:08:38.000Z</time>
      </trkpt>
      <trkpt lat="47.28243" lon="-2.36704">
        <ele>-9.3999996185303</ele>
        <time>2020-01-16T11:08:39.000Z</time>
      </trkpt>
      <trkpt lat="47.28237" lon="-2.3671">
        <ele>-10</ele>
        <time>2020-01-16T11:08:40.000Z</time>
      </trkpt>
      <trkpt lat="47.28231" lon="-2.36717">
        <ele>-10.60000038147</ele>
        <time>2020-01-16T11:08:41.000Z</time>
      </trkpt>
      <trkpt lat="47.28224" lon="-2.36723">
        <ele>-11.199999809265</ele>
        <time>2020-01-16T11:08:42.000Z</time>
      </trkpt>
      <trkpt lat="47.28218" lon="-2.36731">
        <ele>-11.800000190735</ele>
        <time>2020-01-16T11:08:43.000Z</time>
      </trkpt>
      <trkpt lat="47.28213" lon="-2.36737">
        <ele>-12.199999809265</ele>
        <time>2020-01-16T11:08:44.000Z</time>
      </trkpt>
      <trkpt lat="47.28202" lon="-2.3675">
        <ele>-12.199999809265</ele>
        <time>2020-01-16T11:08:46.000Z</time>
      </trkpt>
      <trkpt lat="47.28167" lon="-2.3679">
        <ele>-12.199999809265</ele>
        <time>2020-01-16T11:08:53.000Z</time>
      </trkpt>
      <trkpt lat="47.28157" lon="-2.368">
        <ele>-12.800000190735</ele>
        <time>2020-01-16T11:08:55.000Z</time>
      </trkpt>
      <trkpt lat="47.28153" lon="-2.36805">
        <ele>-13.199999809265</ele>
        <time>2020-01-16T11:08:56.000Z</time>
      </trkpt>
      <trkpt lat="47.28149" lon="-2.3681">
        <ele>-13.60000038147</ele>
        <time>2020-01-16T11:08:57.000Z</time>
      </trkpt>
      <trkpt lat="47.28145" lon="-2.36815">
        <ele>-14.199999809265</ele>
        <time>2020-01-16T11:08:58.000Z</time>
      </trkpt>
      <trkpt lat="47.28144" lon="-2.36822">
        <ele>-14.60000038147</ele>
        <time>2020-01-16T11:08:59.000Z</time>
      </trkpt>
      <trkpt lat="47.28142" lon="-2.36828">
        <ele>-15</ele>
        <time>2020-01-16T11:09:00.000Z</time>
      </trkpt>
      <trkpt lat="47.28143" lon="-2.36834">
        <ele>-15.60000038147</ele>
        <time>2020-01-16T11:09:01.000Z</time>
      </trkpt>
      <trkpt lat="47.28145" lon="-2.36838">
        <ele>-16</ele>
        <time>2020-01-16T11:09:02.000Z</time>
      </trkpt>
      <trkpt lat="47.28145" lon="-2.36843">
        <ele>-16.39999961853</ele>
        <time>2020-01-16T11:09:03.000Z</time>
      </trkpt>
      <trkpt lat="47.28145" lon="-2.36849">
        <ele>-16.799999237061</ele>
        <time>2020-01-16T11:09:04.000Z</time>
      </trkpt>
      <trkpt lat="47.28145" lon="-2.36855">
        <ele>-16.799999237061</ele>
        <time>2020-01-16T11:09:05.000Z</time>
      </trkpt>
      <trkpt lat="47.28145" lon="-2.36862">
        <ele>-16.799999237061</ele>
        <time>2020-01-16T11:09:06.000Z</time>
      </trkpt>
      <trkpt lat="47.28143" lon="-2.36869">
        <ele>-16.799999237061</ele>
        <time>2020-01-16T11:09:07.000Z</time>
      </trkpt>
      <trkpt lat="47.28138" lon="-2.36881">
        <ele>-16.799999237061</ele>
        <time>2020-01-16T11:09:09.000Z</time>
      </trkpt>
      <trkpt lat="47.28121" lon="-2.36895">
        <ele>-16.799999237061</ele>
        <time>2020-01-16T11:09:13.000Z</time>
      </trkpt>
      <trkpt lat="47.28102" lon="-2.36888">
        <ele>-16.799999237061</ele>
        <time>2020-01-16T11:09:17.000Z</time>
      </trkpt>
      <trkpt lat="47.28089" lon="-2.36868">
        <ele>-16.799999237061</ele>
        <time>2020-01-16T11:09:21.000Z</time>
      </trkpt>
      <trkpt lat="47.28088" lon="-2.36861">
        <ele>-16.799999237061</ele>
        <time>2020-01-16T11:09:22.000Z</time>
      </trkpt>
      <trkpt lat="47.28084" lon="-2.3685">
        <ele>-16.799999237061</ele>
        <time>2020-01-16T11:09:24.000Z</time>
      </trkpt>
      <trkpt lat="47.2808" lon="-2.36847">
        <ele>-16.799999237061</ele>
        <time>2020-01-16T11:09:25.000Z</time>
      </trkpt>
      <trkpt lat="47.28066" lon="-2.36842">
        <ele>-16.39999961853</ele>
        <time>2020-01-16T11:09:28.000Z</time>
      </trkpt>
      <trkpt lat="47.28061" lon="-2.36841">
        <ele>-16</ele>
        <time>2020-01-16T11:09:29.000Z</time>
      </trkpt>
      <trkpt lat="47.28055" lon="-2.3684">
        <ele>-15.60000038147</ele>
        <time>2020-01-16T11:09:30.000Z</time>
      </trkpt>
      <trkpt lat="47.28049" lon="-2.3684">
        <ele>-15</ele>
        <time>2020-01-16T11:09:31.000Z</time>
      </trkpt>
      <trkpt lat="47.28044" lon="-2.3684">
        <ele>-14.60000038147</ele>
        <time>2020-01-16T11:09:32.000Z</time>
      </trkpt>
      <trkpt lat="47.28034" lon="-2.36838">
        <ele>-14.60000038147</ele>
        <time>2020-01-16T11:09:34.000Z</time>
      </trkpt>
      <trkpt lat="47.28003" lon="-2.36825">
        <ele>-14.60000038147</ele>
        <time>2020-01-16T11:09:40.000Z</time>
      </trkpt>
      <trkpt lat="47.27993" lon="-2.36806">
        <ele>-14.60000038147</ele>
        <time>2020-01-16T11:09:43.000Z</time>
      </trkpt>
      <trkpt lat="47.27989" lon="-2.368">
        <ele>-14.60000038147</ele>
        <time>2020-01-16T11:09:44.000Z</time>
      </trkpt>
      <trkpt lat="47.27971" lon="-2.36767">
        <ele>-14.60000038147</ele>
        <time>2020-01-16T11:09:49.000Z</time>
      </trkpt>
      <trkpt lat="47.27961" lon="-2.36737">
        <ele>-14.60000038147</ele>
        <time>2020-01-16T11:09:53.000Z</time>
      </trkpt>
      <trkpt lat="47.27954" lon="-2.36716">
        <ele>-14.60000038147</ele>
        <time>2020-01-16T11:09:56.000Z</time>
      </trkpt>
      <trkpt lat="47.2795" lon="-2.36703">
        <ele>-14.60000038147</ele>
        <time>2020-01-16T11:09:58.000Z</time>
      </trkpt>
      <trkpt lat="47.27941" lon="-2.36668">
        <ele>-14.60000038147</ele>
        <time>2020-01-16T11:10:03.000Z</time>
      </trkpt>
      <trkpt lat="47.2793" lon="-2.36624">
        <ele>-14.60000038147</ele>
        <time>2020-01-16T11:10:09.000Z</time>
      </trkpt>
      <trkpt lat="47.27914" lon="-2.3657">
        <ele>-14.60000038147</ele>
        <time>2020-01-16T11:10:16.000Z</time>
      </trkpt>
      <trkpt lat="47.27903" lon="-2.36518">
        <ele>-14.60000038147</ele>
        <time>2020-01-16T11:10:23.000Z</time>
      </trkpt>
      <trkpt lat="47.27902" lon="-2.36511">
        <ele>-14.60000038147</ele>
        <time>2020-01-16T11:10:24.000Z</time>
      </trkpt>
      <trkpt lat="47.27898" lon="-2.36487">
        <ele>-14.60000038147</ele>
        <time>2020-01-16T11:10:28.000Z</time>
      </trkpt>
      <trkpt lat="47.27897" lon="-2.3648">
        <ele>-15</ele>
        <time>2020-01-16T11:10:29.000Z</time>
      </trkpt>
      <trkpt lat="47.27896" lon="-2.36473">
        <ele>-15.39999961853</ele>
        <time>2020-01-16T11:10:30.000Z</time>
      </trkpt>
      <trkpt lat="47.27895" lon="-2.36467">
        <ele>-16</ele>
        <time>2020-01-16T11:10:31.000Z</time>
      </trkpt>
      <trkpt lat="47.27894" lon="-2.3646">
        <ele>-16.799999237061</ele>
        <time>2020-01-16T11:10:32.000Z</time>
      </trkpt>
      <trkpt lat="47.27891" lon="-2.3644">
        <ele>-16.799999237061</ele>
        <time>2020-01-16T11:10:35.000Z</time>
      </trkpt>
      <trkpt lat="47.27889" lon="-2.36435">
        <ele>-16.799999237061</ele>
        <time>2020-01-16T11:10:36.000Z</time>
      </trkpt>
      <trkpt lat="47.27881" lon="-2.36426">
        <ele>-16.799999237061</ele>
        <time>2020-01-16T11:10:38.000Z</time>
      </trkpt>
      <trkpt lat="47.27872" lon="-2.36418">
        <ele>-16.799999237061</ele>
        <time>2020-01-16T11:10:40.000Z</time>
      </trkpt>
      <trkpt lat="47.27851" lon="-2.36401">
        <ele>-16.799999237061</ele>
        <time>2020-01-16T11:10:45.000Z</time>
      </trkpt>
      <trkpt lat="47.27843" lon="-2.36395">
        <ele>-16.200000762939</ele>
        <time>2020-01-16T11:10:47.000Z</time>
      </trkpt>
      <trkpt lat="47.27839" lon="-2.36391">
        <ele>-15.800000190735</ele>
        <time>2020-01-16T11:10:48.000Z</time>
      </trkpt>
      <trkpt lat="47.27835" lon="-2.36388">
        <ele>-15.199999809265</ele>
        <time>2020-01-16T11:10:49.000Z</time>
      </trkpt>
      <trkpt lat="47.27831" lon="-2.36384">
        <ele>-14.800000190735</ele>
        <time>2020-01-16T11:10:50.000Z</time>
      </trkpt>
      <trkpt lat="47.27827" lon="-2.36381">
        <ele>-14.199999809265</ele>
        <time>2020-01-16T11:10:51.000Z</time>
      </trkpt>
      <trkpt lat="47.27823" lon="-2.36377">
        <ele>-14.199999809265</ele>
        <time>2020-01-16T11:10:52.000Z</time>
      </trkpt>
      <trkpt lat="47.27807" lon="-2.36363">
        <ele>-14.199999809265</ele>
        <time>2020-01-16T11:10:56.000Z</time>
      </trkpt>
      <trkpt lat="47.27795" lon="-2.36352">
        <ele>-14.199999809265</ele>
        <time>2020-01-16T11:10:59.000Z</time>
      </trkpt>
      <trkpt lat="47.27766" lon="-2.36326">
        <ele>-14.199999809265</ele>
        <time>2020-01-16T11:11:06.000Z</time>
      </trkpt>
      <trkpt lat="47.27753" lon="-2.36315">
        <ele>-14.199999809265</ele>
        <time>2020-01-16T11:11:09.000Z</time>
      </trkpt>
      <trkpt lat="47.27742" lon="-2.36305">
        <ele>-13.800000190735</ele>
        <time>2020-01-16T11:11:12.000Z</time>
      </trkpt>
      <trkpt lat="47.27738" lon="-2.36302">
        <ele>-13.39999961853</ele>
        <time>2020-01-16T11:11:13.000Z</time>
      </trkpt>
      <trkpt lat="47.27734" lon="-2.36299">
        <ele>-13</ele>
        <time>2020-01-16T11:11:14.000Z</time>
      </trkpt>
      <trkpt lat="47.27731" lon="-2.36296">
        <ele>-12.60000038147</ele>
        <time>2020-01-16T11:11:15.000Z</time>
      </trkpt>
      <trkpt lat="47.27727" lon="-2.36293">
        <ele>-12.199999809265</ele>
        <time>2020-01-16T11:11:16.000Z</time>
      </trkpt>
      <trkpt lat="47.27715" lon="-2.36283">
        <ele>-12.199999809265</ele>
        <time>2020-01-16T11:11:19.000Z</time>
      </trkpt>
      <trkpt lat="47.27707" lon="-2.36276">
        <ele>-12.199999809265</ele>
        <time>2020-01-16T11:11:21.000Z</time>
      </trkpt>
      <trkpt lat="47.27688" lon="-2.36259">
        <ele>-12.199999809265</ele>
        <time>2020-01-16T11:11:26.000Z</time>
      </trkpt>
      <trkpt lat="47.27663" lon="-2.3624">
        <ele>-12.199999809265</ele>
        <time>2020-01-16T11:11:32.000Z</time>
      </trkpt>
      <trkpt lat="47.27649" lon="-2.36231">
        <ele>-12.199999809265</ele>
        <time>2020-01-16T11:11:35.000Z</time>
      </trkpt>
      <trkpt lat="47.2764" lon="-2.36231">
        <ele>-12.199999809265</ele>
        <time>2020-01-16T11:11:37.000Z</time>
      </trkpt>
      <trkpt lat="47.27627" lon="-2.3622">
        <ele>-12.199999809265</ele>
        <time>2020-01-16T11:11:40.000Z</time>
      </trkpt>
      <trkpt lat="47.27625" lon="-2.36214">
        <ele>-11.800000190735</ele>
        <time>2020-01-16T11:11:41.000Z</time>
      </trkpt>
      <trkpt lat="47.27622" lon="-2.36209">
        <ele>-11.199999809265</ele>
        <time>2020-01-16T11:11:42.000Z</time>
      </trkpt>
      <trkpt lat="47.27619" lon="-2.36204">
        <ele>-10.800000190735</ele>
        <time>2020-01-16T11:11:43.000Z</time>
      </trkpt>
      <trkpt lat="47.27615" lon="-2.36201">
        <ele>-10.39999961853</ele>
        <time>2020-01-16T11:11:44.000Z</time>
      </trkpt>
      <trkpt lat="47.27612" lon="-2.36197">
        <ele>-9.8000001907349</ele>
        <time>2020-01-16T11:11:45.000Z</time>
      </trkpt>
      <trkpt lat="47.27602" lon="-2.36188">
        <ele>-9.3999996185303</ele>
        <time>2020-01-16T11:11:48.000Z</time>
      </trkpt>
      <trkpt lat="47.27599" lon="-2.36185">
        <ele>-8.8000001907349</ele>
        <time>2020-01-16T11:11:49.000Z</time>
      </trkpt>
      <trkpt lat="47.27596" lon="-2.36181">
        <ele>-8.1999998092651</ele>
        <time>2020-01-16T11:11:50.000Z</time>
      </trkpt>
      <trkpt lat="47.27593" lon="-2.36178">
        <ele>-7.8000001907349</ele>
        <time>2020-01-16T11:11:51.000Z</time>
      </trkpt>
      <trkpt lat="47.2759" lon="-2.36175">
        <ele>-7.1999998092651</ele>
        <time>2020-01-16T11:11:52.000Z</time>
      </trkpt>
      <trkpt lat="47.27577" lon="-2.36163">
        <ele>-7.8000001907349</ele>
        <time>2020-01-16T11:11:56.000Z</time>
      </trkpt>
      <trkpt lat="47.27573" lon="-2.3616">
        <ele>-8.1999998092651</ele>
        <time>2020-01-16T11:11:57.000Z</time>
      </trkpt>
      <trkpt lat="47.2757" lon="-2.36157">
        <ele>-8.8000001907349</ele>
        <time>2020-01-16T11:11:58.000Z</time>
      </trkpt>
      <trkpt lat="47.27566" lon="-2.36154">
        <ele>-9.1999998092651</ele>
        <time>2020-01-16T11:11:59.000Z</time>
      </trkpt>
      <trkpt lat="47.27562" lon="-2.3615">
        <ele>-9.6000003814697</ele>
        <time>2020-01-16T11:12:00.000Z</time>
      </trkpt>
      <trkpt lat="47.2755" lon="-2.36139">
        <ele>-10</ele>
        <time>2020-01-16T11:12:03.000Z</time>
      </trkpt>
      <trkpt lat="47.27546" lon="-2.36134">
        <ele>-10.60000038147</ele>
        <time>2020-01-16T11:12:04.000Z</time>
      </trkpt>
      <trkpt lat="47.27542" lon="-2.3613">
        <ele>-11</ele>
        <time>2020-01-16T11:12:05.000Z</time>
      </trkpt>
      <trkpt lat="47.27539" lon="-2.36124">
        <ele>-11.39999961853</ele>
        <time>2020-01-16T11:12:06.000Z</time>
      </trkpt>
      <trkpt lat="47.27536" lon="-2.36118">
        <ele>-11.800000190735</ele>
        <time>2020-01-16T11:12:07.000Z</time>
      </trkpt>
      <trkpt lat="47.2753" lon="-2.36106">
        <ele>-11.800000190735</ele>
        <time>2020-01-16T11:12:09.000Z</time>
      </trkpt>
      <trkpt lat="47.27526" lon="-2.36099">
        <ele>-11</ele>
        <time>2020-01-16T11:12:10.000Z</time>
      </trkpt>
      <trkpt lat="47.27524" lon="-2.36093">
        <ele>-10.60000038147</ele>
        <time>2020-01-16T11:12:11.000Z</time>
      </trkpt>
      <trkpt lat="47.27522" lon="-2.36086">
        <ele>-10.199999809265</ele>
        <time>2020-01-16T11:12:12.000Z</time>
      </trkpt>
      <trkpt lat="47.2752" lon="-2.3608">
        <ele>-9.6000003814697</ele>
        <time>2020-01-16T11:12:13.000Z</time>
      </trkpt>
      <trkpt lat="47.27515" lon="-2.36067">
        <ele>-9.6000003814697</ele>
        <time>2020-01-16T11:12:15.000Z</time>
      </trkpt>
      <trkpt lat="47.27507" lon="-2.3604">
        <ele>-9.6000003814697</ele>
        <time>2020-01-16T11:12:19.000Z</time>
      </trkpt>
      <trkpt lat="47.27505" lon="-2.36034">
        <ele>-10.199999809265</ele>
        <time>2020-01-16T11:12:20.000Z</time>
      </trkpt>
      <trkpt lat="47.27503" lon="-2.36027">
        <ele>-10.60000038147</ele>
        <time>2020-01-16T11:12:21.000Z</time>
      </trkpt>
      <trkpt lat="47.27501" lon="-2.3602">
        <ele>-11</ele>
        <time>2020-01-16T11:12:22.000Z</time>
      </trkpt>
      <trkpt lat="47.27498" lon="-2.36014">
        <ele>-11.39999961853</ele>
        <time>2020-01-16T11:12:23.000Z</time>
      </trkpt>
      <trkpt lat="47.27496" lon="-2.36007">
        <ele>-11.800000190735</ele>
        <time>2020-01-16T11:12:24.000Z</time>
      </trkpt>
      <trkpt lat="47.27494" lon="-2.36">
        <ele>-11.800000190735</ele>
        <time>2020-01-16T11:12:25.000Z</time>
      </trkpt>
      <trkpt lat="47.27489" lon="-2.35985">
        <ele>-11.800000190735</ele>
        <time>2020-01-16T11:12:27.000Z</time>
      </trkpt>
      <trkpt lat="47.27469" lon="-2.35929">
        <ele>-11.800000190735</ele>
        <time>2020-01-16T11:12:35.000Z</time>
      </trkpt>
      <trkpt lat="47.2745" lon="-2.35869">
        <ele>-11.800000190735</ele>
        <time>2020-01-16T11:12:43.000Z</time>
      </trkpt>
      <trkpt lat="47.27431" lon="-2.3581">
        <ele>-11.800000190735</ele>
        <time>2020-01-16T11:12:51.000Z</time>
      </trkpt>
      <trkpt lat="47.27412" lon="-2.35755">
        <ele>-11.800000190735</ele>
        <time>2020-01-16T11:12:59.000Z</time>
      </trkpt>
      <trkpt lat="47.27398" lon="-2.3571">
        <ele>-11.800000190735</ele>
        <time>2020-01-16T11:13:06.000Z</time>
      </trkpt>
      <trkpt lat="47.27396" lon="-2.35705">
        <ele>-12.199999809265</ele>
        <time>2020-01-16T11:13:07.000Z</time>
      </trkpt>
      <trkpt lat="47.27394" lon="-2.35699">
        <ele>-12.800000190735</ele>
        <time>2020-01-16T11:13:08.000Z</time>
      </trkpt>
      <trkpt lat="47.27392" lon="-2.35693">
        <ele>-13.39999961853</ele>
        <time>2020-01-16T11:13:09.000Z</time>
      </trkpt>
      <trkpt lat="47.27389" lon="-2.35688">
        <ele>-14</ele>
        <time>2020-01-16T11:13:10.000Z</time>
      </trkpt>
      <trkpt lat="47.27385" lon="-2.35685">
        <ele>-14.60000038147</ele>
        <time>2020-01-16T11:13:11.000Z</time>
      </trkpt>
      <trkpt lat="47.27381" lon="-2.35685">
        <ele>-15.199999809265</ele>
        <time>2020-01-16T11:13:12.000Z</time>
      </trkpt>
      <trkpt lat="47.27377" lon="-2.35684">
        <ele>-15.800000190735</ele>
        <time>2020-01-16T11:13:13.000Z</time>
      </trkpt>
      <trkpt lat="47.27373" lon="-2.35685">
        <ele>-16.39999961853</ele>
        <time>2020-01-16T11:13:14.000Z</time>
      </trkpt>
      <trkpt lat="47.27369" lon="-2.35685">
        <ele>-16.39999961853</ele>
        <time>2020-01-16T11:13:15.000Z</time>
      </trkpt>
      <trkpt lat="47.27365" lon="-2.35687">
        <ele>-16.39999961853</ele>
        <time>2020-01-16T11:13:16.000Z</time>
      </trkpt>
      <trkpt lat="47.27352" lon="-2.35695">
        <ele>-16.39999961853</ele>
        <time>2020-01-16T11:13:19.000Z</time>
      </trkpt>
      <trkpt lat="47.27347" lon="-2.35693">
        <ele>-16.39999961853</ele>
        <time>2020-01-16T11:13:20.000Z</time>
      </trkpt>
      <trkpt lat="47.27342" lon="-2.35682">
        <ele>-16.39999961853</ele>
        <time>2020-01-16T11:13:22.000Z</time>
      </trkpt>
      <trkpt lat="47.2733" lon="-2.35652">
        <ele>-16</ele>
        <time>2020-01-16T11:13:27.000Z</time>
      </trkpt>
      <trkpt lat="47.27328" lon="-2.35646">
        <ele>-15.60000038147</ele>
        <time>2020-01-16T11:13:28.000Z</time>
      </trkpt>
      <trkpt lat="47.27326" lon="-2.3564">
        <ele>-15.199999809265</ele>
        <time>2020-01-16T11:13:29.000Z</time>
      </trkpt>
      <trkpt lat="47.27325" lon="-2.35633">
        <ele>-14.60000038147</ele>
        <time>2020-01-16T11:13:30.000Z</time>
      </trkpt>
      <trkpt lat="47.27323" lon="-2.35627">
        <ele>-14.199999809265</ele>
        <time>2020-01-16T11:13:31.000Z</time>
      </trkpt>
      <trkpt lat="47.2732" lon="-2.35614">
        <ele>-14.199999809265</ele>
        <time>2020-01-16T11:13:33.000Z</time>
      </trkpt>
      <trkpt lat="47.27316" lon="-2.35594">
        <ele>-14.199999809265</ele>
        <time>2020-01-16T11:13:36.000Z</time>
      </trkpt>
      <trkpt lat="47.27304" lon="-2.35545">
        <ele>-14.199999809265</ele>
        <time>2020-01-16T11:13:43.000Z</time>
      </trkpt>
      <trkpt lat="47.27293" lon="-2.35497">
        <ele>-13.800000190735</ele>
        <time>2020-01-16T11:13:50.000Z</time>
      </trkpt>
      <trkpt lat="47.27291" lon="-2.35491">
        <ele>-13.39999961853</ele>
        <time>2020-01-16T11:13:51.000Z</time>
      </trkpt>
      <trkpt lat="47.2729" lon="-2.35486">
        <ele>-13</ele>
        <time>2020-01-16T11:13:52.000Z</time>
      </trkpt>
      <trkpt lat="47.27289" lon="-2.35479">
        <ele>-12.60000038147</ele>
        <time>2020-01-16T11:13:53.000Z</time>
      </trkpt>
      <trkpt lat="47.27288" lon="-2.35473">
        <ele>-12.199999809265</ele>
        <time>2020-01-16T11:13:54.000Z</time>
      </trkpt>
      <trkpt lat="47.2728" lon="-2.35442">
        <ele>-12.199999809265</ele>
        <time>2020-01-16T11:13:59.000Z</time>
      </trkpt>
      <trkpt lat="47.27278" lon="-2.35429">
        <ele>-12.199999809265</ele>
        <time>2020-01-16T11:14:01.000Z</time>
      </trkpt>
      <trkpt lat="47.27271" lon="-2.35395">
        <ele>-12.199999809265</ele>
        <time>2020-01-16T11:14:06.000Z</time>
      </trkpt>
      <trkpt lat="47.27264" lon="-2.3537">
        <ele>-12.199999809265</ele>
        <time>2020-01-16T11:14:10.000Z</time>
      </trkpt>
      <trkpt lat="47.2726" lon="-2.35358">
        <ele>-12.199999809265</ele>
        <time>2020-01-16T11:14:12.000Z</time>
      </trkpt>
      <trkpt lat="47.27257" lon="-2.35345">
        <ele>-12.199999809265</ele>
        <time>2020-01-16T11:14:14.000Z</time>
      </trkpt>
      <trkpt lat="47.27255" lon="-2.35339">
        <ele>-12.199999809265</ele>
        <time>2020-01-16T11:14:15.000Z</time>
      </trkpt>
      <trkpt lat="47.27248" lon="-2.35323">
        <ele>-12.199999809265</ele>
        <time>2020-01-16T11:14:18.000Z</time>
      </trkpt>
      <trkpt lat="47.27235" lon="-2.35292">
        <ele>-12.199999809265</ele>
        <time>2020-01-16T11:14:24.000Z</time>
      </trkpt>
      <trkpt lat="47.27224" lon="-2.35264">
        <ele>-12.199999809265</ele>
        <time>2020-01-16T11:14:29.000Z</time>
      </trkpt>
      <trkpt lat="47.27218" lon="-2.35253">
        <ele>-12.199999809265</ele>
        <time>2020-01-16T11:14:31.000Z</time>
      </trkpt>
      <trkpt lat="47.272" lon="-2.35207">
        <ele>-12.199999809265</ele>
        <time>2020-01-16T11:14:38.000Z</time>
      </trkpt>
      <trkpt lat="47.27188" lon="-2.3518">
        <ele>-12.199999809265</ele>
        <time>2020-01-16T11:14:42.000Z</time>
      </trkpt>
      <trkpt lat="47.27183" lon="-2.35167">
        <ele>-12.199999809265</ele>
        <time>2020-01-16T11:14:44.000Z</time>
      </trkpt>
      <trkpt lat="47.27177" lon="-2.35153">
        <ele>-12.199999809265</ele>
        <time>2020-01-16T11:14:46.000Z</time>
      </trkpt>
      <trkpt lat="47.27171" lon="-2.35139">
        <ele>-12.199999809265</ele>
        <time>2020-01-16T11:14:48.000Z</time>
      </trkpt>
      <trkpt lat="47.27164" lon="-2.35127">
        <ele>-12.199999809265</ele>
        <time>2020-01-16T11:14:50.000Z</time>
      </trkpt>
      <trkpt lat="47.27153" lon="-2.35102">
        <ele>-12.199999809265</ele>
        <time>2020-01-16T11:14:54.000Z</time>
      </trkpt>
      <trkpt lat="47.27139" lon="-2.35064">
        <ele>-12.199999809265</ele>
        <time>2020-01-16T11:15:00.000Z</time>
      </trkpt>
      <trkpt lat="47.27138" lon="-2.35058">
        <ele>-12.199999809265</ele>
        <time>2020-01-16T11:15:01.000Z</time>
      </trkpt>
      <trkpt lat="47.27128" lon="-2.35021">
        <ele>-12.199999809265</ele>
        <time>2020-01-16T11:15:08.000Z</time>
      </trkpt>
      <trkpt lat="47.27126" lon="-2.35016">
        <ele>-11.800000190735</ele>
        <time>2020-01-16T11:15:09.000Z</time>
      </trkpt>
      <trkpt lat="47.27123" lon="-2.35011">
        <ele>-11.199999809265</ele>
        <time>2020-01-16T11:15:10.000Z</time>
      </trkpt>
      <trkpt lat="47.27121" lon="-2.35007">
        <ele>-10.800000190735</ele>
        <time>2020-01-16T11:15:11.000Z</time>
      </trkpt>
      <trkpt lat="47.27119" lon="-2.35003">
        <ele>-10.39999961853</ele>
        <time>2020-01-16T11:15:12.000Z</time>
      </trkpt>
      <trkpt lat="47.27117" lon="-2.35002">
        <ele>-10</ele>
        <time>2020-01-16T11:15:13.000Z</time>
      </trkpt>
      <trkpt lat="47.27111" lon="-2.35005">
        <ele>-10</ele>
        <time>2020-01-16T11:15:15.000Z</time>
      </trkpt>
      <trkpt lat="47.27099" lon="-2.34997">
        <ele>-10</ele>
        <time>2020-01-16T11:15:19.000Z</time>
      </trkpt>
      <trkpt lat="47.27082" lon="-2.34971">
        <ele>-10</ele>
        <time>2020-01-16T11:15:24.000Z</time>
      </trkpt>
      <trkpt lat="47.27065" lon="-2.34944">
        <ele>-10</ele>
        <time>2020-01-16T11:15:29.000Z</time>
      </trkpt>
      <trkpt lat="47.27051" lon="-2.34924">
        <ele>-10.39999961853</ele>
        <time>2020-01-16T11:15:33.000Z</time>
      </trkpt>
      <trkpt lat="47.27047" lon="-2.34919">
        <ele>-10.800000190735</ele>
        <time>2020-01-16T11:15:34.000Z</time>
      </trkpt>
      <trkpt lat="47.27044" lon="-2.34914">
        <ele>-11.199999809265</ele>
        <time>2020-01-16T11:15:35.000Z</time>
      </trkpt>
      <trkpt lat="47.27041" lon="-2.3491">
        <ele>-11.60000038147</ele>
        <time>2020-01-16T11:15:36.000Z</time>
      </trkpt>
      <trkpt lat="47.27038" lon="-2.34905">
        <ele>-12</ele>
        <time>2020-01-16T11:15:37.000Z</time>
      </trkpt>
      <trkpt lat="47.27024" lon="-2.34886">
        <ele>-12</ele>
        <time>2020-01-16T11:15:41.000Z</time>
      </trkpt>
      <trkpt lat="47.2702" lon="-2.34881">
        <ele>-12</ele>
        <time>2020-01-16T11:15:42.000Z</time>
      </trkpt>
      <trkpt lat="47.26998" lon="-2.34845">
        <ele>-12</ele>
        <time>2020-01-16T11:15:49.000Z</time>
      </trkpt>
      <trkpt lat="47.26982" lon="-2.34825">
        <ele>-12</ele>
        <time>2020-01-16T11:15:54.000Z</time>
      </trkpt>
      <trkpt lat="47.26979" lon="-2.3482">
        <ele>-12</ele>
        <time>2020-01-16T11:15:55.000Z</time>
      </trkpt>
      <trkpt lat="47.26965" lon="-2.34798">
        <ele>-12</ele>
        <time>2020-01-16T11:16:02.000Z</time>
      </trkpt>
      <trkpt lat="47.2696" lon="-2.34791">
        <ele>-12</ele>
        <time>2020-01-16T11:16:06.000Z</time>
      </trkpt>
      <trkpt lat="47.2696" lon="-2.34791">
        <ele>-12</ele>
        <time>2020-01-16T11:16:08.000Z</time>
      </trkpt>
      <trkpt lat="47.26961" lon="-2.34786">
        <ele>-12</ele>
        <time>2020-01-16T11:17:03.000Z</time>
      </trkpt>
      <trkpt lat="47.26962" lon="-2.34784">
        <ele>-12</ele>
        <time>2020-01-16T11:17:05.000Z</time>
      </trkpt>
      <trkpt lat="47.26963" lon="-2.34783">
        <ele>-12</ele>
        <time>2020-01-16T11:17:06.000Z</time>
      </trkpt>
      <trkpt lat="47.26966" lon="-2.34779">
        <ele>-12</ele>
        <time>2020-01-16T11:17:11.000Z</time>
      </trkpt>
      <trkpt lat="47.2696" lon="-2.34778">
        <ele>-12</ele>
        <time>2020-01-16T11:17:27.000Z</time>
      </trkpt>
      <trkpt lat="47.26955" lon="-2.34775">
        <ele>-12</ele>
        <time>2020-01-16T11:17:29.000Z</time>
      </trkpt>
      <trkpt lat="47.26944" lon="-2.34768">
        <ele>-12</ele>
        <time>2020-01-16T11:17:33.000Z</time>
      </trkpt>
      <trkpt lat="47.26934" lon="-2.34754">
        <ele>-12</ele>
        <time>2020-01-16T11:17:37.000Z</time>
      </trkpt>
      <trkpt lat="47.26931" lon="-2.3475">
        <ele>-12</ele>
        <time>2020-01-16T11:17:38.000Z</time>
      </trkpt>
      <trkpt lat="47.26917" lon="-2.3473">
        <ele>-12</ele>
        <time>2020-01-16T11:17:42.000Z</time>
      </trkpt>
      <trkpt lat="47.26914" lon="-2.34726">
        <ele>-12</ele>
        <time>2020-01-16T11:17:43.000Z</time>
      </trkpt>
      <trkpt lat="47.26897" lon="-2.34701">
        <ele>-12</ele>
        <time>2020-01-16T11:17:49.000Z</time>
      </trkpt>
      <trkpt lat="47.26876" lon="-2.34676">
        <ele>-12</ele>
        <time>2020-01-16T11:17:57.000Z</time>
      </trkpt>
      <trkpt lat="47.26869" lon="-2.34683">
        <ele>-12</ele>
        <time>2020-01-16T11:18:00.000Z</time>
      </trkpt>
      <trkpt lat="47.26859" lon="-2.34693">
        <ele>-12</ele>
        <time>2020-01-16T11:18:03.000Z</time>
      </trkpt>
      <trkpt lat="47.26847" lon="-2.34705">
        <ele>-12</ele>
        <time>2020-01-16T11:18:06.000Z</time>
      </trkpt>
      <trkpt lat="47.26843" lon="-2.3471">
        <ele>-12.39999961853</ele>
        <time>2020-01-16T11:18:07.000Z</time>
      </trkpt>
      <trkpt lat="47.26839" lon="-2.34714">
        <ele>-12.800000190735</ele>
        <time>2020-01-16T11:18:08.000Z</time>
      </trkpt>
      <trkpt lat="47.26836" lon="-2.34718">
        <ele>-13.199999809265</ele>
        <time>2020-01-16T11:18:09.000Z</time>
      </trkpt>
      <trkpt lat="47.26833" lon="-2.34721">
        <ele>-13.60000038147</ele>
        <time>2020-01-16T11:18:10.000Z</time>
      </trkpt>
      <trkpt lat="47.2683" lon="-2.34725">
        <ele>-14</ele>
        <time>2020-01-16T11:18:11.000Z</time>
      </trkpt>
      <trkpt lat="47.26825" lon="-2.34731">
        <ele>-14</ele>
        <time>2020-01-16T11:18:13.000Z</time>
      </trkpt>
      <trkpt lat="47.26816" lon="-2.34734">
        <ele>-14.39999961853</ele>
        <time>2020-01-16T11:18:17.000Z</time>
      </trkpt>
      <trkpt lat="47.26813" lon="-2.34729">
        <ele>-14.800000190735</ele>
        <time>2020-01-16T11:18:18.000Z</time>
      </trkpt>
      <trkpt lat="47.2681" lon="-2.34724">
        <ele>-15.39999961853</ele>
        <time>2020-01-16T11:18:19.000Z</time>
      </trkpt>
      <trkpt lat="47.26807" lon="-2.34719">
        <ele>-16.200000762939</ele>
        <time>2020-01-16T11:18:20.000Z</time>
      </trkpt>
      <trkpt lat="47.26803" lon="-2.34715">
        <ele>-15.60000038147</ele>
        <time>2020-01-16T11:18:21.000Z</time>
      </trkpt>
      <trkpt lat="47.268" lon="-2.34711">
        <ele>-15.199999809265</ele>
        <time>2020-01-16T11:18:22.000Z</time>
      </trkpt>
      <trkpt lat="47.26797" lon="-2.34707">
        <ele>-14.60000038147</ele>
        <time>2020-01-16T11:18:23.000Z</time>
      </trkpt>
      <trkpt lat="47.26794" lon="-2.34703">
        <ele>-14.199999809265</ele>
        <time>2020-01-16T11:18:24.000Z</time>
      </trkpt>
      <trkpt lat="47.26791" lon="-2.34698">
        <ele>-13.60000038147</ele>
        <time>2020-01-16T11:18:25.000Z</time>
      </trkpt>
      <trkpt lat="47.26787" lon="-2.34695">
        <ele>-13.60000038147</ele>
        <time>2020-01-16T11:18:26.000Z</time>
      </trkpt>
      <trkpt lat="47.26778" lon="-2.34683">
        <ele>-13.60000038147</ele>
        <time>2020-01-16T11:18:29.000Z</time>
      </trkpt>
      <trkpt lat="47.26767" lon="-2.3467">
        <ele>-13.60000038147</ele>
        <time>2020-01-16T11:18:32.000Z</time>
      </trkpt>
      <trkpt lat="47.2674" lon="-2.34638">
        <ele>-13.60000038147</ele>
        <time>2020-01-16T11:18:39.000Z</time>
      </trkpt>
      <trkpt lat="47.26722" lon="-2.34615">
        <ele>-13.60000038147</ele>
        <time>2020-01-16T11:18:44.000Z</time>
      </trkpt>
      <trkpt lat="47.26715" lon="-2.34606">
        <ele>-13.60000038147</ele>
        <time>2020-01-16T11:18:46.000Z</time>
      </trkpt>
      <trkpt lat="47.26696" lon="-2.3458">
        <ele>-13.60000038147</ele>
        <time>2020-01-16T11:18:51.000Z</time>
      </trkpt>
      <trkpt lat="47.26689" lon="-2.3457">
        <ele>-13.60000038147</ele>
        <time>2020-01-16T11:18:53.000Z</time>
      </trkpt>
      <trkpt lat="47.26668" lon="-2.34539">
        <ele>-13.60000038147</ele>
        <time>2020-01-16T11:18:59.000Z</time>
      </trkpt>
      <trkpt lat="47.26652" lon="-2.34513">
        <ele>-13.60000038147</ele>
        <time>2020-01-16T11:19:04.000Z</time>
      </trkpt>
      <trkpt lat="47.26629" lon="-2.34476">
        <ele>-13.60000038147</ele>
        <time>2020-01-16T11:19:11.000Z</time>
      </trkpt>
      <trkpt lat="47.26609" lon="-2.34445">
        <ele>-13.60000038147</ele>
        <time>2020-01-16T11:19:17.000Z</time>
      </trkpt>
      <trkpt lat="47.26599" lon="-2.3443">
        <ele>-13.60000038147</ele>
        <time>2020-01-16T11:19:20.000Z</time>
      </trkpt>
      <trkpt lat="47.26588" lon="-2.34416">
        <ele>-13.60000038147</ele>
        <time>2020-01-16T11:19:23.000Z</time>
      </trkpt>
      <trkpt lat="47.26582" lon="-2.34405">
        <ele>-14.199999809265</ele>
        <time>2020-01-16T11:19:25.000Z</time>
      </trkpt>
      <trkpt lat="47.2658" lon="-2.34397">
        <ele>-14.60000038147</ele>
        <time>2020-01-16T11:19:26.000Z</time>
      </trkpt>
      <trkpt lat="47.26578" lon="-2.34391">
        <ele>-15</ele>
        <time>2020-01-16T11:19:27.000Z</time>
      </trkpt>
      <trkpt lat="47.26576" lon="-2.34384">
        <ele>-15.39999961853</ele>
        <time>2020-01-16T11:19:28.000Z</time>
      </trkpt>
      <trkpt lat="47.26574" lon="-2.34378">
        <ele>-16</ele>
        <time>2020-01-16T11:19:29.000Z</time>
      </trkpt>
      <trkpt lat="47.26569" lon="-2.34357">
        <ele>-16</ele>
        <time>2020-01-16T11:19:32.000Z</time>
      </trkpt>
      <trkpt lat="47.26561" lon="-2.34348">
        <ele>-16</ele>
        <time>2020-01-16T11:19:34.000Z</time>
      </trkpt>
      <trkpt lat="47.26557" lon="-2.34346">
        <ele>-15.60000038147</ele>
        <time>2020-01-16T11:19:35.000Z</time>
      </trkpt>
      <trkpt lat="47.26551" lon="-2.34345">
        <ele>-15.199999809265</ele>
        <time>2020-01-16T11:19:36.000Z</time>
      </trkpt>
      <trkpt lat="47.26546" lon="-2.34347">
        <ele>-14.800000190735</ele>
        <time>2020-01-16T11:19:37.000Z</time>
      </trkpt>
      <trkpt lat="47.26542" lon="-2.34349">
        <ele>-14.39999961853</ele>
        <time>2020-01-16T11:19:38.000Z</time>
      </trkpt>
      <trkpt lat="47.26538" lon="-2.3435">
        <ele>-14</ele>
        <time>2020-01-16T11:19:39.000Z</time>
      </trkpt>
      <trkpt lat="47.2653" lon="-2.34345">
        <ele>-14</ele>
        <time>2020-01-16T11:19:41.000Z</time>
      </trkpt>
      <trkpt lat="47.26525" lon="-2.34339">
        <ele>-14</ele>
        <time>2020-01-16T11:19:43.000Z</time>
      </trkpt>
      <trkpt lat="47.26519" lon="-2.34338">
        <ele>-14</ele>
        <time>2020-01-16T11:19:45.000Z</time>
      </trkpt>
      <trkpt lat="47.26514" lon="-2.34338">
        <ele>-14.39999961853</ele>
        <time>2020-01-16T11:19:47.000Z</time>
      </trkpt>
      <trkpt lat="47.26512" lon="-2.34338">
        <ele>-15</ele>
        <time>2020-01-16T11:19:48.000Z</time>
      </trkpt>
      <trkpt lat="47.26509" lon="-2.34336">
        <ele>-15.39999961853</ele>
        <time>2020-01-16T11:19:49.000Z</time>
      </trkpt>
      <trkpt lat="47.26505" lon="-2.34334">
        <ele>-16</ele>
        <time>2020-01-16T11:19:50.000Z</time>
      </trkpt>
      <trkpt lat="47.26502" lon="-2.34333">
        <ele>-16.39999961853</ele>
        <time>2020-01-16T11:19:51.000Z</time>
      </trkpt>
      <trkpt lat="47.26491" lon="-2.3433">
        <ele>-16.39999961853</ele>
        <time>2020-01-16T11:19:54.000Z</time>
      </trkpt>
      <trkpt lat="47.26463" lon="-2.34319">
        <ele>-16.39999961853</ele>
        <time>2020-01-16T11:20:00.000Z</time>
      </trkpt>
      <trkpt lat="47.26423" lon="-2.34305">
        <ele>-16.39999961853</ele>
        <time>2020-01-16T11:20:08.000Z</time>
      </trkpt>
      <trkpt lat="47.26385" lon="-2.3429">
        <ele>-16.39999961853</ele>
        <time>2020-01-16T11:20:16.000Z</time>
      </trkpt>
      <trkpt lat="47.26359" lon="-2.34282">
        <ele>-16.39999961853</ele>
        <time>2020-01-16T11:20:22.000Z</time>
      </trkpt>
      <trkpt lat="47.2635" lon="-2.34279">
        <ele>-16</ele>
        <time>2020-01-16T11:20:24.000Z</time>
      </trkpt>
      <trkpt lat="47.26345" lon="-2.34277">
        <ele>-15.60000038147</ele>
        <time>2020-01-16T11:20:25.000Z</time>
      </trkpt>
      <trkpt lat="47.26341" lon="-2.34275">
        <ele>-15.199999809265</ele>
        <time>2020-01-16T11:20:26.000Z</time>
      </trkpt>
      <trkpt lat="47.26336" lon="-2.34273">
        <ele>-14.800000190735</ele>
        <time>2020-01-16T11:20:27.000Z</time>
      </trkpt>
      <trkpt lat="47.26331" lon="-2.34271">
        <ele>-14.39999961853</ele>
        <time>2020-01-16T11:20:28.000Z</time>
      </trkpt>
      <trkpt lat="47.26327" lon="-2.34269">
        <ele>-14.39999961853</ele>
        <time>2020-01-16T11:20:29.000Z</time>
      </trkpt>
      <trkpt lat="47.26298" lon="-2.34255">
        <ele>-13.800000190735</ele>
        <time>2020-01-16T11:20:35.000Z</time>
      </trkpt>
      <trkpt lat="47.26294" lon="-2.34252">
        <ele>-13.199999809265</ele>
        <time>2020-01-16T11:20:36.000Z</time>
      </trkpt>
      <trkpt lat="47.26289" lon="-2.34249">
        <ele>-12.60000038147</ele>
        <time>2020-01-16T11:20:37.000Z</time>
      </trkpt>
      <trkpt lat="47.26284" lon="-2.34246">
        <ele>-12.199999809265</ele>
        <time>2020-01-16T11:20:38.000Z</time>
      </trkpt>
      <trkpt lat="47.26279" lon="-2.34243">
        <ele>-11.60000038147</ele>
        <time>2020-01-16T11:20:39.000Z</time>
      </trkpt>
      <trkpt lat="47.26267" lon="-2.34232">
        <ele>-11.60000038147</ele>
        <time>2020-01-16T11:20:42.000Z</time>
      </trkpt>
      <trkpt lat="47.26241" lon="-2.34211">
        <ele>-11.60000038147</ele>
        <time>2020-01-16T11:20:48.000Z</time>
      </trkpt>
      <trkpt lat="47.2621" lon="-2.34187">
        <ele>-11.60000038147</ele>
        <time>2020-01-16T11:20:55.000Z</time>
      </trkpt>
      <trkpt lat="47.26206" lon="-2.34184">
        <ele>-12</ele>
        <time>2020-01-16T11:20:56.000Z</time>
      </trkpt>
      <trkpt lat="47.26202" lon="-2.34181">
        <ele>-12.39999961853</ele>
        <time>2020-01-16T11:20:57.000Z</time>
      </trkpt>
      <trkpt lat="47.26197" lon="-2.34178">
        <ele>-12.800000190735</ele>
        <time>2020-01-16T11:20:58.000Z</time>
      </trkpt>
      <trkpt lat="47.26193" lon="-2.34174">
        <ele>-13.199999809265</ele>
        <time>2020-01-16T11:20:59.000Z</time>
      </trkpt>
      <trkpt lat="47.26188" lon="-2.3417">
        <ele>-13.60000038147</ele>
        <time>2020-01-16T11:21:00.000Z</time>
      </trkpt>
      <trkpt lat="47.26175" lon="-2.34158">
        <ele>-13.60000038147</ele>
        <time>2020-01-16T11:21:03.000Z</time>
      </trkpt>
      <trkpt lat="47.26156" lon="-2.34139">
        <ele>-14</ele>
        <time>2020-01-16T11:21:07.000Z</time>
      </trkpt>
      <trkpt lat="47.26152" lon="-2.34134">
        <ele>-14.60000038147</ele>
        <time>2020-01-16T11:21:08.000Z</time>
      </trkpt>
      <trkpt lat="47.26148" lon="-2.34128">
        <ele>-15</ele>
        <time>2020-01-16T11:21:09.000Z</time>
      </trkpt>
      <trkpt lat="47.26144" lon="-2.34122">
        <ele>-15.39999961853</ele>
        <time>2020-01-16T11:21:10.000Z</time>
      </trkpt>
      <trkpt lat="47.26141" lon="-2.34116">
        <ele>-15.800000190735</ele>
        <time>2020-01-16T11:21:11.000Z</time>
      </trkpt>
      <trkpt lat="47.2613" lon="-2.34098">
        <ele>-15.800000190735</ele>
        <time>2020-01-16T11:21:14.000Z</time>
      </trkpt>
      <trkpt lat="47.26124" lon="-2.34085">
        <ele>-15.800000190735</ele>
        <time>2020-01-16T11:21:16.000Z</time>
      </trkpt>
      <trkpt lat="47.26103" lon="-2.34038">
        <ele>-15.800000190735</ele>
        <time>2020-01-16T11:21:23.000Z</time>
      </trkpt>
      <trkpt lat="47.26083" lon="-2.33999">
        <ele>-15.800000190735</ele>
        <time>2020-01-16T11:21:29.000Z</time>
      </trkpt>
      <trkpt lat="47.26076" lon="-2.33987">
        <ele>-15.800000190735</ele>
        <time>2020-01-16T11:21:31.000Z</time>
      </trkpt>
      <trkpt lat="47.26067" lon="-2.33969">
        <ele>-16.200000762939</ele>
        <time>2020-01-16T11:21:34.000Z</time>
      </trkpt>
      <trkpt lat="47.26064" lon="-2.33963">
        <ele>-16.60000038147</ele>
        <time>2020-01-16T11:21:35.000Z</time>
      </trkpt>
      <trkpt lat="47.26062" lon="-2.33957">
        <ele>-17.200000762939</ele>
        <time>2020-01-16T11:21:36.000Z</time>
      </trkpt>
      <trkpt lat="47.2606" lon="-2.33951">
        <ele>-17.60000038147</ele>
        <time>2020-01-16T11:21:37.000Z</time>
      </trkpt>
      <trkpt lat="47.26058" lon="-2.33946">
        <ele>-18</ele>
        <time>2020-01-16T11:21:38.000Z</time>
      </trkpt>
      <trkpt lat="47.26051" lon="-2.33931">
        <ele>-18</ele>
        <time>2020-01-16T11:21:42.000Z</time>
      </trkpt>
      <trkpt lat="47.26048" lon="-2.33927">
        <ele>-18.39999961853</ele>
        <time>2020-01-16T11:21:43.000Z</time>
      </trkpt>
      <trkpt lat="47.26046" lon="-2.33922">
        <ele>-18.799999237061</ele>
        <time>2020-01-16T11:21:44.000Z</time>
      </trkpt>
      <trkpt lat="47.26043" lon="-2.33919">
        <ele>-19.200000762939</ele>
        <time>2020-01-16T11:21:45.000Z</time>
      </trkpt>
      <trkpt lat="47.2604" lon="-2.33917">
        <ele>-19.60000038147</ele>
        <time>2020-01-16T11:21:46.000Z</time>
      </trkpt>
      <trkpt lat="47.26037" lon="-2.33916">
        <ele>-20</ele>
        <time>2020-01-16T11:21:47.000Z</time>
      </trkpt>
      <trkpt lat="47.26023" lon="-2.33907">
        <ele>-20</ele>
        <time>2020-01-16T11:21:51.000Z</time>
      </trkpt>
      <trkpt lat="47.2602" lon="-2.33903">
        <ele>-20</ele>
        <time>2020-01-16T11:21:52.000Z</time>
      </trkpt>
      <trkpt lat="47.26013" lon="-2.33883">
        <ele>-20</ele>
        <time>2020-01-16T11:21:55.000Z</time>
      </trkpt>
      <trkpt lat="47.26012" lon="-2.33876">
        <ele>-20</ele>
        <time>2020-01-16T11:21:56.000Z</time>
      </trkpt>
      <trkpt lat="47.26012" lon="-2.33855">
        <ele>-20</ele>
        <time>2020-01-16T11:21:59.000Z</time>
      </trkpt>
      <trkpt lat="47.26017" lon="-2.33833">
        <ele>-20</ele>
        <time>2020-01-16T11:22:03.000Z</time>
      </trkpt>
      <trkpt lat="47.26011" lon="-2.33818">
        <ele>-20</ele>
        <time>2020-01-16T11:22:06.000Z</time>
      </trkpt>
      <trkpt lat="47.26008" lon="-2.33814">
        <ele>-20</ele>
        <time>2020-01-16T11:22:07.000Z</time>
      </trkpt>
      <trkpt lat="47.26003" lon="-2.33804">
        <ele>-20</ele>
        <time>2020-01-16T11:22:09.000Z</time>
      </trkpt>
      <trkpt lat="47.26004" lon="-2.33799">
        <ele>-20</ele>
        <time>2020-01-16T11:22:10.000Z</time>
      </trkpt>
      <trkpt lat="47.2601" lon="-2.3378">
        <ele>-20</ele>
        <time>2020-01-16T11:22:13.000Z</time>
      </trkpt>
      <trkpt lat="47.26012" lon="-2.33773">
        <ele>-20</ele>
        <time>2020-01-16T11:22:14.000Z</time>
      </trkpt>
      <trkpt lat="47.2602" lon="-2.33751">
        <ele>-20</ele>
        <time>2020-01-16T11:22:17.000Z</time>
      </trkpt>
      <trkpt lat="47.26025" lon="-2.33738">
        <ele>-19.60000038147</ele>
        <time>2020-01-16T11:22:19.000Z</time>
      </trkpt>
      <trkpt lat="47.26027" lon="-2.33731">
        <ele>-19.200000762939</ele>
        <time>2020-01-16T11:22:20.000Z</time>
      </trkpt>
      <trkpt lat="47.26029" lon="-2.33725">
        <ele>-18.799999237061</ele>
        <time>2020-01-16T11:22:21.000Z</time>
      </trkpt>
      <trkpt lat="47.26032" lon="-2.33719">
        <ele>-18.200000762939</ele>
        <time>2020-01-16T11:22:22.000Z</time>
      </trkpt>
      <trkpt lat="47.26034" lon="-2.33713">
        <ele>-17.799999237061</ele>
        <time>2020-01-16T11:22:23.000Z</time>
      </trkpt>
      <trkpt lat="47.2604" lon="-2.33701">
        <ele>-17.799999237061</ele>
        <time>2020-01-16T11:22:25.000Z</time>
      </trkpt>
      <trkpt lat="47.26044" lon="-2.33689">
        <ele>-17.799999237061</ele>
        <time>2020-01-16T11:22:27.000Z</time>
      </trkpt>
      <trkpt lat="47.26055" lon="-2.33656">
        <ele>-17.799999237061</ele>
        <time>2020-01-16T11:22:32.000Z</time>
      </trkpt>
      <trkpt lat="47.26069" lon="-2.33613">
        <ele>-17.799999237061</ele>
        <time>2020-01-16T11:22:38.000Z</time>
      </trkpt>
      <trkpt lat="47.26071" lon="-2.33606">
        <ele>-18.200000762939</ele>
        <time>2020-01-16T11:22:39.000Z</time>
      </trkpt>
      <trkpt lat="47.26074" lon="-2.33599">
        <ele>-18.60000038147</ele>
        <time>2020-01-16T11:22:40.000Z</time>
      </trkpt>
      <trkpt lat="47.26076" lon="-2.33592">
        <ele>-19</ele>
        <time>2020-01-16T11:22:41.000Z</time>
      </trkpt>
      <trkpt lat="47.26079" lon="-2.33586">
        <ele>-19.39999961853</ele>
        <time>2020-01-16T11:22:42.000Z</time>
      </trkpt>
      <trkpt lat="47.26081" lon="-2.33579">
        <ele>-19.799999237061</ele>
        <time>2020-01-16T11:22:43.000Z</time>
      </trkpt>
      <trkpt lat="47.26089" lon="-2.33557">
        <ele>-19.799999237061</ele>
        <time>2020-01-16T11:22:46.000Z</time>
      </trkpt>
      <trkpt lat="47.26108" lon="-2.33508">
        <ele>-19.799999237061</ele>
        <time>2020-01-16T11:22:53.000Z</time>
      </trkpt>
      <trkpt lat="47.26123" lon="-2.33466">
        <ele>-19.799999237061</ele>
        <time>2020-01-16T11:23:00.000Z</time>
      </trkpt>
      <trkpt lat="47.26136" lon="-2.33434">
        <ele>-19.799999237061</ele>
        <time>2020-01-16T11:23:06.000Z</time>
      </trkpt>
      <trkpt lat="47.26138" lon="-2.33428">
        <ele>-19.799999237061</ele>
        <time>2020-01-16T11:23:07.000Z</time>
      </trkpt>
      <trkpt lat="47.26136" lon="-2.33418">
        <ele>-19.799999237061</ele>
        <time>2020-01-16T11:23:09.000Z</time>
      </trkpt>
      <trkpt lat="47.2612" lon="-2.33409">
        <ele>-19.799999237061</ele>
        <time>2020-01-16T11:23:13.000Z</time>
      </trkpt>
      <trkpt lat="47.26112" lon="-2.33401">
        <ele>-19.799999237061</ele>
        <time>2020-01-16T11:23:15.000Z</time>
      </trkpt>
      <trkpt lat="47.26108" lon="-2.33396">
        <ele>-19.799999237061</ele>
        <time>2020-01-16T11:23:16.000Z</time>
      </trkpt>
      <trkpt lat="47.261" lon="-2.33386">
        <ele>-19.799999237061</ele>
        <time>2020-01-16T11:23:18.000Z</time>
      </trkpt>
      <trkpt lat="47.26096" lon="-2.33381">
        <ele>-19.799999237061</ele>
        <time>2020-01-16T11:23:19.000Z</time>
      </trkpt>
      <trkpt lat="47.26083" lon="-2.3337">
        <ele>-19.799999237061</ele>
        <time>2020-01-16T11:23:22.000Z</time>
      </trkpt>
      <trkpt lat="47.26075" lon="-2.3335">
        <ele>-19.799999237061</ele>
        <time>2020-01-16T11:23:25.000Z</time>
      </trkpt>
      <trkpt lat="47.26073" lon="-2.33343">
        <ele>-19.799999237061</ele>
        <time>2020-01-16T11:23:26.000Z</time>
      </trkpt>
      <trkpt lat="47.26066" lon="-2.33322">
        <ele>-19.799999237061</ele>
        <time>2020-01-16T11:23:29.000Z</time>
      </trkpt>
      <trkpt lat="47.26058" lon="-2.33301">
        <ele>-19.799999237061</ele>
        <time>2020-01-16T11:23:32.000Z</time>
      </trkpt>
      <trkpt lat="47.2604" lon="-2.33252">
        <ele>-19.799999237061</ele>
        <time>2020-01-16T11:23:39.000Z</time>
      </trkpt>
      <trkpt lat="47.2602" lon="-2.33195">
        <ele>-19.799999237061</ele>
        <time>2020-01-16T11:23:47.000Z</time>
      </trkpt>
      <trkpt lat="47.26" lon="-2.33138">
        <ele>-19.799999237061</ele>
        <time>2020-01-16T11:23:55.000Z</time>
      </trkpt>
      <trkpt lat="47.25993" lon="-2.33117">
        <ele>-19.799999237061</ele>
        <time>2020-01-16T11:23:58.000Z</time>
      </trkpt>
      <trkpt lat="47.25988" lon="-2.33105">
        <ele>-19.799999237061</ele>
        <time>2020-01-16T11:24:00.000Z</time>
      </trkpt>
      <trkpt lat="47.25985" lon="-2.33092">
        <ele>-19.799999237061</ele>
        <time>2020-01-16T11:24:02.000Z</time>
      </trkpt>
      <trkpt lat="47.25978" lon="-2.3307">
        <ele>-19.799999237061</ele>
        <time>2020-01-16T11:24:05.000Z</time>
      </trkpt>
      <trkpt lat="47.25972" lon="-2.33054">
        <ele>-19.39999961853</ele>
        <time>2020-01-16T11:24:07.000Z</time>
      </trkpt>
      <trkpt lat="47.2597" lon="-2.33046">
        <ele>-19</ele>
        <time>2020-01-16T11:24:08.000Z</time>
      </trkpt>
      <trkpt lat="47.25967" lon="-2.33039">
        <ele>-18.60000038147</ele>
        <time>2020-01-16T11:24:09.000Z</time>
      </trkpt>
      <trkpt lat="47.25964" lon="-2.33031">
        <ele>-18.200000762939</ele>
        <time>2020-01-16T11:24:10.000Z</time>
      </trkpt>
      <trkpt lat="47.25962" lon="-2.33024">
        <ele>-17.799999237061</ele>
        <time>2020-01-16T11:24:11.000Z</time>
      </trkpt>
      <trkpt lat="47.25956" lon="-2.3301">
        <ele>-17.799999237061</ele>
        <time>2020-01-16T11:24:13.000Z</time>
      </trkpt>
      <trkpt lat="47.25941" lon="-2.32965">
        <ele>-17.799999237061</ele>
        <time>2020-01-16T11:24:19.000Z</time>
      </trkpt>
      <trkpt lat="47.25921" lon="-2.32914">
        <ele>-17.799999237061</ele>
        <time>2020-01-16T11:24:26.000Z</time>
      </trkpt>
      <trkpt lat="47.25902" lon="-2.32864">
        <ele>-17.799999237061</ele>
        <time>2020-01-16T11:24:33.000Z</time>
      </trkpt>
      <trkpt lat="47.25888" lon="-2.32821">
        <ele>-17.799999237061</ele>
        <time>2020-01-16T11:24:39.000Z</time>
      </trkpt>
      <trkpt lat="47.25868" lon="-2.3276">
        <ele>-17.799999237061</ele>
        <time>2020-01-16T11:24:47.000Z</time>
      </trkpt>
      <trkpt lat="47.25855" lon="-2.32715">
        <ele>-17.799999237061</ele>
        <time>2020-01-16T11:24:53.000Z</time>
      </trkpt>
      <trkpt lat="47.25844" lon="-2.3267">
        <ele>-17.799999237061</ele>
        <time>2020-01-16T11:24:59.000Z</time>
      </trkpt>
      <trkpt lat="47.25838" lon="-2.32649">
        <ele>-17.799999237061</ele>
        <time>2020-01-16T11:25:02.000Z</time>
      </trkpt>
      <trkpt lat="47.25833" lon="-2.32629">
        <ele>-17.799999237061</ele>
        <time>2020-01-16T11:25:05.000Z</time>
      </trkpt>
      <trkpt lat="47.25825" lon="-2.32597">
        <ele>-18.200000762939</ele>
        <time>2020-01-16T11:25:10.000Z</time>
      </trkpt>
      <trkpt lat="47.25824" lon="-2.32591">
        <ele>-18.60000038147</ele>
        <time>2020-01-16T11:25:11.000Z</time>
      </trkpt>
      <trkpt lat="47.25823" lon="-2.32585">
        <ele>-19</ele>
        <time>2020-01-16T11:25:12.000Z</time>
      </trkpt>
      <trkpt lat="47.25821" lon="-2.32579">
        <ele>-19.39999961853</ele>
        <time>2020-01-16T11:25:13.000Z</time>
      </trkpt>
      <trkpt lat="47.25819" lon="-2.32573">
        <ele>-19.799999237061</ele>
        <time>2020-01-16T11:25:14.000Z</time>
      </trkpt>
      <trkpt lat="47.25811" lon="-2.32531">
        <ele>-19.799999237061</ele>
        <time>2020-01-16T11:25:20.000Z</time>
      </trkpt>
      <trkpt lat="47.25801" lon="-2.32492">
        <ele>-19.799999237061</ele>
        <time>2020-01-16T11:25:26.000Z</time>
      </trkpt>
      <trkpt lat="47.258" lon="-2.32486">
        <ele>-19.799999237061</ele>
        <time>2020-01-16T11:25:27.000Z</time>
      </trkpt>
      <trkpt lat="47.25798" lon="-2.32477">
        <ele>-19.799999237061</ele>
        <time>2020-01-16T11:25:29.000Z</time>
      </trkpt>
      <trkpt lat="47.258" lon="-2.32468">
        <ele>-19.799999237061</ele>
        <time>2020-01-16T11:25:31.000Z</time>
      </trkpt>
      <trkpt lat="47.25807" lon="-2.32461">
        <ele>-19.799999237061</ele>
        <time>2020-01-16T11:25:33.000Z</time>
      </trkpt>
      <trkpt lat="47.25814" lon="-2.32458">
        <ele>-19.799999237061</ele>
        <time>2020-01-16T11:25:35.000Z</time>
      </trkpt>
      <trkpt lat="47.25833" lon="-2.32467">
        <ele>-19.799999237061</ele>
        <time>2020-01-16T11:25:39.000Z</time>
      </trkpt>
      <trkpt lat="47.25854" lon="-2.32471">
        <ele>-19.799999237061</ele>
        <time>2020-01-16T11:25:43.000Z</time>
      </trkpt>
      <trkpt lat="47.2586" lon="-2.3247">
        <ele>-19.799999237061</ele>
        <time>2020-01-16T11:25:44.000Z</time>
      </trkpt>
      <trkpt lat="47.25881" lon="-2.32466">
        <ele>-19.799999237061</ele>
        <time>2020-01-16T11:25:48.000Z</time>
      </trkpt>
      <trkpt lat="47.2589" lon="-2.32461">
        <ele>-19.799999237061</ele>
        <time>2020-01-16T11:25:50.000Z</time>
      </trkpt>
      <trkpt lat="47.25904" lon="-2.32448">
        <ele>-19.799999237061</ele>
        <time>2020-01-16T11:25:53.000Z</time>
      </trkpt>
      <trkpt lat="47.25913" lon="-2.32439">
        <ele>-19.799999237061</ele>
        <time>2020-01-16T11:25:55.000Z</time>
      </trkpt>
      <trkpt lat="47.25944" lon="-2.324">
        <ele>-19.799999237061</ele>
        <time>2020-01-16T11:26:02.000Z</time>
      </trkpt>
      <trkpt lat="47.25972" lon="-2.32364">
        <ele>-19.799999237061</ele>
        <time>2020-01-16T11:26:09.000Z</time>
      </trkpt>
      <trkpt lat="47.26001" lon="-2.32329">
        <ele>-19.799999237061</ele>
        <time>2020-01-16T11:26:16.000Z</time>
      </trkpt>
      <trkpt lat="47.26028" lon="-2.32295">
        <ele>-19.799999237061</ele>
        <time>2020-01-16T11:26:23.000Z</time>
      </trkpt>
      <trkpt lat="47.26032" lon="-2.3229">
        <ele>-20.200000762939</ele>
        <time>2020-01-16T11:26:24.000Z</time>
      </trkpt>
      <trkpt lat="47.26036" lon="-2.32285">
        <ele>-20.60000038147</ele>
        <time>2020-01-16T11:26:25.000Z</time>
      </trkpt>
      <trkpt lat="47.2604" lon="-2.3228">
        <ele>-21</ele>
        <time>2020-01-16T11:26:26.000Z</time>
      </trkpt>
      <trkpt lat="47.26045" lon="-2.32275">
        <ele>-21.39999961853</ele>
        <time>2020-01-16T11:26:27.000Z</time>
      </trkpt>
      <trkpt lat="47.26049" lon="-2.32271">
        <ele>-21.799999237061</ele>
        <time>2020-01-16T11:26:28.000Z</time>
      </trkpt>
      <trkpt lat="47.26061" lon="-2.32256">
        <ele>-21.799999237061</ele>
        <time>2020-01-16T11:26:31.000Z</time>
      </trkpt>
      <trkpt lat="47.26071" lon="-2.32244">
        <ele>-21.799999237061</ele>
        <time>2020-01-16T11:26:35.000Z</time>
      </trkpt>
      <trkpt lat="47.2608" lon="-2.32235">
        <ele>-21.799999237061</ele>
        <time>2020-01-16T11:26:41.000Z</time>
      </trkpt>
      <trkpt lat="47.2609" lon="-2.3222">
        <ele>-21.799999237061</ele>
        <time>2020-01-16T11:26:46.000Z</time>
      </trkpt>
      <trkpt lat="47.26097" lon="-2.32207">
        <ele>-21.799999237061</ele>
        <time>2020-01-16T11:26:49.000Z</time>
      </trkpt>
      <trkpt lat="47.26102" lon="-2.32197">
        <ele>-21.799999237061</ele>
        <time>2020-01-16T11:26:51.000Z</time>
      </trkpt>
      <trkpt lat="47.26106" lon="-2.32187">
        <ele>-21.799999237061</ele>
        <time>2020-01-16T11:26:53.000Z</time>
      </trkpt>
      <trkpt lat="47.26114" lon="-2.32171">
        <ele>-21.799999237061</ele>
        <time>2020-01-16T11:26:56.000Z</time>
      </trkpt>
      <trkpt lat="47.26118" lon="-2.3216">
        <ele>-21.799999237061</ele>
        <time>2020-01-16T11:26:58.000Z</time>
      </trkpt>
      <trkpt lat="47.26127" lon="-2.32139">
        <ele>-21.799999237061</ele>
        <time>2020-01-16T11:27:02.000Z</time>
      </trkpt>
      <trkpt lat="47.2614" lon="-2.32092">
        <ele>-21.799999237061</ele>
        <time>2020-01-16T11:27:10.000Z</time>
      </trkpt>
      <trkpt lat="47.26153" lon="-2.32052">
        <ele>-21.799999237061</ele>
        <time>2020-01-16T11:27:17.000Z</time>
      </trkpt>
      <trkpt lat="47.26156" lon="-2.32038">
        <ele>-21.799999237061</ele>
        <time>2020-01-16T11:27:19.000Z</time>
      </trkpt>
      <trkpt lat="47.26158" lon="-2.32025">
        <ele>-21.799999237061</ele>
        <time>2020-01-16T11:27:21.000Z</time>
      </trkpt>
      <trkpt lat="47.2616" lon="-2.32011">
        <ele>-21.799999237061</ele>
        <time>2020-01-16T11:27:23.000Z</time>
      </trkpt>
      <trkpt lat="47.26161" lon="-2.3199">
        <ele>-21.799999237061</ele>
        <time>2020-01-16T11:27:26.000Z</time>
      </trkpt>
      <trkpt lat="47.2616" lon="-2.31978">
        <ele>-21.799999237061</ele>
        <time>2020-01-16T11:27:28.000Z</time>
      </trkpt>
      <trkpt lat="47.26153" lon="-2.31936">
        <ele>-21.799999237061</ele>
        <time>2020-01-16T11:27:34.000Z</time>
      </trkpt>
      <trkpt lat="47.26149" lon="-2.31915">
        <ele>-21.799999237061</ele>
        <time>2020-01-16T11:27:37.000Z</time>
      </trkpt>
      <trkpt lat="47.26146" lon="-2.31888">
        <ele>-21.799999237061</ele>
        <time>2020-01-16T11:27:41.000Z</time>
      </trkpt>
      <trkpt lat="47.26143" lon="-2.31862">
        <ele>-21.799999237061</ele>
        <time>2020-01-16T11:27:45.000Z</time>
      </trkpt>
      <trkpt lat="47.26142" lon="-2.31856">
        <ele>-21.799999237061</ele>
        <time>2020-01-16T11:27:46.000Z</time>
      </trkpt>
      <trkpt lat="47.26138" lon="-2.31819">
        <ele>-21.799999237061</ele>
        <time>2020-01-16T11:27:52.000Z</time>
      </trkpt>
      <trkpt lat="47.26132" lon="-2.31769">
        <ele>-21.799999237061</ele>
        <time>2020-01-16T11:28:00.000Z</time>
      </trkpt>
      <trkpt lat="47.26131" lon="-2.31756">
        <ele>-21.799999237061</ele>
        <time>2020-01-16T11:28:02.000Z</time>
      </trkpt>
      <trkpt lat="47.26129" lon="-2.31734">
        <ele>-21.799999237061</ele>
        <time>2020-01-16T11:28:06.000Z</time>
      </trkpt>
      <trkpt lat="47.26128" lon="-2.31721">
        <ele>-21.799999237061</ele>
        <time>2020-01-16T11:28:08.000Z</time>
      </trkpt>
      <trkpt lat="47.26124" lon="-2.31698">
        <ele>-21.799999237061</ele>
        <time>2020-01-16T11:28:12.000Z</time>
      </trkpt>
      <trkpt lat="47.26118" lon="-2.31655">
        <ele>-21.799999237061</ele>
        <time>2020-01-16T11:28:19.000Z</time>
      </trkpt>
      <trkpt lat="47.26116" lon="-2.31627">
        <ele>-21.799999237061</ele>
        <time>2020-01-16T11:28:24.000Z</time>
      </trkpt>
      <trkpt lat="47.2612" lon="-2.31614">
        <ele>-21.799999237061</ele>
        <time>2020-01-16T11:28:27.000Z</time>
      </trkpt>
      <trkpt lat="47.26123" lon="-2.31612">
        <ele>-21.799999237061</ele>
        <time>2020-01-16T11:28:28.000Z</time>
      </trkpt>
      <trkpt lat="47.26138" lon="-2.31612">
        <ele>-21.799999237061</ele>
        <time>2020-01-16T11:28:32.000Z</time>
      </trkpt>
      <trkpt lat="47.26151" lon="-2.31608">
        <ele>-21.799999237061</ele>
        <time>2020-01-16T11:28:35.000Z</time>
      </trkpt>
      <trkpt lat="47.26159" lon="-2.31604">
        <ele>-21.799999237061</ele>
        <time>2020-01-16T11:28:37.000Z</time>
      </trkpt>
      <trkpt lat="47.26186" lon="-2.31596">
        <ele>-21.799999237061</ele>
        <time>2020-01-16T11:28:43.000Z</time>
      </trkpt>
      <trkpt lat="47.26213" lon="-2.3159">
        <ele>-21.799999237061</ele>
        <time>2020-01-16T11:28:49.000Z</time>
      </trkpt>
      <trkpt lat="47.26217" lon="-2.31591">
        <ele>-21.799999237061</ele>
        <time>2020-01-16T11:28:50.000Z</time>
      </trkpt>
      <trkpt lat="47.26233" lon="-2.31599">
        <ele>-21.799999237061</ele>
        <time>2020-01-16T11:28:54.000Z</time>
      </trkpt>
      <trkpt lat="47.26237" lon="-2.31603">
        <ele>-21.799999237061</ele>
        <time>2020-01-16T11:28:55.000Z</time>
      </trkpt>
      <trkpt lat="47.26255" lon="-2.3163">
        <ele>-21.799999237061</ele>
        <time>2020-01-16T11:29:01.000Z</time>
      </trkpt>
      <trkpt lat="47.26268" lon="-2.31656">
        <ele>-21.799999237061</ele>
        <time>2020-01-16T11:29:06.000Z</time>
      </trkpt>
      <trkpt lat="47.2628" lon="-2.31681">
        <ele>-21.799999237061</ele>
        <time>2020-01-16T11:29:11.000Z</time>
      </trkpt>
      <trkpt lat="47.26286" lon="-2.31693">
        <ele>-21.799999237061</ele>
        <time>2020-01-16T11:29:13.000Z</time>
      </trkpt>
      <trkpt lat="47.263" lon="-2.31714">
        <ele>-21.799999237061</ele>
        <time>2020-01-16T11:29:18.000Z</time>
      </trkpt>
      <trkpt lat="47.26304" lon="-2.31714">
        <ele>-21.799999237061</ele>
        <time>2020-01-16T11:29:19.000Z</time>
      </trkpt>
      <trkpt lat="47.26318" lon="-2.31708">
        <ele>-21.799999237061</ele>
        <time>2020-01-16T11:29:23.000Z</time>
      </trkpt>
      <trkpt lat="47.26325" lon="-2.31704">
        <ele>-21.39999961853</ele>
        <time>2020-01-16T11:29:25.000Z</time>
      </trkpt>
      <trkpt lat="47.26328" lon="-2.317">
        <ele>-21</ele>
        <time>2020-01-16T11:29:26.000Z</time>
      </trkpt>
      <trkpt lat="47.26331" lon="-2.31696">
        <ele>-20.60000038147</ele>
        <time>2020-01-16T11:29:27.000Z</time>
      </trkpt>
      <trkpt lat="47.26333" lon="-2.31692">
        <ele>-19.60000038147</ele>
        <time>2020-01-16T11:29:28.000Z</time>
      </trkpt>
      <trkpt lat="47.26335" lon="-2.31689">
        <ele>-19.60000038147</ele>
        <time>2020-01-16T11:29:29.000Z</time>
      </trkpt>
      <trkpt lat="47.26341" lon="-2.31685">
        <ele>-19.60000038147</ele>
        <time>2020-01-16T11:29:31.000Z</time>
      </trkpt>
      <trkpt lat="47.26354" lon="-2.31678">
        <ele>-19.200000762939</ele>
        <time>2020-01-16T11:29:35.000Z</time>
      </trkpt>
      <trkpt lat="47.26357" lon="-2.31677">
        <ele>-18.799999237061</ele>
        <time>2020-01-16T11:29:36.000Z</time>
      </trkpt>
      <trkpt lat="47.2636" lon="-2.31676">
        <ele>-18.39999961853</ele>
        <time>2020-01-16T11:29:37.000Z</time>
      </trkpt>
      <trkpt lat="47.26363" lon="-2.31674">
        <ele>-18</ele>
        <time>2020-01-16T11:29:38.000Z</time>
      </trkpt>
      <trkpt lat="47.26367" lon="-2.31673">
        <ele>-17.60000038147</ele>
        <time>2020-01-16T11:29:39.000Z</time>
      </trkpt>
      <trkpt lat="47.2638" lon="-2.31666">
        <ele>-17.60000038147</ele>
        <time>2020-01-16T11:29:43.000Z</time>
      </trkpt>
      <trkpt lat="47.26399" lon="-2.31655">
        <ele>-17.60000038147</ele>
        <time>2020-01-16T11:29:50.000Z</time>
      </trkpt>
      <trkpt lat="47.2641" lon="-2.3164">
        <ele>-17.60000038147</ele>
        <time>2020-01-16T11:29:55.000Z</time>
      </trkpt>
      <trkpt lat="47.26409" lon="-2.31622">
        <ele>-17</ele>
        <time>2020-01-16T11:29:59.000Z</time>
      </trkpt>
      <trkpt lat="47.26409" lon="-2.31617">
        <ele>-16.60000038147</ele>
        <time>2020-01-16T11:30:00.000Z</time>
      </trkpt>
      <trkpt lat="47.26409" lon="-2.31611">
        <ele>-16.200000762939</ele>
        <time>2020-01-16T11:30:01.000Z</time>
      </trkpt>
      <trkpt lat="47.26409" lon="-2.31606">
        <ele>-15.60000038147</ele>
        <time>2020-01-16T11:30:02.000Z</time>
      </trkpt>
      <trkpt lat="47.26409" lon="-2.31602">
        <ele>-15.199999809265</ele>
        <time>2020-01-16T11:30:03.000Z</time>
      </trkpt>
      <trkpt lat="47.2641" lon="-2.31588">
        <ele>-15.199999809265</ele>
        <time>2020-01-16T11:30:06.000Z</time>
      </trkpt>
      <trkpt lat="47.2641" lon="-2.31565">
        <ele>-15.199999809265</ele>
        <time>2020-01-16T11:30:11.000Z</time>
      </trkpt>
      <trkpt lat="47.26411" lon="-2.31553">
        <ele>-15.199999809265</ele>
        <time>2020-01-16T11:30:15.000Z</time>
      </trkpt>
      <trkpt lat="47.26416" lon="-2.31553">
        <ele>-15.199999809265</ele>
        <time>2020-01-16T11:30:18.000Z</time>
      </trkpt>
      <trkpt lat="47.26417" lon="-2.31554">
        <ele>-15.199999809265</ele>
        <time>2020-01-16T11:30:20.000Z</time>
      </trkpt>
    </trkseg>
  </trk>
</gpx>